<?xml version="1.0" encoding="UTF-8" standalone="no" ?>
<gpx xmlns="http://www.topografix.com/GPX/1/1" xmlns:xsi="http://www.w3.org/2001/XMLSchema-instance" xsi:schemaLocation="http://www.topografix.com/GPX/1/1 http://www.topografix.com/GPX/1/1/gpx.xsd" version="1.1" creator="VisuGPX - https://www.visugpx.com">
  <metadata>
    <name>13-JUIN-22 15:35:09</name>
    <desc><![CDATA[Bourbach-Le-Haut, vers Buissonnet, Baeselbach, Col du Hundsruck, Place Zundel, Blaufels, descente vers Dreimarkstein, puis GR rectangle jaune jusqu'à la ferme auberge Belacker. Descente vers Rimbach, Oberbruck et retour piste cyclable jusqu'à Masevaux, montée Vorderschirm, col du Schirm et retour.]]></desc>
  </metadata>
  <trk>
    <name><![CDATA[13-JUIN-22 15:35:09]]></name>
    <trkseg>
      <trkpt lat="47.79375" lon="7.03003">
        <ele>427.92</ele>
        <time>2022-06-13T08:59:50Z</time>
      </trkpt>
      <trkpt lat="47.79374" lon="7.03004">
        <ele>427.44</ele>
        <time>2022-06-13T08:59:51Z</time>
      </trkpt>
      <trkpt lat="47.7938" lon="7.03004">
        <ele>431.29</ele>
        <time>2022-06-13T09:00:00Z</time>
      </trkpt>
      <trkpt lat="47.7938" lon="7.03005">
        <ele>435.13</ele>
        <time>2022-06-13T09:00:01Z</time>
      </trkpt>
      <trkpt lat="47.7938" lon="7.03005">
        <ele>438.5</ele>
        <time>2022-06-13T09:00:02Z</time>
      </trkpt>
      <trkpt lat="47.79381" lon="7.03006">
        <ele>441.86</ele>
        <time>2022-06-13T09:00:03Z</time>
      </trkpt>
      <trkpt lat="47.79381" lon="7.03006">
        <ele>445.71</ele>
        <time>2022-06-13T09:00:04Z</time>
      </trkpt>
      <trkpt lat="47.79381" lon="7.03006">
        <ele>449.07</ele>
        <time>2022-06-13T09:00:05Z</time>
      </trkpt>
      <trkpt lat="47.79381" lon="7.03006">
        <ele>451.96</ele>
        <time>2022-06-13T09:00:06Z</time>
      </trkpt>
      <trkpt lat="47.79382" lon="7.03006">
        <ele>454.84</ele>
        <time>2022-06-13T09:00:07Z</time>
      </trkpt>
      <trkpt lat="47.79382" lon="7.03006">
        <ele>460.61</ele>
        <time>2022-06-13T09:00:09Z</time>
      </trkpt>
      <trkpt lat="47.79382" lon="7.03006">
        <ele>465.9</ele>
        <time>2022-06-13T09:00:11Z</time>
      </trkpt>
      <trkpt lat="47.79382" lon="7.03006">
        <ele>468.3</ele>
        <time>2022-06-13T09:00:12Z</time>
      </trkpt>
      <trkpt lat="47.7938" lon="7.03014">
        <ele>475.51</ele>
        <time>2022-06-13T09:00:15Z</time>
      </trkpt>
      <trkpt lat="47.7938" lon="7.0302">
        <ele>480.8</ele>
        <time>2022-06-13T09:00:17Z</time>
      </trkpt>
      <trkpt lat="47.79383" lon="7.03023">
        <ele>484.64</ele>
        <time>2022-06-13T09:00:19Z</time>
      </trkpt>
      <trkpt lat="47.79388" lon="7.03022">
        <ele>488.97</ele>
        <time>2022-06-13T09:00:21Z</time>
      </trkpt>
      <trkpt lat="47.7939" lon="7.03021">
        <ele>490.89</ele>
        <time>2022-06-13T09:00:22Z</time>
      </trkpt>
      <trkpt lat="47.79396" lon="7.03017">
        <ele>495.7</ele>
        <time>2022-06-13T09:00:25Z</time>
      </trkpt>
      <trkpt lat="47.79397" lon="7.03017">
        <ele>500.02</ele>
        <time>2022-06-13T09:00:28Z</time>
      </trkpt>
      <trkpt lat="47.79397" lon="7.03017">
        <ele>503.87</ele>
        <time>2022-06-13T09:00:31Z</time>
      </trkpt>
      <trkpt lat="47.79399" lon="7.03017">
        <ele>506.27</ele>
        <time>2022-06-13T09:00:33Z</time>
      </trkpt>
      <trkpt lat="47.79405" lon="7.03013">
        <ele>510.6</ele>
        <time>2022-06-13T09:00:36Z</time>
      </trkpt>
      <trkpt lat="47.79407" lon="7.03012">
        <ele>512.52</ele>
        <time>2022-06-13T09:00:37Z</time>
      </trkpt>
      <trkpt lat="47.79411" lon="7.03012">
        <ele>517.33</ele>
        <time>2022-06-13T09:00:42Z</time>
      </trkpt>
      <trkpt lat="47.7941" lon="7.0301">
        <ele>521.17</ele>
        <time>2022-06-13T09:00:48Z</time>
      </trkpt>
      <trkpt lat="47.79409" lon="7.0301">
        <ele>524.54</ele>
        <time>2022-06-13T09:00:54Z</time>
      </trkpt>
      <trkpt lat="47.79409" lon="7.03011">
        <ele>527.42</ele>
        <time>2022-06-13T09:01:02Z</time>
      </trkpt>
      <trkpt lat="47.79408" lon="7.03012">
        <ele>530.79</ele>
        <time>2022-06-13T09:01:15Z</time>
      </trkpt>
      <trkpt lat="47.79412" lon="7.03014">
        <ele>532.23</ele>
        <time>2022-06-13T09:01:48Z</time>
      </trkpt>
      <trkpt lat="47.79409" lon="7.03015">
        <ele>532.23</ele>
        <time>2022-06-13T09:02:19Z</time>
      </trkpt>
      <trkpt lat="47.79408" lon="7.03016">
        <ele>532.23</ele>
        <time>2022-06-13T09:02:49Z</time>
      </trkpt>
      <trkpt lat="47.79407" lon="7.03015">
        <ele>531.75</ele>
        <time>2022-06-13T09:03:21Z</time>
      </trkpt>
      <trkpt lat="47.79409" lon="7.03014">
        <ele>531.75</ele>
        <time>2022-06-13T09:03:41Z</time>
      </trkpt>
      <trkpt lat="47.79409" lon="7.03011">
        <ele>531.75</ele>
        <time>2022-06-13T09:04:15Z</time>
      </trkpt>
      <trkpt lat="47.79412" lon="7.03014">
        <ele>531.75</ele>
        <time>2022-06-13T09:04:36Z</time>
      </trkpt>
      <trkpt lat="47.79416" lon="7.03015">
        <ele>532.23</ele>
        <time>2022-06-13T09:04:38Z</time>
      </trkpt>
      <trkpt lat="47.7942" lon="7.03025">
        <ele>532.23</ele>
        <time>2022-06-13T09:04:42Z</time>
      </trkpt>
      <trkpt lat="47.79442" lon="7.03066">
        <ele>535.59</ele>
        <time>2022-06-13T09:04:58Z</time>
      </trkpt>
      <trkpt lat="47.79463" lon="7.03103">
        <ele>538.96</ele>
        <time>2022-06-13T09:05:12Z</time>
      </trkpt>
      <trkpt lat="47.79485" lon="7.03124">
        <ele>541.36</ele>
        <time>2022-06-13T09:05:25Z</time>
      </trkpt>
      <trkpt lat="47.79499" lon="7.03092">
        <ele>543.76</ele>
        <time>2022-06-13T09:05:37Z</time>
      </trkpt>
      <trkpt lat="47.79506" lon="7.03037">
        <ele>546.65</ele>
        <time>2022-06-13T09:05:53Z</time>
      </trkpt>
      <trkpt lat="47.79516" lon="7.03">
        <ele>549.53</ele>
        <time>2022-06-13T09:06:05Z</time>
      </trkpt>
      <trkpt lat="47.7954" lon="7.02965">
        <ele>552.41</ele>
        <time>2022-06-13T09:06:20Z</time>
      </trkpt>
      <trkpt lat="47.79575" lon="7.02953">
        <ele>554.34</ele>
        <time>2022-06-13T09:06:34Z</time>
      </trkpt>
      <trkpt lat="47.79611" lon="7.02924">
        <ele>556.26</ele>
        <time>2022-06-13T09:06:49Z</time>
      </trkpt>
      <trkpt lat="47.79651" lon="7.02893">
        <ele>558.66</ele>
        <time>2022-06-13T09:07:06Z</time>
      </trkpt>
      <trkpt lat="47.7968" lon="7.02885">
        <ele>560.11</ele>
        <time>2022-06-13T09:07:17Z</time>
      </trkpt>
      <trkpt lat="47.79716" lon="7.02866">
        <ele>562.99</ele>
        <time>2022-06-13T09:07:32Z</time>
      </trkpt>
      <trkpt lat="47.79749" lon="7.02816">
        <ele>565.87</ele>
        <time>2022-06-13T09:07:49Z</time>
      </trkpt>
      <trkpt lat="47.7978" lon="7.02787">
        <ele>567.8</ele>
        <time>2022-06-13T09:08:03Z</time>
      </trkpt>
      <trkpt lat="47.79814" lon="7.02771">
        <ele>570.68</ele>
        <time>2022-06-13T09:08:17Z</time>
      </trkpt>
      <trkpt lat="47.79825" lon="7.02724">
        <ele>571.16</ele>
        <time>2022-06-13T09:08:29Z</time>
      </trkpt>
      <trkpt lat="47.79824" lon="7.02718">
        <ele>571.16</ele>
        <time>2022-06-13T09:08:30Z</time>
      </trkpt>
      <trkpt lat="47.79822" lon="7.02692">
        <ele>570.2</ele>
        <time>2022-06-13T09:08:34Z</time>
      </trkpt>
      <trkpt lat="47.79822" lon="7.02676">
        <ele>569.72</ele>
        <time>2022-06-13T09:08:36Z</time>
      </trkpt>
      <trkpt lat="47.79823" lon="7.02668">
        <ele>568.76</ele>
        <time>2022-06-13T09:08:37Z</time>
      </trkpt>
      <trkpt lat="47.79825" lon="7.02659">
        <ele>568.76</ele>
        <time>2022-06-13T09:08:38Z</time>
      </trkpt>
      <trkpt lat="47.79832" lon="7.02632">
        <ele>567.8</ele>
        <time>2022-06-13T09:08:41Z</time>
      </trkpt>
      <trkpt lat="47.79836" lon="7.02625">
        <ele>567.8</ele>
        <time>2022-06-13T09:08:42Z</time>
      </trkpt>
      <trkpt lat="47.79841" lon="7.0262">
        <ele>567.8</ele>
        <time>2022-06-13T09:08:43Z</time>
      </trkpt>
      <trkpt lat="47.79846" lon="7.02615">
        <ele>567.8</ele>
        <time>2022-06-13T09:08:44Z</time>
      </trkpt>
      <trkpt lat="47.79853" lon="7.02611">
        <ele>567.32</ele>
        <time>2022-06-13T09:08:45Z</time>
      </trkpt>
      <trkpt lat="47.79919" lon="7.02573">
        <ele>567.8</ele>
        <time>2022-06-13T09:08:59Z</time>
      </trkpt>
      <trkpt lat="47.79944" lon="7.02551">
        <ele>571.16</ele>
        <time>2022-06-13T09:09:10Z</time>
      </trkpt>
      <trkpt lat="47.79963" lon="7.02534">
        <ele>574.04</ele>
        <time>2022-06-13T09:09:19Z</time>
      </trkpt>
      <trkpt lat="47.79998" lon="7.02511">
        <ele>576.93</ele>
        <time>2022-06-13T09:09:33Z</time>
      </trkpt>
      <trkpt lat="47.80031" lon="7.0249">
        <ele>580.29</ele>
        <time>2022-06-13T09:09:47Z</time>
      </trkpt>
      <trkpt lat="47.80059" lon="7.02455">
        <ele>582.7</ele>
        <time>2022-06-13T09:10:01Z</time>
      </trkpt>
      <trkpt lat="47.80094" lon="7.02422">
        <ele>584.14</ele>
        <time>2022-06-13T09:10:16Z</time>
      </trkpt>
      <trkpt lat="47.80127" lon="7.02426">
        <ele>586.54</ele>
        <time>2022-06-13T09:10:28Z</time>
      </trkpt>
      <trkpt lat="47.80155" lon="7.02439">
        <ele>589.43</ele>
        <time>2022-06-13T09:10:40Z</time>
      </trkpt>
      <trkpt lat="47.80174" lon="7.02446">
        <ele>592.31</ele>
        <time>2022-06-13T09:10:52Z</time>
      </trkpt>
      <trkpt lat="47.80178" lon="7.02442">
        <ele>593.27</ele>
        <time>2022-06-13T09:10:57Z</time>
      </trkpt>
      <trkpt lat="47.80183" lon="7.02438">
        <ele>594.71</ele>
        <time>2022-06-13T09:11:03Z</time>
      </trkpt>
      <trkpt lat="47.80188" lon="7.02439">
        <ele>596.15</ele>
        <time>2022-06-13T09:11:08Z</time>
      </trkpt>
      <trkpt lat="47.802" lon="7.02443">
        <ele>599.04</ele>
        <time>2022-06-13T09:11:17Z</time>
      </trkpt>
      <trkpt lat="47.8022" lon="7.02458">
        <ele>602.4</ele>
        <time>2022-06-13T09:11:26Z</time>
      </trkpt>
      <trkpt lat="47.80225" lon="7.02459">
        <ele>603.36</ele>
        <time>2022-06-13T09:11:30Z</time>
      </trkpt>
      <trkpt lat="47.80287" lon="7.02502">
        <ele>606.73</ele>
        <time>2022-06-13T09:11:38Z</time>
      </trkpt>
      <trkpt lat="47.80312" lon="7.02519">
        <ele>609.61</ele>
        <time>2022-06-13T09:11:51Z</time>
      </trkpt>
      <trkpt lat="47.8033" lon="7.02531">
        <ele>610.57</ele>
        <time>2022-06-13T09:12:01Z</time>
      </trkpt>
      <trkpt lat="47.80353" lon="7.02566">
        <ele>613.46</ele>
        <time>2022-06-13T09:12:13Z</time>
      </trkpt>
      <trkpt lat="47.80365" lon="7.02596">
        <ele>615.86</ele>
        <time>2022-06-13T09:12:23Z</time>
      </trkpt>
      <trkpt lat="47.80376" lon="7.0263">
        <ele>618.75</ele>
        <time>2022-06-13T09:12:34Z</time>
      </trkpt>
      <trkpt lat="47.80378" lon="7.02633">
        <ele>618.75</ele>
        <time>2022-06-13T09:12:35Z</time>
      </trkpt>
      <trkpt lat="47.8039" lon="7.02661">
        <ele>622.11</ele>
        <time>2022-06-13T09:12:44Z</time>
      </trkpt>
      <trkpt lat="47.80404" lon="7.02687">
        <ele>625.47</ele>
        <time>2022-06-13T09:12:54Z</time>
      </trkpt>
      <trkpt lat="47.80412" lon="7.02693">
        <ele>626.92</ele>
        <time>2022-06-13T09:13:00Z</time>
      </trkpt>
      <trkpt lat="47.80421" lon="7.02688">
        <ele>630.28</ele>
        <time>2022-06-13T09:13:10Z</time>
      </trkpt>
      <trkpt lat="47.80421" lon="7.02686">
        <ele>630.76</ele>
        <time>2022-06-13T09:13:12Z</time>
      </trkpt>
      <trkpt lat="47.80432" lon="7.02678">
        <ele>633.65</ele>
        <time>2022-06-13T09:13:21Z</time>
      </trkpt>
      <trkpt lat="47.80438" lon="7.02674">
        <ele>635.09</ele>
        <time>2022-06-13T09:13:25Z</time>
      </trkpt>
      <trkpt lat="47.80459" lon="7.0266">
        <ele>637.49</ele>
        <time>2022-06-13T09:13:35Z</time>
      </trkpt>
      <trkpt lat="47.80465" lon="7.02643">
        <ele>638.93</ele>
        <time>2022-06-13T09:13:41Z</time>
      </trkpt>
      <trkpt lat="47.80477" lon="7.02603">
        <ele>641.34</ele>
        <time>2022-06-13T09:13:54Z</time>
      </trkpt>
      <trkpt lat="47.80481" lon="7.02598">
        <ele>641.82</ele>
        <time>2022-06-13T09:13:56Z</time>
      </trkpt>
      <trkpt lat="47.80485" lon="7.02591">
        <ele>642.3</ele>
        <time>2022-06-13T09:13:59Z</time>
      </trkpt>
      <trkpt lat="47.80508" lon="7.02582">
        <ele>644.22</ele>
        <time>2022-06-13T09:14:07Z</time>
      </trkpt>
      <trkpt lat="47.80579" lon="7.02596">
        <ele>647.1</ele>
        <time>2022-06-13T09:14:19Z</time>
      </trkpt>
      <trkpt lat="47.80581" lon="7.02595">
        <ele>647.1</ele>
        <time>2022-06-13T09:14:20Z</time>
      </trkpt>
      <trkpt lat="47.8059" lon="7.0261">
        <ele>649.51</ele>
        <time>2022-06-13T09:14:28Z</time>
      </trkpt>
      <trkpt lat="47.80572" lon="7.02638">
        <ele>653.35</ele>
        <time>2022-06-13T09:14:41Z</time>
      </trkpt>
      <trkpt lat="47.80559" lon="7.02668">
        <ele>656.24</ele>
        <time>2022-06-13T09:14:53Z</time>
      </trkpt>
      <trkpt lat="47.80548" lon="7.02702">
        <ele>659.6</ele>
        <time>2022-06-13T09:15:05Z</time>
      </trkpt>
      <trkpt lat="47.80538" lon="7.02734">
        <ele>662.49</ele>
        <time>2022-06-13T09:15:16Z</time>
      </trkpt>
      <trkpt lat="47.80524" lon="7.02767">
        <ele>665.85</ele>
        <time>2022-06-13T09:15:28Z</time>
      </trkpt>
      <trkpt lat="47.80523" lon="7.02769">
        <ele>665.85</ele>
        <time>2022-06-13T09:15:29Z</time>
      </trkpt>
      <trkpt lat="47.80547" lon="7.02757">
        <ele>668.73</ele>
        <time>2022-06-13T09:15:40Z</time>
      </trkpt>
      <trkpt lat="47.80563" lon="7.02726">
        <ele>671.62</ele>
        <time>2022-06-13T09:15:52Z</time>
      </trkpt>
      <trkpt lat="47.80587" lon="7.02705">
        <ele>674.02</ele>
        <time>2022-06-13T09:16:04Z</time>
      </trkpt>
      <trkpt lat="47.80614" lon="7.02685">
        <ele>677.39</ele>
        <time>2022-06-13T09:16:16Z</time>
      </trkpt>
      <trkpt lat="47.80647" lon="7.02673">
        <ele>680.75</ele>
        <time>2022-06-13T09:16:30Z</time>
      </trkpt>
      <trkpt lat="47.80677" lon="7.02679">
        <ele>684.12</ele>
        <time>2022-06-13T09:16:42Z</time>
      </trkpt>
      <trkpt lat="47.80707" lon="7.02692">
        <ele>687</ele>
        <time>2022-06-13T09:16:55Z</time>
      </trkpt>
      <trkpt lat="47.80732" lon="7.02707">
        <ele>689.88</ele>
        <time>2022-06-13T09:17:07Z</time>
      </trkpt>
      <trkpt lat="47.80738" lon="7.0271">
        <ele>690.36</ele>
        <time>2022-06-13T09:17:10Z</time>
      </trkpt>
      <trkpt lat="47.80742" lon="7.02716">
        <ele>691.33</ele>
        <time>2022-06-13T09:17:12Z</time>
      </trkpt>
      <trkpt lat="47.80735" lon="7.02725">
        <ele>693.25</ele>
        <time>2022-06-13T09:17:17Z</time>
      </trkpt>
      <trkpt lat="47.80699" lon="7.02716">
        <ele>695.65</ele>
        <time>2022-06-13T09:17:30Z</time>
      </trkpt>
      <trkpt lat="47.80658" lon="7.02718">
        <ele>696.61</ele>
        <time>2022-06-13T09:17:44Z</time>
      </trkpt>
      <trkpt lat="47.80655" lon="7.02738">
        <ele>698.05</ele>
        <time>2022-06-13T09:17:51Z</time>
      </trkpt>
      <trkpt lat="47.80682" lon="7.02747">
        <ele>701.42</ele>
        <time>2022-06-13T09:18:03Z</time>
      </trkpt>
      <trkpt lat="47.80703" lon="7.02764">
        <ele>704.78</ele>
        <time>2022-06-13T09:18:13Z</time>
      </trkpt>
      <trkpt lat="47.80724" lon="7.02782">
        <ele>707.67</ele>
        <time>2022-06-13T09:18:24Z</time>
      </trkpt>
      <trkpt lat="47.80744" lon="7.02804">
        <ele>710.55</ele>
        <time>2022-06-13T09:18:35Z</time>
      </trkpt>
      <trkpt lat="47.8076" lon="7.02822">
        <ele>713.92</ele>
        <time>2022-06-13T09:18:45Z</time>
      </trkpt>
      <trkpt lat="47.80774" lon="7.02834">
        <ele>716.8</ele>
        <time>2022-06-13T09:18:53Z</time>
      </trkpt>
      <trkpt lat="47.80783" lon="7.02836">
        <ele>718.24</ele>
        <time>2022-06-13T09:18:57Z</time>
      </trkpt>
      <trkpt lat="47.80795" lon="7.02838">
        <ele>720.16</ele>
        <time>2022-06-13T09:19:03Z</time>
      </trkpt>
      <trkpt lat="47.80815" lon="7.02841">
        <ele>723.05</ele>
        <time>2022-06-13T09:19:12Z</time>
      </trkpt>
      <trkpt lat="47.80819" lon="7.02842">
        <ele>724.01</ele>
        <time>2022-06-13T09:19:14Z</time>
      </trkpt>
      <trkpt lat="47.80829" lon="7.02842">
        <ele>726.41</ele>
        <time>2022-06-13T09:19:20Z</time>
      </trkpt>
      <trkpt lat="47.80844" lon="7.02843">
        <ele>729.78</ele>
        <time>2022-06-13T09:19:28Z</time>
      </trkpt>
      <trkpt lat="47.80861" lon="7.02834">
        <ele>733.14</ele>
        <time>2022-06-13T09:19:37Z</time>
      </trkpt>
      <trkpt lat="47.80874" lon="7.02823">
        <ele>735.55</ele>
        <time>2022-06-13T09:19:44Z</time>
      </trkpt>
      <trkpt lat="47.80882" lon="7.02816">
        <ele>737.47</ele>
        <time>2022-06-13T09:19:49Z</time>
      </trkpt>
      <trkpt lat="47.80893" lon="7.02809">
        <ele>738.91</ele>
        <time>2022-06-13T09:19:54Z</time>
      </trkpt>
      <trkpt lat="47.80915" lon="7.02804">
        <ele>742.28</ele>
        <time>2022-06-13T09:20:05Z</time>
      </trkpt>
      <trkpt lat="47.80918" lon="7.02803">
        <ele>742.76</ele>
        <time>2022-06-13T09:20:07Z</time>
      </trkpt>
      <trkpt lat="47.80925" lon="7.02803">
        <ele>743.24</ele>
        <time>2022-06-13T09:20:11Z</time>
      </trkpt>
      <trkpt lat="47.80939" lon="7.02809">
        <ele>746.6</ele>
        <time>2022-06-13T09:20:18Z</time>
      </trkpt>
      <trkpt lat="47.80949" lon="7.02821">
        <ele>748.52</ele>
        <time>2022-06-13T09:20:24Z</time>
      </trkpt>
      <trkpt lat="47.80949" lon="7.02826">
        <ele>749.49</ele>
        <time>2022-06-13T09:20:26Z</time>
      </trkpt>
      <trkpt lat="47.80949" lon="7.02833">
        <ele>749.97</ele>
        <time>2022-06-13T09:20:29Z</time>
      </trkpt>
      <trkpt lat="47.80943" lon="7.02851">
        <ele>751.41</ele>
        <time>2022-06-13T09:20:35Z</time>
      </trkpt>
      <trkpt lat="47.80922" lon="7.02874">
        <ele>753.33</ele>
        <time>2022-06-13T09:20:47Z</time>
      </trkpt>
      <trkpt lat="47.80903" lon="7.0291">
        <ele>754.77</ele>
        <time>2022-06-13T09:20:59Z</time>
      </trkpt>
      <trkpt lat="47.80887" lon="7.0295">
        <ele>757.18</ele>
        <time>2022-06-13T09:21:10Z</time>
      </trkpt>
      <trkpt lat="47.80881" lon="7.02965">
        <ele>758.62</ele>
        <time>2022-06-13T09:21:15Z</time>
      </trkpt>
      <trkpt lat="47.80865" lon="7.03002">
        <ele>761.98</ele>
        <time>2022-06-13T09:21:27Z</time>
      </trkpt>
      <trkpt lat="47.80857" lon="7.03035">
        <ele>764.87</ele>
        <time>2022-06-13T09:21:37Z</time>
      </trkpt>
      <trkpt lat="47.80841" lon="7.0307">
        <ele>768.23</ele>
        <time>2022-06-13T09:21:48Z</time>
      </trkpt>
      <trkpt lat="47.80827" lon="7.03102">
        <ele>770.15</ele>
        <time>2022-06-13T09:22:00Z</time>
      </trkpt>
      <trkpt lat="47.80826" lon="7.03105">
        <ele>770.15</ele>
        <time>2022-06-13T09:22:01Z</time>
      </trkpt>
      <trkpt lat="47.80821" lon="7.0312">
        <ele>771.6</ele>
        <time>2022-06-13T09:22:06Z</time>
      </trkpt>
      <trkpt lat="47.80816" lon="7.03133">
        <ele>773.04</ele>
        <time>2022-06-13T09:22:11Z</time>
      </trkpt>
      <trkpt lat="47.80806" lon="7.03164">
        <ele>776.4</ele>
        <time>2022-06-13T09:22:22Z</time>
      </trkpt>
      <trkpt lat="47.80801" lon="7.03195">
        <ele>779.29</ele>
        <time>2022-06-13T09:22:32Z</time>
      </trkpt>
      <trkpt lat="47.80794" lon="7.03241">
        <ele>781.21</ele>
        <time>2022-06-13T09:22:45Z</time>
      </trkpt>
      <trkpt lat="47.80797" lon="7.03254">
        <ele>780.25</ele>
        <time>2022-06-13T09:22:56Z</time>
      </trkpt>
      <trkpt lat="47.80797" lon="7.03254">
        <ele>780.25</ele>
        <time>2022-06-13T09:23:23Z</time>
      </trkpt>
      <trkpt lat="47.80798" lon="7.03254">
        <ele>780.73</ele>
        <time>2022-06-13T09:24:01Z</time>
      </trkpt>
      <trkpt lat="47.80798" lon="7.03254">
        <ele>781.21</ele>
        <time>2022-06-13T09:24:45Z</time>
      </trkpt>
      <trkpt lat="47.80799" lon="7.03255">
        <ele>781.69</ele>
        <time>2022-06-13T09:25:22Z</time>
      </trkpt>
      <trkpt lat="47.80798" lon="7.03255">
        <ele>781.69</ele>
        <time>2022-06-13T09:26:00Z</time>
      </trkpt>
      <trkpt lat="47.80798" lon="7.03255">
        <ele>782.17</ele>
        <time>2022-06-13T09:26:44Z</time>
      </trkpt>
      <trkpt lat="47.80798" lon="7.03255">
        <ele>782.17</ele>
        <time>2022-06-13T09:27:08Z</time>
      </trkpt>
      <trkpt lat="47.80799" lon="7.03256">
        <ele>782.17</ele>
        <time>2022-06-13T09:27:23Z</time>
      </trkpt>
      <trkpt lat="47.80799" lon="7.03257">
        <ele>781.69</ele>
        <time>2022-06-13T09:27:26Z</time>
      </trkpt>
      <trkpt lat="47.80817" lon="7.03289">
        <ele>780.73</ele>
        <time>2022-06-13T09:27:37Z</time>
      </trkpt>
      <trkpt lat="47.80847" lon="7.03326">
        <ele>777.36</ele>
        <time>2022-06-13T09:27:50Z</time>
      </trkpt>
      <trkpt lat="47.80848" lon="7.03327">
        <ele>777.36</ele>
        <time>2022-06-13T09:28:11Z</time>
      </trkpt>
      <trkpt lat="47.80848" lon="7.03327">
        <ele>777.36</ele>
        <time>2022-06-13T09:28:13Z</time>
      </trkpt>
      <trkpt lat="47.80851" lon="7.03333">
        <ele>777.36</ele>
        <time>2022-06-13T09:28:17Z</time>
      </trkpt>
      <trkpt lat="47.80865" lon="7.03392">
        <ele>775.92</ele>
        <time>2022-06-13T09:28:33Z</time>
      </trkpt>
      <trkpt lat="47.80841" lon="7.03429">
        <ele>774.48</ele>
        <time>2022-06-13T09:28:45Z</time>
      </trkpt>
      <trkpt lat="47.80831" lon="7.03441">
        <ele>773.52</ele>
        <time>2022-06-13T09:28:48Z</time>
      </trkpt>
      <trkpt lat="47.80829" lon="7.03447">
        <ele>773.52</ele>
        <time>2022-06-13T09:28:49Z</time>
      </trkpt>
      <trkpt lat="47.80827" lon="7.03453">
        <ele>773.52</ele>
        <time>2022-06-13T09:28:50Z</time>
      </trkpt>
      <trkpt lat="47.80824" lon="7.03459">
        <ele>773.04</ele>
        <time>2022-06-13T09:28:51Z</time>
      </trkpt>
      <trkpt lat="47.80821" lon="7.03465">
        <ele>773.04</ele>
        <time>2022-06-13T09:28:52Z</time>
      </trkpt>
      <trkpt lat="47.80818" lon="7.0347">
        <ele>772.56</ele>
        <time>2022-06-13T09:28:53Z</time>
      </trkpt>
      <trkpt lat="47.80815" lon="7.03477">
        <ele>772.56</ele>
        <time>2022-06-13T09:28:54Z</time>
      </trkpt>
      <trkpt lat="47.80812" lon="7.03484">
        <ele>772.08</ele>
        <time>2022-06-13T09:28:55Z</time>
      </trkpt>
      <trkpt lat="47.8081" lon="7.0349">
        <ele>772.08</ele>
        <time>2022-06-13T09:28:56Z</time>
      </trkpt>
      <trkpt lat="47.808" lon="7.03515">
        <ele>770.63</ele>
        <time>2022-06-13T09:29:00Z</time>
      </trkpt>
      <trkpt lat="47.80799" lon="7.03523">
        <ele>770.63</ele>
        <time>2022-06-13T09:29:01Z</time>
      </trkpt>
      <trkpt lat="47.80797" lon="7.03531">
        <ele>770.15</ele>
        <time>2022-06-13T09:29:02Z</time>
      </trkpt>
      <trkpt lat="47.80796" lon="7.0354">
        <ele>770.15</ele>
        <time>2022-06-13T09:29:03Z</time>
      </trkpt>
      <trkpt lat="47.80795" lon="7.03548">
        <ele>770.15</ele>
        <time>2022-06-13T09:29:04Z</time>
      </trkpt>
      <trkpt lat="47.80794" lon="7.03556">
        <ele>769.67</ele>
        <time>2022-06-13T09:29:05Z</time>
      </trkpt>
      <trkpt lat="47.80792" lon="7.03564">
        <ele>769.67</ele>
        <time>2022-06-13T09:29:06Z</time>
      </trkpt>
      <trkpt lat="47.80789" lon="7.03572">
        <ele>769.19</ele>
        <time>2022-06-13T09:29:07Z</time>
      </trkpt>
      <trkpt lat="47.80786" lon="7.0358">
        <ele>768.71</ele>
        <time>2022-06-13T09:29:08Z</time>
      </trkpt>
      <trkpt lat="47.80783" lon="7.03587">
        <ele>768.71</ele>
        <time>2022-06-13T09:29:09Z</time>
      </trkpt>
      <trkpt lat="47.80778" lon="7.03592">
        <ele>768.71</ele>
        <time>2022-06-13T09:29:10Z</time>
      </trkpt>
      <trkpt lat="47.80773" lon="7.03597">
        <ele>768.23</ele>
        <time>2022-06-13T09:29:11Z</time>
      </trkpt>
      <trkpt lat="47.80768" lon="7.03601">
        <ele>768.23</ele>
        <time>2022-06-13T09:29:12Z</time>
      </trkpt>
      <trkpt lat="47.80706" lon="7.03653">
        <ele>767.27</ele>
        <time>2022-06-13T09:29:26Z</time>
      </trkpt>
      <trkpt lat="47.80673" lon="7.03683">
        <ele>766.31</ele>
        <time>2022-06-13T09:29:34Z</time>
      </trkpt>
      <trkpt lat="47.80669" lon="7.03686">
        <ele>766.31</ele>
        <time>2022-06-13T09:29:35Z</time>
      </trkpt>
      <trkpt lat="47.80607" lon="7.03718">
        <ele>765.83</ele>
        <time>2022-06-13T09:29:46Z</time>
      </trkpt>
      <trkpt lat="47.80543" lon="7.0377">
        <ele>763.9</ele>
        <time>2022-06-13T09:29:58Z</time>
      </trkpt>
      <trkpt lat="47.80533" lon="7.03789">
        <ele>763.42</ele>
        <time>2022-06-13T09:30:01Z</time>
      </trkpt>
      <trkpt lat="47.80531" lon="7.03797">
        <ele>763.42</ele>
        <time>2022-06-13T09:30:02Z</time>
      </trkpt>
      <trkpt lat="47.80526" lon="7.03827">
        <ele>762.46</ele>
        <time>2022-06-13T09:30:06Z</time>
      </trkpt>
      <trkpt lat="47.80525" lon="7.03834">
        <ele>761.98</ele>
        <time>2022-06-13T09:30:07Z</time>
      </trkpt>
      <trkpt lat="47.80525" lon="7.03842">
        <ele>761.98</ele>
        <time>2022-06-13T09:30:08Z</time>
      </trkpt>
      <trkpt lat="47.80526" lon="7.03849">
        <ele>761.98</ele>
        <time>2022-06-13T09:30:09Z</time>
      </trkpt>
      <trkpt lat="47.80526" lon="7.03856">
        <ele>761.98</ele>
        <time>2022-06-13T09:30:10Z</time>
      </trkpt>
      <trkpt lat="47.80548" lon="7.03935">
        <ele>760.06</ele>
        <time>2022-06-13T09:30:21Z</time>
      </trkpt>
      <trkpt lat="47.8055" lon="7.03942">
        <ele>759.58</ele>
        <time>2022-06-13T09:30:22Z</time>
      </trkpt>
      <trkpt lat="47.80581" lon="7.04011">
        <ele>756.69</ele>
        <time>2022-06-13T09:30:31Z</time>
      </trkpt>
      <trkpt lat="47.80583" lon="7.04019">
        <ele>756.21</ele>
        <time>2022-06-13T09:30:32Z</time>
      </trkpt>
      <trkpt lat="47.80586" lon="7.04027">
        <ele>755.73</ele>
        <time>2022-06-13T09:30:33Z</time>
      </trkpt>
      <trkpt lat="47.80587" lon="7.04036">
        <ele>755.25</ele>
        <time>2022-06-13T09:30:34Z</time>
      </trkpt>
      <trkpt lat="47.80589" lon="7.04044">
        <ele>754.77</ele>
        <time>2022-06-13T09:30:35Z</time>
      </trkpt>
      <trkpt lat="47.8059" lon="7.04052">
        <ele>754.77</ele>
        <time>2022-06-13T09:30:36Z</time>
      </trkpt>
      <trkpt lat="47.80599" lon="7.04096">
        <ele>752.85</ele>
        <time>2022-06-13T09:30:41Z</time>
      </trkpt>
      <trkpt lat="47.80606" lon="7.04131">
        <ele>750.93</ele>
        <time>2022-06-13T09:30:45Z</time>
      </trkpt>
      <trkpt lat="47.80614" lon="7.04165">
        <ele>749.49</ele>
        <time>2022-06-13T09:30:49Z</time>
      </trkpt>
      <trkpt lat="47.80629" lon="7.04211">
        <ele>747.08</ele>
        <time>2022-06-13T09:30:55Z</time>
      </trkpt>
      <trkpt lat="47.80632" lon="7.04218">
        <ele>747.08</ele>
        <time>2022-06-13T09:30:56Z</time>
      </trkpt>
      <trkpt lat="47.80635" lon="7.04223">
        <ele>746.6</ele>
        <time>2022-06-13T09:30:57Z</time>
      </trkpt>
      <trkpt lat="47.80639" lon="7.04228">
        <ele>746.12</ele>
        <time>2022-06-13T09:30:58Z</time>
      </trkpt>
      <trkpt lat="47.80642" lon="7.04233">
        <ele>745.64</ele>
        <time>2022-06-13T09:30:59Z</time>
      </trkpt>
      <trkpt lat="47.80653" lon="7.04246">
        <ele>744.68</ele>
        <time>2022-06-13T09:31:02Z</time>
      </trkpt>
      <trkpt lat="47.80656" lon="7.04252">
        <ele>744.2</ele>
        <time>2022-06-13T09:31:03Z</time>
      </trkpt>
      <trkpt lat="47.80659" lon="7.04257">
        <ele>743.72</ele>
        <time>2022-06-13T09:31:04Z</time>
      </trkpt>
      <trkpt lat="47.80662" lon="7.0426">
        <ele>743.24</ele>
        <time>2022-06-13T09:31:05Z</time>
      </trkpt>
      <trkpt lat="47.80666" lon="7.04262">
        <ele>742.76</ele>
        <time>2022-06-13T09:31:06Z</time>
      </trkpt>
      <trkpt lat="47.8067" lon="7.04263">
        <ele>742.28</ele>
        <time>2022-06-13T09:31:07Z</time>
      </trkpt>
      <trkpt lat="47.80675" lon="7.04261">
        <ele>741.79</ele>
        <time>2022-06-13T09:31:08Z</time>
      </trkpt>
      <trkpt lat="47.80679" lon="7.04258">
        <ele>741.79</ele>
        <time>2022-06-13T09:31:09Z</time>
      </trkpt>
      <trkpt lat="47.80684" lon="7.04256">
        <ele>741.31</ele>
        <time>2022-06-13T09:31:10Z</time>
      </trkpt>
      <trkpt lat="47.80701" lon="7.04247">
        <ele>740.35</ele>
        <time>2022-06-13T09:31:14Z</time>
      </trkpt>
      <trkpt lat="47.80706" lon="7.04244">
        <ele>740.35</ele>
        <time>2022-06-13T09:31:15Z</time>
      </trkpt>
      <trkpt lat="47.80711" lon="7.04241">
        <ele>739.87</ele>
        <time>2022-06-13T09:31:16Z</time>
      </trkpt>
      <trkpt lat="47.80721" lon="7.04236">
        <ele>739.39</ele>
        <time>2022-06-13T09:31:18Z</time>
      </trkpt>
      <trkpt lat="47.80734" lon="7.04232">
        <ele>737.95</ele>
        <time>2022-06-13T09:31:20Z</time>
      </trkpt>
      <trkpt lat="47.8074" lon="7.04229">
        <ele>737.47</ele>
        <time>2022-06-13T09:31:21Z</time>
      </trkpt>
      <trkpt lat="47.80746" lon="7.04226">
        <ele>736.99</ele>
        <time>2022-06-13T09:31:22Z</time>
      </trkpt>
      <trkpt lat="47.80752" lon="7.04221">
        <ele>736.03</ele>
        <time>2022-06-13T09:31:23Z</time>
      </trkpt>
      <trkpt lat="47.80786" lon="7.0419">
        <ele>733.14</ele>
        <time>2022-06-13T09:31:28Z</time>
      </trkpt>
      <trkpt lat="47.80811" lon="7.04165">
        <ele>730.26</ele>
        <time>2022-06-13T09:31:32Z</time>
      </trkpt>
      <trkpt lat="47.80817" lon="7.0416">
        <ele>729.3</ele>
        <time>2022-06-13T09:31:33Z</time>
      </trkpt>
      <trkpt lat="47.80823" lon="7.04156">
        <ele>728.82</ele>
        <time>2022-06-13T09:31:34Z</time>
      </trkpt>
      <trkpt lat="47.80829" lon="7.04155">
        <ele>728.34</ele>
        <time>2022-06-13T09:31:35Z</time>
      </trkpt>
      <trkpt lat="47.80836" lon="7.04154">
        <ele>727.86</ele>
        <time>2022-06-13T09:31:36Z</time>
      </trkpt>
      <trkpt lat="47.80842" lon="7.04153">
        <ele>727.37</ele>
        <time>2022-06-13T09:31:37Z</time>
      </trkpt>
      <trkpt lat="47.80849" lon="7.04154">
        <ele>727.37</ele>
        <time>2022-06-13T09:31:38Z</time>
      </trkpt>
      <trkpt lat="47.80856" lon="7.04155">
        <ele>726.89</ele>
        <time>2022-06-13T09:31:39Z</time>
      </trkpt>
      <trkpt lat="47.80876" lon="7.04155">
        <ele>724.97</ele>
        <time>2022-06-13T09:31:42Z</time>
      </trkpt>
      <trkpt lat="47.80882" lon="7.04153">
        <ele>724.49</ele>
        <time>2022-06-13T09:31:43Z</time>
      </trkpt>
      <trkpt lat="47.80889" lon="7.0415">
        <ele>724.01</ele>
        <time>2022-06-13T09:31:44Z</time>
      </trkpt>
      <trkpt lat="47.80895" lon="7.04147">
        <ele>724.01</ele>
        <time>2022-06-13T09:31:45Z</time>
      </trkpt>
      <trkpt lat="47.80901" lon="7.04143">
        <ele>723.53</ele>
        <time>2022-06-13T09:31:46Z</time>
      </trkpt>
      <trkpt lat="47.80907" lon="7.04137">
        <ele>723.05</ele>
        <time>2022-06-13T09:31:47Z</time>
      </trkpt>
      <trkpt lat="47.80912" lon="7.0413">
        <ele>723.05</ele>
        <time>2022-06-13T09:31:48Z</time>
      </trkpt>
      <trkpt lat="47.80916" lon="7.04123">
        <ele>723.05</ele>
        <time>2022-06-13T09:31:49Z</time>
      </trkpt>
      <trkpt lat="47.80919" lon="7.04113">
        <ele>723.53</ele>
        <time>2022-06-13T09:31:50Z</time>
      </trkpt>
      <trkpt lat="47.80921" lon="7.04104">
        <ele>722.57</ele>
        <time>2022-06-13T09:31:51Z</time>
      </trkpt>
      <trkpt lat="47.80925" lon="7.04074">
        <ele>721.13</ele>
        <time>2022-06-13T09:31:54Z</time>
      </trkpt>
      <trkpt lat="47.8093" lon="7.04055">
        <ele>720.65</ele>
        <time>2022-06-13T09:31:56Z</time>
      </trkpt>
      <trkpt lat="47.8094" lon="7.04029">
        <ele>720.16</ele>
        <time>2022-06-13T09:31:59Z</time>
      </trkpt>
      <trkpt lat="47.80945" lon="7.04021">
        <ele>720.16</ele>
        <time>2022-06-13T09:32:00Z</time>
      </trkpt>
      <trkpt lat="47.8095" lon="7.04016">
        <ele>719.68</ele>
        <time>2022-06-13T09:32:01Z</time>
      </trkpt>
      <trkpt lat="47.80955" lon="7.04012">
        <ele>719.68</ele>
        <time>2022-06-13T09:32:02Z</time>
      </trkpt>
      <trkpt lat="47.8096" lon="7.04011">
        <ele>719.68</ele>
        <time>2022-06-13T09:32:03Z</time>
      </trkpt>
      <trkpt lat="47.8097" lon="7.04012">
        <ele>719.2</ele>
        <time>2022-06-13T09:32:05Z</time>
      </trkpt>
      <trkpt lat="47.80975" lon="7.04013">
        <ele>719.2</ele>
        <time>2022-06-13T09:32:06Z</time>
      </trkpt>
      <trkpt lat="47.8098" lon="7.04013">
        <ele>719.2</ele>
        <time>2022-06-13T09:32:07Z</time>
      </trkpt>
      <trkpt lat="47.81006" lon="7.04011">
        <ele>718.72</ele>
        <time>2022-06-13T09:32:12Z</time>
      </trkpt>
      <trkpt lat="47.8102" lon="7.04013">
        <ele>718.72</ele>
        <time>2022-06-13T09:32:15Z</time>
      </trkpt>
      <trkpt lat="47.81025" lon="7.04013">
        <ele>718.72</ele>
        <time>2022-06-13T09:32:16Z</time>
      </trkpt>
      <trkpt lat="47.8103" lon="7.04014">
        <ele>718.24</ele>
        <time>2022-06-13T09:32:17Z</time>
      </trkpt>
      <trkpt lat="47.81035" lon="7.04015">
        <ele>718.72</ele>
        <time>2022-06-13T09:32:18Z</time>
      </trkpt>
      <trkpt lat="47.81066" lon="7.04035">
        <ele>718.24</ele>
        <time>2022-06-13T09:32:26Z</time>
      </trkpt>
      <trkpt lat="47.81071" lon="7.04036">
        <ele>718.24</ele>
        <time>2022-06-13T09:32:27Z</time>
      </trkpt>
      <trkpt lat="47.81075" lon="7.04037">
        <ele>717.76</ele>
        <time>2022-06-13T09:32:28Z</time>
      </trkpt>
      <trkpt lat="47.8108" lon="7.04035">
        <ele>717.76</ele>
        <time>2022-06-13T09:32:29Z</time>
      </trkpt>
      <trkpt lat="47.81085" lon="7.04032">
        <ele>717.76</ele>
        <time>2022-06-13T09:32:30Z</time>
      </trkpt>
      <trkpt lat="47.81089" lon="7.04027">
        <ele>717.76</ele>
        <time>2022-06-13T09:32:31Z</time>
      </trkpt>
      <trkpt lat="47.81092" lon="7.04022">
        <ele>717.76</ele>
        <time>2022-06-13T09:32:32Z</time>
      </trkpt>
      <trkpt lat="47.81096" lon="7.04016">
        <ele>717.76</ele>
        <time>2022-06-13T09:32:33Z</time>
      </trkpt>
      <trkpt lat="47.81123" lon="7.03961">
        <ele>717.28</ele>
        <time>2022-06-13T09:32:42Z</time>
      </trkpt>
      <trkpt lat="47.81127" lon="7.03948">
        <ele>717.28</ele>
        <time>2022-06-13T09:32:44Z</time>
      </trkpt>
      <trkpt lat="47.81136" lon="7.03928">
        <ele>716.8</ele>
        <time>2022-06-13T09:32:47Z</time>
      </trkpt>
      <trkpt lat="47.8114" lon="7.03922">
        <ele>716.8</ele>
        <time>2022-06-13T09:32:48Z</time>
      </trkpt>
      <trkpt lat="47.81152" lon="7.03907">
        <ele>716.32</ele>
        <time>2022-06-13T09:32:51Z</time>
      </trkpt>
      <trkpt lat="47.81159" lon="7.03896">
        <ele>716.32</ele>
        <time>2022-06-13T09:32:53Z</time>
      </trkpt>
      <trkpt lat="47.81192" lon="7.03828">
        <ele>715.84</ele>
        <time>2022-06-13T09:33:05Z</time>
      </trkpt>
      <trkpt lat="47.8122" lon="7.03787">
        <ele>715.36</ele>
        <time>2022-06-13T09:33:14Z</time>
      </trkpt>
      <trkpt lat="47.81245" lon="7.03774">
        <ele>714.4</ele>
        <time>2022-06-13T09:33:21Z</time>
      </trkpt>
      <trkpt lat="47.81249" lon="7.03777">
        <ele>714.88</ele>
        <time>2022-06-13T09:33:22Z</time>
      </trkpt>
      <trkpt lat="47.81253" lon="7.03779">
        <ele>714.4</ele>
        <time>2022-06-13T09:33:23Z</time>
      </trkpt>
      <trkpt lat="47.8126" lon="7.03787">
        <ele>714.4</ele>
        <time>2022-06-13T09:33:25Z</time>
      </trkpt>
      <trkpt lat="47.81274" lon="7.03804">
        <ele>713.92</ele>
        <time>2022-06-13T09:33:29Z</time>
      </trkpt>
      <trkpt lat="47.81277" lon="7.03808">
        <ele>713.44</ele>
        <time>2022-06-13T09:33:30Z</time>
      </trkpt>
      <trkpt lat="47.8128" lon="7.03813">
        <ele>713.44</ele>
        <time>2022-06-13T09:33:31Z</time>
      </trkpt>
      <trkpt lat="47.81284" lon="7.03817">
        <ele>713.44</ele>
        <time>2022-06-13T09:33:32Z</time>
      </trkpt>
      <trkpt lat="47.81288" lon="7.03821">
        <ele>713.44</ele>
        <time>2022-06-13T09:33:33Z</time>
      </trkpt>
      <trkpt lat="47.81343" lon="7.03894">
        <ele>711.03</ele>
        <time>2022-06-13T09:33:47Z</time>
      </trkpt>
      <trkpt lat="47.81361" lon="7.03926">
        <ele>709.59</ele>
        <time>2022-06-13T09:33:52Z</time>
      </trkpt>
      <trkpt lat="47.81365" lon="7.03932">
        <ele>709.11</ele>
        <time>2022-06-13T09:33:53Z</time>
      </trkpt>
      <trkpt lat="47.81392" lon="7.03985">
        <ele>706.23</ele>
        <time>2022-06-13T09:34:00Z</time>
      </trkpt>
      <trkpt lat="47.81427" lon="7.0406">
        <ele>703.82</ele>
        <time>2022-06-13T09:34:12Z</time>
      </trkpt>
      <trkpt lat="47.81431" lon="7.04065">
        <ele>703.82</ele>
        <time>2022-06-13T09:34:13Z</time>
      </trkpt>
      <trkpt lat="47.81449" lon="7.04081">
        <ele>703.34</ele>
        <time>2022-06-13T09:34:17Z</time>
      </trkpt>
      <trkpt lat="47.81454" lon="7.04083">
        <ele>703.34</ele>
        <time>2022-06-13T09:34:18Z</time>
      </trkpt>
      <trkpt lat="47.81459" lon="7.04085">
        <ele>702.86</ele>
        <time>2022-06-13T09:34:19Z</time>
      </trkpt>
      <trkpt lat="47.81474" lon="7.04087">
        <ele>702.86</ele>
        <time>2022-06-13T09:34:22Z</time>
      </trkpt>
      <trkpt lat="47.81479" lon="7.04087">
        <ele>702.86</ele>
        <time>2022-06-13T09:34:23Z</time>
      </trkpt>
      <trkpt lat="47.81515" lon="7.04087">
        <ele>702.86</ele>
        <time>2022-06-13T09:34:31Z</time>
      </trkpt>
      <trkpt lat="47.8152" lon="7.04085">
        <ele>702.86</ele>
        <time>2022-06-13T09:34:32Z</time>
      </trkpt>
      <trkpt lat="47.81529" lon="7.04082">
        <ele>702.86</ele>
        <time>2022-06-13T09:34:34Z</time>
      </trkpt>
      <trkpt lat="47.81534" lon="7.04081">
        <ele>702.86</ele>
        <time>2022-06-13T09:34:35Z</time>
      </trkpt>
      <trkpt lat="47.81538" lon="7.04083">
        <ele>702.86</ele>
        <time>2022-06-13T09:34:36Z</time>
      </trkpt>
      <trkpt lat="47.81543" lon="7.04088">
        <ele>702.86</ele>
        <time>2022-06-13T09:34:37Z</time>
      </trkpt>
      <trkpt lat="47.81547" lon="7.04094">
        <ele>702.86</ele>
        <time>2022-06-13T09:34:38Z</time>
      </trkpt>
      <trkpt lat="47.8155" lon="7.041">
        <ele>702.86</ele>
        <time>2022-06-13T09:34:39Z</time>
      </trkpt>
      <trkpt lat="47.81551" lon="7.04107">
        <ele>702.38</ele>
        <time>2022-06-13T09:34:40Z</time>
      </trkpt>
      <trkpt lat="47.81552" lon="7.04114">
        <ele>702.38</ele>
        <time>2022-06-13T09:34:41Z</time>
      </trkpt>
      <trkpt lat="47.81552" lon="7.04122">
        <ele>701.9</ele>
        <time>2022-06-13T09:34:42Z</time>
      </trkpt>
      <trkpt lat="47.81553" lon="7.0413">
        <ele>701.42</ele>
        <time>2022-06-13T09:34:43Z</time>
      </trkpt>
      <trkpt lat="47.81554" lon="7.04139">
        <ele>701.42</ele>
        <time>2022-06-13T09:34:44Z</time>
      </trkpt>
      <trkpt lat="47.81556" lon="7.04147">
        <ele>700.94</ele>
        <time>2022-06-13T09:34:45Z</time>
      </trkpt>
      <trkpt lat="47.81558" lon="7.04155">
        <ele>700.46</ele>
        <time>2022-06-13T09:34:46Z</time>
      </trkpt>
      <trkpt lat="47.81561" lon="7.04163">
        <ele>699.5</ele>
        <time>2022-06-13T09:34:47Z</time>
      </trkpt>
      <trkpt lat="47.8157" lon="7.04188">
        <ele>698.05</ele>
        <time>2022-06-13T09:34:50Z</time>
      </trkpt>
      <trkpt lat="47.81573" lon="7.04196">
        <ele>697.57</ele>
        <time>2022-06-13T09:34:51Z</time>
      </trkpt>
      <trkpt lat="47.81589" lon="7.0423">
        <ele>696.13</ele>
        <time>2022-06-13T09:34:55Z</time>
      </trkpt>
      <trkpt lat="47.81594" lon="7.04238">
        <ele>695.65</ele>
        <time>2022-06-13T09:34:56Z</time>
      </trkpt>
      <trkpt lat="47.8162" lon="7.04269">
        <ele>695.17</ele>
        <time>2022-06-13T09:35:01Z</time>
      </trkpt>
      <trkpt lat="47.81625" lon="7.04275">
        <ele>695.17</ele>
        <time>2022-06-13T09:35:02Z</time>
      </trkpt>
      <trkpt lat="47.81631" lon="7.0428">
        <ele>695.17</ele>
        <time>2022-06-13T09:35:03Z</time>
      </trkpt>
      <trkpt lat="47.81636" lon="7.04284">
        <ele>695.17</ele>
        <time>2022-06-13T09:35:04Z</time>
      </trkpt>
      <trkpt lat="47.81641" lon="7.04288">
        <ele>694.69</ele>
        <time>2022-06-13T09:35:05Z</time>
      </trkpt>
      <trkpt lat="47.81681" lon="7.04307">
        <ele>694.21</ele>
        <time>2022-06-13T09:35:14Z</time>
      </trkpt>
      <trkpt lat="47.81686" lon="7.04308">
        <ele>694.21</ele>
        <time>2022-06-13T09:35:15Z</time>
      </trkpt>
      <trkpt lat="47.81691" lon="7.0431">
        <ele>694.21</ele>
        <time>2022-06-13T09:35:16Z</time>
      </trkpt>
      <trkpt lat="47.81695" lon="7.04313">
        <ele>693.73</ele>
        <time>2022-06-13T09:35:17Z</time>
      </trkpt>
      <trkpt lat="47.81699" lon="7.04318">
        <ele>694.21</ele>
        <time>2022-06-13T09:35:18Z</time>
      </trkpt>
      <trkpt lat="47.81702" lon="7.04323">
        <ele>693.73</ele>
        <time>2022-06-13T09:35:19Z</time>
      </trkpt>
      <trkpt lat="47.81705" lon="7.0433">
        <ele>693.73</ele>
        <time>2022-06-13T09:35:20Z</time>
      </trkpt>
      <trkpt lat="47.81707" lon="7.04338">
        <ele>693.73</ele>
        <time>2022-06-13T09:35:21Z</time>
      </trkpt>
      <trkpt lat="47.81708" lon="7.04345">
        <ele>693.25</ele>
        <time>2022-06-13T09:35:22Z</time>
      </trkpt>
      <trkpt lat="47.81708" lon="7.04353">
        <ele>693.73</ele>
        <time>2022-06-13T09:35:23Z</time>
      </trkpt>
      <trkpt lat="47.81708" lon="7.04361">
        <ele>693.25</ele>
        <time>2022-06-13T09:35:24Z</time>
      </trkpt>
      <trkpt lat="47.81707" lon="7.04368">
        <ele>693.25</ele>
        <time>2022-06-13T09:35:25Z</time>
      </trkpt>
      <trkpt lat="47.81699" lon="7.04429">
        <ele>692.29</ele>
        <time>2022-06-13T09:35:33Z</time>
      </trkpt>
      <trkpt lat="47.817" lon="7.04437">
        <ele>692.29</ele>
        <time>2022-06-13T09:35:34Z</time>
      </trkpt>
      <trkpt lat="47.817" lon="7.04444">
        <ele>692.29</ele>
        <time>2022-06-13T09:35:35Z</time>
      </trkpt>
      <trkpt lat="47.81702" lon="7.04466">
        <ele>691.33</ele>
        <time>2022-06-13T09:35:40Z</time>
      </trkpt>
      <trkpt lat="47.81712" lon="7.04452">
        <ele>693.25</ele>
        <time>2022-06-13T09:35:48Z</time>
      </trkpt>
      <trkpt lat="47.81716" lon="7.04421">
        <ele>696.61</ele>
        <time>2022-06-13T09:35:59Z</time>
      </trkpt>
      <trkpt lat="47.81722" lon="7.04391">
        <ele>699.98</ele>
        <time>2022-06-13T09:36:08Z</time>
      </trkpt>
      <trkpt lat="47.81734" lon="7.04343">
        <ele>702.86</ele>
        <time>2022-06-13T09:36:21Z</time>
      </trkpt>
      <trkpt lat="47.8174" lon="7.04317">
        <ele>705.26</ele>
        <time>2022-06-13T09:36:28Z</time>
      </trkpt>
      <trkpt lat="47.81746" lon="7.04306">
        <ele>706.71</ele>
        <time>2022-06-13T09:36:32Z</time>
      </trkpt>
      <trkpt lat="47.8176" lon="7.04272">
        <ele>708.63</ele>
        <time>2022-06-13T09:36:42Z</time>
      </trkpt>
      <trkpt lat="47.81761" lon="7.04263">
        <ele>708.63</ele>
        <time>2022-06-13T09:36:44Z</time>
      </trkpt>
      <trkpt lat="47.81773" lon="7.04214">
        <ele>709.59</ele>
        <time>2022-06-13T09:36:54Z</time>
      </trkpt>
      <trkpt lat="47.818" lon="7.0419">
        <ele>710.55</ele>
        <time>2022-06-13T09:37:03Z</time>
      </trkpt>
      <trkpt lat="47.81837" lon="7.04165">
        <ele>711.03</ele>
        <time>2022-06-13T09:37:12Z</time>
      </trkpt>
      <trkpt lat="47.81871" lon="7.04128">
        <ele>712.95</ele>
        <time>2022-06-13T09:37:23Z</time>
      </trkpt>
      <trkpt lat="47.81909" lon="7.04134">
        <ele>714.88</ele>
        <time>2022-06-13T09:37:33Z</time>
      </trkpt>
      <trkpt lat="47.81956" lon="7.04142">
        <ele>716.8</ele>
        <time>2022-06-13T09:37:45Z</time>
      </trkpt>
      <trkpt lat="47.81978" lon="7.04136">
        <ele>718.24</ele>
        <time>2022-06-13T09:37:51Z</time>
      </trkpt>
      <trkpt lat="47.81985" lon="7.04131">
        <ele>718.24</ele>
        <time>2022-06-13T09:37:53Z</time>
      </trkpt>
      <trkpt lat="47.82011" lon="7.04105">
        <ele>720.16</ele>
        <time>2022-06-13T09:38:03Z</time>
      </trkpt>
      <trkpt lat="47.82036" lon="7.04073">
        <ele>722.57</ele>
        <time>2022-06-13T09:38:12Z</time>
      </trkpt>
      <trkpt lat="47.82051" lon="7.04046">
        <ele>723.53</ele>
        <time>2022-06-13T09:38:18Z</time>
      </trkpt>
      <trkpt lat="47.82054" lon="7.04043">
        <ele>723.53</ele>
        <time>2022-06-13T09:38:19Z</time>
      </trkpt>
      <trkpt lat="47.82057" lon="7.04039">
        <ele>724.01</ele>
        <time>2022-06-13T09:38:20Z</time>
      </trkpt>
      <trkpt lat="47.82078" lon="7.03999">
        <ele>725.93</ele>
        <time>2022-06-13T09:38:29Z</time>
      </trkpt>
      <trkpt lat="47.82088" lon="7.03996">
        <ele>726.41</ele>
        <time>2022-06-13T09:38:32Z</time>
      </trkpt>
      <trkpt lat="47.82111" lon="7.04013">
        <ele>727.86</ele>
        <time>2022-06-13T09:38:40Z</time>
      </trkpt>
      <trkpt lat="47.82115" lon="7.04015">
        <ele>727.86</ele>
        <time>2022-06-13T09:38:41Z</time>
      </trkpt>
      <trkpt lat="47.82118" lon="7.04017">
        <ele>727.86</ele>
        <time>2022-06-13T09:38:42Z</time>
      </trkpt>
      <trkpt lat="47.82121" lon="7.04018">
        <ele>727.86</ele>
        <time>2022-06-13T09:38:43Z</time>
      </trkpt>
      <trkpt lat="47.82124" lon="7.04019">
        <ele>728.34</ele>
        <time>2022-06-13T09:38:44Z</time>
      </trkpt>
      <trkpt lat="47.82164" lon="7.04022">
        <ele>730.26</ele>
        <time>2022-06-13T09:38:55Z</time>
      </trkpt>
      <trkpt lat="47.82202" lon="7.04">
        <ele>732.66</ele>
        <time>2022-06-13T09:39:05Z</time>
      </trkpt>
      <trkpt lat="47.82231" lon="7.03981">
        <ele>734.1</ele>
        <time>2022-06-13T09:39:14Z</time>
      </trkpt>
      <trkpt lat="47.82269" lon="7.03994">
        <ele>736.03</ele>
        <time>2022-06-13T09:39:24Z</time>
      </trkpt>
      <trkpt lat="47.82295" lon="7.03987">
        <ele>737.95</ele>
        <time>2022-06-13T09:39:32Z</time>
      </trkpt>
      <trkpt lat="47.82303" lon="7.03965">
        <ele>739.39</ele>
        <time>2022-06-13T09:39:37Z</time>
      </trkpt>
      <trkpt lat="47.82305" lon="7.03962">
        <ele>739.39</ele>
        <time>2022-06-13T09:39:38Z</time>
      </trkpt>
      <trkpt lat="47.82325" lon="7.03965">
        <ele>740.35</ele>
        <time>2022-06-13T09:39:43Z</time>
      </trkpt>
      <trkpt lat="47.82328" lon="7.03969">
        <ele>740.35</ele>
        <time>2022-06-13T09:39:44Z</time>
      </trkpt>
      <trkpt lat="47.82358" lon="7.04004">
        <ele>742.76</ele>
        <time>2022-06-13T09:39:52Z</time>
      </trkpt>
      <trkpt lat="47.82386" lon="7.04057">
        <ele>746.12</ele>
        <time>2022-06-13T09:40:02Z</time>
      </trkpt>
      <trkpt lat="47.82388" lon="7.04109">
        <ele>747.56</ele>
        <time>2022-06-13T09:40:12Z</time>
      </trkpt>
      <trkpt lat="47.82388" lon="7.04114">
        <ele>747.56</ele>
        <time>2022-06-13T09:40:13Z</time>
      </trkpt>
      <trkpt lat="47.82388" lon="7.04138">
        <ele>748.52</ele>
        <time>2022-06-13T09:40:17Z</time>
      </trkpt>
      <trkpt lat="47.82388" lon="7.04144">
        <ele>748.52</ele>
        <time>2022-06-13T09:40:18Z</time>
      </trkpt>
      <trkpt lat="47.82387" lon="7.0415">
        <ele>748.52</ele>
        <time>2022-06-13T09:40:19Z</time>
      </trkpt>
      <trkpt lat="47.82387" lon="7.04156">
        <ele>749</ele>
        <time>2022-06-13T09:40:20Z</time>
      </trkpt>
      <trkpt lat="47.82386" lon="7.04163">
        <ele>749</ele>
        <time>2022-06-13T09:40:21Z</time>
      </trkpt>
      <trkpt lat="47.82387" lon="7.04168">
        <ele>749</ele>
        <time>2022-06-13T09:40:22Z</time>
      </trkpt>
      <trkpt lat="47.82387" lon="7.04172">
        <ele>749.49</ele>
        <time>2022-06-13T09:40:23Z</time>
      </trkpt>
      <trkpt lat="47.82385" lon="7.04232">
        <ele>749.49</ele>
        <time>2022-06-13T09:40:32Z</time>
      </trkpt>
      <trkpt lat="47.82382" lon="7.04237">
        <ele>749.49</ele>
        <time>2022-06-13T09:40:33Z</time>
      </trkpt>
      <trkpt lat="47.82381" lon="7.04243">
        <ele>749.49</ele>
        <time>2022-06-13T09:40:34Z</time>
      </trkpt>
      <trkpt lat="47.8238" lon="7.0425">
        <ele>749.49</ele>
        <time>2022-06-13T09:40:35Z</time>
      </trkpt>
      <trkpt lat="47.8238" lon="7.04257">
        <ele>749.49</ele>
        <time>2022-06-13T09:40:36Z</time>
      </trkpt>
      <trkpt lat="47.8238" lon="7.04264">
        <ele>749.49</ele>
        <time>2022-06-13T09:40:37Z</time>
      </trkpt>
      <trkpt lat="47.82379" lon="7.04272">
        <ele>749.97</ele>
        <time>2022-06-13T09:40:38Z</time>
      </trkpt>
      <trkpt lat="47.82379" lon="7.0428">
        <ele>749.49</ele>
        <time>2022-06-13T09:40:39Z</time>
      </trkpt>
      <trkpt lat="47.82379" lon="7.04287">
        <ele>749.49</ele>
        <time>2022-06-13T09:40:40Z</time>
      </trkpt>
      <trkpt lat="47.82379" lon="7.04294">
        <ele>749.49</ele>
        <time>2022-06-13T09:40:41Z</time>
      </trkpt>
      <trkpt lat="47.82375" lon="7.04333">
        <ele>749.97</ele>
        <time>2022-06-13T09:40:48Z</time>
      </trkpt>
      <trkpt lat="47.82377" lon="7.04338">
        <ele>749.97</ele>
        <time>2022-06-13T09:40:49Z</time>
      </trkpt>
      <trkpt lat="47.82379" lon="7.04341">
        <ele>749.97</ele>
        <time>2022-06-13T09:40:50Z</time>
      </trkpt>
      <trkpt lat="47.82382" lon="7.04342">
        <ele>749.97</ele>
        <time>2022-06-13T09:40:51Z</time>
      </trkpt>
      <trkpt lat="47.82386" lon="7.04343">
        <ele>749.97</ele>
        <time>2022-06-13T09:40:52Z</time>
      </trkpt>
      <trkpt lat="47.8239" lon="7.04343">
        <ele>749.97</ele>
        <time>2022-06-13T09:40:53Z</time>
      </trkpt>
      <trkpt lat="47.82435" lon="7.04325">
        <ele>750.93</ele>
        <time>2022-06-13T09:41:04Z</time>
      </trkpt>
      <trkpt lat="47.82439" lon="7.04323">
        <ele>751.41</ele>
        <time>2022-06-13T09:41:05Z</time>
      </trkpt>
      <trkpt lat="47.82448" lon="7.04322">
        <ele>751.41</ele>
        <time>2022-06-13T09:41:07Z</time>
      </trkpt>
      <trkpt lat="47.82452" lon="7.04321">
        <ele>751.89</ele>
        <time>2022-06-13T09:41:08Z</time>
      </trkpt>
      <trkpt lat="47.82456" lon="7.04321">
        <ele>751.89</ele>
        <time>2022-06-13T09:41:09Z</time>
      </trkpt>
      <trkpt lat="47.8246" lon="7.0432">
        <ele>751.89</ele>
        <time>2022-06-13T09:41:10Z</time>
      </trkpt>
      <trkpt lat="47.82464" lon="7.04318">
        <ele>752.37</ele>
        <time>2022-06-13T09:41:11Z</time>
      </trkpt>
      <trkpt lat="47.82468" lon="7.04316">
        <ele>752.37</ele>
        <time>2022-06-13T09:41:12Z</time>
      </trkpt>
      <trkpt lat="47.82501" lon="7.04296">
        <ele>753.81</ele>
        <time>2022-06-13T09:41:23Z</time>
      </trkpt>
      <trkpt lat="47.82532" lon="7.04267">
        <ele>755.73</ele>
        <time>2022-06-13T09:41:34Z</time>
      </trkpt>
      <trkpt lat="47.82549" lon="7.04249">
        <ele>757.18</ele>
        <time>2022-06-13T09:41:41Z</time>
      </trkpt>
      <trkpt lat="47.82552" lon="7.04247">
        <ele>757.18</ele>
        <time>2022-06-13T09:41:42Z</time>
      </trkpt>
      <trkpt lat="47.82554" lon="7.04245">
        <ele>757.18</ele>
        <time>2022-06-13T09:41:43Z</time>
      </trkpt>
      <trkpt lat="47.82557" lon="7.04243">
        <ele>757.18</ele>
        <time>2022-06-13T09:41:44Z</time>
      </trkpt>
      <trkpt lat="47.82561" lon="7.04241">
        <ele>757.18</ele>
        <time>2022-06-13T09:41:45Z</time>
      </trkpt>
      <trkpt lat="47.82565" lon="7.04238">
        <ele>757.66</ele>
        <time>2022-06-13T09:41:46Z</time>
      </trkpt>
      <trkpt lat="47.82573" lon="7.04231">
        <ele>757.66</ele>
        <time>2022-06-13T09:41:48Z</time>
      </trkpt>
      <trkpt lat="47.82575" lon="7.04228">
        <ele>757.66</ele>
        <time>2022-06-13T09:41:49Z</time>
      </trkpt>
      <trkpt lat="47.82579" lon="7.04225">
        <ele>758.14</ele>
        <time>2022-06-13T09:41:50Z</time>
      </trkpt>
      <trkpt lat="47.82582" lon="7.04221">
        <ele>758.62</ele>
        <time>2022-06-13T09:41:51Z</time>
      </trkpt>
      <trkpt lat="47.82586" lon="7.04218">
        <ele>758.62</ele>
        <time>2022-06-13T09:41:52Z</time>
      </trkpt>
      <trkpt lat="47.82589" lon="7.04214">
        <ele>758.62</ele>
        <time>2022-06-13T09:41:53Z</time>
      </trkpt>
      <trkpt lat="47.82629" lon="7.04172">
        <ele>760.54</ele>
        <time>2022-06-13T09:42:05Z</time>
      </trkpt>
      <trkpt lat="47.82673" lon="7.0414">
        <ele>761.98</ele>
        <time>2022-06-13T09:42:16Z</time>
      </trkpt>
      <trkpt lat="47.82714" lon="7.04152">
        <ele>763.42</ele>
        <time>2022-06-13T09:42:25Z</time>
      </trkpt>
      <trkpt lat="47.82743" lon="7.04172">
        <ele>764.87</ele>
        <time>2022-06-13T09:42:34Z</time>
      </trkpt>
      <trkpt lat="47.82746" lon="7.04172">
        <ele>764.87</ele>
        <time>2022-06-13T09:42:35Z</time>
      </trkpt>
      <trkpt lat="47.8278" lon="7.0417">
        <ele>765.83</ele>
        <time>2022-06-13T09:42:41Z</time>
      </trkpt>
      <trkpt lat="47.82814" lon="7.04137">
        <ele>767.27</ele>
        <time>2022-06-13T09:42:51Z</time>
      </trkpt>
      <trkpt lat="47.82854" lon="7.0411">
        <ele>768.23</ele>
        <time>2022-06-13T09:43:01Z</time>
      </trkpt>
      <trkpt lat="47.82877" lon="7.04093">
        <ele>769.67</ele>
        <time>2022-06-13T09:43:08Z</time>
      </trkpt>
      <trkpt lat="47.8288" lon="7.0409">
        <ele>769.67</ele>
        <time>2022-06-13T09:43:09Z</time>
      </trkpt>
      <trkpt lat="47.82882" lon="7.04088">
        <ele>770.15</ele>
        <time>2022-06-13T09:43:10Z</time>
      </trkpt>
      <trkpt lat="47.82903" lon="7.04064">
        <ele>767.27</ele>
        <time>2022-06-13T09:43:17Z</time>
      </trkpt>
      <trkpt lat="47.82904" lon="7.04059">
        <ele>766.79</ele>
        <time>2022-06-13T09:43:18Z</time>
      </trkpt>
      <trkpt lat="47.82922" lon="7.04029">
        <ele>763.42</ele>
        <time>2022-06-13T09:43:23Z</time>
      </trkpt>
      <trkpt lat="47.82928" lon="7.04013">
        <ele>761.5</ele>
        <time>2022-06-13T09:43:25Z</time>
      </trkpt>
      <trkpt lat="47.82938" lon="7.03973">
        <ele>757.66</ele>
        <time>2022-06-13T09:43:29Z</time>
      </trkpt>
      <trkpt lat="47.82948" lon="7.03941">
        <ele>754.29</ele>
        <time>2022-06-13T09:43:32Z</time>
      </trkpt>
      <trkpt lat="47.82959" lon="7.03909">
        <ele>750.45</ele>
        <time>2022-06-13T09:43:35Z</time>
      </trkpt>
      <trkpt lat="47.82968" lon="7.03879">
        <ele>747.08</ele>
        <time>2022-06-13T09:43:38Z</time>
      </trkpt>
      <trkpt lat="47.82978" lon="7.03849">
        <ele>744.2</ele>
        <time>2022-06-13T09:43:41Z</time>
      </trkpt>
      <trkpt lat="47.82982" lon="7.0384">
        <ele>743.24</ele>
        <time>2022-06-13T09:43:42Z</time>
      </trkpt>
      <trkpt lat="47.82986" lon="7.03831">
        <ele>742.28</ele>
        <time>2022-06-13T09:43:43Z</time>
      </trkpt>
      <trkpt lat="47.82996" lon="7.03802">
        <ele>739.39</ele>
        <time>2022-06-13T09:43:46Z</time>
      </trkpt>
      <trkpt lat="47.83004" lon="7.03773">
        <ele>736.51</ele>
        <time>2022-06-13T09:43:49Z</time>
      </trkpt>
      <trkpt lat="47.83009" lon="7.03726">
        <ele>732.66</ele>
        <time>2022-06-13T09:43:53Z</time>
      </trkpt>
      <trkpt lat="47.83012" lon="7.03704">
        <ele>730.74</ele>
        <time>2022-06-13T09:43:55Z</time>
      </trkpt>
      <trkpt lat="47.83014" lon="7.03692">
        <ele>729.78</ele>
        <time>2022-06-13T09:43:56Z</time>
      </trkpt>
      <trkpt lat="47.83016" lon="7.03681">
        <ele>728.82</ele>
        <time>2022-06-13T09:43:57Z</time>
      </trkpt>
      <trkpt lat="47.83021" lon="7.0366">
        <ele>725.45</ele>
        <time>2022-06-13T09:43:59Z</time>
      </trkpt>
      <trkpt lat="47.83025" lon="7.0365">
        <ele>725.45</ele>
        <time>2022-06-13T09:44:00Z</time>
      </trkpt>
      <trkpt lat="47.83029" lon="7.03639">
        <ele>724.01</ele>
        <time>2022-06-13T09:44:01Z</time>
      </trkpt>
      <trkpt lat="47.83035" lon="7.0363">
        <ele>723.05</ele>
        <time>2022-06-13T09:44:02Z</time>
      </trkpt>
      <trkpt lat="47.8304" lon="7.03622">
        <ele>720.65</ele>
        <time>2022-06-13T09:44:03Z</time>
      </trkpt>
      <trkpt lat="47.83047" lon="7.03617">
        <ele>719.68</ele>
        <time>2022-06-13T09:44:04Z</time>
      </trkpt>
      <trkpt lat="47.83053" lon="7.03615">
        <ele>718.72</ele>
        <time>2022-06-13T09:44:05Z</time>
      </trkpt>
      <trkpt lat="47.8306" lon="7.03614">
        <ele>717.76</ele>
        <time>2022-06-13T09:44:06Z</time>
      </trkpt>
      <trkpt lat="47.83075" lon="7.03611">
        <ele>715.84</ele>
        <time>2022-06-13T09:44:08Z</time>
      </trkpt>
      <trkpt lat="47.83089" lon="7.03613">
        <ele>714.4</ele>
        <time>2022-06-13T09:44:10Z</time>
      </trkpt>
      <trkpt lat="47.83102" lon="7.03616">
        <ele>713.44</ele>
        <time>2022-06-13T09:44:12Z</time>
      </trkpt>
      <trkpt lat="47.83108" lon="7.0362">
        <ele>712.95</ele>
        <time>2022-06-13T09:44:13Z</time>
      </trkpt>
      <trkpt lat="47.83122" lon="7.03639">
        <ele>714.4</ele>
        <time>2022-06-13T09:44:21Z</time>
      </trkpt>
      <trkpt lat="47.83128" lon="7.03647">
        <ele>714.88</ele>
        <time>2022-06-13T09:44:26Z</time>
      </trkpt>
      <trkpt lat="47.83131" lon="7.03647">
        <ele>716.32</ele>
        <time>2022-06-13T09:44:30Z</time>
      </trkpt>
      <trkpt lat="47.83132" lon="7.03649">
        <ele>716.32</ele>
        <time>2022-06-13T09:44:31Z</time>
      </trkpt>
      <trkpt lat="47.83133" lon="7.03651">
        <ele>716.32</ele>
        <time>2022-06-13T09:44:32Z</time>
      </trkpt>
      <trkpt lat="47.83134" lon="7.03652">
        <ele>716.8</ele>
        <time>2022-06-13T09:44:33Z</time>
      </trkpt>
      <trkpt lat="47.83135" lon="7.03654">
        <ele>716.8</ele>
        <time>2022-06-13T09:44:34Z</time>
      </trkpt>
      <trkpt lat="47.83135" lon="7.03655">
        <ele>716.8</ele>
        <time>2022-06-13T09:44:35Z</time>
      </trkpt>
      <trkpt lat="47.83137" lon="7.03658">
        <ele>717.28</ele>
        <time>2022-06-13T09:44:38Z</time>
      </trkpt>
      <trkpt lat="47.83141" lon="7.03665">
        <ele>718.72</ele>
        <time>2022-06-13T09:44:46Z</time>
      </trkpt>
      <trkpt lat="47.83143" lon="7.03673">
        <ele>719.2</ele>
        <time>2022-06-13T09:44:50Z</time>
      </trkpt>
      <trkpt lat="47.83144" lon="7.03674">
        <ele>719.68</ele>
        <time>2022-06-13T09:44:51Z</time>
      </trkpt>
      <trkpt lat="47.83145" lon="7.03676">
        <ele>719.68</ele>
        <time>2022-06-13T09:44:52Z</time>
      </trkpt>
      <trkpt lat="47.83146" lon="7.03677">
        <ele>719.68</ele>
        <time>2022-06-13T09:44:53Z</time>
      </trkpt>
      <trkpt lat="47.83148" lon="7.03678">
        <ele>720.16</ele>
        <time>2022-06-13T09:44:54Z</time>
      </trkpt>
      <trkpt lat="47.83148" lon="7.0368">
        <ele>720.16</ele>
        <time>2022-06-13T09:44:55Z</time>
      </trkpt>
      <trkpt lat="47.83149" lon="7.03681">
        <ele>720.65</ele>
        <time>2022-06-13T09:44:56Z</time>
      </trkpt>
      <trkpt lat="47.83165" lon="7.03701">
        <ele>723.05</ele>
        <time>2022-06-13T09:45:07Z</time>
      </trkpt>
      <trkpt lat="47.83186" lon="7.03718">
        <ele>726.41</ele>
        <time>2022-06-13T09:45:16Z</time>
      </trkpt>
      <trkpt lat="47.83213" lon="7.03729">
        <ele>729.3</ele>
        <time>2022-06-13T09:45:26Z</time>
      </trkpt>
      <trkpt lat="47.83236" lon="7.03737">
        <ele>732.66</ele>
        <time>2022-06-13T09:45:36Z</time>
      </trkpt>
      <trkpt lat="47.83239" lon="7.03734">
        <ele>732.66</ele>
        <time>2022-06-13T09:45:37Z</time>
      </trkpt>
      <trkpt lat="47.83258" lon="7.03696">
        <ele>734.1</ele>
        <time>2022-06-13T09:45:47Z</time>
      </trkpt>
      <trkpt lat="47.8326" lon="7.03645">
        <ele>736.03</ele>
        <time>2022-06-13T09:45:58Z</time>
      </trkpt>
      <trkpt lat="47.83254" lon="7.03606">
        <ele>739.39</ele>
        <time>2022-06-13T09:46:07Z</time>
      </trkpt>
      <trkpt lat="47.83247" lon="7.03578">
        <ele>742.28</ele>
        <time>2022-06-13T09:46:15Z</time>
      </trkpt>
      <trkpt lat="47.83239" lon="7.03542">
        <ele>745.64</ele>
        <time>2022-06-13T09:46:25Z</time>
      </trkpt>
      <trkpt lat="47.83235" lon="7.0351">
        <ele>748.52</ele>
        <time>2022-06-13T09:46:34Z</time>
      </trkpt>
      <trkpt lat="47.83227" lon="7.03472">
        <ele>751.89</ele>
        <time>2022-06-13T09:46:44Z</time>
      </trkpt>
      <trkpt lat="47.83224" lon="7.03442">
        <ele>754.29</ele>
        <time>2022-06-13T09:46:56Z</time>
      </trkpt>
      <trkpt lat="47.83223" lon="7.03439">
        <ele>754.29</ele>
        <time>2022-06-13T09:47:19Z</time>
      </trkpt>
      <trkpt lat="47.83222" lon="7.03437">
        <ele>754.77</ele>
        <time>2022-06-13T09:47:45Z</time>
      </trkpt>
      <trkpt lat="47.83222" lon="7.03435">
        <ele>755.25</ele>
        <time>2022-06-13T09:48:17Z</time>
      </trkpt>
      <trkpt lat="47.83222" lon="7.03436">
        <ele>755.25</ele>
        <time>2022-06-13T09:48:43Z</time>
      </trkpt>
      <trkpt lat="47.83222" lon="7.03439">
        <ele>755.25</ele>
        <time>2022-06-13T09:49:13Z</time>
      </trkpt>
      <trkpt lat="47.83222" lon="7.03438">
        <ele>755.73</ele>
        <time>2022-06-13T09:49:32Z</time>
      </trkpt>
      <trkpt lat="47.83221" lon="7.03435">
        <ele>756.21</ele>
        <time>2022-06-13T09:49:38Z</time>
      </trkpt>
      <trkpt lat="47.83219" lon="7.03433">
        <ele>756.21</ele>
        <time>2022-06-13T09:49:39Z</time>
      </trkpt>
      <trkpt lat="47.83218" lon="7.03431">
        <ele>756.21</ele>
        <time>2022-06-13T09:49:40Z</time>
      </trkpt>
      <trkpt lat="47.83217" lon="7.03429">
        <ele>756.69</ele>
        <time>2022-06-13T09:49:41Z</time>
      </trkpt>
      <trkpt lat="47.83216" lon="7.03427">
        <ele>757.18</ele>
        <time>2022-06-13T09:49:42Z</time>
      </trkpt>
      <trkpt lat="47.83215" lon="7.03424">
        <ele>757.18</ele>
        <time>2022-06-13T09:49:43Z</time>
      </trkpt>
      <trkpt lat="47.83214" lon="7.03421">
        <ele>757.66</ele>
        <time>2022-06-13T09:49:44Z</time>
      </trkpt>
      <trkpt lat="47.83211" lon="7.03402">
        <ele>759.58</ele>
        <time>2022-06-13T09:49:50Z</time>
      </trkpt>
      <trkpt lat="47.83211" lon="7.03399">
        <ele>760.06</ele>
        <time>2022-06-13T09:49:51Z</time>
      </trkpt>
      <trkpt lat="47.83203" lon="7.03362">
        <ele>762.94</ele>
        <time>2022-06-13T09:49:59Z</time>
      </trkpt>
      <trkpt lat="47.83198" lon="7.03343">
        <ele>764.39</ele>
        <time>2022-06-13T09:50:03Z</time>
      </trkpt>
      <trkpt lat="47.83194" lon="7.03325">
        <ele>766.31</ele>
        <time>2022-06-13T09:50:07Z</time>
      </trkpt>
      <trkpt lat="47.83191" lon="7.03289">
        <ele>769.19</ele>
        <time>2022-06-13T09:50:16Z</time>
      </trkpt>
      <trkpt lat="47.83195" lon="7.03251">
        <ele>772.56</ele>
        <time>2022-06-13T09:50:25Z</time>
      </trkpt>
      <trkpt lat="47.83203" lon="7.03225">
        <ele>774.96</ele>
        <time>2022-06-13T09:50:33Z</time>
      </trkpt>
      <trkpt lat="47.83215" lon="7.03202">
        <ele>778.32</ele>
        <time>2022-06-13T09:50:42Z</time>
      </trkpt>
      <trkpt lat="47.83221" lon="7.03191">
        <ele>779.29</ele>
        <time>2022-06-13T09:50:45Z</time>
      </trkpt>
      <trkpt lat="47.83222" lon="7.03187">
        <ele>779.77</ele>
        <time>2022-06-13T09:50:46Z</time>
      </trkpt>
      <trkpt lat="47.83224" lon="7.03184">
        <ele>780.25</ele>
        <time>2022-06-13T09:50:47Z</time>
      </trkpt>
      <trkpt lat="47.83226" lon="7.03182">
        <ele>780.73</ele>
        <time>2022-06-13T09:50:48Z</time>
      </trkpt>
      <trkpt lat="47.83228" lon="7.03178">
        <ele>780.73</ele>
        <time>2022-06-13T09:50:49Z</time>
      </trkpt>
      <trkpt lat="47.83229" lon="7.03176">
        <ele>781.21</ele>
        <time>2022-06-13T09:50:50Z</time>
      </trkpt>
      <trkpt lat="47.8323" lon="7.03173">
        <ele>781.69</ele>
        <time>2022-06-13T09:50:51Z</time>
      </trkpt>
      <trkpt lat="47.8325" lon="7.03149">
        <ele>784.57</ele>
        <time>2022-06-13T09:51:00Z</time>
      </trkpt>
      <trkpt lat="47.8327" lon="7.03125">
        <ele>787.46</ele>
        <time>2022-06-13T09:51:10Z</time>
      </trkpt>
      <trkpt lat="47.83285" lon="7.03114">
        <ele>789.38</ele>
        <time>2022-06-13T09:51:17Z</time>
      </trkpt>
      <trkpt lat="47.83288" lon="7.03114">
        <ele>789.86</ele>
        <time>2022-06-13T09:51:18Z</time>
      </trkpt>
      <trkpt lat="47.83289" lon="7.03114">
        <ele>790.34</ele>
        <time>2022-06-13T09:51:19Z</time>
      </trkpt>
      <trkpt lat="47.8331" lon="7.03104">
        <ele>793.71</ele>
        <time>2022-06-13T09:51:28Z</time>
      </trkpt>
      <trkpt lat="47.8332" lon="7.03095">
        <ele>795.63</ele>
        <time>2022-06-13T09:51:34Z</time>
      </trkpt>
      <trkpt lat="47.8335" lon="7.03083">
        <ele>798.99</ele>
        <time>2022-06-13T09:51:45Z</time>
      </trkpt>
      <trkpt lat="47.83369" lon="7.03078">
        <ele>801.88</ele>
        <time>2022-06-13T09:51:52Z</time>
      </trkpt>
      <trkpt lat="47.83377" lon="7.03077">
        <ele>802.36</ele>
        <time>2022-06-13T09:51:55Z</time>
      </trkpt>
      <trkpt lat="47.83382" lon="7.0308">
        <ele>802.84</ele>
        <time>2022-06-13T09:51:57Z</time>
      </trkpt>
      <trkpt lat="47.83384" lon="7.0308">
        <ele>802.84</ele>
        <time>2022-06-13T09:51:58Z</time>
      </trkpt>
      <trkpt lat="47.83387" lon="7.03079">
        <ele>803.32</ele>
        <time>2022-06-13T09:51:59Z</time>
      </trkpt>
      <trkpt lat="47.83416" lon="7.03065">
        <ele>806.2</ele>
        <time>2022-06-13T09:52:09Z</time>
      </trkpt>
      <trkpt lat="47.83452" lon="7.03039">
        <ele>806.68</ele>
        <time>2022-06-13T09:52:22Z</time>
      </trkpt>
      <trkpt lat="47.83472" lon="7.03015">
        <ele>803.8</ele>
        <time>2022-06-13T09:52:35Z</time>
      </trkpt>
      <trkpt lat="47.83472" lon="7.03012">
        <ele>803.32</ele>
        <time>2022-06-13T09:52:36Z</time>
      </trkpt>
      <trkpt lat="47.83473" lon="7.03009">
        <ele>803.32</ele>
        <time>2022-06-13T09:52:37Z</time>
      </trkpt>
      <trkpt lat="47.83474" lon="7.03006">
        <ele>802.84</ele>
        <time>2022-06-13T09:52:38Z</time>
      </trkpt>
      <trkpt lat="47.83474" lon="7.03002">
        <ele>802.84</ele>
        <time>2022-06-13T09:52:39Z</time>
      </trkpt>
      <trkpt lat="47.83473" lon="7.02996">
        <ele>802.36</ele>
        <time>2022-06-13T09:52:40Z</time>
      </trkpt>
      <trkpt lat="47.83473" lon="7.02989">
        <ele>801.88</ele>
        <time>2022-06-13T09:52:41Z</time>
      </trkpt>
      <trkpt lat="47.83474" lon="7.02983">
        <ele>801.4</ele>
        <time>2022-06-13T09:52:42Z</time>
      </trkpt>
      <trkpt lat="47.83475" lon="7.02976">
        <ele>800.92</ele>
        <time>2022-06-13T09:52:43Z</time>
      </trkpt>
      <trkpt lat="47.83475" lon="7.02969">
        <ele>800.44</ele>
        <time>2022-06-13T09:52:44Z</time>
      </trkpt>
      <trkpt lat="47.83469" lon="7.02923">
        <ele>797.07</ele>
        <time>2022-06-13T09:52:51Z</time>
      </trkpt>
      <trkpt lat="47.83467" lon="7.02917">
        <ele>796.59</ele>
        <time>2022-06-13T09:52:52Z</time>
      </trkpt>
      <trkpt lat="47.83457" lon="7.02893">
        <ele>794.19</ele>
        <time>2022-06-13T09:52:56Z</time>
      </trkpt>
      <trkpt lat="47.83454" lon="7.02888">
        <ele>793.71</ele>
        <time>2022-06-13T09:52:57Z</time>
      </trkpt>
      <trkpt lat="47.83442" lon="7.02873">
        <ele>792.26</ele>
        <time>2022-06-13T09:53:00Z</time>
      </trkpt>
      <trkpt lat="47.83439" lon="7.02868">
        <ele>791.78</ele>
        <time>2022-06-13T09:53:01Z</time>
      </trkpt>
      <trkpt lat="47.83433" lon="7.02856">
        <ele>790.82</ele>
        <time>2022-06-13T09:53:03Z</time>
      </trkpt>
      <trkpt lat="47.8343" lon="7.0285">
        <ele>789.38</ele>
        <time>2022-06-13T09:53:04Z</time>
      </trkpt>
      <trkpt lat="47.83426" lon="7.02844">
        <ele>788.9</ele>
        <time>2022-06-13T09:53:05Z</time>
      </trkpt>
      <trkpt lat="47.83418" lon="7.02832">
        <ele>786.98</ele>
        <time>2022-06-13T09:53:07Z</time>
      </trkpt>
      <trkpt lat="47.83413" lon="7.02826">
        <ele>786.02</ele>
        <time>2022-06-13T09:53:08Z</time>
      </trkpt>
      <trkpt lat="47.83409" lon="7.0282">
        <ele>785.05</ele>
        <time>2022-06-13T09:53:09Z</time>
      </trkpt>
      <trkpt lat="47.83405" lon="7.02812">
        <ele>784.09</ele>
        <time>2022-06-13T09:53:10Z</time>
      </trkpt>
      <trkpt lat="47.83402" lon="7.02804">
        <ele>783.13</ele>
        <time>2022-06-13T09:53:11Z</time>
      </trkpt>
      <trkpt lat="47.834" lon="7.02795">
        <ele>782.65</ele>
        <time>2022-06-13T09:53:12Z</time>
      </trkpt>
      <trkpt lat="47.83399" lon="7.02785">
        <ele>781.69</ele>
        <time>2022-06-13T09:53:13Z</time>
      </trkpt>
      <trkpt lat="47.83398" lon="7.02774">
        <ele>780.73</ele>
        <time>2022-06-13T09:53:14Z</time>
      </trkpt>
      <trkpt lat="47.83396" lon="7.02761">
        <ele>779.29</ele>
        <time>2022-06-13T09:53:15Z</time>
      </trkpt>
      <trkpt lat="47.83394" lon="7.0275">
        <ele>778.32</ele>
        <time>2022-06-13T09:53:16Z</time>
      </trkpt>
      <trkpt lat="47.8339" lon="7.0274">
        <ele>777.36</ele>
        <time>2022-06-13T09:53:17Z</time>
      </trkpt>
      <trkpt lat="47.83387" lon="7.02731">
        <ele>776.88</ele>
        <time>2022-06-13T09:53:18Z</time>
      </trkpt>
      <trkpt lat="47.83385" lon="7.0272">
        <ele>775.92</ele>
        <time>2022-06-13T09:53:19Z</time>
      </trkpt>
      <trkpt lat="47.83384" lon="7.02708">
        <ele>774.96</ele>
        <time>2022-06-13T09:53:20Z</time>
      </trkpt>
      <trkpt lat="47.83384" lon="7.02697">
        <ele>774.48</ele>
        <time>2022-06-13T09:53:21Z</time>
      </trkpt>
      <trkpt lat="47.83384" lon="7.02687">
        <ele>773.52</ele>
        <time>2022-06-13T09:53:22Z</time>
      </trkpt>
      <trkpt lat="47.83384" lon="7.02677">
        <ele>773.04</ele>
        <time>2022-06-13T09:53:23Z</time>
      </trkpt>
      <trkpt lat="47.83385" lon="7.02669">
        <ele>772.08</ele>
        <time>2022-06-13T09:53:24Z</time>
      </trkpt>
      <trkpt lat="47.83386" lon="7.0266">
        <ele>771.6</ele>
        <time>2022-06-13T09:53:25Z</time>
      </trkpt>
      <trkpt lat="47.83389" lon="7.02652">
        <ele>771.11</ele>
        <time>2022-06-13T09:53:26Z</time>
      </trkpt>
      <trkpt lat="47.83392" lon="7.02646">
        <ele>771.11</ele>
        <time>2022-06-13T09:53:27Z</time>
      </trkpt>
      <trkpt lat="47.83393" lon="7.02641">
        <ele>771.11</ele>
        <time>2022-06-13T09:53:28Z</time>
      </trkpt>
      <trkpt lat="47.83395" lon="7.02638">
        <ele>771.11</ele>
        <time>2022-06-13T09:53:29Z</time>
      </trkpt>
      <trkpt lat="47.83395" lon="7.02634">
        <ele>771.11</ele>
        <time>2022-06-13T09:53:31Z</time>
      </trkpt>
      <trkpt lat="47.83394" lon="7.02631">
        <ele>771.11</ele>
        <time>2022-06-13T09:53:32Z</time>
      </trkpt>
      <trkpt lat="47.83393" lon="7.02629">
        <ele>771.6</ele>
        <time>2022-06-13T09:53:33Z</time>
      </trkpt>
      <trkpt lat="47.83388" lon="7.02619">
        <ele>772.08</ele>
        <time>2022-06-13T09:53:47Z</time>
      </trkpt>
      <trkpt lat="47.83389" lon="7.02615">
        <ele>772.08</ele>
        <time>2022-06-13T09:53:57Z</time>
      </trkpt>
      <trkpt lat="47.83389" lon="7.02602">
        <ele>773.04</ele>
        <time>2022-06-13T09:54:02Z</time>
      </trkpt>
      <trkpt lat="47.83392" lon="7.02583">
        <ele>775.44</ele>
        <time>2022-06-13T09:54:08Z</time>
      </trkpt>
      <trkpt lat="47.83392" lon="7.02579">
        <ele>775.44</ele>
        <time>2022-06-13T09:54:09Z</time>
      </trkpt>
      <trkpt lat="47.83392" lon="7.02576">
        <ele>776.4</ele>
        <time>2022-06-13T09:54:10Z</time>
      </trkpt>
      <trkpt lat="47.83393" lon="7.02572">
        <ele>776.4</ele>
        <time>2022-06-13T09:54:11Z</time>
      </trkpt>
      <trkpt lat="47.83393" lon="7.02568">
        <ele>776.88</ele>
        <time>2022-06-13T09:54:12Z</time>
      </trkpt>
      <trkpt lat="47.83394" lon="7.02565">
        <ele>776.88</ele>
        <time>2022-06-13T09:54:13Z</time>
      </trkpt>
      <trkpt lat="47.83398" lon="7.02537">
        <ele>780.25</ele>
        <time>2022-06-13T09:54:20Z</time>
      </trkpt>
      <trkpt lat="47.83403" lon="7.02501">
        <ele>783.61</ele>
        <time>2022-06-13T09:54:29Z</time>
      </trkpt>
      <trkpt lat="47.83405" lon="7.02482">
        <ele>785.05</ele>
        <time>2022-06-13T09:54:33Z</time>
      </trkpt>
      <trkpt lat="47.83406" lon="7.02462">
        <ele>786.98</ele>
        <time>2022-06-13T09:54:38Z</time>
      </trkpt>
      <trkpt lat="47.83406" lon="7.02458">
        <ele>786.98</ele>
        <time>2022-06-13T09:54:39Z</time>
      </trkpt>
      <trkpt lat="47.83407" lon="7.02454">
        <ele>787.94</ele>
        <time>2022-06-13T09:54:40Z</time>
      </trkpt>
      <trkpt lat="47.83407" lon="7.0245">
        <ele>787.94</ele>
        <time>2022-06-13T09:54:41Z</time>
      </trkpt>
      <trkpt lat="47.83406" lon="7.02445">
        <ele>788.42</ele>
        <time>2022-06-13T09:54:42Z</time>
      </trkpt>
      <trkpt lat="47.83405" lon="7.0244">
        <ele>788.42</ele>
        <time>2022-06-13T09:54:43Z</time>
      </trkpt>
      <trkpt lat="47.83404" lon="7.02435">
        <ele>788.9</ele>
        <time>2022-06-13T09:54:44Z</time>
      </trkpt>
      <trkpt lat="47.83403" lon="7.0243">
        <ele>789.38</ele>
        <time>2022-06-13T09:54:45Z</time>
      </trkpt>
      <trkpt lat="47.83402" lon="7.02425">
        <ele>789.38</ele>
        <time>2022-06-13T09:54:46Z</time>
      </trkpt>
      <trkpt lat="47.83401" lon="7.02421">
        <ele>789.86</ele>
        <time>2022-06-13T09:54:47Z</time>
      </trkpt>
      <trkpt lat="47.834" lon="7.02417">
        <ele>789.86</ele>
        <time>2022-06-13T09:54:48Z</time>
      </trkpt>
      <trkpt lat="47.83398" lon="7.02413">
        <ele>790.34</ele>
        <time>2022-06-13T09:54:49Z</time>
      </trkpt>
      <trkpt lat="47.83397" lon="7.02409">
        <ele>790.34</ele>
        <time>2022-06-13T09:54:50Z</time>
      </trkpt>
      <trkpt lat="47.83395" lon="7.02406">
        <ele>790.82</ele>
        <time>2022-06-13T09:54:51Z</time>
      </trkpt>
      <trkpt lat="47.83386" lon="7.02361">
        <ele>792.74</ele>
        <time>2022-06-13T09:55:01Z</time>
      </trkpt>
      <trkpt lat="47.83376" lon="7.02305">
        <ele>795.15</ele>
        <time>2022-06-13T09:55:12Z</time>
      </trkpt>
      <trkpt lat="47.83364" lon="7.02259">
        <ele>798.03</ele>
        <time>2022-06-13T09:55:22Z</time>
      </trkpt>
      <trkpt lat="47.83343" lon="7.02213">
        <ele>801.4</ele>
        <time>2022-06-13T09:55:33Z</time>
      </trkpt>
      <trkpt lat="47.83323" lon="7.02184">
        <ele>804.76</ele>
        <time>2022-06-13T09:55:42Z</time>
      </trkpt>
      <trkpt lat="47.83314" lon="7.02173">
        <ele>807.64</ele>
        <time>2022-06-13T09:55:48Z</time>
      </trkpt>
      <trkpt lat="47.83304" lon="7.02157">
        <ele>809.57</ele>
        <time>2022-06-13T09:55:53Z</time>
      </trkpt>
      <trkpt lat="47.83292" lon="7.0214">
        <ele>812.93</ele>
        <time>2022-06-13T09:56:00Z</time>
      </trkpt>
      <trkpt lat="47.83291" lon="7.02138">
        <ele>813.41</ele>
        <time>2022-06-13T09:56:01Z</time>
      </trkpt>
      <trkpt lat="47.8329" lon="7.02137">
        <ele>813.89</ele>
        <time>2022-06-13T09:56:02Z</time>
      </trkpt>
      <trkpt lat="47.83273" lon="7.02118">
        <ele>816.78</ele>
        <time>2022-06-13T09:56:10Z</time>
      </trkpt>
      <trkpt lat="47.83269" lon="7.02111">
        <ele>817.74</ele>
        <time>2022-06-13T09:56:12Z</time>
      </trkpt>
      <trkpt lat="47.83256" lon="7.02099">
        <ele>820.62</ele>
        <time>2022-06-13T09:56:18Z</time>
      </trkpt>
      <trkpt lat="47.83244" lon="7.02081">
        <ele>823.51</ele>
        <time>2022-06-13T09:56:25Z</time>
      </trkpt>
      <trkpt lat="47.8323" lon="7.02058">
        <ele>826.87</ele>
        <time>2022-06-13T09:56:34Z</time>
      </trkpt>
      <trkpt lat="47.83219" lon="7.02042">
        <ele>828.79</ele>
        <time>2022-06-13T09:56:39Z</time>
      </trkpt>
      <trkpt lat="47.83215" lon="7.02034">
        <ele>829.27</ele>
        <time>2022-06-13T09:56:42Z</time>
      </trkpt>
      <trkpt lat="47.83214" lon="7.02033">
        <ele>829.76</ele>
        <time>2022-06-13T09:56:43Z</time>
      </trkpt>
      <trkpt lat="47.83194" lon="7.02002">
        <ele>831.2</ele>
        <time>2022-06-13T09:56:53Z</time>
      </trkpt>
      <trkpt lat="47.83173" lon="7.01948">
        <ele>833.12</ele>
        <time>2022-06-13T09:57:04Z</time>
      </trkpt>
      <trkpt lat="47.83164" lon="7.01885">
        <ele>836.48</ele>
        <time>2022-06-13T09:57:15Z</time>
      </trkpt>
      <trkpt lat="47.83186" lon="7.01862">
        <ele>838.89</ele>
        <time>2022-06-13T09:57:25Z</time>
      </trkpt>
      <trkpt lat="47.83219" lon="7.01848">
        <ele>842.25</ele>
        <time>2022-06-13T09:57:38Z</time>
      </trkpt>
      <trkpt lat="47.83244" lon="7.01828">
        <ele>845.14</ele>
        <time>2022-06-13T09:57:47Z</time>
      </trkpt>
      <trkpt lat="47.83265" lon="7.01818">
        <ele>848.5</ele>
        <time>2022-06-13T09:57:55Z</time>
      </trkpt>
      <trkpt lat="47.83279" lon="7.01811">
        <ele>850.42</ele>
        <time>2022-06-13T09:58:01Z</time>
      </trkpt>
      <trkpt lat="47.83281" lon="7.0181">
        <ele>850.42</ele>
        <time>2022-06-13T09:58:02Z</time>
      </trkpt>
      <trkpt lat="47.83283" lon="7.01809">
        <ele>850.9</ele>
        <time>2022-06-13T09:58:03Z</time>
      </trkpt>
      <trkpt lat="47.83286" lon="7.01808">
        <ele>851.38</ele>
        <time>2022-06-13T09:58:04Z</time>
      </trkpt>
      <trkpt lat="47.83287" lon="7.01807">
        <ele>851.38</ele>
        <time>2022-06-13T09:58:05Z</time>
      </trkpt>
      <trkpt lat="47.83289" lon="7.01806">
        <ele>851.87</ele>
        <time>2022-06-13T09:58:06Z</time>
      </trkpt>
      <trkpt lat="47.83315" lon="7.01794">
        <ele>854.75</ele>
        <time>2022-06-13T09:58:17Z</time>
      </trkpt>
      <trkpt lat="47.83318" lon="7.01793">
        <ele>854.75</ele>
        <time>2022-06-13T09:58:18Z</time>
      </trkpt>
      <trkpt lat="47.8332" lon="7.01792">
        <ele>855.23</ele>
        <time>2022-06-13T09:58:19Z</time>
      </trkpt>
      <trkpt lat="47.83323" lon="7.01791">
        <ele>855.71</ele>
        <time>2022-06-13T09:58:20Z</time>
      </trkpt>
      <trkpt lat="47.83325" lon="7.0179">
        <ele>856.19</ele>
        <time>2022-06-13T09:58:21Z</time>
      </trkpt>
      <trkpt lat="47.83327" lon="7.01789">
        <ele>856.19</ele>
        <time>2022-06-13T09:58:22Z</time>
      </trkpt>
      <trkpt lat="47.83329" lon="7.01789">
        <ele>856.67</ele>
        <time>2022-06-13T09:58:23Z</time>
      </trkpt>
      <trkpt lat="47.83331" lon="7.01788">
        <ele>856.67</ele>
        <time>2022-06-13T09:58:24Z</time>
      </trkpt>
      <trkpt lat="47.83334" lon="7.01787">
        <ele>857.15</ele>
        <time>2022-06-13T09:58:25Z</time>
      </trkpt>
      <trkpt lat="47.83337" lon="7.01785">
        <ele>857.63</ele>
        <time>2022-06-13T09:58:26Z</time>
      </trkpt>
      <trkpt lat="47.83363" lon="7.01775">
        <ele>860.52</ele>
        <time>2022-06-13T09:58:36Z</time>
      </trkpt>
      <trkpt lat="47.83365" lon="7.01773">
        <ele>861</ele>
        <time>2022-06-13T09:58:37Z</time>
      </trkpt>
      <trkpt lat="47.83367" lon="7.01772">
        <ele>861</ele>
        <time>2022-06-13T09:58:38Z</time>
      </trkpt>
      <trkpt lat="47.83369" lon="7.01771">
        <ele>861.48</ele>
        <time>2022-06-13T09:58:39Z</time>
      </trkpt>
      <trkpt lat="47.83371" lon="7.01771">
        <ele>861.96</ele>
        <time>2022-06-13T09:58:40Z</time>
      </trkpt>
      <trkpt lat="47.83374" lon="7.01769">
        <ele>862.44</ele>
        <time>2022-06-13T09:58:42Z</time>
      </trkpt>
      <trkpt lat="47.83375" lon="7.01768">
        <ele>862.92</ele>
        <time>2022-06-13T09:58:43Z</time>
      </trkpt>
      <trkpt lat="47.83395" lon="7.01752">
        <ele>865.8</ele>
        <time>2022-06-13T09:58:53Z</time>
      </trkpt>
      <trkpt lat="47.8342" lon="7.01739">
        <ele>868.21</ele>
        <time>2022-06-13T09:59:02Z</time>
      </trkpt>
      <trkpt lat="47.83423" lon="7.01737">
        <ele>868.21</ele>
        <time>2022-06-13T09:59:03Z</time>
      </trkpt>
      <trkpt lat="47.83426" lon="7.01736">
        <ele>868.69</ele>
        <time>2022-06-13T09:59:04Z</time>
      </trkpt>
      <trkpt lat="47.83428" lon="7.01735">
        <ele>868.69</ele>
        <time>2022-06-13T09:59:05Z</time>
      </trkpt>
      <trkpt lat="47.83431" lon="7.01735">
        <ele>869.17</ele>
        <time>2022-06-13T09:59:06Z</time>
      </trkpt>
      <trkpt lat="47.83454" lon="7.01724">
        <ele>871.57</ele>
        <time>2022-06-13T09:59:16Z</time>
      </trkpt>
      <trkpt lat="47.83457" lon="7.01723">
        <ele>871.57</ele>
        <time>2022-06-13T09:59:17Z</time>
      </trkpt>
      <trkpt lat="47.83459" lon="7.01723">
        <ele>871.57</ele>
        <time>2022-06-13T09:59:18Z</time>
      </trkpt>
      <trkpt lat="47.83461" lon="7.01722">
        <ele>872.05</ele>
        <time>2022-06-13T09:59:19Z</time>
      </trkpt>
      <trkpt lat="47.83471" lon="7.01717">
        <ele>873.01</ele>
        <time>2022-06-13T09:59:24Z</time>
      </trkpt>
      <trkpt lat="47.83473" lon="7.01716">
        <ele>873.5</ele>
        <time>2022-06-13T09:59:25Z</time>
      </trkpt>
      <trkpt lat="47.83498" lon="7.01694">
        <ele>875.9</ele>
        <time>2022-06-13T09:59:33Z</time>
      </trkpt>
      <trkpt lat="47.83501" lon="7.01692">
        <ele>876.38</ele>
        <time>2022-06-13T09:59:34Z</time>
      </trkpt>
      <trkpt lat="47.83504" lon="7.01689">
        <ele>876.86</ele>
        <time>2022-06-13T09:59:35Z</time>
      </trkpt>
      <trkpt lat="47.83507" lon="7.01686">
        <ele>877.34</ele>
        <time>2022-06-13T09:59:36Z</time>
      </trkpt>
      <trkpt lat="47.8351" lon="7.01683">
        <ele>877.34</ele>
        <time>2022-06-13T09:59:37Z</time>
      </trkpt>
      <trkpt lat="47.83514" lon="7.0168">
        <ele>877.82</ele>
        <time>2022-06-13T09:59:38Z</time>
      </trkpt>
      <trkpt lat="47.83518" lon="7.01678">
        <ele>877.82</ele>
        <time>2022-06-13T09:59:39Z</time>
      </trkpt>
      <trkpt lat="47.83522" lon="7.01676">
        <ele>878.3</ele>
        <time>2022-06-13T09:59:40Z</time>
      </trkpt>
      <trkpt lat="47.83526" lon="7.01675">
        <ele>878.3</ele>
        <time>2022-06-13T09:59:41Z</time>
      </trkpt>
      <trkpt lat="47.83529" lon="7.01674">
        <ele>878.3</ele>
        <time>2022-06-13T09:59:42Z</time>
      </trkpt>
      <trkpt lat="47.83531" lon="7.01673">
        <ele>878.78</ele>
        <time>2022-06-13T09:59:43Z</time>
      </trkpt>
      <trkpt lat="47.83534" lon="7.01671">
        <ele>878.78</ele>
        <time>2022-06-13T09:59:44Z</time>
      </trkpt>
      <trkpt lat="47.83562" lon="7.01655">
        <ele>877.34</ele>
        <time>2022-06-13T09:59:55Z</time>
      </trkpt>
      <trkpt lat="47.83582" lon="7.01643">
        <ele>875.42</ele>
        <time>2022-06-13T10:00:00Z</time>
      </trkpt>
      <trkpt lat="47.83586" lon="7.01641">
        <ele>874.46</ele>
        <time>2022-06-13T10:00:01Z</time>
      </trkpt>
      <trkpt lat="47.83591" lon="7.01638">
        <ele>873.98</ele>
        <time>2022-06-13T10:00:02Z</time>
      </trkpt>
      <trkpt lat="47.83605" lon="7.01632">
        <ele>872.53</ele>
        <time>2022-06-13T10:00:05Z</time>
      </trkpt>
      <trkpt lat="47.8361" lon="7.0163">
        <ele>872.05</ele>
        <time>2022-06-13T10:00:06Z</time>
      </trkpt>
      <trkpt lat="47.83621" lon="7.01627">
        <ele>870.13</ele>
        <time>2022-06-13T10:00:08Z</time>
      </trkpt>
      <trkpt lat="47.83637" lon="7.01622">
        <ele>868.21</ele>
        <time>2022-06-13T10:00:11Z</time>
      </trkpt>
      <trkpt lat="47.83642" lon="7.01619">
        <ele>867.25</ele>
        <time>2022-06-13T10:00:12Z</time>
      </trkpt>
      <trkpt lat="47.83664" lon="7.0161">
        <ele>863.88</ele>
        <time>2022-06-13T10:00:16Z</time>
      </trkpt>
      <trkpt lat="47.83671" lon="7.01609">
        <ele>862.92</ele>
        <time>2022-06-13T10:00:17Z</time>
      </trkpt>
      <trkpt lat="47.83677" lon="7.01609">
        <ele>862.44</ele>
        <time>2022-06-13T10:00:18Z</time>
      </trkpt>
      <trkpt lat="47.83683" lon="7.01609">
        <ele>861.48</ele>
        <time>2022-06-13T10:00:19Z</time>
      </trkpt>
      <trkpt lat="47.83689" lon="7.01609">
        <ele>861</ele>
        <time>2022-06-13T10:00:20Z</time>
      </trkpt>
      <trkpt lat="47.83695" lon="7.01608">
        <ele>860.04</ele>
        <time>2022-06-13T10:00:21Z</time>
      </trkpt>
      <trkpt lat="47.837" lon="7.01607">
        <ele>859.56</ele>
        <time>2022-06-13T10:00:22Z</time>
      </trkpt>
      <trkpt lat="47.83705" lon="7.01605">
        <ele>858.59</ele>
        <time>2022-06-13T10:00:23Z</time>
      </trkpt>
      <trkpt lat="47.83714" lon="7.01599">
        <ele>857.15</ele>
        <time>2022-06-13T10:00:25Z</time>
      </trkpt>
      <trkpt lat="47.83724" lon="7.01589">
        <ele>854.75</ele>
        <time>2022-06-13T10:00:27Z</time>
      </trkpt>
      <trkpt lat="47.83729" lon="7.01582">
        <ele>853.79</ele>
        <time>2022-06-13T10:00:28Z</time>
      </trkpt>
      <trkpt lat="47.83733" lon="7.01573">
        <ele>852.83</ele>
        <time>2022-06-13T10:00:29Z</time>
      </trkpt>
      <trkpt lat="47.83738" lon="7.01553">
        <ele>851.87</ele>
        <time>2022-06-13T10:00:31Z</time>
      </trkpt>
      <trkpt lat="47.83748" lon="7.0149">
        <ele>848.98</ele>
        <time>2022-06-13T10:00:37Z</time>
      </trkpt>
      <trkpt lat="47.83752" lon="7.01447">
        <ele>846.58</ele>
        <time>2022-06-13T10:00:41Z</time>
      </trkpt>
      <trkpt lat="47.83753" lon="7.01436">
        <ele>846.1</ele>
        <time>2022-06-13T10:00:42Z</time>
      </trkpt>
      <trkpt lat="47.83753" lon="7.01425">
        <ele>845.14</ele>
        <time>2022-06-13T10:00:43Z</time>
      </trkpt>
      <trkpt lat="47.83753" lon="7.01413">
        <ele>844.66</ele>
        <time>2022-06-13T10:00:44Z</time>
      </trkpt>
      <trkpt lat="47.83754" lon="7.01401">
        <ele>843.69</ele>
        <time>2022-06-13T10:00:45Z</time>
      </trkpt>
      <trkpt lat="47.83755" lon="7.01389">
        <ele>842.73</ele>
        <time>2022-06-13T10:00:46Z</time>
      </trkpt>
      <trkpt lat="47.83756" lon="7.01377">
        <ele>841.77</ele>
        <time>2022-06-13T10:00:47Z</time>
      </trkpt>
      <trkpt lat="47.83756" lon="7.01365">
        <ele>841.29</ele>
        <time>2022-06-13T10:00:48Z</time>
      </trkpt>
      <trkpt lat="47.83756" lon="7.01352">
        <ele>838.89</ele>
        <time>2022-06-13T10:00:49Z</time>
      </trkpt>
      <trkpt lat="47.83756" lon="7.01326">
        <ele>836.96</ele>
        <time>2022-06-13T10:00:51Z</time>
      </trkpt>
      <trkpt lat="47.8376" lon="7.013">
        <ele>835.04</ele>
        <time>2022-06-13T10:00:53Z</time>
      </trkpt>
      <trkpt lat="47.83765" lon="7.01276">
        <ele>832.64</ele>
        <time>2022-06-13T10:00:55Z</time>
      </trkpt>
      <trkpt lat="47.83777" lon="7.01239">
        <ele>828.79</ele>
        <time>2022-06-13T10:00:59Z</time>
      </trkpt>
      <trkpt lat="47.83783" lon="7.01226">
        <ele>827.83</ele>
        <time>2022-06-13T10:01:00Z</time>
      </trkpt>
      <trkpt lat="47.83788" lon="7.01217">
        <ele>826.87</ele>
        <time>2022-06-13T10:01:01Z</time>
      </trkpt>
      <trkpt lat="47.83793" lon="7.01209">
        <ele>825.91</ele>
        <time>2022-06-13T10:01:02Z</time>
      </trkpt>
      <trkpt lat="47.83798" lon="7.01203">
        <ele>824.95</ele>
        <time>2022-06-13T10:01:03Z</time>
      </trkpt>
      <trkpt lat="47.83804" lon="7.01198">
        <ele>823.51</ele>
        <time>2022-06-13T10:01:04Z</time>
      </trkpt>
      <trkpt lat="47.8381" lon="7.01194">
        <ele>822.55</ele>
        <time>2022-06-13T10:01:05Z</time>
      </trkpt>
      <trkpt lat="47.83816" lon="7.01191">
        <ele>821.58</ele>
        <time>2022-06-13T10:01:06Z</time>
      </trkpt>
      <trkpt lat="47.83829" lon="7.01185">
        <ele>818.22</ele>
        <time>2022-06-13T10:01:08Z</time>
      </trkpt>
      <trkpt lat="47.83835" lon="7.01182">
        <ele>818.22</ele>
        <time>2022-06-13T10:01:09Z</time>
      </trkpt>
      <trkpt lat="47.83852" lon="7.01178">
        <ele>815.82</ele>
        <time>2022-06-13T10:01:11Z</time>
      </trkpt>
      <trkpt lat="47.83883" lon="7.01176">
        <ele>811.49</ele>
        <time>2022-06-13T10:01:14Z</time>
      </trkpt>
      <trkpt lat="47.83921" lon="7.01174">
        <ele>808.61</ele>
        <time>2022-06-13T10:01:18Z</time>
      </trkpt>
      <trkpt lat="47.83929" lon="7.01173">
        <ele>808.13</ele>
        <time>2022-06-13T10:01:19Z</time>
      </trkpt>
      <trkpt lat="47.83938" lon="7.01174">
        <ele>807.16</ele>
        <time>2022-06-13T10:01:20Z</time>
      </trkpt>
      <trkpt lat="47.83946" lon="7.01173">
        <ele>806.68</ele>
        <time>2022-06-13T10:01:21Z</time>
      </trkpt>
      <trkpt lat="47.8397" lon="7.01166">
        <ele>803.32</ele>
        <time>2022-06-13T10:01:24Z</time>
      </trkpt>
      <trkpt lat="47.83992" lon="7.01156">
        <ele>799.95</ele>
        <time>2022-06-13T10:01:27Z</time>
      </trkpt>
      <trkpt lat="47.84" lon="7.01151">
        <ele>798.99</ele>
        <time>2022-06-13T10:01:28Z</time>
      </trkpt>
      <trkpt lat="47.84023" lon="7.01134">
        <ele>796.11</ele>
        <time>2022-06-13T10:01:31Z</time>
      </trkpt>
      <trkpt lat="47.84049" lon="7.0111">
        <ele>792.26</ele>
        <time>2022-06-13T10:01:35Z</time>
      </trkpt>
      <trkpt lat="47.84062" lon="7.01088">
        <ele>790.34</ele>
        <time>2022-06-13T10:01:40Z</time>
      </trkpt>
      <trkpt lat="47.84065" lon="7.01073">
        <ele>790.82</ele>
        <time>2022-06-13T10:01:54Z</time>
      </trkpt>
      <trkpt lat="47.84067" lon="7.01068">
        <ele>791.3</ele>
        <time>2022-06-13T10:02:17Z</time>
      </trkpt>
      <trkpt lat="47.84062" lon="7.01067">
        <ele>791.3</ele>
        <time>2022-06-13T10:02:45Z</time>
      </trkpt>
      <trkpt lat="47.84061" lon="7.01066">
        <ele>791.78</ele>
        <time>2022-06-13T10:03:09Z</time>
      </trkpt>
      <trkpt lat="47.84061" lon="7.01066">
        <ele>792.74</ele>
        <time>2022-06-13T10:03:38Z</time>
      </trkpt>
      <trkpt lat="47.84061" lon="7.01065">
        <ele>793.22</ele>
        <time>2022-06-13T10:04:01Z</time>
      </trkpt>
      <trkpt lat="47.8406" lon="7.01065">
        <ele>793.22</ele>
        <time>2022-06-13T10:04:28Z</time>
      </trkpt>
      <trkpt lat="47.84059" lon="7.01064">
        <ele>793.71</ele>
        <time>2022-06-13T10:04:55Z</time>
      </trkpt>
      <trkpt lat="47.84058" lon="7.01065">
        <ele>794.19</ele>
        <time>2022-06-13T10:05:18Z</time>
      </trkpt>
      <trkpt lat="47.84059" lon="7.01064">
        <ele>794.19</ele>
        <time>2022-06-13T10:05:39Z</time>
      </trkpt>
      <trkpt lat="47.84063" lon="7.01063">
        <ele>793.71</ele>
        <time>2022-06-13T10:05:50Z</time>
      </trkpt>
      <trkpt lat="47.84067" lon="7.01061">
        <ele>793.22</ele>
        <time>2022-06-13T10:05:52Z</time>
      </trkpt>
      <trkpt lat="47.8407" lon="7.01059">
        <ele>793.22</ele>
        <time>2022-06-13T10:05:53Z</time>
      </trkpt>
      <trkpt lat="47.84072" lon="7.01057">
        <ele>792.74</ele>
        <time>2022-06-13T10:05:54Z</time>
      </trkpt>
      <trkpt lat="47.84076" lon="7.01055">
        <ele>791.78</ele>
        <time>2022-06-13T10:05:55Z</time>
      </trkpt>
      <trkpt lat="47.8408" lon="7.01052">
        <ele>791.3</ele>
        <time>2022-06-13T10:05:56Z</time>
      </trkpt>
      <trkpt lat="47.84084" lon="7.01049">
        <ele>791.3</ele>
        <time>2022-06-13T10:05:57Z</time>
      </trkpt>
      <trkpt lat="47.84088" lon="7.01045">
        <ele>790.82</ele>
        <time>2022-06-13T10:05:58Z</time>
      </trkpt>
      <trkpt lat="47.84096" lon="7.01037">
        <ele>789.86</ele>
        <time>2022-06-13T10:06:00Z</time>
      </trkpt>
      <trkpt lat="47.84108" lon="7.0102">
        <ele>787.94</ele>
        <time>2022-06-13T10:06:04Z</time>
      </trkpt>
      <trkpt lat="47.84118" lon="7.00981">
        <ele>786.02</ele>
        <time>2022-06-13T10:06:13Z</time>
      </trkpt>
      <trkpt lat="47.84119" lon="7.00968">
        <ele>785.53</ele>
        <time>2022-06-13T10:06:15Z</time>
      </trkpt>
      <trkpt lat="47.84121" lon="7.00934">
        <ele>783.61</ele>
        <time>2022-06-13T10:06:19Z</time>
      </trkpt>
      <trkpt lat="47.8412" lon="7.00924">
        <ele>782.65</ele>
        <time>2022-06-13T10:06:20Z</time>
      </trkpt>
      <trkpt lat="47.8412" lon="7.00914">
        <ele>782.17</ele>
        <time>2022-06-13T10:06:21Z</time>
      </trkpt>
      <trkpt lat="47.84121" lon="7.00905">
        <ele>781.69</ele>
        <time>2022-06-13T10:06:22Z</time>
      </trkpt>
      <trkpt lat="47.84121" lon="7.00895">
        <ele>781.21</ele>
        <time>2022-06-13T10:06:23Z</time>
      </trkpt>
      <trkpt lat="47.84127" lon="7.0085">
        <ele>778.32</ele>
        <time>2022-06-13T10:06:28Z</time>
      </trkpt>
      <trkpt lat="47.84128" lon="7.00842">
        <ele>777.36</ele>
        <time>2022-06-13T10:06:29Z</time>
      </trkpt>
      <trkpt lat="47.84129" lon="7.00825">
        <ele>776.4</ele>
        <time>2022-06-13T10:06:31Z</time>
      </trkpt>
      <trkpt lat="47.84134" lon="7.00801">
        <ele>774</ele>
        <time>2022-06-13T10:06:34Z</time>
      </trkpt>
      <trkpt lat="47.84137" lon="7.00792">
        <ele>773.52</ele>
        <time>2022-06-13T10:06:35Z</time>
      </trkpt>
      <trkpt lat="47.84141" lon="7.00783">
        <ele>773.04</ele>
        <time>2022-06-13T10:06:36Z</time>
      </trkpt>
      <trkpt lat="47.84146" lon="7.00775">
        <ele>772.08</ele>
        <time>2022-06-13T10:06:37Z</time>
      </trkpt>
      <trkpt lat="47.84151" lon="7.00769">
        <ele>771.6</ele>
        <time>2022-06-13T10:06:38Z</time>
      </trkpt>
      <trkpt lat="47.84157" lon="7.00763">
        <ele>771.11</ele>
        <time>2022-06-13T10:06:39Z</time>
      </trkpt>
      <trkpt lat="47.84163" lon="7.00758">
        <ele>770.15</ele>
        <time>2022-06-13T10:06:40Z</time>
      </trkpt>
      <trkpt lat="47.84169" lon="7.00752">
        <ele>769.67</ele>
        <time>2022-06-13T10:06:41Z</time>
      </trkpt>
      <trkpt lat="47.84175" lon="7.00743">
        <ele>769.19</ele>
        <time>2022-06-13T10:06:42Z</time>
      </trkpt>
      <trkpt lat="47.84179" lon="7.00733">
        <ele>768.23</ele>
        <time>2022-06-13T10:06:43Z</time>
      </trkpt>
      <trkpt lat="47.84181" lon="7.00724">
        <ele>767.75</ele>
        <time>2022-06-13T10:06:44Z</time>
      </trkpt>
      <trkpt lat="47.84182" lon="7.00714">
        <ele>767.75</ele>
        <time>2022-06-13T10:06:45Z</time>
      </trkpt>
      <trkpt lat="47.84182" lon="7.00704">
        <ele>767.27</ele>
        <time>2022-06-13T10:06:46Z</time>
      </trkpt>
      <trkpt lat="47.84181" lon="7.00694">
        <ele>766.79</ele>
        <time>2022-06-13T10:06:47Z</time>
      </trkpt>
      <trkpt lat="47.84178" lon="7.00685">
        <ele>766.79</ele>
        <time>2022-06-13T10:06:48Z</time>
      </trkpt>
      <trkpt lat="47.84174" lon="7.00677">
        <ele>766.79</ele>
        <time>2022-06-13T10:06:49Z</time>
      </trkpt>
      <trkpt lat="47.84169" lon="7.0067">
        <ele>766.79</ele>
        <time>2022-06-13T10:06:50Z</time>
      </trkpt>
      <trkpt lat="47.84164" lon="7.00664">
        <ele>765.83</ele>
        <time>2022-06-13T10:06:51Z</time>
      </trkpt>
      <trkpt lat="47.84158" lon="7.00658">
        <ele>765.35</ele>
        <time>2022-06-13T10:06:52Z</time>
      </trkpt>
      <trkpt lat="47.84153" lon="7.00652">
        <ele>765.35</ele>
        <time>2022-06-13T10:06:53Z</time>
      </trkpt>
      <trkpt lat="47.84122" lon="7.00603">
        <ele>761.5</ele>
        <time>2022-06-13T10:06:59Z</time>
      </trkpt>
      <trkpt lat="47.84106" lon="7.00572">
        <ele>758.14</ele>
        <time>2022-06-13T10:07:02Z</time>
      </trkpt>
      <trkpt lat="47.84092" lon="7.00541">
        <ele>754.77</ele>
        <time>2022-06-13T10:07:05Z</time>
      </trkpt>
      <trkpt lat="47.84079" lon="7.00512">
        <ele>751.41</ele>
        <time>2022-06-13T10:07:08Z</time>
      </trkpt>
      <trkpt lat="47.84072" lon="7.00493">
        <ele>748.04</ele>
        <time>2022-06-13T10:07:10Z</time>
      </trkpt>
      <trkpt lat="47.84056" lon="7.00458">
        <ele>745.16</ele>
        <time>2022-06-13T10:07:13Z</time>
      </trkpt>
      <trkpt lat="47.8404" lon="7.00426">
        <ele>741.79</ele>
        <time>2022-06-13T10:07:16Z</time>
      </trkpt>
      <trkpt lat="47.84023" lon="7.00392">
        <ele>738.43</ele>
        <time>2022-06-13T10:07:19Z</time>
      </trkpt>
      <trkpt lat="47.84007" lon="7.00359">
        <ele>735.55</ele>
        <time>2022-06-13T10:07:22Z</time>
      </trkpt>
      <trkpt lat="47.83988" lon="7.00315">
        <ele>731.7</ele>
        <time>2022-06-13T10:07:26Z</time>
      </trkpt>
      <trkpt lat="47.83971" lon="7.00284">
        <ele>728.82</ele>
        <time>2022-06-13T10:07:29Z</time>
      </trkpt>
      <trkpt lat="47.83965" lon="7.00276">
        <ele>727.86</ele>
        <time>2022-06-13T10:07:30Z</time>
      </trkpt>
      <trkpt lat="47.83959" lon="7.00269">
        <ele>726.89</ele>
        <time>2022-06-13T10:07:31Z</time>
      </trkpt>
      <trkpt lat="47.83952" lon="7.00263">
        <ele>725.45</ele>
        <time>2022-06-13T10:07:32Z</time>
      </trkpt>
      <trkpt lat="47.83946" lon="7.00258">
        <ele>724.49</ele>
        <time>2022-06-13T10:07:33Z</time>
      </trkpt>
      <trkpt lat="47.83941" lon="7.00253">
        <ele>724.01</ele>
        <time>2022-06-13T10:07:34Z</time>
      </trkpt>
      <trkpt lat="47.83939" lon="7.00249">
        <ele>724.01</ele>
        <time>2022-06-13T10:07:35Z</time>
      </trkpt>
      <trkpt lat="47.83937" lon="7.00245">
        <ele>724.01</ele>
        <time>2022-06-13T10:07:36Z</time>
      </trkpt>
      <trkpt lat="47.83936" lon="7.00234">
        <ele>724.01</ele>
        <time>2022-06-13T10:07:47Z</time>
      </trkpt>
      <trkpt lat="47.83937" lon="7.00236">
        <ele>724.49</ele>
        <time>2022-06-13T10:08:07Z</time>
      </trkpt>
      <trkpt lat="47.83936" lon="7.00231">
        <ele>725.45</ele>
        <time>2022-06-13T10:08:13Z</time>
      </trkpt>
      <trkpt lat="47.83936" lon="7.00229">
        <ele>725.45</ele>
        <time>2022-06-13T10:08:14Z</time>
      </trkpt>
      <trkpt lat="47.83936" lon="7.00227">
        <ele>725.45</ele>
        <time>2022-06-13T10:08:15Z</time>
      </trkpt>
      <trkpt lat="47.83936" lon="7.00225">
        <ele>725.93</ele>
        <time>2022-06-13T10:08:16Z</time>
      </trkpt>
      <trkpt lat="47.83937" lon="7.00222">
        <ele>725.93</ele>
        <time>2022-06-13T10:08:17Z</time>
      </trkpt>
      <trkpt lat="47.83939" lon="7.0022">
        <ele>725.93</ele>
        <time>2022-06-13T10:08:18Z</time>
      </trkpt>
      <trkpt lat="47.8394" lon="7.00218">
        <ele>726.41</ele>
        <time>2022-06-13T10:08:19Z</time>
      </trkpt>
      <trkpt lat="47.83943" lon="7.00217">
        <ele>726.89</ele>
        <time>2022-06-13T10:08:20Z</time>
      </trkpt>
      <trkpt lat="47.83945" lon="7.00216">
        <ele>726.89</ele>
        <time>2022-06-13T10:08:21Z</time>
      </trkpt>
      <trkpt lat="47.83947" lon="7.00215">
        <ele>727.37</ele>
        <time>2022-06-13T10:08:22Z</time>
      </trkpt>
      <trkpt lat="47.8395" lon="7.00215">
        <ele>727.37</ele>
        <time>2022-06-13T10:08:23Z</time>
      </trkpt>
      <trkpt lat="47.83952" lon="7.00215">
        <ele>727.86</ele>
        <time>2022-06-13T10:08:24Z</time>
      </trkpt>
      <trkpt lat="47.83954" lon="7.00216">
        <ele>728.34</ele>
        <time>2022-06-13T10:08:25Z</time>
      </trkpt>
      <trkpt lat="47.83956" lon="7.00216">
        <ele>728.82</ele>
        <time>2022-06-13T10:08:26Z</time>
      </trkpt>
      <trkpt lat="47.83958" lon="7.00216">
        <ele>728.82</ele>
        <time>2022-06-13T10:08:27Z</time>
      </trkpt>
      <trkpt lat="47.83961" lon="7.00215">
        <ele>729.3</ele>
        <time>2022-06-13T10:08:28Z</time>
      </trkpt>
      <trkpt lat="47.83963" lon="7.00214">
        <ele>729.3</ele>
        <time>2022-06-13T10:08:29Z</time>
      </trkpt>
      <trkpt lat="47.83966" lon="7.00213">
        <ele>729.78</ele>
        <time>2022-06-13T10:08:30Z</time>
      </trkpt>
      <trkpt lat="47.83968" lon="7.00212">
        <ele>729.78</ele>
        <time>2022-06-13T10:08:31Z</time>
      </trkpt>
      <trkpt lat="47.8397" lon="7.00212">
        <ele>730.26</ele>
        <time>2022-06-13T10:08:32Z</time>
      </trkpt>
      <trkpt lat="47.83977" lon="7.00206">
        <ele>731.22</ele>
        <time>2022-06-13T10:08:35Z</time>
      </trkpt>
      <trkpt lat="47.83979" lon="7.00203">
        <ele>731.7</ele>
        <time>2022-06-13T10:08:36Z</time>
      </trkpt>
      <trkpt lat="47.8398" lon="7.002">
        <ele>731.7</ele>
        <time>2022-06-13T10:08:37Z</time>
      </trkpt>
      <trkpt lat="47.83982" lon="7.00196">
        <ele>732.18</ele>
        <time>2022-06-13T10:08:38Z</time>
      </trkpt>
      <trkpt lat="47.83983" lon="7.00192">
        <ele>732.66</ele>
        <time>2022-06-13T10:08:39Z</time>
      </trkpt>
      <trkpt lat="47.84011" lon="7.00171">
        <ele>736.03</ele>
        <time>2022-06-13T10:08:49Z</time>
      </trkpt>
      <trkpt lat="47.84032" lon="7.00184">
        <ele>739.39</ele>
        <time>2022-06-13T10:08:59Z</time>
      </trkpt>
      <trkpt lat="47.8406" lon="7.00183">
        <ele>742.28</ele>
        <time>2022-06-13T10:09:09Z</time>
      </trkpt>
      <trkpt lat="47.84082" lon="7.0017">
        <ele>745.64</ele>
        <time>2022-06-13T10:09:18Z</time>
      </trkpt>
      <trkpt lat="47.84084" lon="7.00169">
        <ele>746.12</ele>
        <time>2022-06-13T10:09:19Z</time>
      </trkpt>
      <trkpt lat="47.84088" lon="7.00168">
        <ele>746.12</ele>
        <time>2022-06-13T10:09:20Z</time>
      </trkpt>
      <trkpt lat="47.84118" lon="7.00156">
        <ele>749.49</ele>
        <time>2022-06-13T10:09:30Z</time>
      </trkpt>
      <trkpt lat="47.84143" lon="7.00166">
        <ele>752.85</ele>
        <time>2022-06-13T10:09:39Z</time>
      </trkpt>
      <trkpt lat="47.84164" lon="7.00171">
        <ele>756.21</ele>
        <time>2022-06-13T10:09:47Z</time>
      </trkpt>
      <trkpt lat="47.84175" lon="7.00162">
        <ele>757.66</ele>
        <time>2022-06-13T10:09:51Z</time>
      </trkpt>
      <trkpt lat="47.84205" lon="7.00139">
        <ele>760.54</ele>
        <time>2022-06-13T10:10:03Z</time>
      </trkpt>
      <trkpt lat="47.84226" lon="7.0013">
        <ele>763.9</ele>
        <time>2022-06-13T10:10:11Z</time>
      </trkpt>
      <trkpt lat="47.84246" lon="7.00118">
        <ele>766.79</ele>
        <time>2022-06-13T10:10:23Z</time>
      </trkpt>
      <trkpt lat="47.84249" lon="7.00116">
        <ele>767.27</ele>
        <time>2022-06-13T10:10:26Z</time>
      </trkpt>
      <trkpt lat="47.84262" lon="7.00104">
        <ele>768.71</ele>
        <time>2022-06-13T10:10:39Z</time>
      </trkpt>
      <trkpt lat="47.84264" lon="7.00102">
        <ele>769.67</ele>
        <time>2022-06-13T10:10:52Z</time>
      </trkpt>
      <trkpt lat="47.84266" lon="7.00098">
        <ele>769.19</ele>
        <time>2022-06-13T10:11:17Z</time>
      </trkpt>
      <trkpt lat="47.84285" lon="7.00088">
        <ele>771.11</ele>
        <time>2022-06-13T10:11:27Z</time>
      </trkpt>
      <trkpt lat="47.84317" lon="7.00092">
        <ele>774</ele>
        <time>2022-06-13T10:11:39Z</time>
      </trkpt>
      <trkpt lat="47.84331" lon="7.00104">
        <ele>775.44</ele>
        <time>2022-06-13T10:11:44Z</time>
      </trkpt>
      <trkpt lat="47.84334" lon="7.00108">
        <ele>775.92</ele>
        <time>2022-06-13T10:11:45Z</time>
      </trkpt>
      <trkpt lat="47.84365" lon="7.00121">
        <ele>778.32</ele>
        <time>2022-06-13T10:11:56Z</time>
      </trkpt>
      <trkpt lat="47.84391" lon="7.0014">
        <ele>779.77</ele>
        <time>2022-06-13T10:12:06Z</time>
      </trkpt>
      <trkpt lat="47.84434" lon="7.00165">
        <ele>781.69</ele>
        <time>2022-06-13T10:12:19Z</time>
      </trkpt>
      <trkpt lat="47.84459" lon="7.00163">
        <ele>783.13</ele>
        <time>2022-06-13T10:12:27Z</time>
      </trkpt>
      <trkpt lat="47.84484" lon="7.00155">
        <ele>785.53</ele>
        <time>2022-06-13T10:12:38Z</time>
      </trkpt>
      <trkpt lat="47.84487" lon="7.00153">
        <ele>785.53</ele>
        <time>2022-06-13T10:12:57Z</time>
      </trkpt>
      <trkpt lat="47.84491" lon="7.0015">
        <ele>786.5</ele>
        <time>2022-06-13T10:13:22Z</time>
      </trkpt>
      <trkpt lat="47.84495" lon="7.00147">
        <ele>786.98</ele>
        <time>2022-06-13T10:13:53Z</time>
      </trkpt>
      <trkpt lat="47.84494" lon="7.00145">
        <ele>787.46</ele>
        <time>2022-06-13T10:14:18Z</time>
      </trkpt>
      <trkpt lat="47.845" lon="7.00144">
        <ele>787.46</ele>
        <time>2022-06-13T10:14:25Z</time>
      </trkpt>
      <trkpt lat="47.84521" lon="7.00149">
        <ele>790.82</ele>
        <time>2022-06-13T10:14:35Z</time>
      </trkpt>
      <trkpt lat="47.84544" lon="7.00155">
        <ele>793.71</ele>
        <time>2022-06-13T10:14:43Z</time>
      </trkpt>
      <trkpt lat="47.84562" lon="7.00183">
        <ele>796.59</ele>
        <time>2022-06-13T10:14:51Z</time>
      </trkpt>
      <trkpt lat="47.84568" lon="7.00193">
        <ele>797.55</ele>
        <time>2022-06-13T10:14:54Z</time>
      </trkpt>
      <trkpt lat="47.84586" lon="7.0023">
        <ele>800.44</ele>
        <time>2022-06-13T10:15:04Z</time>
      </trkpt>
      <trkpt lat="47.84603" lon="7.00261">
        <ele>803.8</ele>
        <time>2022-06-13T10:15:12Z</time>
      </trkpt>
      <trkpt lat="47.84622" lon="7.00302">
        <ele>807.16</ele>
        <time>2022-06-13T10:15:22Z</time>
      </trkpt>
      <trkpt lat="47.8464" lon="7.00332">
        <ele>810.05</ele>
        <time>2022-06-13T10:15:30Z</time>
      </trkpt>
      <trkpt lat="47.84658" lon="7.00353">
        <ele>813.41</ele>
        <time>2022-06-13T10:15:37Z</time>
      </trkpt>
      <trkpt lat="47.84679" lon="7.00368">
        <ele>816.78</ele>
        <time>2022-06-13T10:15:45Z</time>
      </trkpt>
      <trkpt lat="47.84704" lon="7.00375">
        <ele>820.14</ele>
        <time>2022-06-13T10:15:54Z</time>
      </trkpt>
      <trkpt lat="47.84729" lon="7.00388">
        <ele>823.03</ele>
        <time>2022-06-13T10:16:03Z</time>
      </trkpt>
      <trkpt lat="47.84751" lon="7.00406">
        <ele>826.39</ele>
        <time>2022-06-13T10:16:11Z</time>
      </trkpt>
      <trkpt lat="47.84776" lon="7.00431">
        <ele>829.76</ele>
        <time>2022-06-13T10:16:20Z</time>
      </trkpt>
      <trkpt lat="47.84799" lon="7.00456">
        <ele>833.6</ele>
        <time>2022-06-13T10:16:29Z</time>
      </trkpt>
      <trkpt lat="47.84802" lon="7.00458">
        <ele>833.6</ele>
        <time>2022-06-13T10:16:30Z</time>
      </trkpt>
      <trkpt lat="47.84809" lon="7.00461">
        <ele>835.04</ele>
        <time>2022-06-13T10:16:33Z</time>
      </trkpt>
      <trkpt lat="47.84812" lon="7.00462">
        <ele>835.52</ele>
        <time>2022-06-13T10:16:34Z</time>
      </trkpt>
      <trkpt lat="47.84834" lon="7.00457">
        <ele>837.45</ele>
        <time>2022-06-13T10:16:44Z</time>
      </trkpt>
      <trkpt lat="47.84839" lon="7.00455">
        <ele>837.93</ele>
        <time>2022-06-13T10:16:47Z</time>
      </trkpt>
      <trkpt lat="47.84841" lon="7.00454">
        <ele>837.93</ele>
        <time>2022-06-13T10:16:49Z</time>
      </trkpt>
      <trkpt lat="47.84843" lon="7.00453">
        <ele>838.41</ele>
        <time>2022-06-13T10:16:50Z</time>
      </trkpt>
      <trkpt lat="47.84844" lon="7.00451">
        <ele>838.89</ele>
        <time>2022-06-13T10:16:51Z</time>
      </trkpt>
      <trkpt lat="47.84846" lon="7.00449">
        <ele>838.89</ele>
        <time>2022-06-13T10:16:52Z</time>
      </trkpt>
      <trkpt lat="47.84848" lon="7.00448">
        <ele>839.37</ele>
        <time>2022-06-13T10:16:53Z</time>
      </trkpt>
      <trkpt lat="47.8485" lon="7.00446">
        <ele>839.37</ele>
        <time>2022-06-13T10:16:54Z</time>
      </trkpt>
      <trkpt lat="47.84853" lon="7.00444">
        <ele>839.85</ele>
        <time>2022-06-13T10:16:55Z</time>
      </trkpt>
      <trkpt lat="47.8487" lon="7.00415">
        <ele>843.21</ele>
        <time>2022-06-13T10:17:05Z</time>
      </trkpt>
      <trkpt lat="47.84885" lon="7.00385">
        <ele>846.58</ele>
        <time>2022-06-13T10:17:14Z</time>
      </trkpt>
      <trkpt lat="47.84892" lon="7.0037">
        <ele>848.02</ele>
        <time>2022-06-13T10:17:18Z</time>
      </trkpt>
      <trkpt lat="47.84893" lon="7.00368">
        <ele>848.5</ele>
        <time>2022-06-13T10:17:19Z</time>
      </trkpt>
      <trkpt lat="47.84895" lon="7.00365">
        <ele>848.98</ele>
        <time>2022-06-13T10:17:20Z</time>
      </trkpt>
      <trkpt lat="47.84898" lon="7.00362">
        <ele>849.46</ele>
        <time>2022-06-13T10:17:21Z</time>
      </trkpt>
      <trkpt lat="47.849" lon="7.00359">
        <ele>849.94</ele>
        <time>2022-06-13T10:17:22Z</time>
      </trkpt>
      <trkpt lat="47.84902" lon="7.00355">
        <ele>849.94</ele>
        <time>2022-06-13T10:17:23Z</time>
      </trkpt>
      <trkpt lat="47.84921" lon="7.00328">
        <ele>853.31</ele>
        <time>2022-06-13T10:17:31Z</time>
      </trkpt>
      <trkpt lat="47.84938" lon="7.00304">
        <ele>856.19</ele>
        <time>2022-06-13T10:17:39Z</time>
      </trkpt>
      <trkpt lat="47.84957" lon="7.0028">
        <ele>859.08</ele>
        <time>2022-06-13T10:17:49Z</time>
      </trkpt>
      <trkpt lat="47.84969" lon="7.00262">
        <ele>861</ele>
        <time>2022-06-13T10:17:58Z</time>
      </trkpt>
      <trkpt lat="47.84965" lon="7.00265">
        <ele>860.52</ele>
        <time>2022-06-13T10:18:13Z</time>
      </trkpt>
      <trkpt lat="47.84965" lon="7.00266">
        <ele>861</ele>
        <time>2022-06-13T10:18:40Z</time>
      </trkpt>
      <trkpt lat="47.84965" lon="7.00267">
        <ele>861</ele>
        <time>2022-06-13T10:19:13Z</time>
      </trkpt>
      <trkpt lat="47.84965" lon="7.00267">
        <ele>861</ele>
        <time>2022-06-13T10:19:41Z</time>
      </trkpt>
      <trkpt lat="47.84965" lon="7.00267">
        <ele>861</ele>
        <time>2022-06-13T10:19:48Z</time>
      </trkpt>
      <trkpt lat="47.84955" lon="7.00285">
        <ele>859.56</ele>
        <time>2022-06-13T10:19:54Z</time>
      </trkpt>
      <trkpt lat="47.84952" lon="7.00289">
        <ele>859.08</ele>
        <time>2022-06-13T10:19:55Z</time>
      </trkpt>
      <trkpt lat="47.84948" lon="7.00294">
        <ele>858.59</ele>
        <time>2022-06-13T10:19:56Z</time>
      </trkpt>
      <trkpt lat="47.84944" lon="7.00299">
        <ele>858.11</ele>
        <time>2022-06-13T10:19:57Z</time>
      </trkpt>
      <trkpt lat="47.84939" lon="7.00304">
        <ele>857.15</ele>
        <time>2022-06-13T10:19:58Z</time>
      </trkpt>
      <trkpt lat="47.84918" lon="7.00336">
        <ele>853.79</ele>
        <time>2022-06-13T10:20:02Z</time>
      </trkpt>
      <trkpt lat="47.84897" lon="7.00368">
        <ele>849.94</ele>
        <time>2022-06-13T10:20:06Z</time>
      </trkpt>
      <trkpt lat="47.84878" lon="7.00393">
        <ele>846.58</ele>
        <time>2022-06-13T10:20:10Z</time>
      </trkpt>
      <trkpt lat="47.84875" lon="7.00401">
        <ele>846.1</ele>
        <time>2022-06-13T10:20:11Z</time>
      </trkpt>
      <trkpt lat="47.84855" lon="7.00437">
        <ele>842.25</ele>
        <time>2022-06-13T10:20:16Z</time>
      </trkpt>
      <trkpt lat="47.84843" lon="7.00453">
        <ele>839.37</ele>
        <time>2022-06-13T10:20:19Z</time>
      </trkpt>
      <trkpt lat="47.84836" lon="7.00463">
        <ele>838.41</ele>
        <time>2022-06-13T10:20:27Z</time>
      </trkpt>
      <trkpt lat="47.84835" lon="7.00463">
        <ele>837.93</ele>
        <time>2022-06-13T10:20:47Z</time>
      </trkpt>
      <trkpt lat="47.84837" lon="7.0046">
        <ele>837.93</ele>
        <time>2022-06-13T10:21:14Z</time>
      </trkpt>
      <trkpt lat="47.84837" lon="7.0046">
        <ele>838.41</ele>
        <time>2022-06-13T10:21:46Z</time>
      </trkpt>
      <trkpt lat="47.84836" lon="7.00461">
        <ele>838.41</ele>
        <time>2022-06-13T10:22:15Z</time>
      </trkpt>
      <trkpt lat="47.84834" lon="7.00461">
        <ele>838.41</ele>
        <time>2022-06-13T10:22:46Z</time>
      </trkpt>
      <trkpt lat="47.84832" lon="7.00463">
        <ele>837.93</ele>
        <time>2022-06-13T10:23:14Z</time>
      </trkpt>
      <trkpt lat="47.84831" lon="7.00464">
        <ele>837.93</ele>
        <time>2022-06-13T10:23:26Z</time>
      </trkpt>
      <trkpt lat="47.8483" lon="7.00463">
        <ele>837.93</ele>
        <time>2022-06-13T10:23:27Z</time>
      </trkpt>
      <trkpt lat="47.84825" lon="7.00456">
        <ele>839.85</ele>
        <time>2022-06-13T10:23:34Z</time>
      </trkpt>
      <trkpt lat="47.84824" lon="7.00453">
        <ele>840.33</ele>
        <time>2022-06-13T10:23:35Z</time>
      </trkpt>
      <trkpt lat="47.84823" lon="7.0045">
        <ele>840.81</ele>
        <time>2022-06-13T10:23:36Z</time>
      </trkpt>
      <trkpt lat="47.84822" lon="7.00448">
        <ele>841.29</ele>
        <time>2022-06-13T10:23:37Z</time>
      </trkpt>
      <trkpt lat="47.84821" lon="7.00445">
        <ele>841.77</ele>
        <time>2022-06-13T10:23:38Z</time>
      </trkpt>
      <trkpt lat="47.84819" lon="7.00443">
        <ele>842.25</ele>
        <time>2022-06-13T10:23:39Z</time>
      </trkpt>
      <trkpt lat="47.84818" lon="7.00441">
        <ele>842.73</ele>
        <time>2022-06-13T10:23:40Z</time>
      </trkpt>
      <trkpt lat="47.84816" lon="7.00438">
        <ele>843.21</ele>
        <time>2022-06-13T10:23:41Z</time>
      </trkpt>
      <trkpt lat="47.84815" lon="7.00435">
        <ele>843.69</ele>
        <time>2022-06-13T10:23:42Z</time>
      </trkpt>
      <trkpt lat="47.84814" lon="7.00434">
        <ele>844.18</ele>
        <time>2022-06-13T10:23:43Z</time>
      </trkpt>
      <trkpt lat="47.84812" lon="7.00434">
        <ele>844.66</ele>
        <time>2022-06-13T10:23:44Z</time>
      </trkpt>
      <trkpt lat="47.8481" lon="7.00432">
        <ele>845.14</ele>
        <time>2022-06-13T10:23:47Z</time>
      </trkpt>
      <trkpt lat="47.84808" lon="7.00428">
        <ele>845.62</ele>
        <time>2022-06-13T10:23:48Z</time>
      </trkpt>
      <trkpt lat="47.84808" lon="7.00425">
        <ele>846.1</ele>
        <time>2022-06-13T10:23:49Z</time>
      </trkpt>
      <trkpt lat="47.84806" lon="7.00422">
        <ele>846.1</ele>
        <time>2022-06-13T10:23:50Z</time>
      </trkpt>
      <trkpt lat="47.84805" lon="7.00419">
        <ele>846.58</ele>
        <time>2022-06-13T10:23:51Z</time>
      </trkpt>
      <trkpt lat="47.84804" lon="7.00415">
        <ele>846.58</ele>
        <time>2022-06-13T10:23:52Z</time>
      </trkpt>
      <trkpt lat="47.84803" lon="7.00413">
        <ele>847.06</ele>
        <time>2022-06-13T10:23:53Z</time>
      </trkpt>
      <trkpt lat="47.84802" lon="7.00411">
        <ele>847.54</ele>
        <time>2022-06-13T10:23:54Z</time>
      </trkpt>
      <trkpt lat="47.848" lon="7.00408">
        <ele>847.54</ele>
        <time>2022-06-13T10:23:55Z</time>
      </trkpt>
      <trkpt lat="47.84784" lon="7.00385">
        <ele>850.42</ele>
        <time>2022-06-13T10:24:06Z</time>
      </trkpt>
      <trkpt lat="47.84772" lon="7.00371">
        <ele>852.35</ele>
        <time>2022-06-13T10:24:12Z</time>
      </trkpt>
      <trkpt lat="47.84769" lon="7.00366">
        <ele>852.35</ele>
        <time>2022-06-13T10:24:14Z</time>
      </trkpt>
      <trkpt lat="47.84758" lon="7.00355">
        <ele>853.31</ele>
        <time>2022-06-13T10:24:21Z</time>
      </trkpt>
      <trkpt lat="47.84755" lon="7.00352">
        <ele>853.31</ele>
        <time>2022-06-13T10:24:22Z</time>
      </trkpt>
      <trkpt lat="47.84753" lon="7.00351">
        <ele>853.79</ele>
        <time>2022-06-13T10:24:23Z</time>
      </trkpt>
      <trkpt lat="47.84751" lon="7.00349">
        <ele>853.79</ele>
        <time>2022-06-13T10:24:24Z</time>
      </trkpt>
      <trkpt lat="47.84749" lon="7.00347">
        <ele>853.79</ele>
        <time>2022-06-13T10:24:25Z</time>
      </trkpt>
      <trkpt lat="47.84747" lon="7.00342">
        <ele>854.27</ele>
        <time>2022-06-13T10:24:27Z</time>
      </trkpt>
      <trkpt lat="47.84739" lon="7.00325">
        <ele>856.67</ele>
        <time>2022-06-13T10:24:39Z</time>
      </trkpt>
      <trkpt lat="47.84732" lon="7.00315">
        <ele>858.59</ele>
        <time>2022-06-13T10:24:51Z</time>
      </trkpt>
      <trkpt lat="47.84727" lon="7.00305">
        <ele>859.56</ele>
        <time>2022-06-13T10:25:00Z</time>
      </trkpt>
      <trkpt lat="47.84725" lon="7.00301">
        <ele>860.04</ele>
        <time>2022-06-13T10:25:02Z</time>
      </trkpt>
      <trkpt lat="47.84717" lon="7.00276">
        <ele>862.92</ele>
        <time>2022-06-13T10:25:14Z</time>
      </trkpt>
      <trkpt lat="47.84716" lon="7.00263">
        <ele>863.4</ele>
        <time>2022-06-13T10:25:18Z</time>
      </trkpt>
      <trkpt lat="47.84716" lon="7.00259">
        <ele>863.88</ele>
        <time>2022-06-13T10:25:19Z</time>
      </trkpt>
      <trkpt lat="47.84718" lon="7.00236">
        <ele>866.29</ele>
        <time>2022-06-13T10:25:26Z</time>
      </trkpt>
      <trkpt lat="47.8472" lon="7.00235">
        <ele>866.77</ele>
        <time>2022-06-13T10:25:27Z</time>
      </trkpt>
      <trkpt lat="47.8472" lon="7.00219">
        <ele>869.17</ele>
        <time>2022-06-13T10:25:35Z</time>
      </trkpt>
      <trkpt lat="47.8472" lon="7.00216">
        <ele>869.17</ele>
        <time>2022-06-13T10:25:36Z</time>
      </trkpt>
      <trkpt lat="47.84718" lon="7.00181">
        <ele>872.53</ele>
        <time>2022-06-13T10:25:46Z</time>
      </trkpt>
      <trkpt lat="47.84719" lon="7.0018">
        <ele>873.01</ele>
        <time>2022-06-13T10:25:47Z</time>
      </trkpt>
      <trkpt lat="47.8472" lon="7.00178">
        <ele>873.01</ele>
        <time>2022-06-13T10:25:48Z</time>
      </trkpt>
      <trkpt lat="47.84721" lon="7.00175">
        <ele>873.98</ele>
        <time>2022-06-13T10:25:49Z</time>
      </trkpt>
      <trkpt lat="47.8472" lon="7.00171">
        <ele>874.46</ele>
        <time>2022-06-13T10:25:50Z</time>
      </trkpt>
      <trkpt lat="47.84719" lon="7.00167">
        <ele>874.94</ele>
        <time>2022-06-13T10:25:51Z</time>
      </trkpt>
      <trkpt lat="47.84718" lon="7.00163">
        <ele>874.94</ele>
        <time>2022-06-13T10:25:52Z</time>
      </trkpt>
      <trkpt lat="47.84717" lon="7.0016">
        <ele>875.42</ele>
        <time>2022-06-13T10:25:53Z</time>
      </trkpt>
      <trkpt lat="47.84718" lon="7.00158">
        <ele>875.9</ele>
        <time>2022-06-13T10:25:54Z</time>
      </trkpt>
      <trkpt lat="47.84717" lon="7.00154">
        <ele>876.38</ele>
        <time>2022-06-13T10:25:55Z</time>
      </trkpt>
      <trkpt lat="47.84717" lon="7.00149">
        <ele>876.86</ele>
        <time>2022-06-13T10:25:56Z</time>
      </trkpt>
      <trkpt lat="47.84717" lon="7.00146">
        <ele>876.86</ele>
        <time>2022-06-13T10:25:57Z</time>
      </trkpt>
      <trkpt lat="47.84716" lon="7.00143">
        <ele>877.34</ele>
        <time>2022-06-13T10:25:58Z</time>
      </trkpt>
      <trkpt lat="47.84716" lon="7.0014">
        <ele>877.34</ele>
        <time>2022-06-13T10:25:59Z</time>
      </trkpt>
      <trkpt lat="47.84716" lon="7.00137">
        <ele>877.82</ele>
        <time>2022-06-13T10:26:00Z</time>
      </trkpt>
      <trkpt lat="47.84716" lon="7.00135">
        <ele>878.3</ele>
        <time>2022-06-13T10:26:01Z</time>
      </trkpt>
      <trkpt lat="47.84716" lon="7.00132">
        <ele>878.78</ele>
        <time>2022-06-13T10:26:02Z</time>
      </trkpt>
      <trkpt lat="47.84716" lon="7.00129">
        <ele>879.26</ele>
        <time>2022-06-13T10:26:03Z</time>
      </trkpt>
      <trkpt lat="47.84716" lon="7.00111">
        <ele>881.67</ele>
        <time>2022-06-13T10:26:08Z</time>
      </trkpt>
      <trkpt lat="47.84716" lon="7.00108">
        <ele>881.67</ele>
        <time>2022-06-13T10:26:09Z</time>
      </trkpt>
      <trkpt lat="47.84715" lon="7.00104">
        <ele>882.15</ele>
        <time>2022-06-13T10:26:10Z</time>
      </trkpt>
      <trkpt lat="47.84714" lon="7.001">
        <ele>882.63</ele>
        <time>2022-06-13T10:26:11Z</time>
      </trkpt>
      <trkpt lat="47.84713" lon="7.00097">
        <ele>883.11</ele>
        <time>2022-06-13T10:26:12Z</time>
      </trkpt>
      <trkpt lat="47.84713" lon="7.00093">
        <ele>883.11</ele>
        <time>2022-06-13T10:26:13Z</time>
      </trkpt>
      <trkpt lat="47.84713" lon="7.00091">
        <ele>883.59</ele>
        <time>2022-06-13T10:26:14Z</time>
      </trkpt>
      <trkpt lat="47.84712" lon="7.00088">
        <ele>884.07</ele>
        <time>2022-06-13T10:26:15Z</time>
      </trkpt>
      <trkpt lat="47.84708" lon="7.00056">
        <ele>887.43</ele>
        <time>2022-06-13T10:26:24Z</time>
      </trkpt>
      <trkpt lat="47.84708" lon="7.00051">
        <ele>887.91</ele>
        <time>2022-06-13T10:26:25Z</time>
      </trkpt>
      <trkpt lat="47.84706" lon="7.00035">
        <ele>889.84</ele>
        <time>2022-06-13T10:26:30Z</time>
      </trkpt>
      <trkpt lat="47.84706" lon="7.00027">
        <ele>890.8</ele>
        <time>2022-06-13T10:26:32Z</time>
      </trkpt>
      <trkpt lat="47.84703" lon="7.00003">
        <ele>893.2</ele>
        <time>2022-06-13T10:26:38Z</time>
      </trkpt>
      <trkpt lat="47.84704" lon="6.9999">
        <ele>895.12</ele>
        <time>2022-06-13T10:26:42Z</time>
      </trkpt>
      <trkpt lat="47.84697" lon="6.99953">
        <ele>898.49</ele>
        <time>2022-06-13T10:26:51Z</time>
      </trkpt>
      <trkpt lat="47.84693" lon="6.99932">
        <ele>900.41</ele>
        <time>2022-06-13T10:26:57Z</time>
      </trkpt>
      <trkpt lat="47.84692" lon="6.99917">
        <ele>901.85</ele>
        <time>2022-06-13T10:27:01Z</time>
      </trkpt>
      <trkpt lat="47.84689" lon="6.99867">
        <ele>905.22</ele>
        <time>2022-06-13T10:27:11Z</time>
      </trkpt>
      <trkpt lat="47.84688" lon="6.99865">
        <ele>905.22</ele>
        <time>2022-06-13T10:27:12Z</time>
      </trkpt>
      <trkpt lat="47.84687" lon="6.99831">
        <ele>906.66</ele>
        <time>2022-06-13T10:27:20Z</time>
      </trkpt>
      <trkpt lat="47.84688" lon="6.9981">
        <ele>907.14</ele>
        <time>2022-06-13T10:27:26Z</time>
      </trkpt>
      <trkpt lat="47.84684" lon="6.99803">
        <ele>907.62</ele>
        <time>2022-06-13T10:27:31Z</time>
      </trkpt>
      <trkpt lat="47.84662" lon="6.99783">
        <ele>909.54</ele>
        <time>2022-06-13T10:27:41Z</time>
      </trkpt>
      <trkpt lat="47.84653" lon="6.99777">
        <ele>910.99</ele>
        <time>2022-06-13T10:27:46Z</time>
      </trkpt>
      <trkpt lat="47.84648" lon="6.99774">
        <ele>911.47</ele>
        <time>2022-06-13T10:27:48Z</time>
      </trkpt>
      <trkpt lat="47.8464" lon="6.99765">
        <ele>912.91</ele>
        <time>2022-06-13T10:27:53Z</time>
      </trkpt>
      <trkpt lat="47.84623" lon="6.99754">
        <ele>914.35</ele>
        <time>2022-06-13T10:27:59Z</time>
      </trkpt>
      <trkpt lat="47.84589" lon="6.99743">
        <ele>917.72</ele>
        <time>2022-06-13T10:28:10Z</time>
      </trkpt>
      <trkpt lat="47.84571" lon="6.99726">
        <ele>921.08</ele>
        <time>2022-06-13T10:28:17Z</time>
      </trkpt>
      <trkpt lat="47.84564" lon="6.99712">
        <ele>922.52</ele>
        <time>2022-06-13T10:28:22Z</time>
      </trkpt>
      <trkpt lat="47.84566" lon="6.99703">
        <ele>923.48</ele>
        <time>2022-06-13T10:28:25Z</time>
      </trkpt>
      <trkpt lat="47.84562" lon="6.99682">
        <ele>924.45</ele>
        <time>2022-06-13T10:28:30Z</time>
      </trkpt>
      <trkpt lat="47.8454" lon="6.99641">
        <ele>927.33</ele>
        <time>2022-06-13T10:28:41Z</time>
      </trkpt>
      <trkpt lat="47.84506" lon="6.99625">
        <ele>931.17</ele>
        <time>2022-06-13T10:28:52Z</time>
      </trkpt>
      <trkpt lat="47.84474" lon="6.99609">
        <ele>932.14</ele>
        <time>2022-06-13T10:29:02Z</time>
      </trkpt>
      <trkpt lat="47.84467" lon="6.99604">
        <ele>932.14</ele>
        <time>2022-06-13T10:29:04Z</time>
      </trkpt>
      <trkpt lat="47.84464" lon="6.99601">
        <ele>932.14</ele>
        <time>2022-06-13T10:29:05Z</time>
      </trkpt>
      <trkpt lat="47.8446" lon="6.99599">
        <ele>932.14</ele>
        <time>2022-06-13T10:29:06Z</time>
      </trkpt>
      <trkpt lat="47.84456" lon="6.99597">
        <ele>932.14</ele>
        <time>2022-06-13T10:29:07Z</time>
      </trkpt>
      <trkpt lat="47.84453" lon="6.99596">
        <ele>932.14</ele>
        <time>2022-06-13T10:29:08Z</time>
      </trkpt>
      <trkpt lat="47.84449" lon="6.99594">
        <ele>931.65</ele>
        <time>2022-06-13T10:29:09Z</time>
      </trkpt>
      <trkpt lat="47.84446" lon="6.99591">
        <ele>931.65</ele>
        <time>2022-06-13T10:29:10Z</time>
      </trkpt>
      <trkpt lat="47.84442" lon="6.99587">
        <ele>931.17</ele>
        <time>2022-06-13T10:29:11Z</time>
      </trkpt>
      <trkpt lat="47.84438" lon="6.99583">
        <ele>931.17</ele>
        <time>2022-06-13T10:29:12Z</time>
      </trkpt>
      <trkpt lat="47.84402" lon="6.99547">
        <ele>931.17</ele>
        <time>2022-06-13T10:29:21Z</time>
      </trkpt>
      <trkpt lat="47.8436" lon="6.9951">
        <ele>930.69</ele>
        <time>2022-06-13T10:29:31Z</time>
      </trkpt>
      <trkpt lat="47.84355" lon="6.99508">
        <ele>930.21</ele>
        <time>2022-06-13T10:29:32Z</time>
      </trkpt>
      <trkpt lat="47.84351" lon="6.99508">
        <ele>930.21</ele>
        <time>2022-06-13T10:29:33Z</time>
      </trkpt>
      <trkpt lat="47.84347" lon="6.99509">
        <ele>930.21</ele>
        <time>2022-06-13T10:29:34Z</time>
      </trkpt>
      <trkpt lat="47.84344" lon="6.99512">
        <ele>930.21</ele>
        <time>2022-06-13T10:29:35Z</time>
      </trkpt>
      <trkpt lat="47.84341" lon="6.99515">
        <ele>930.21</ele>
        <time>2022-06-13T10:29:36Z</time>
      </trkpt>
      <trkpt lat="47.84328" lon="6.99529">
        <ele>930.69</ele>
        <time>2022-06-13T10:29:40Z</time>
      </trkpt>
      <trkpt lat="47.8432" lon="6.99537">
        <ele>931.17</ele>
        <time>2022-06-13T10:29:42Z</time>
      </trkpt>
      <trkpt lat="47.84308" lon="6.99547">
        <ele>931.65</ele>
        <time>2022-06-13T10:29:45Z</time>
      </trkpt>
      <trkpt lat="47.84305" lon="6.99548">
        <ele>932.14</ele>
        <time>2022-06-13T10:29:46Z</time>
      </trkpt>
      <trkpt lat="47.84301" lon="6.9955">
        <ele>932.62</ele>
        <time>2022-06-13T10:29:47Z</time>
      </trkpt>
      <trkpt lat="47.8427" lon="6.99549">
        <ele>935.02</ele>
        <time>2022-06-13T10:29:55Z</time>
      </trkpt>
      <trkpt lat="47.84266" lon="6.99547">
        <ele>935.5</ele>
        <time>2022-06-13T10:29:56Z</time>
      </trkpt>
      <trkpt lat="47.84242" lon="6.99538">
        <ele>938.38</ele>
        <time>2022-06-13T10:30:03Z</time>
      </trkpt>
      <trkpt lat="47.84229" lon="6.99529">
        <ele>941.27</ele>
        <time>2022-06-13T10:30:08Z</time>
      </trkpt>
      <trkpt lat="47.84206" lon="6.99508">
        <ele>944.63</ele>
        <time>2022-06-13T10:30:18Z</time>
      </trkpt>
      <trkpt lat="47.84198" lon="6.99497">
        <ele>945.59</ele>
        <time>2022-06-13T10:30:22Z</time>
      </trkpt>
      <trkpt lat="47.84196" lon="6.99495">
        <ele>946.07</ele>
        <time>2022-06-13T10:30:23Z</time>
      </trkpt>
      <trkpt lat="47.84194" lon="6.99492">
        <ele>946.07</ele>
        <time>2022-06-13T10:30:24Z</time>
      </trkpt>
      <trkpt lat="47.84193" lon="6.9949">
        <ele>946.56</ele>
        <time>2022-06-13T10:30:25Z</time>
      </trkpt>
      <trkpt lat="47.84191" lon="6.99486">
        <ele>947.04</ele>
        <time>2022-06-13T10:30:26Z</time>
      </trkpt>
      <trkpt lat="47.84189" lon="6.99483">
        <ele>947.52</ele>
        <time>2022-06-13T10:30:27Z</time>
      </trkpt>
      <trkpt lat="47.84186" lon="6.9948">
        <ele>948</ele>
        <time>2022-06-13T10:30:28Z</time>
      </trkpt>
      <trkpt lat="47.84184" lon="6.99476">
        <ele>948.48</ele>
        <time>2022-06-13T10:30:29Z</time>
      </trkpt>
      <trkpt lat="47.84166" lon="6.99448">
        <ele>951.84</ele>
        <time>2022-06-13T10:30:38Z</time>
      </trkpt>
      <trkpt lat="47.84146" lon="6.99408">
        <ele>954.73</ele>
        <time>2022-06-13T10:30:48Z</time>
      </trkpt>
      <trkpt lat="47.84134" lon="6.99373">
        <ele>958.09</ele>
        <time>2022-06-13T10:30:56Z</time>
      </trkpt>
      <trkpt lat="47.84121" lon="6.99328">
        <ele>960.98</ele>
        <time>2022-06-13T10:31:06Z</time>
      </trkpt>
      <trkpt lat="47.84109" lon="6.99276">
        <ele>964.82</ele>
        <time>2022-06-13T10:31:17Z</time>
      </trkpt>
      <trkpt lat="47.84107" lon="6.99267">
        <ele>965.3</ele>
        <time>2022-06-13T10:31:19Z</time>
      </trkpt>
      <trkpt lat="47.841" lon="6.99224">
        <ele>968.18</ele>
        <time>2022-06-13T10:31:29Z</time>
      </trkpt>
      <trkpt lat="47.84099" lon="6.99185">
        <ele>970.11</ele>
        <time>2022-06-13T10:31:37Z</time>
      </trkpt>
      <trkpt lat="47.84098" lon="6.9918">
        <ele>970.11</ele>
        <time>2022-06-13T10:31:38Z</time>
      </trkpt>
      <trkpt lat="47.84095" lon="6.99175">
        <ele>970.11</ele>
        <time>2022-06-13T10:31:39Z</time>
      </trkpt>
      <trkpt lat="47.84093" lon="6.9917">
        <ele>970.59</ele>
        <time>2022-06-13T10:31:40Z</time>
      </trkpt>
      <trkpt lat="47.84091" lon="6.99165">
        <ele>971.07</ele>
        <time>2022-06-13T10:31:41Z</time>
      </trkpt>
      <trkpt lat="47.84081" lon="6.99151">
        <ele>971.07</ele>
        <time>2022-06-13T10:31:44Z</time>
      </trkpt>
      <trkpt lat="47.84029" lon="6.99099">
        <ele>972.99</ele>
        <time>2022-06-13T10:31:59Z</time>
      </trkpt>
      <trkpt lat="47.84025" lon="6.99097">
        <ele>972.99</ele>
        <time>2022-06-13T10:32:00Z</time>
      </trkpt>
      <trkpt lat="47.84" lon="6.99089">
        <ele>973.47</ele>
        <time>2022-06-13T10:32:06Z</time>
      </trkpt>
      <trkpt lat="47.8395" lon="6.99083">
        <ele>975.39</ele>
        <time>2022-06-13T10:32:19Z</time>
      </trkpt>
      <trkpt lat="47.839" lon="6.99077">
        <ele>977.8</ele>
        <time>2022-06-13T10:32:33Z</time>
      </trkpt>
      <trkpt lat="47.83892" lon="6.99075">
        <ele>979.24</ele>
        <time>2022-06-13T10:32:36Z</time>
      </trkpt>
      <trkpt lat="47.83868" lon="6.9907">
        <ele>982.12</ele>
        <time>2022-06-13T10:32:45Z</time>
      </trkpt>
      <trkpt lat="47.83841" lon="6.99071">
        <ele>985.49</ele>
        <time>2022-06-13T10:32:58Z</time>
      </trkpt>
      <trkpt lat="47.83832" lon="6.99076">
        <ele>985.97</ele>
        <time>2022-06-13T10:33:12Z</time>
      </trkpt>
      <trkpt lat="47.83832" lon="6.99076">
        <ele>985.49</ele>
        <time>2022-06-13T10:33:27Z</time>
      </trkpt>
      <trkpt lat="47.8383" lon="6.99076">
        <ele>985.97</ele>
        <time>2022-06-13T10:33:40Z</time>
      </trkpt>
      <trkpt lat="47.8383" lon="6.99075">
        <ele>986.45</ele>
        <time>2022-06-13T10:33:55Z</time>
      </trkpt>
      <trkpt lat="47.8383" lon="6.99076">
        <ele>985.97</ele>
        <time>2022-06-13T10:34:10Z</time>
      </trkpt>
      <trkpt lat="47.83823" lon="6.99082">
        <ele>985.49</ele>
        <time>2022-06-13T10:34:24Z</time>
      </trkpt>
      <trkpt lat="47.83816" lon="6.99087">
        <ele>985.97</ele>
        <time>2022-06-13T10:34:38Z</time>
      </trkpt>
      <trkpt lat="47.83815" lon="6.99088">
        <ele>986.93</ele>
        <time>2022-06-13T10:34:47Z</time>
      </trkpt>
      <trkpt lat="47.83815" lon="6.99088">
        <ele>985.49</ele>
        <time>2022-06-13T10:34:49Z</time>
      </trkpt>
      <trkpt lat="47.83815" lon="6.99089">
        <ele>985.49</ele>
        <time>2022-06-13T10:35:06Z</time>
      </trkpt>
      <trkpt lat="47.83814" lon="6.99089">
        <ele>985.49</ele>
        <time>2022-06-13T10:35:23Z</time>
      </trkpt>
      <trkpt lat="47.83815" lon="6.99089">
        <ele>984.53</ele>
        <time>2022-06-13T10:35:31Z</time>
      </trkpt>
      <trkpt lat="47.83815" lon="6.99089">
        <ele>987.89</ele>
        <time>2022-06-13T10:35:32Z</time>
      </trkpt>
      <trkpt lat="47.83815" lon="6.99089">
        <ele>985.01</ele>
        <time>2022-06-13T10:35:33Z</time>
      </trkpt>
      <trkpt lat="47.83815" lon="6.99089">
        <ele>988.37</ele>
        <time>2022-06-13T10:35:35Z</time>
      </trkpt>
      <trkpt lat="47.83815" lon="6.99088">
        <ele>985.01</ele>
        <time>2022-06-13T10:35:38Z</time>
      </trkpt>
      <trkpt lat="47.83816" lon="6.99086">
        <ele>988.85</ele>
        <time>2022-06-13T10:35:48Z</time>
      </trkpt>
      <trkpt lat="47.83816" lon="6.99086">
        <ele>984.05</ele>
        <time>2022-06-13T10:35:49Z</time>
      </trkpt>
      <trkpt lat="47.83816" lon="6.99086">
        <ele>987.89</ele>
        <time>2022-06-13T10:35:50Z</time>
      </trkpt>
      <trkpt lat="47.83817" lon="6.99085">
        <ele>986.93</ele>
        <time>2022-06-13T10:36:06Z</time>
      </trkpt>
      <trkpt lat="47.83838" lon="6.99064">
        <ele>986.93</ele>
        <time>2022-06-13T10:36:29Z</time>
      </trkpt>
      <trkpt lat="47.83819" lon="6.99091">
        <ele>986.45</ele>
        <time>2022-06-13T10:37:01Z</time>
      </trkpt>
      <trkpt lat="47.8382" lon="6.9909">
        <ele>986.45</ele>
        <time>2022-06-13T10:37:03Z</time>
      </trkpt>
      <trkpt lat="47.83819" lon="6.99096">
        <ele>985.01</ele>
        <time>2022-06-13T10:38:50Z</time>
      </trkpt>
      <trkpt lat="47.83822" lon="6.99097">
        <ele>985.01</ele>
        <time>2022-06-13T10:38:54Z</time>
      </trkpt>
      <trkpt lat="47.83818" lon="6.99089">
        <ele>984.53</ele>
        <time>2022-06-13T10:39:08Z</time>
      </trkpt>
      <trkpt lat="47.83813" lon="6.99077">
        <ele>984.05</ele>
        <time>2022-06-13T10:39:31Z</time>
      </trkpt>
      <trkpt lat="47.83802" lon="6.99072">
        <ele>984.53</ele>
        <time>2022-06-13T10:39:52Z</time>
      </trkpt>
      <trkpt lat="47.8381" lon="6.99087">
        <ele>984.53</ele>
        <time>2022-06-13T10:40:18Z</time>
      </trkpt>
      <trkpt lat="47.83813" lon="6.99092">
        <ele>985.49</ele>
        <time>2022-06-13T10:40:32Z</time>
      </trkpt>
      <trkpt lat="47.83818" lon="6.9909">
        <ele>985.01</ele>
        <time>2022-06-13T10:40:53Z</time>
      </trkpt>
      <trkpt lat="47.83823" lon="6.99088">
        <ele>985.01</ele>
        <time>2022-06-13T10:41:08Z</time>
      </trkpt>
      <trkpt lat="47.83799" lon="6.99138">
        <ele>985.01</ele>
        <time>2022-06-13T10:42:05Z</time>
      </trkpt>
      <trkpt lat="47.83814" lon="6.99086">
        <ele>985.01</ele>
        <time>2022-06-13T10:42:21Z</time>
      </trkpt>
      <trkpt lat="47.83814" lon="6.99077">
        <ele>984.53</ele>
        <time>2022-06-13T10:42:49Z</time>
      </trkpt>
      <trkpt lat="47.83813" lon="6.99067">
        <ele>985.01</ele>
        <time>2022-06-13T10:43:16Z</time>
      </trkpt>
      <trkpt lat="47.83812" lon="6.99068">
        <ele>985.01</ele>
        <time>2022-06-13T10:43:17Z</time>
      </trkpt>
      <trkpt lat="47.83812" lon="6.99075">
        <ele>985.01</ele>
        <time>2022-06-13T10:43:39Z</time>
      </trkpt>
      <trkpt lat="47.83813" lon="6.99075">
        <ele>984.05</ele>
        <time>2022-06-13T10:44:02Z</time>
      </trkpt>
      <trkpt lat="47.83813" lon="6.99075">
        <ele>985.01</ele>
        <time>2022-06-13T10:44:26Z</time>
      </trkpt>
      <trkpt lat="47.83819" lon="6.99088">
        <ele>984.53</ele>
        <time>2022-06-13T10:44:45Z</time>
      </trkpt>
      <trkpt lat="47.83817" lon="6.99085">
        <ele>984.53</ele>
        <time>2022-06-13T10:45:11Z</time>
      </trkpt>
      <trkpt lat="47.83816" lon="6.99083">
        <ele>984.53</ele>
        <time>2022-06-13T10:45:34Z</time>
      </trkpt>
      <trkpt lat="47.83816" lon="6.99084">
        <ele>984.53</ele>
        <time>2022-06-13T10:45:54Z</time>
      </trkpt>
      <trkpt lat="47.83815" lon="6.99083">
        <ele>984.05</ele>
        <time>2022-06-13T10:46:20Z</time>
      </trkpt>
      <trkpt lat="47.83811" lon="6.99082">
        <ele>984.05</ele>
        <time>2022-06-13T10:46:40Z</time>
      </trkpt>
      <trkpt lat="47.83812" lon="6.99082">
        <ele>984.05</ele>
        <time>2022-06-13T10:47:02Z</time>
      </trkpt>
      <trkpt lat="47.83817" lon="6.99083">
        <ele>984.05</ele>
        <time>2022-06-13T10:47:23Z</time>
      </trkpt>
      <trkpt lat="47.83833" lon="6.99072">
        <ele>984.05</ele>
        <time>2022-06-13T10:47:45Z</time>
      </trkpt>
      <trkpt lat="47.83828" lon="6.99076">
        <ele>984.05</ele>
        <time>2022-06-13T10:48:06Z</time>
      </trkpt>
      <trkpt lat="47.83822" lon="6.99082">
        <ele>984.05</ele>
        <time>2022-06-13T10:48:32Z</time>
      </trkpt>
      <trkpt lat="47.83819" lon="6.99084">
        <ele>984.05</ele>
        <time>2022-06-13T10:49:01Z</time>
      </trkpt>
      <trkpt lat="47.83826" lon="6.99089">
        <ele>984.05</ele>
        <time>2022-06-13T10:49:23Z</time>
      </trkpt>
      <trkpt lat="47.83829" lon="6.99091">
        <ele>984.05</ele>
        <time>2022-06-13T10:49:44Z</time>
      </trkpt>
      <trkpt lat="47.83824" lon="6.99093">
        <ele>984.05</ele>
        <time>2022-06-13T10:50:10Z</time>
      </trkpt>
      <trkpt lat="47.8382" lon="6.99091">
        <ele>984.05</ele>
        <time>2022-06-13T10:50:36Z</time>
      </trkpt>
      <trkpt lat="47.83817" lon="6.99089">
        <ele>984.05</ele>
        <time>2022-06-13T10:51:02Z</time>
      </trkpt>
      <trkpt lat="47.83818" lon="6.99089">
        <ele>984.05</ele>
        <time>2022-06-13T10:51:26Z</time>
      </trkpt>
      <trkpt lat="47.83818" lon="6.99089">
        <ele>984.05</ele>
        <time>2022-06-13T10:51:56Z</time>
      </trkpt>
      <trkpt lat="47.83819" lon="6.99085">
        <ele>984.05</ele>
        <time>2022-06-13T10:52:20Z</time>
      </trkpt>
      <trkpt lat="47.83826" lon="6.99094">
        <ele>984.05</ele>
        <time>2022-06-13T10:52:43Z</time>
      </trkpt>
      <trkpt lat="47.83817" lon="6.99093">
        <ele>984.05</ele>
        <time>2022-06-13T10:53:22Z</time>
      </trkpt>
      <trkpt lat="47.83814" lon="6.99096">
        <ele>984.05</ele>
        <time>2022-06-13T10:53:47Z</time>
      </trkpt>
      <trkpt lat="47.83806" lon="6.99103">
        <ele>984.05</ele>
        <time>2022-06-13T10:54:09Z</time>
      </trkpt>
      <trkpt lat="47.83815" lon="6.99096">
        <ele>984.53</ele>
        <time>2022-06-13T10:54:31Z</time>
      </trkpt>
      <trkpt lat="47.83819" lon="6.99089">
        <ele>984.05</ele>
        <time>2022-06-13T10:54:54Z</time>
      </trkpt>
      <trkpt lat="47.83815" lon="6.99083">
        <ele>984.53</ele>
        <time>2022-06-13T10:55:21Z</time>
      </trkpt>
      <trkpt lat="47.83813" lon="6.99083">
        <ele>984.05</ele>
        <time>2022-06-13T10:55:24Z</time>
      </trkpt>
      <trkpt lat="47.83803" lon="6.99079">
        <ele>984.53</ele>
        <time>2022-06-13T10:55:46Z</time>
      </trkpt>
      <trkpt lat="47.83805" lon="6.99077">
        <ele>984.53</ele>
        <time>2022-06-13T10:56:12Z</time>
      </trkpt>
      <trkpt lat="47.83809" lon="6.99081">
        <ele>984.53</ele>
        <time>2022-06-13T10:56:40Z</time>
      </trkpt>
      <trkpt lat="47.83817" lon="6.99085">
        <ele>984.53</ele>
        <time>2022-06-13T10:57:00Z</time>
      </trkpt>
      <trkpt lat="47.83817" lon="6.99085">
        <ele>983.57</ele>
        <time>2022-06-13T10:57:04Z</time>
      </trkpt>
      <trkpt lat="47.83825" lon="6.99089">
        <ele>981.64</ele>
        <time>2022-06-13T12:00:42Z</time>
      </trkpt>
      <trkpt lat="47.83824" lon="6.99089">
        <ele>982.12</ele>
        <time>2022-06-13T12:00:43Z</time>
      </trkpt>
      <trkpt lat="47.83814" lon="6.99076">
        <ele>981.64</ele>
        <time>2022-06-13T12:00:59Z</time>
      </trkpt>
      <trkpt lat="47.83812" lon="6.99091">
        <ele>982.12</ele>
        <time>2022-06-13T12:01:24Z</time>
      </trkpt>
      <trkpt lat="47.83813" lon="6.99091">
        <ele>982.12</ele>
        <time>2022-06-13T12:01:54Z</time>
      </trkpt>
      <trkpt lat="47.83814" lon="6.99088">
        <ele>982.12</ele>
        <time>2022-06-13T12:02:15Z</time>
      </trkpt>
      <trkpt lat="47.83825" lon="6.99081">
        <ele>982.6</ele>
        <time>2022-06-13T12:02:27Z</time>
      </trkpt>
      <trkpt lat="47.83829" lon="6.99078">
        <ele>982.6</ele>
        <time>2022-06-13T12:02:40Z</time>
      </trkpt>
      <trkpt lat="47.8383" lon="6.99078">
        <ele>982.6</ele>
        <time>2022-06-13T12:02:43Z</time>
      </trkpt>
      <trkpt lat="47.83836" lon="6.99075">
        <ele>982.6</ele>
        <time>2022-06-13T12:02:47Z</time>
      </trkpt>
      <trkpt lat="47.83854" lon="6.99058">
        <ele>982.6</ele>
        <time>2022-06-13T12:03:00Z</time>
      </trkpt>
      <trkpt lat="47.83858" lon="6.99058">
        <ele>982.6</ele>
        <time>2022-06-13T12:03:11Z</time>
      </trkpt>
      <trkpt lat="47.83859" lon="6.99058">
        <ele>982.12</ele>
        <time>2022-06-13T12:03:22Z</time>
      </trkpt>
      <trkpt lat="47.83864" lon="6.99055">
        <ele>982.6</ele>
        <time>2022-06-13T12:03:25Z</time>
      </trkpt>
      <trkpt lat="47.83872" lon="6.99046">
        <ele>983.09</ele>
        <time>2022-06-13T12:03:30Z</time>
      </trkpt>
      <trkpt lat="47.83907" lon="6.99024">
        <ele>982.6</ele>
        <time>2022-06-13T12:03:46Z</time>
      </trkpt>
      <trkpt lat="47.83929" lon="6.99011">
        <ele>982.12</ele>
        <time>2022-06-13T12:03:56Z</time>
      </trkpt>
      <trkpt lat="47.83957" lon="6.98995">
        <ele>982.6</ele>
        <time>2022-06-13T12:04:08Z</time>
      </trkpt>
      <trkpt lat="47.83984" lon="6.98977">
        <ele>983.09</ele>
        <time>2022-06-13T12:04:22Z</time>
      </trkpt>
      <trkpt lat="47.84009" lon="6.98952">
        <ele>983.57</ele>
        <time>2022-06-13T12:04:34Z</time>
      </trkpt>
      <trkpt lat="47.84025" lon="6.98925">
        <ele>984.05</ele>
        <time>2022-06-13T12:04:46Z</time>
      </trkpt>
      <trkpt lat="47.84026" lon="6.98918">
        <ele>984.53</ele>
        <time>2022-06-13T12:04:56Z</time>
      </trkpt>
      <trkpt lat="47.84027" lon="6.98916">
        <ele>984.53</ele>
        <time>2022-06-13T12:05:10Z</time>
      </trkpt>
      <trkpt lat="47.84029" lon="6.98915">
        <ele>984.05</ele>
        <time>2022-06-13T12:05:24Z</time>
      </trkpt>
      <trkpt lat="47.84029" lon="6.98915">
        <ele>984.05</ele>
        <time>2022-06-13T12:05:26Z</time>
      </trkpt>
      <trkpt lat="47.84032" lon="6.98888">
        <ele>984.05</ele>
        <time>2022-06-13T12:05:37Z</time>
      </trkpt>
      <trkpt lat="47.84032" lon="6.98886">
        <ele>984.05</ele>
        <time>2022-06-13T12:05:38Z</time>
      </trkpt>
      <trkpt lat="47.84025" lon="6.98868">
        <ele>983.57</ele>
        <time>2022-06-13T12:05:46Z</time>
      </trkpt>
      <trkpt lat="47.84019" lon="6.98866">
        <ele>983.57</ele>
        <time>2022-06-13T12:05:50Z</time>
      </trkpt>
      <trkpt lat="47.83989" lon="6.98863">
        <ele>981.64</ele>
        <time>2022-06-13T12:06:04Z</time>
      </trkpt>
      <trkpt lat="47.83965" lon="6.98854">
        <ele>980.2</ele>
        <time>2022-06-13T12:06:17Z</time>
      </trkpt>
      <trkpt lat="47.83939" lon="6.98825">
        <ele>977.8</ele>
        <time>2022-06-13T12:06:28Z</time>
      </trkpt>
      <trkpt lat="47.83924" lon="6.98802">
        <ele>977.32</ele>
        <time>2022-06-13T12:06:34Z</time>
      </trkpt>
      <trkpt lat="47.8392" lon="6.98799">
        <ele>976.84</ele>
        <time>2022-06-13T12:06:35Z</time>
      </trkpt>
      <trkpt lat="47.83898" lon="6.98781">
        <ele>974.91</ele>
        <time>2022-06-13T12:06:41Z</time>
      </trkpt>
      <trkpt lat="47.8389" lon="6.98775">
        <ele>974.43</ele>
        <time>2022-06-13T12:06:43Z</time>
      </trkpt>
      <trkpt lat="47.83885" lon="6.98772">
        <ele>973.95</ele>
        <time>2022-06-13T12:06:44Z</time>
      </trkpt>
      <trkpt lat="47.83881" lon="6.98769">
        <ele>973.47</ele>
        <time>2022-06-13T12:06:45Z</time>
      </trkpt>
      <trkpt lat="47.83876" lon="6.98766">
        <ele>972.99</ele>
        <time>2022-06-13T12:06:46Z</time>
      </trkpt>
      <trkpt lat="47.83871" lon="6.98764">
        <ele>972.51</ele>
        <time>2022-06-13T12:06:47Z</time>
      </trkpt>
      <trkpt lat="47.83843" lon="6.98748">
        <ele>971.07</ele>
        <time>2022-06-13T12:06:53Z</time>
      </trkpt>
      <trkpt lat="47.83839" lon="6.98746">
        <ele>970.59</ele>
        <time>2022-06-13T12:06:54Z</time>
      </trkpt>
      <trkpt lat="47.83814" lon="6.9873">
        <ele>968.67</ele>
        <time>2022-06-13T12:06:59Z</time>
      </trkpt>
      <trkpt lat="47.83808" lon="6.98727">
        <ele>968.18</ele>
        <time>2022-06-13T12:07:00Z</time>
      </trkpt>
      <trkpt lat="47.83803" lon="6.98725">
        <ele>968.18</ele>
        <time>2022-06-13T12:07:01Z</time>
      </trkpt>
      <trkpt lat="47.83797" lon="6.98721">
        <ele>967.7</ele>
        <time>2022-06-13T12:07:02Z</time>
      </trkpt>
      <trkpt lat="47.83792" lon="6.98718">
        <ele>967.22</ele>
        <time>2022-06-13T12:07:03Z</time>
      </trkpt>
      <trkpt lat="47.83774" lon="6.98706">
        <ele>966.26</ele>
        <time>2022-06-13T12:07:07Z</time>
      </trkpt>
      <trkpt lat="47.83769" lon="6.98703">
        <ele>965.78</ele>
        <time>2022-06-13T12:07:08Z</time>
      </trkpt>
      <trkpt lat="47.83742" lon="6.98689">
        <ele>963.86</ele>
        <time>2022-06-13T12:07:13Z</time>
      </trkpt>
      <trkpt lat="47.83736" lon="6.98687">
        <ele>963.38</ele>
        <time>2022-06-13T12:07:14Z</time>
      </trkpt>
      <trkpt lat="47.8373" lon="6.98685">
        <ele>962.9</ele>
        <time>2022-06-13T12:07:15Z</time>
      </trkpt>
      <trkpt lat="47.83724" lon="6.98684">
        <ele>962.42</ele>
        <time>2022-06-13T12:07:16Z</time>
      </trkpt>
      <trkpt lat="47.83719" lon="6.98684">
        <ele>961.94</ele>
        <time>2022-06-13T12:07:17Z</time>
      </trkpt>
      <trkpt lat="47.83714" lon="6.98685">
        <ele>961.46</ele>
        <time>2022-06-13T12:07:18Z</time>
      </trkpt>
      <trkpt lat="47.83709" lon="6.98686">
        <ele>961.46</ele>
        <time>2022-06-13T12:07:19Z</time>
      </trkpt>
      <trkpt lat="47.83699" lon="6.98688">
        <ele>960.98</ele>
        <time>2022-06-13T12:07:21Z</time>
      </trkpt>
      <trkpt lat="47.83694" lon="6.98691">
        <ele>960.49</ele>
        <time>2022-06-13T12:07:22Z</time>
      </trkpt>
      <trkpt lat="47.83684" lon="6.98699">
        <ele>960.01</ele>
        <time>2022-06-13T12:07:24Z</time>
      </trkpt>
      <trkpt lat="47.83665" lon="6.9871">
        <ele>958.57</ele>
        <time>2022-06-13T12:07:27Z</time>
      </trkpt>
      <trkpt lat="47.83659" lon="6.98714">
        <ele>958.57</ele>
        <time>2022-06-13T12:07:28Z</time>
      </trkpt>
      <trkpt lat="47.83625" lon="6.98732">
        <ele>957.13</ele>
        <time>2022-06-13T12:07:34Z</time>
      </trkpt>
      <trkpt lat="47.83621" lon="6.9873">
        <ele>957.13</ele>
        <time>2022-06-13T12:07:35Z</time>
      </trkpt>
      <trkpt lat="47.83617" lon="6.98727">
        <ele>957.13</ele>
        <time>2022-06-13T12:07:36Z</time>
      </trkpt>
      <trkpt lat="47.83613" lon="6.98724">
        <ele>957.13</ele>
        <time>2022-06-13T12:07:37Z</time>
      </trkpt>
      <trkpt lat="47.83609" lon="6.9872">
        <ele>956.65</ele>
        <time>2022-06-13T12:07:38Z</time>
      </trkpt>
      <trkpt lat="47.83589" lon="6.98698">
        <ele>956.17</ele>
        <time>2022-06-13T12:07:46Z</time>
      </trkpt>
      <trkpt lat="47.83583" lon="6.98691">
        <ele>955.21</ele>
        <time>2022-06-13T12:07:49Z</time>
      </trkpt>
      <trkpt lat="47.83581" lon="6.98687">
        <ele>954.73</ele>
        <time>2022-06-13T12:07:50Z</time>
      </trkpt>
      <trkpt lat="47.83579" lon="6.98683">
        <ele>954.73</ele>
        <time>2022-06-13T12:07:51Z</time>
      </trkpt>
      <trkpt lat="47.83577" lon="6.98678">
        <ele>954.25</ele>
        <time>2022-06-13T12:07:52Z</time>
      </trkpt>
      <trkpt lat="47.83575" lon="6.98674">
        <ele>953.77</ele>
        <time>2022-06-13T12:07:53Z</time>
      </trkpt>
      <trkpt lat="47.83571" lon="6.98668">
        <ele>953.28</ele>
        <time>2022-06-13T12:07:54Z</time>
      </trkpt>
      <trkpt lat="47.83568" lon="6.98662">
        <ele>952.8</ele>
        <time>2022-06-13T12:07:55Z</time>
      </trkpt>
      <trkpt lat="47.83564" lon="6.98657">
        <ele>952.32</ele>
        <time>2022-06-13T12:07:56Z</time>
      </trkpt>
      <trkpt lat="47.8356" lon="6.98652">
        <ele>951.84</ele>
        <time>2022-06-13T12:07:57Z</time>
      </trkpt>
      <trkpt lat="47.83556" lon="6.98647">
        <ele>951.36</ele>
        <time>2022-06-13T12:07:58Z</time>
      </trkpt>
      <trkpt lat="47.83551" lon="6.9864">
        <ele>950.4</ele>
        <time>2022-06-13T12:07:59Z</time>
      </trkpt>
      <trkpt lat="47.83543" lon="6.98632">
        <ele>949.44</ele>
        <time>2022-06-13T12:08:00Z</time>
      </trkpt>
      <trkpt lat="47.83508" lon="6.98585">
        <ele>946.56</ele>
        <time>2022-06-13T12:08:06Z</time>
      </trkpt>
      <trkpt lat="47.83503" lon="6.98577">
        <ele>946.56</ele>
        <time>2022-06-13T12:08:07Z</time>
      </trkpt>
      <trkpt lat="47.83492" lon="6.98563">
        <ele>945.11</ele>
        <time>2022-06-13T12:08:09Z</time>
      </trkpt>
      <trkpt lat="47.8348" lon="6.98549">
        <ele>944.63</ele>
        <time>2022-06-13T12:08:11Z</time>
      </trkpt>
      <trkpt lat="47.83468" lon="6.98533">
        <ele>943.67</ele>
        <time>2022-06-13T12:08:13Z</time>
      </trkpt>
      <trkpt lat="47.83422" lon="6.98486">
        <ele>940.31</ele>
        <time>2022-06-13T12:08:20Z</time>
      </trkpt>
      <trkpt lat="47.83402" lon="6.98448">
        <ele>937.42</ele>
        <time>2022-06-13T12:08:25Z</time>
      </trkpt>
      <trkpt lat="47.83395" lon="6.9843">
        <ele>936.46</ele>
        <time>2022-06-13T12:08:27Z</time>
      </trkpt>
      <trkpt lat="47.83389" lon="6.98411">
        <ele>935.5</ele>
        <time>2022-06-13T12:08:29Z</time>
      </trkpt>
      <trkpt lat="47.8338" lon="6.98354">
        <ele>932.62</ele>
        <time>2022-06-13T12:08:35Z</time>
      </trkpt>
      <trkpt lat="47.83378" lon="6.98346">
        <ele>932.62</ele>
        <time>2022-06-13T12:08:36Z</time>
      </trkpt>
      <trkpt lat="47.83376" lon="6.98341">
        <ele>932.62</ele>
        <time>2022-06-13T12:08:37Z</time>
      </trkpt>
      <trkpt lat="47.83374" lon="6.98337">
        <ele>932.14</ele>
        <time>2022-06-13T12:08:38Z</time>
      </trkpt>
      <trkpt lat="47.83372" lon="6.98335">
        <ele>932.14</ele>
        <time>2022-06-13T12:08:39Z</time>
      </trkpt>
      <trkpt lat="47.8337" lon="6.98333">
        <ele>931.65</ele>
        <time>2022-06-13T12:08:40Z</time>
      </trkpt>
      <trkpt lat="47.83368" lon="6.98332">
        <ele>931.65</ele>
        <time>2022-06-13T12:08:41Z</time>
      </trkpt>
      <trkpt lat="47.83366" lon="6.98332">
        <ele>931.17</ele>
        <time>2022-06-13T12:08:42Z</time>
      </trkpt>
      <trkpt lat="47.83363" lon="6.98332">
        <ele>931.17</ele>
        <time>2022-06-13T12:08:43Z</time>
      </trkpt>
      <trkpt lat="47.8336" lon="6.98333">
        <ele>931.17</ele>
        <time>2022-06-13T12:08:44Z</time>
      </trkpt>
      <trkpt lat="47.83358" lon="6.98334">
        <ele>931.17</ele>
        <time>2022-06-13T12:08:45Z</time>
      </trkpt>
      <trkpt lat="47.83355" lon="6.98334">
        <ele>930.69</ele>
        <time>2022-06-13T12:08:46Z</time>
      </trkpt>
      <trkpt lat="47.83327" lon="6.9836">
        <ele>928.29</ele>
        <time>2022-06-13T12:08:55Z</time>
      </trkpt>
      <trkpt lat="47.83326" lon="6.98365">
        <ele>928.29</ele>
        <time>2022-06-13T12:08:56Z</time>
      </trkpt>
      <trkpt lat="47.83325" lon="6.9837">
        <ele>927.81</ele>
        <time>2022-06-13T12:08:57Z</time>
      </trkpt>
      <trkpt lat="47.83326" lon="6.98375">
        <ele>927.33</ele>
        <time>2022-06-13T12:08:58Z</time>
      </trkpt>
      <trkpt lat="47.83326" lon="6.98381">
        <ele>927.33</ele>
        <time>2022-06-13T12:08:59Z</time>
      </trkpt>
      <trkpt lat="47.83326" lon="6.98387">
        <ele>926.85</ele>
        <time>2022-06-13T12:09:00Z</time>
      </trkpt>
      <trkpt lat="47.83327" lon="6.98392">
        <ele>926.85</ele>
        <time>2022-06-13T12:09:01Z</time>
      </trkpt>
      <trkpt lat="47.83328" lon="6.98397">
        <ele>926.37</ele>
        <time>2022-06-13T12:09:02Z</time>
      </trkpt>
      <trkpt lat="47.8333" lon="6.98402">
        <ele>926.37</ele>
        <time>2022-06-13T12:09:03Z</time>
      </trkpt>
      <trkpt lat="47.83331" lon="6.98407">
        <ele>925.89</ele>
        <time>2022-06-13T12:09:04Z</time>
      </trkpt>
      <trkpt lat="47.83336" lon="6.98417">
        <ele>925.41</ele>
        <time>2022-06-13T12:09:06Z</time>
      </trkpt>
      <trkpt lat="47.83339" lon="6.98421">
        <ele>925.41</ele>
        <time>2022-06-13T12:09:07Z</time>
      </trkpt>
      <trkpt lat="47.83341" lon="6.98426">
        <ele>924.93</ele>
        <time>2022-06-13T12:09:08Z</time>
      </trkpt>
      <trkpt lat="47.83343" lon="6.9843">
        <ele>924.45</ele>
        <time>2022-06-13T12:09:09Z</time>
      </trkpt>
      <trkpt lat="47.83345" lon="6.98434">
        <ele>924.45</ele>
        <time>2022-06-13T12:09:10Z</time>
      </trkpt>
      <trkpt lat="47.8336" lon="6.98466">
        <ele>921.56</ele>
        <time>2022-06-13T12:09:17Z</time>
      </trkpt>
      <trkpt lat="47.83361" lon="6.9848">
        <ele>921.08</ele>
        <time>2022-06-13T12:09:19Z</time>
      </trkpt>
      <trkpt lat="47.8336" lon="6.98487">
        <ele>921.08</ele>
        <time>2022-06-13T12:09:20Z</time>
      </trkpt>
      <trkpt lat="47.83359" lon="6.98494">
        <ele>920.6</ele>
        <time>2022-06-13T12:09:21Z</time>
      </trkpt>
      <trkpt lat="47.83359" lon="6.98501">
        <ele>920.12</ele>
        <time>2022-06-13T12:09:22Z</time>
      </trkpt>
      <trkpt lat="47.83358" lon="6.98507">
        <ele>920.12</ele>
        <time>2022-06-13T12:09:23Z</time>
      </trkpt>
      <trkpt lat="47.83356" lon="6.98512">
        <ele>919.64</ele>
        <time>2022-06-13T12:09:24Z</time>
      </trkpt>
      <trkpt lat="47.83354" lon="6.98518">
        <ele>919.16</ele>
        <time>2022-06-13T12:09:25Z</time>
      </trkpt>
      <trkpt lat="47.83349" lon="6.9853">
        <ele>918.68</ele>
        <time>2022-06-13T12:09:27Z</time>
      </trkpt>
      <trkpt lat="47.83346" lon="6.98537">
        <ele>918.2</ele>
        <time>2022-06-13T12:09:28Z</time>
      </trkpt>
      <trkpt lat="47.83335" lon="6.98556">
        <ele>916.75</ele>
        <time>2022-06-13T12:09:31Z</time>
      </trkpt>
      <trkpt lat="47.83328" lon="6.98568">
        <ele>916.27</ele>
        <time>2022-06-13T12:09:33Z</time>
      </trkpt>
      <trkpt lat="47.8331" lon="6.98597">
        <ele>914.35</ele>
        <time>2022-06-13T12:09:38Z</time>
      </trkpt>
      <trkpt lat="47.83306" lon="6.98604">
        <ele>914.35</ele>
        <time>2022-06-13T12:09:39Z</time>
      </trkpt>
      <trkpt lat="47.83302" lon="6.98612">
        <ele>913.87</ele>
        <time>2022-06-13T12:09:40Z</time>
      </trkpt>
      <trkpt lat="47.83294" lon="6.98628">
        <ele>912.91</ele>
        <time>2022-06-13T12:09:42Z</time>
      </trkpt>
      <trkpt lat="47.83276" lon="6.98665">
        <ele>911.47</ele>
        <time>2022-06-13T12:09:47Z</time>
      </trkpt>
      <trkpt lat="47.83273" lon="6.98671">
        <ele>910.99</ele>
        <time>2022-06-13T12:09:48Z</time>
      </trkpt>
      <trkpt lat="47.83265" lon="6.98682">
        <ele>910.03</ele>
        <time>2022-06-13T12:09:50Z</time>
      </trkpt>
      <trkpt lat="47.83261" lon="6.98687">
        <ele>909.54</ele>
        <time>2022-06-13T12:09:51Z</time>
      </trkpt>
      <trkpt lat="47.83256" lon="6.98691">
        <ele>909.06</ele>
        <time>2022-06-13T12:09:52Z</time>
      </trkpt>
      <trkpt lat="47.83252" lon="6.98696">
        <ele>909.06</ele>
        <time>2022-06-13T12:09:53Z</time>
      </trkpt>
      <trkpt lat="47.83248" lon="6.987">
        <ele>908.58</ele>
        <time>2022-06-13T12:09:54Z</time>
      </trkpt>
      <trkpt lat="47.83244" lon="6.98705">
        <ele>907.62</ele>
        <time>2022-06-13T12:09:55Z</time>
      </trkpt>
      <trkpt lat="47.83241" lon="6.98711">
        <ele>907.62</ele>
        <time>2022-06-13T12:09:56Z</time>
      </trkpt>
      <trkpt lat="47.83231" lon="6.98748">
        <ele>904.74</ele>
        <time>2022-06-13T12:10:04Z</time>
      </trkpt>
      <trkpt lat="47.83229" lon="6.98749">
        <ele>904.74</ele>
        <time>2022-06-13T12:10:05Z</time>
      </trkpt>
      <trkpt lat="47.83227" lon="6.9875">
        <ele>904.26</ele>
        <time>2022-06-13T12:10:07Z</time>
      </trkpt>
      <trkpt lat="47.83225" lon="6.98751">
        <ele>904.26</ele>
        <time>2022-06-13T12:10:19Z</time>
      </trkpt>
      <trkpt lat="47.83225" lon="6.98747">
        <ele>903.78</ele>
        <time>2022-06-13T12:10:30Z</time>
      </trkpt>
      <trkpt lat="47.83225" lon="6.98742">
        <ele>903.3</ele>
        <time>2022-06-13T12:10:34Z</time>
      </trkpt>
      <trkpt lat="47.83225" lon="6.98739">
        <ele>903.3</ele>
        <time>2022-06-13T12:10:35Z</time>
      </trkpt>
      <trkpt lat="47.83225" lon="6.98736">
        <ele>902.82</ele>
        <time>2022-06-13T12:10:36Z</time>
      </trkpt>
      <trkpt lat="47.83229" lon="6.98727">
        <ele>901.85</ele>
        <time>2022-06-13T12:10:41Z</time>
      </trkpt>
      <trkpt lat="47.83248" lon="6.9869">
        <ele>898.97</ele>
        <time>2022-06-13T12:10:51Z</time>
      </trkpt>
      <trkpt lat="47.83256" lon="6.98675">
        <ele>898.01</ele>
        <time>2022-06-13T12:10:54Z</time>
      </trkpt>
      <trkpt lat="47.83257" lon="6.9867">
        <ele>898.01</ele>
        <time>2022-06-13T12:10:55Z</time>
      </trkpt>
      <trkpt lat="47.83266" lon="6.98638">
        <ele>895.12</ele>
        <time>2022-06-13T12:11:01Z</time>
      </trkpt>
      <trkpt lat="47.83285" lon="6.98594">
        <ele>892.72</ele>
        <time>2022-06-13T12:11:10Z</time>
      </trkpt>
      <trkpt lat="47.83288" lon="6.98585">
        <ele>892.24</ele>
        <time>2022-06-13T12:11:12Z</time>
      </trkpt>
      <trkpt lat="47.83298" lon="6.98547">
        <ele>890.32</ele>
        <time>2022-06-13T12:11:18Z</time>
      </trkpt>
      <trkpt lat="47.83299" lon="6.9854">
        <ele>889.84</ele>
        <time>2022-06-13T12:11:19Z</time>
      </trkpt>
      <trkpt lat="47.833" lon="6.98534">
        <ele>889.84</ele>
        <time>2022-06-13T12:11:20Z</time>
      </trkpt>
      <trkpt lat="47.83301" lon="6.98529">
        <ele>889.36</ele>
        <time>2022-06-13T12:11:21Z</time>
      </trkpt>
      <trkpt lat="47.83302" lon="6.98524">
        <ele>889.36</ele>
        <time>2022-06-13T12:11:22Z</time>
      </trkpt>
      <trkpt lat="47.83302" lon="6.98519">
        <ele>888.88</ele>
        <time>2022-06-13T12:11:23Z</time>
      </trkpt>
      <trkpt lat="47.83296" lon="6.98489">
        <ele>887.43</ele>
        <time>2022-06-13T12:11:28Z</time>
      </trkpt>
      <trkpt lat="47.83295" lon="6.98482">
        <ele>887.43</ele>
        <time>2022-06-13T12:11:29Z</time>
      </trkpt>
      <trkpt lat="47.83294" lon="6.98476">
        <ele>886.95</ele>
        <time>2022-06-13T12:11:30Z</time>
      </trkpt>
      <trkpt lat="47.83288" lon="6.98457">
        <ele>885.99</ele>
        <time>2022-06-13T12:11:34Z</time>
      </trkpt>
      <trkpt lat="47.83286" lon="6.98455">
        <ele>885.51</ele>
        <time>2022-06-13T12:11:35Z</time>
      </trkpt>
      <trkpt lat="47.83282" lon="6.98451">
        <ele>885.51</ele>
        <time>2022-06-13T12:11:36Z</time>
      </trkpt>
      <trkpt lat="47.83275" lon="6.98443">
        <ele>884.55</ele>
        <time>2022-06-13T12:11:39Z</time>
      </trkpt>
      <trkpt lat="47.83273" lon="6.98442">
        <ele>884.07</ele>
        <time>2022-06-13T12:11:40Z</time>
      </trkpt>
      <trkpt lat="47.8327" lon="6.9844">
        <ele>884.07</ele>
        <time>2022-06-13T12:11:41Z</time>
      </trkpt>
      <trkpt lat="47.83249" lon="6.98397">
        <ele>880.71</ele>
        <time>2022-06-13T12:11:50Z</time>
      </trkpt>
      <trkpt lat="47.83233" lon="6.98354">
        <ele>879.26</ele>
        <time>2022-06-13T12:11:56Z</time>
      </trkpt>
      <trkpt lat="47.83236" lon="6.98294">
        <ele>876.38</ele>
        <time>2022-06-13T12:12:05Z</time>
      </trkpt>
      <trkpt lat="47.83239" lon="6.98288">
        <ele>875.9</ele>
        <time>2022-06-13T12:12:06Z</time>
      </trkpt>
      <trkpt lat="47.83271" lon="6.98243">
        <ele>872.53</ele>
        <time>2022-06-13T12:12:15Z</time>
      </trkpt>
      <trkpt lat="47.83296" lon="6.98207">
        <ele>870.13</ele>
        <time>2022-06-13T12:12:21Z</time>
      </trkpt>
      <trkpt lat="47.833" lon="6.982">
        <ele>870.13</ele>
        <time>2022-06-13T12:12:22Z</time>
      </trkpt>
      <trkpt lat="47.83304" lon="6.98193">
        <ele>869.65</ele>
        <time>2022-06-13T12:12:23Z</time>
      </trkpt>
      <trkpt lat="47.83308" lon="6.98185">
        <ele>869.17</ele>
        <time>2022-06-13T12:12:24Z</time>
      </trkpt>
      <trkpt lat="47.83312" lon="6.98177">
        <ele>868.69</ele>
        <time>2022-06-13T12:12:25Z</time>
      </trkpt>
      <trkpt lat="47.83316" lon="6.98169">
        <ele>868.21</ele>
        <time>2022-06-13T12:12:26Z</time>
      </trkpt>
      <trkpt lat="47.83339" lon="6.98115">
        <ele>864.84</ele>
        <time>2022-06-13T12:12:32Z</time>
      </trkpt>
      <trkpt lat="47.83344" lon="6.98106">
        <ele>864.36</ele>
        <time>2022-06-13T12:12:33Z</time>
      </trkpt>
      <trkpt lat="47.83349" lon="6.98097">
        <ele>863.88</ele>
        <time>2022-06-13T12:12:34Z</time>
      </trkpt>
      <trkpt lat="47.83353" lon="6.98087">
        <ele>863.4</ele>
        <time>2022-06-13T12:12:35Z</time>
      </trkpt>
      <trkpt lat="47.83365" lon="6.98059">
        <ele>862.44</ele>
        <time>2022-06-13T12:12:38Z</time>
      </trkpt>
      <trkpt lat="47.83378" lon="6.9803">
        <ele>859.56</ele>
        <time>2022-06-13T12:12:42Z</time>
      </trkpt>
      <trkpt lat="47.83382" lon="6.98023">
        <ele>859.08</ele>
        <time>2022-06-13T12:12:43Z</time>
      </trkpt>
      <trkpt lat="47.83402" lon="6.97997">
        <ele>856.67</ele>
        <time>2022-06-13T12:12:47Z</time>
      </trkpt>
      <trkpt lat="47.83438" lon="6.97941">
        <ele>853.31</ele>
        <time>2022-06-13T12:12:54Z</time>
      </trkpt>
      <trkpt lat="47.83443" lon="6.97934">
        <ele>852.83</ele>
        <time>2022-06-13T12:12:55Z</time>
      </trkpt>
      <trkpt lat="47.83469" lon="6.97906">
        <ele>849.94</ele>
        <time>2022-06-13T12:13:00Z</time>
      </trkpt>
      <trkpt lat="47.83474" lon="6.97904">
        <ele>849.46</ele>
        <time>2022-06-13T12:13:01Z</time>
      </trkpt>
      <trkpt lat="47.83478" lon="6.97902">
        <ele>848.98</ele>
        <time>2022-06-13T12:13:02Z</time>
      </trkpt>
      <trkpt lat="47.83482" lon="6.979">
        <ele>848.5</ele>
        <time>2022-06-13T12:13:03Z</time>
      </trkpt>
      <trkpt lat="47.83487" lon="6.97899">
        <ele>848.02</ele>
        <time>2022-06-13T12:13:04Z</time>
      </trkpt>
      <trkpt lat="47.83524" lon="6.97902">
        <ele>845.14</ele>
        <time>2022-06-13T12:13:10Z</time>
      </trkpt>
      <trkpt lat="47.83528" lon="6.97904">
        <ele>844.66</ele>
        <time>2022-06-13T12:13:11Z</time>
      </trkpt>
      <trkpt lat="47.83532" lon="6.97908">
        <ele>844.18</ele>
        <time>2022-06-13T12:13:12Z</time>
      </trkpt>
      <trkpt lat="47.83536" lon="6.97912">
        <ele>843.69</ele>
        <time>2022-06-13T12:13:13Z</time>
      </trkpt>
      <trkpt lat="47.83539" lon="6.97915">
        <ele>843.69</ele>
        <time>2022-06-13T12:13:14Z</time>
      </trkpt>
      <trkpt lat="47.83542" lon="6.97916">
        <ele>843.21</ele>
        <time>2022-06-13T12:13:15Z</time>
      </trkpt>
      <trkpt lat="47.83545" lon="6.97916">
        <ele>843.21</ele>
        <time>2022-06-13T12:13:16Z</time>
      </trkpt>
      <trkpt lat="47.83547" lon="6.97918">
        <ele>842.73</ele>
        <time>2022-06-13T12:13:17Z</time>
      </trkpt>
      <trkpt lat="47.83549" lon="6.97921">
        <ele>843.21</ele>
        <time>2022-06-13T12:13:18Z</time>
      </trkpt>
      <trkpt lat="47.83551" lon="6.97922">
        <ele>843.21</ele>
        <time>2022-06-13T12:13:19Z</time>
      </trkpt>
      <trkpt lat="47.83557" lon="6.9793">
        <ele>843.21</ele>
        <time>2022-06-13T12:13:24Z</time>
      </trkpt>
      <trkpt lat="47.83558" lon="6.97931">
        <ele>843.69</ele>
        <time>2022-06-13T12:13:25Z</time>
      </trkpt>
      <trkpt lat="47.83558" lon="6.97934">
        <ele>843.69</ele>
        <time>2022-06-13T12:13:31Z</time>
      </trkpt>
      <trkpt lat="47.83559" lon="6.97936">
        <ele>843.69</ele>
        <time>2022-06-13T12:13:32Z</time>
      </trkpt>
      <trkpt lat="47.83559" lon="6.97938">
        <ele>844.18</ele>
        <time>2022-06-13T12:13:33Z</time>
      </trkpt>
      <trkpt lat="47.83559" lon="6.97941">
        <ele>844.18</ele>
        <time>2022-06-13T12:13:34Z</time>
      </trkpt>
      <trkpt lat="47.83559" lon="6.97943">
        <ele>844.18</ele>
        <time>2022-06-13T12:13:35Z</time>
      </trkpt>
      <trkpt lat="47.83559" lon="6.97945">
        <ele>844.66</ele>
        <time>2022-06-13T12:13:36Z</time>
      </trkpt>
      <trkpt lat="47.83559" lon="6.97948">
        <ele>844.66</ele>
        <time>2022-06-13T12:13:37Z</time>
      </trkpt>
      <trkpt lat="47.83559" lon="6.97951">
        <ele>844.66</ele>
        <time>2022-06-13T12:13:38Z</time>
      </trkpt>
      <trkpt lat="47.83559" lon="6.97953">
        <ele>845.14</ele>
        <time>2022-06-13T12:13:39Z</time>
      </trkpt>
      <trkpt lat="47.83558" lon="6.97956">
        <ele>845.14</ele>
        <time>2022-06-13T12:13:40Z</time>
      </trkpt>
      <trkpt lat="47.83558" lon="6.97961">
        <ele>845.14</ele>
        <time>2022-06-13T12:13:42Z</time>
      </trkpt>
      <trkpt lat="47.83559" lon="6.97963">
        <ele>845.14</ele>
        <time>2022-06-13T12:13:51Z</time>
      </trkpt>
      <trkpt lat="47.8356" lon="6.97966">
        <ele>845.14</ele>
        <time>2022-06-13T12:14:07Z</time>
      </trkpt>
      <trkpt lat="47.83558" lon="6.97964">
        <ele>845.14</ele>
        <time>2022-06-13T12:14:17Z</time>
      </trkpt>
      <trkpt lat="47.83558" lon="6.97963">
        <ele>844.66</ele>
        <time>2022-06-13T12:14:47Z</time>
      </trkpt>
      <trkpt lat="47.83558" lon="6.97961">
        <ele>845.14</ele>
        <time>2022-06-13T12:15:19Z</time>
      </trkpt>
      <trkpt lat="47.83557" lon="6.97962">
        <ele>845.62</ele>
        <time>2022-06-13T12:15:55Z</time>
      </trkpt>
      <trkpt lat="47.83558" lon="6.97961">
        <ele>845.62</ele>
        <time>2022-06-13T12:16:27Z</time>
      </trkpt>
      <trkpt lat="47.83559" lon="6.97959">
        <ele>845.62</ele>
        <time>2022-06-13T12:16:35Z</time>
      </trkpt>
      <trkpt lat="47.8356" lon="6.97957">
        <ele>845.62</ele>
        <time>2022-06-13T12:16:36Z</time>
      </trkpt>
      <trkpt lat="47.8356" lon="6.97955">
        <ele>845.62</ele>
        <time>2022-06-13T12:16:37Z</time>
      </trkpt>
      <trkpt lat="47.83561" lon="6.97954">
        <ele>845.14</ele>
        <time>2022-06-13T12:16:38Z</time>
      </trkpt>
      <trkpt lat="47.83561" lon="6.97952">
        <ele>846.58</ele>
        <time>2022-06-13T12:16:39Z</time>
      </trkpt>
      <trkpt lat="47.83561" lon="6.9795">
        <ele>845.14</ele>
        <time>2022-06-13T12:16:50Z</time>
      </trkpt>
      <trkpt lat="47.83559" lon="6.97949">
        <ele>845.14</ele>
        <time>2022-06-13T12:17:16Z</time>
      </trkpt>
      <trkpt lat="47.8356" lon="6.97949">
        <ele>845.14</ele>
        <time>2022-06-13T12:17:53Z</time>
      </trkpt>
      <trkpt lat="47.83559" lon="6.97945">
        <ele>845.14</ele>
        <time>2022-06-13T12:18:00Z</time>
      </trkpt>
      <trkpt lat="47.83558" lon="6.97943">
        <ele>844.66</ele>
        <time>2022-06-13T12:18:01Z</time>
      </trkpt>
      <trkpt lat="47.83558" lon="6.9794">
        <ele>844.66</ele>
        <time>2022-06-13T12:18:02Z</time>
      </trkpt>
      <trkpt lat="47.83558" lon="6.97938">
        <ele>844.66</ele>
        <time>2022-06-13T12:18:03Z</time>
      </trkpt>
      <trkpt lat="47.83559" lon="6.97936">
        <ele>844.66</ele>
        <time>2022-06-13T12:18:04Z</time>
      </trkpt>
      <trkpt lat="47.83558" lon="6.97934">
        <ele>844.66</ele>
        <time>2022-06-13T12:18:05Z</time>
      </trkpt>
      <trkpt lat="47.83557" lon="6.97931">
        <ele>844.66</ele>
        <time>2022-06-13T12:18:06Z</time>
      </trkpt>
      <trkpt lat="47.83556" lon="6.97929">
        <ele>844.18</ele>
        <time>2022-06-13T12:18:07Z</time>
      </trkpt>
      <trkpt lat="47.83535" lon="6.97893">
        <ele>842.25</ele>
        <time>2022-06-13T12:18:20Z</time>
      </trkpt>
      <trkpt lat="47.83535" lon="6.97891">
        <ele>842.25</ele>
        <time>2022-06-13T12:18:21Z</time>
      </trkpt>
      <trkpt lat="47.83534" lon="6.97889">
        <ele>842.25</ele>
        <time>2022-06-13T12:18:22Z</time>
      </trkpt>
      <trkpt lat="47.8351" lon="6.97878">
        <ele>840.33</ele>
        <time>2022-06-13T12:18:30Z</time>
      </trkpt>
      <trkpt lat="47.83505" lon="6.97877">
        <ele>839.85</ele>
        <time>2022-06-13T12:18:31Z</time>
      </trkpt>
      <trkpt lat="47.83501" lon="6.97875">
        <ele>839.37</ele>
        <time>2022-06-13T12:18:32Z</time>
      </trkpt>
      <trkpt lat="47.83497" lon="6.97873">
        <ele>839.37</ele>
        <time>2022-06-13T12:18:33Z</time>
      </trkpt>
      <trkpt lat="47.83492" lon="6.9787">
        <ele>838.89</ele>
        <time>2022-06-13T12:18:34Z</time>
      </trkpt>
      <trkpt lat="47.8348" lon="6.97866">
        <ele>837.93</ele>
        <time>2022-06-13T12:18:36Z</time>
      </trkpt>
      <trkpt lat="47.83449" lon="6.9786">
        <ele>835.04</ele>
        <time>2022-06-13T12:18:43Z</time>
      </trkpt>
      <trkpt lat="47.83444" lon="6.97862">
        <ele>835.04</ele>
        <time>2022-06-13T12:18:44Z</time>
      </trkpt>
      <trkpt lat="47.8344" lon="6.97864">
        <ele>834.08</ele>
        <time>2022-06-13T12:18:45Z</time>
      </trkpt>
      <trkpt lat="47.83435" lon="6.97867">
        <ele>833.6</ele>
        <time>2022-06-13T12:18:46Z</time>
      </trkpt>
      <trkpt lat="47.8343" lon="6.97872">
        <ele>833.6</ele>
        <time>2022-06-13T12:18:47Z</time>
      </trkpt>
      <trkpt lat="47.83403" lon="6.97902">
        <ele>830.24</ele>
        <time>2022-06-13T12:18:52Z</time>
      </trkpt>
      <trkpt lat="47.8339" lon="6.97915">
        <ele>829.76</ele>
        <time>2022-06-13T12:18:54Z</time>
      </trkpt>
      <trkpt lat="47.83384" lon="6.97921">
        <ele>828.79</ele>
        <time>2022-06-13T12:18:55Z</time>
      </trkpt>
      <trkpt lat="47.83377" lon="6.97926">
        <ele>828.31</ele>
        <time>2022-06-13T12:18:56Z</time>
      </trkpt>
      <trkpt lat="47.8337" lon="6.97931">
        <ele>827.83</ele>
        <time>2022-06-13T12:18:57Z</time>
      </trkpt>
      <trkpt lat="47.83364" lon="6.97936">
        <ele>827.35</ele>
        <time>2022-06-13T12:18:58Z</time>
      </trkpt>
      <trkpt lat="47.83357" lon="6.9794">
        <ele>826.87</ele>
        <time>2022-06-13T12:18:59Z</time>
      </trkpt>
      <trkpt lat="47.83339" lon="6.97954">
        <ele>825.91</ele>
        <time>2022-06-13T12:19:02Z</time>
      </trkpt>
      <trkpt lat="47.83334" lon="6.9796">
        <ele>825.43</ele>
        <time>2022-06-13T12:19:03Z</time>
      </trkpt>
      <trkpt lat="47.8333" lon="6.97967">
        <ele>824.95</ele>
        <time>2022-06-13T12:19:04Z</time>
      </trkpt>
      <trkpt lat="47.83305" lon="6.98014">
        <ele>821.58</ele>
        <time>2022-06-13T12:19:11Z</time>
      </trkpt>
      <trkpt lat="47.83301" lon="6.98021">
        <ele>821.1</ele>
        <time>2022-06-13T12:19:12Z</time>
      </trkpt>
      <trkpt lat="47.83277" lon="6.98053">
        <ele>818.22</ele>
        <time>2022-06-13T12:19:17Z</time>
      </trkpt>
      <trkpt lat="47.83273" lon="6.9806">
        <ele>817.74</ele>
        <time>2022-06-13T12:19:18Z</time>
      </trkpt>
      <trkpt lat="47.83265" lon="6.98072">
        <ele>817.26</ele>
        <time>2022-06-13T12:19:20Z</time>
      </trkpt>
      <trkpt lat="47.83247" lon="6.9811">
        <ele>814.85</ele>
        <time>2022-06-13T12:19:26Z</time>
      </trkpt>
      <trkpt lat="47.83243" lon="6.98116">
        <ele>814.85</ele>
        <time>2022-06-13T12:19:27Z</time>
      </trkpt>
      <trkpt lat="47.83235" lon="6.98126">
        <ele>813.89</ele>
        <time>2022-06-13T12:19:29Z</time>
      </trkpt>
      <trkpt lat="47.83231" lon="6.9813">
        <ele>813.41</ele>
        <time>2022-06-13T12:19:30Z</time>
      </trkpt>
      <trkpt lat="47.83226" lon="6.98131">
        <ele>812.93</ele>
        <time>2022-06-13T12:19:31Z</time>
      </trkpt>
      <trkpt lat="47.8322" lon="6.98133">
        <ele>812.45</ele>
        <time>2022-06-13T12:19:32Z</time>
      </trkpt>
      <trkpt lat="47.83209" lon="6.98136">
        <ele>811.49</ele>
        <time>2022-06-13T12:19:34Z</time>
      </trkpt>
      <trkpt lat="47.83203" lon="6.98138">
        <ele>811.01</ele>
        <time>2022-06-13T12:19:35Z</time>
      </trkpt>
      <trkpt lat="47.83169" lon="6.98146">
        <ele>808.13</ele>
        <time>2022-06-13T12:19:40Z</time>
      </trkpt>
      <trkpt lat="47.83153" lon="6.98152">
        <ele>807.16</ele>
        <time>2022-06-13T12:19:43Z</time>
      </trkpt>
      <trkpt lat="47.83148" lon="6.98154">
        <ele>806.68</ele>
        <time>2022-06-13T12:19:44Z</time>
      </trkpt>
      <trkpt lat="47.83128" lon="6.98167">
        <ele>805.24</ele>
        <time>2022-06-13T12:19:48Z</time>
      </trkpt>
      <trkpt lat="47.83124" lon="6.98171">
        <ele>804.76</ele>
        <time>2022-06-13T12:19:49Z</time>
      </trkpt>
      <trkpt lat="47.8312" lon="6.98175">
        <ele>804.28</ele>
        <time>2022-06-13T12:19:50Z</time>
      </trkpt>
      <trkpt lat="47.83116" lon="6.98178">
        <ele>804.28</ele>
        <time>2022-06-13T12:19:51Z</time>
      </trkpt>
      <trkpt lat="47.83112" lon="6.98182">
        <ele>803.8</ele>
        <time>2022-06-13T12:19:52Z</time>
      </trkpt>
      <trkpt lat="47.83101" lon="6.98197">
        <ele>803.32</ele>
        <time>2022-06-13T12:19:55Z</time>
      </trkpt>
      <trkpt lat="47.83098" lon="6.98204">
        <ele>802.84</ele>
        <time>2022-06-13T12:19:56Z</time>
      </trkpt>
      <trkpt lat="47.83081" lon="6.98267">
        <ele>799.47</ele>
        <time>2022-06-13T12:20:03Z</time>
      </trkpt>
      <trkpt lat="47.83072" lon="6.98323">
        <ele>796.59</ele>
        <time>2022-06-13T12:20:08Z</time>
      </trkpt>
      <trkpt lat="47.83073" lon="6.98335">
        <ele>796.11</ele>
        <time>2022-06-13T12:20:09Z</time>
      </trkpt>
      <trkpt lat="47.83075" lon="6.98347">
        <ele>796.11</ele>
        <time>2022-06-13T12:20:10Z</time>
      </trkpt>
      <trkpt lat="47.83078" lon="6.98359">
        <ele>795.63</ele>
        <time>2022-06-13T12:20:11Z</time>
      </trkpt>
      <trkpt lat="47.83081" lon="6.9837">
        <ele>794.67</ele>
        <time>2022-06-13T12:20:12Z</time>
      </trkpt>
      <trkpt lat="47.83083" lon="6.98381">
        <ele>794.67</ele>
        <time>2022-06-13T12:20:13Z</time>
      </trkpt>
      <trkpt lat="47.83085" lon="6.98393">
        <ele>794.19</ele>
        <time>2022-06-13T12:20:14Z</time>
      </trkpt>
      <trkpt lat="47.83085" lon="6.98405">
        <ele>793.71</ele>
        <time>2022-06-13T12:20:15Z</time>
      </trkpt>
      <trkpt lat="47.83085" lon="6.98427">
        <ele>792.74</ele>
        <time>2022-06-13T12:20:17Z</time>
      </trkpt>
      <trkpt lat="47.83084" lon="6.98439">
        <ele>792.26</ele>
        <time>2022-06-13T12:20:18Z</time>
      </trkpt>
      <trkpt lat="47.83081" lon="6.98451">
        <ele>791.78</ele>
        <time>2022-06-13T12:20:19Z</time>
      </trkpt>
      <trkpt lat="47.83079" lon="6.98462">
        <ele>791.3</ele>
        <time>2022-06-13T12:20:20Z</time>
      </trkpt>
      <trkpt lat="47.83075" lon="6.98473">
        <ele>790.82</ele>
        <time>2022-06-13T12:20:21Z</time>
      </trkpt>
      <trkpt lat="47.83068" lon="6.98492">
        <ele>790.34</ele>
        <time>2022-06-13T12:20:23Z</time>
      </trkpt>
      <trkpt lat="47.83064" lon="6.985">
        <ele>790.34</ele>
        <time>2022-06-13T12:20:24Z</time>
      </trkpt>
      <trkpt lat="47.83059" lon="6.98507">
        <ele>789.86</ele>
        <time>2022-06-13T12:20:25Z</time>
      </trkpt>
      <trkpt lat="47.83033" lon="6.98542">
        <ele>791.3</ele>
        <time>2022-06-13T12:20:34Z</time>
      </trkpt>
      <trkpt lat="47.83031" lon="6.98549">
        <ele>791.3</ele>
        <time>2022-06-13T12:20:37Z</time>
      </trkpt>
      <trkpt lat="47.83026" lon="6.98551">
        <ele>793.22</ele>
        <time>2022-06-13T12:20:41Z</time>
      </trkpt>
      <trkpt lat="47.83024" lon="6.98554">
        <ele>791.78</ele>
        <time>2022-06-13T12:20:55Z</time>
      </trkpt>
      <trkpt lat="47.83023" lon="6.9855">
        <ele>791.78</ele>
        <time>2022-06-13T12:20:57Z</time>
      </trkpt>
      <trkpt lat="47.83032" lon="6.98553">
        <ele>791.78</ele>
        <time>2022-06-13T12:21:04Z</time>
      </trkpt>
      <trkpt lat="47.83032" lon="6.98558">
        <ele>791.78</ele>
        <time>2022-06-13T12:21:15Z</time>
      </trkpt>
      <trkpt lat="47.83032" lon="6.98558">
        <ele>788.42</ele>
        <time>2022-06-13T12:21:17Z</time>
      </trkpt>
      <trkpt lat="47.83032" lon="6.98558">
        <ele>795.15</ele>
        <time>2022-06-13T12:21:19Z</time>
      </trkpt>
      <trkpt lat="47.83032" lon="6.98558">
        <ele>792.26</ele>
        <time>2022-06-13T12:21:20Z</time>
      </trkpt>
      <trkpt lat="47.83033" lon="6.98559">
        <ele>791.78</ele>
        <time>2022-06-13T12:21:37Z</time>
      </trkpt>
      <trkpt lat="47.83032" lon="6.98558">
        <ele>791.3</ele>
        <time>2022-06-13T12:21:44Z</time>
      </trkpt>
      <trkpt lat="47.83025" lon="6.98545">
        <ele>791.78</ele>
        <time>2022-06-13T12:21:56Z</time>
      </trkpt>
      <trkpt lat="47.83026" lon="6.98544">
        <ele>791.78</ele>
        <time>2022-06-13T12:22:15Z</time>
      </trkpt>
      <trkpt lat="47.83024" lon="6.98544">
        <ele>791.78</ele>
        <time>2022-06-13T12:22:38Z</time>
      </trkpt>
      <trkpt lat="47.83024" lon="6.98545">
        <ele>792.26</ele>
        <time>2022-06-13T12:23:10Z</time>
      </trkpt>
      <trkpt lat="47.83024" lon="6.98546">
        <ele>791.78</ele>
        <time>2022-06-13T12:23:34Z</time>
      </trkpt>
      <trkpt lat="47.83023" lon="6.98546">
        <ele>792.26</ele>
        <time>2022-06-13T12:23:39Z</time>
      </trkpt>
      <trkpt lat="47.83015" lon="6.98548">
        <ele>793.22</ele>
        <time>2022-06-13T12:23:44Z</time>
      </trkpt>
      <trkpt lat="47.83011" lon="6.98547">
        <ele>794.67</ele>
        <time>2022-06-13T12:23:47Z</time>
      </trkpt>
      <trkpt lat="47.82999" lon="6.98531">
        <ele>796.59</ele>
        <time>2022-06-13T12:23:59Z</time>
      </trkpt>
      <trkpt lat="47.82991" lon="6.98518">
        <ele>798.99</ele>
        <time>2022-06-13T12:24:08Z</time>
      </trkpt>
      <trkpt lat="47.82983" lon="6.9851">
        <ele>800.92</ele>
        <time>2022-06-13T12:24:15Z</time>
      </trkpt>
      <trkpt lat="47.82978" lon="6.98505">
        <ele>801.88</ele>
        <time>2022-06-13T12:24:19Z</time>
      </trkpt>
      <trkpt lat="47.8296" lon="6.98486">
        <ele>804.76</ele>
        <time>2022-06-13T12:24:31Z</time>
      </trkpt>
      <trkpt lat="47.82948" lon="6.98476">
        <ele>808.13</ele>
        <time>2022-06-13T12:24:40Z</time>
      </trkpt>
      <trkpt lat="47.82947" lon="6.98475">
        <ele>808.13</ele>
        <time>2022-06-13T12:24:41Z</time>
      </trkpt>
      <trkpt lat="47.82944" lon="6.98473">
        <ele>809.57</ele>
        <time>2022-06-13T12:24:44Z</time>
      </trkpt>
      <trkpt lat="47.82926" lon="6.98457">
        <ele>812.45</ele>
        <time>2022-06-13T12:24:55Z</time>
      </trkpt>
      <trkpt lat="47.82912" lon="6.98434">
        <ele>815.82</ele>
        <time>2022-06-13T12:25:07Z</time>
      </trkpt>
      <trkpt lat="47.82901" lon="6.98412">
        <ele>817.74</ele>
        <time>2022-06-13T12:25:18Z</time>
      </trkpt>
      <trkpt lat="47.82892" lon="6.98398">
        <ele>820.14</ele>
        <time>2022-06-13T12:25:25Z</time>
      </trkpt>
      <trkpt lat="47.82878" lon="6.98369">
        <ele>822.06</ele>
        <time>2022-06-13T12:25:36Z</time>
      </trkpt>
      <trkpt lat="47.82862" lon="6.98335">
        <ele>824.47</ele>
        <time>2022-06-13T12:25:48Z</time>
      </trkpt>
      <trkpt lat="47.82854" lon="6.98321">
        <ele>824.95</ele>
        <time>2022-06-13T12:25:53Z</time>
      </trkpt>
      <trkpt lat="47.82847" lon="6.98309">
        <ele>825.91</ele>
        <time>2022-06-13T12:25:58Z</time>
      </trkpt>
      <trkpt lat="47.82833" lon="6.98273">
        <ele>827.35</ele>
        <time>2022-06-13T12:26:11Z</time>
      </trkpt>
      <trkpt lat="47.82829" lon="6.98251">
        <ele>827.83</ele>
        <time>2022-06-13T12:26:22Z</time>
      </trkpt>
      <trkpt lat="47.82828" lon="6.98247">
        <ele>827.83</ele>
        <time>2022-06-13T12:26:53Z</time>
      </trkpt>
      <trkpt lat="47.82827" lon="6.98248">
        <ele>827.83</ele>
        <time>2022-06-13T12:27:28Z</time>
      </trkpt>
      <trkpt lat="47.82827" lon="6.98248">
        <ele>827.83</ele>
        <time>2022-06-13T12:27:53Z</time>
      </trkpt>
      <trkpt lat="47.82828" lon="6.98251">
        <ele>828.31</ele>
        <time>2022-06-13T12:28:04Z</time>
      </trkpt>
      <trkpt lat="47.82844" lon="6.98291">
        <ele>826.87</ele>
        <time>2022-06-13T12:28:16Z</time>
      </trkpt>
      <trkpt lat="47.82861" lon="6.98327">
        <ele>824.95</ele>
        <time>2022-06-13T12:28:22Z</time>
      </trkpt>
      <trkpt lat="47.82869" lon="6.98341">
        <ele>824.47</ele>
        <time>2022-06-13T12:28:24Z</time>
      </trkpt>
      <trkpt lat="47.82884" lon="6.98371">
        <ele>823.03</ele>
        <time>2022-06-13T12:28:28Z</time>
      </trkpt>
      <trkpt lat="47.82889" lon="6.98379">
        <ele>822.55</ele>
        <time>2022-06-13T12:28:29Z</time>
      </trkpt>
      <trkpt lat="47.82893" lon="6.98388">
        <ele>822.06</ele>
        <time>2022-06-13T12:28:30Z</time>
      </trkpt>
      <trkpt lat="47.82913" lon="6.9842">
        <ele>817.26</ele>
        <time>2022-06-13T12:28:34Z</time>
      </trkpt>
      <trkpt lat="47.82924" lon="6.98439">
        <ele>814.85</ele>
        <time>2022-06-13T12:28:37Z</time>
      </trkpt>
      <trkpt lat="47.82928" lon="6.98445">
        <ele>814.37</ele>
        <time>2022-06-13T12:28:38Z</time>
      </trkpt>
      <trkpt lat="47.82932" lon="6.9845">
        <ele>813.41</ele>
        <time>2022-06-13T12:28:39Z</time>
      </trkpt>
      <trkpt lat="47.82937" lon="6.98455">
        <ele>812.45</ele>
        <time>2022-06-13T12:28:40Z</time>
      </trkpt>
      <trkpt lat="47.82941" lon="6.98459">
        <ele>811.49</ele>
        <time>2022-06-13T12:28:41Z</time>
      </trkpt>
      <trkpt lat="47.82947" lon="6.98464">
        <ele>810.53</ele>
        <time>2022-06-13T12:28:42Z</time>
      </trkpt>
      <trkpt lat="47.82952" lon="6.98469">
        <ele>810.53</ele>
        <time>2022-06-13T12:28:43Z</time>
      </trkpt>
      <trkpt lat="47.82969" lon="6.98485">
        <ele>805.72</ele>
        <time>2022-06-13T12:28:46Z</time>
      </trkpt>
      <trkpt lat="47.82986" lon="6.98504">
        <ele>802.36</ele>
        <time>2022-06-13T12:28:49Z</time>
      </trkpt>
      <trkpt lat="47.82998" lon="6.98517">
        <ele>800.44</ele>
        <time>2022-06-13T12:28:51Z</time>
      </trkpt>
      <trkpt lat="47.83003" lon="6.98525">
        <ele>798.51</ele>
        <time>2022-06-13T12:28:52Z</time>
      </trkpt>
      <trkpt lat="47.83008" lon="6.98533">
        <ele>797.55</ele>
        <time>2022-06-13T12:28:53Z</time>
      </trkpt>
      <trkpt lat="47.83012" lon="6.98539">
        <ele>797.07</ele>
        <time>2022-06-13T12:28:54Z</time>
      </trkpt>
      <trkpt lat="47.83015" lon="6.98543">
        <ele>796.11</ele>
        <time>2022-06-13T12:28:55Z</time>
      </trkpt>
      <trkpt lat="47.83019" lon="6.98546">
        <ele>795.15</ele>
        <time>2022-06-13T12:28:56Z</time>
      </trkpt>
      <trkpt lat="47.83024" lon="6.98548">
        <ele>794.19</ele>
        <time>2022-06-13T12:28:57Z</time>
      </trkpt>
      <trkpt lat="47.83028" lon="6.98548">
        <ele>792.74</ele>
        <time>2022-06-13T12:28:58Z</time>
      </trkpt>
      <trkpt lat="47.83031" lon="6.98545">
        <ele>792.26</ele>
        <time>2022-06-13T12:28:59Z</time>
      </trkpt>
      <trkpt lat="47.83034" lon="6.9854">
        <ele>791.78</ele>
        <time>2022-06-13T12:29:00Z</time>
      </trkpt>
      <trkpt lat="47.83035" lon="6.98534">
        <ele>791.78</ele>
        <time>2022-06-13T12:29:01Z</time>
      </trkpt>
      <trkpt lat="47.83036" lon="6.98527">
        <ele>791.3</ele>
        <time>2022-06-13T12:29:02Z</time>
      </trkpt>
      <trkpt lat="47.83035" lon="6.98521">
        <ele>790.34</ele>
        <time>2022-06-13T12:29:03Z</time>
      </trkpt>
      <trkpt lat="47.83032" lon="6.98516">
        <ele>789.86</ele>
        <time>2022-06-13T12:29:04Z</time>
      </trkpt>
      <trkpt lat="47.83029" lon="6.98513">
        <ele>789.86</ele>
        <time>2022-06-13T12:29:05Z</time>
      </trkpt>
      <trkpt lat="47.83027" lon="6.9851">
        <ele>789.86</ele>
        <time>2022-06-13T12:29:06Z</time>
      </trkpt>
      <trkpt lat="47.83023" lon="6.98504">
        <ele>788.9</ele>
        <time>2022-06-13T12:29:08Z</time>
      </trkpt>
      <trkpt lat="47.83012" lon="6.98475">
        <ele>787.46</ele>
        <time>2022-06-13T12:29:13Z</time>
      </trkpt>
      <trkpt lat="47.83008" lon="6.98467">
        <ele>787.46</ele>
        <time>2022-06-13T12:29:14Z</time>
      </trkpt>
      <trkpt lat="47.83002" lon="6.9846">
        <ele>786.5</ele>
        <time>2022-06-13T12:29:15Z</time>
      </trkpt>
      <trkpt lat="47.82996" lon="6.98453">
        <ele>786.5</ele>
        <time>2022-06-13T12:29:16Z</time>
      </trkpt>
      <trkpt lat="47.82991" lon="6.98445">
        <ele>786.02</ele>
        <time>2022-06-13T12:29:17Z</time>
      </trkpt>
      <trkpt lat="47.82982" lon="6.98429">
        <ele>785.05</ele>
        <time>2022-06-13T12:29:19Z</time>
      </trkpt>
      <trkpt lat="47.82978" lon="6.9842">
        <ele>784.09</ele>
        <time>2022-06-13T12:29:20Z</time>
      </trkpt>
      <trkpt lat="47.82975" lon="6.9841">
        <ele>783.61</ele>
        <time>2022-06-13T12:29:21Z</time>
      </trkpt>
      <trkpt lat="47.82967" lon="6.98388">
        <ele>782.17</ele>
        <time>2022-06-13T12:29:23Z</time>
      </trkpt>
      <trkpt lat="47.82963" lon="6.98378">
        <ele>781.69</ele>
        <time>2022-06-13T12:29:24Z</time>
      </trkpt>
      <trkpt lat="47.8296" lon="6.98367">
        <ele>781.21</ele>
        <time>2022-06-13T12:29:25Z</time>
      </trkpt>
      <trkpt lat="47.82957" lon="6.98356">
        <ele>780.25</ele>
        <time>2022-06-13T12:29:26Z</time>
      </trkpt>
      <trkpt lat="47.82954" lon="6.98346">
        <ele>779.77</ele>
        <time>2022-06-13T12:29:27Z</time>
      </trkpt>
      <trkpt lat="47.82952" lon="6.98334">
        <ele>779.29</ele>
        <time>2022-06-13T12:29:28Z</time>
      </trkpt>
      <trkpt lat="47.82949" lon="6.98322">
        <ele>778.32</ele>
        <time>2022-06-13T12:29:29Z</time>
      </trkpt>
      <trkpt lat="47.82947" lon="6.98309">
        <ele>777.84</ele>
        <time>2022-06-13T12:29:30Z</time>
      </trkpt>
      <trkpt lat="47.8293" lon="6.98244">
        <ele>774.96</ele>
        <time>2022-06-13T12:29:35Z</time>
      </trkpt>
      <trkpt lat="47.82923" lon="6.98218">
        <ele>774</ele>
        <time>2022-06-13T12:29:37Z</time>
      </trkpt>
      <trkpt lat="47.82918" lon="6.98191">
        <ele>772.08</ele>
        <time>2022-06-13T12:29:39Z</time>
      </trkpt>
      <trkpt lat="47.82917" lon="6.98177">
        <ele>772.08</ele>
        <time>2022-06-13T12:29:40Z</time>
      </trkpt>
      <trkpt lat="47.82917" lon="6.98163">
        <ele>771.11</ele>
        <time>2022-06-13T12:29:41Z</time>
      </trkpt>
      <trkpt lat="47.8292" lon="6.98097">
        <ele>767.75</ele>
        <time>2022-06-13T12:29:46Z</time>
      </trkpt>
      <trkpt lat="47.82923" lon="6.98052">
        <ele>763.9</ele>
        <time>2022-06-13T12:29:50Z</time>
      </trkpt>
      <trkpt lat="47.82924" lon="6.9804">
        <ele>763.42</ele>
        <time>2022-06-13T12:29:51Z</time>
      </trkpt>
      <trkpt lat="47.82931" lon="6.97988">
        <ele>760.54</ele>
        <time>2022-06-13T12:29:55Z</time>
      </trkpt>
      <trkpt lat="47.82937" lon="6.97968">
        <ele>759.58</ele>
        <time>2022-06-13T12:29:57Z</time>
      </trkpt>
      <trkpt lat="47.82941" lon="6.9796">
        <ele>759.1</ele>
        <time>2022-06-13T12:29:58Z</time>
      </trkpt>
      <trkpt lat="47.82945" lon="6.97953">
        <ele>758.14</ele>
        <time>2022-06-13T12:29:59Z</time>
      </trkpt>
      <trkpt lat="47.82949" lon="6.97947">
        <ele>757.66</ele>
        <time>2022-06-13T12:30:00Z</time>
      </trkpt>
      <trkpt lat="47.82953" lon="6.97939">
        <ele>756.69</ele>
        <time>2022-06-13T12:30:01Z</time>
      </trkpt>
      <trkpt lat="47.8296" lon="6.97931">
        <ele>755.73</ele>
        <time>2022-06-13T12:30:02Z</time>
      </trkpt>
      <trkpt lat="47.8297" lon="6.97924">
        <ele>755.25</ele>
        <time>2022-06-13T12:30:03Z</time>
      </trkpt>
      <trkpt lat="47.8298" lon="6.97921">
        <ele>754.29</ele>
        <time>2022-06-13T12:30:04Z</time>
      </trkpt>
      <trkpt lat="47.8301" lon="6.97906">
        <ele>752.37</ele>
        <time>2022-06-13T12:30:07Z</time>
      </trkpt>
      <trkpt lat="47.83054" lon="6.9787">
        <ele>748.52</ele>
        <time>2022-06-13T12:30:12Z</time>
      </trkpt>
      <trkpt lat="47.83061" lon="6.97862">
        <ele>747.56</ele>
        <time>2022-06-13T12:30:13Z</time>
      </trkpt>
      <trkpt lat="47.83061" lon="6.97849">
        <ele>747.08</ele>
        <time>2022-06-13T12:30:14Z</time>
      </trkpt>
      <trkpt lat="47.83061" lon="6.97835">
        <ele>746.6</ele>
        <time>2022-06-13T12:30:15Z</time>
      </trkpt>
      <trkpt lat="47.83068" lon="6.97791">
        <ele>743.72</ele>
        <time>2022-06-13T12:30:19Z</time>
      </trkpt>
      <trkpt lat="47.83087" lon="6.97749">
        <ele>741.31</ele>
        <time>2022-06-13T12:30:24Z</time>
      </trkpt>
      <trkpt lat="47.8309" lon="6.9774">
        <ele>740.83</ele>
        <time>2022-06-13T12:30:25Z</time>
      </trkpt>
      <trkpt lat="47.83094" lon="6.97732">
        <ele>740.35</ele>
        <time>2022-06-13T12:30:26Z</time>
      </trkpt>
      <trkpt lat="47.83097" lon="6.97723">
        <ele>740.35</ele>
        <time>2022-06-13T12:30:27Z</time>
      </trkpt>
      <trkpt lat="47.83101" lon="6.97714">
        <ele>739.87</ele>
        <time>2022-06-13T12:30:28Z</time>
      </trkpt>
      <trkpt lat="47.83122" lon="6.97667">
        <ele>736.51</ele>
        <time>2022-06-13T12:30:33Z</time>
      </trkpt>
      <trkpt lat="47.83128" lon="6.97658">
        <ele>736.03</ele>
        <time>2022-06-13T12:30:34Z</time>
      </trkpt>
      <trkpt lat="47.83145" lon="6.97633">
        <ele>733.14</ele>
        <time>2022-06-13T12:30:37Z</time>
      </trkpt>
      <trkpt lat="47.83148" lon="6.97625">
        <ele>732.66</ele>
        <time>2022-06-13T12:30:38Z</time>
      </trkpt>
      <trkpt lat="47.8315" lon="6.97615">
        <ele>732.18</ele>
        <time>2022-06-13T12:30:39Z</time>
      </trkpt>
      <trkpt lat="47.83156" lon="6.97598">
        <ele>731.22</ele>
        <time>2022-06-13T12:30:41Z</time>
      </trkpt>
      <trkpt lat="47.8316" lon="6.9756">
        <ele>730.26</ele>
        <time>2022-06-13T12:30:45Z</time>
      </trkpt>
      <trkpt lat="47.83158" lon="6.97521">
        <ele>726.89</ele>
        <time>2022-06-13T12:30:48Z</time>
      </trkpt>
      <trkpt lat="47.83157" lon="6.9751">
        <ele>726.41</ele>
        <time>2022-06-13T12:30:49Z</time>
      </trkpt>
      <trkpt lat="47.83149" lon="6.97452">
        <ele>723.05</ele>
        <time>2022-06-13T12:30:54Z</time>
      </trkpt>
      <trkpt lat="47.83149" lon="6.9744">
        <ele>722.57</ele>
        <time>2022-06-13T12:30:55Z</time>
      </trkpt>
      <trkpt lat="47.83149" lon="6.97428">
        <ele>722.09</ele>
        <time>2022-06-13T12:30:56Z</time>
      </trkpt>
      <trkpt lat="47.83149" lon="6.97417">
        <ele>721.61</ele>
        <time>2022-06-13T12:30:57Z</time>
      </trkpt>
      <trkpt lat="47.83148" lon="6.97396">
        <ele>720.16</ele>
        <time>2022-06-13T12:30:59Z</time>
      </trkpt>
      <trkpt lat="47.83147" lon="6.97373">
        <ele>717.76</ele>
        <time>2022-06-13T12:31:01Z</time>
      </trkpt>
      <trkpt lat="47.83147" lon="6.9736">
        <ele>716.8</ele>
        <time>2022-06-13T12:31:02Z</time>
      </trkpt>
      <trkpt lat="47.83148" lon="6.97348">
        <ele>716.32</ele>
        <time>2022-06-13T12:31:03Z</time>
      </trkpt>
      <trkpt lat="47.83152" lon="6.9729">
        <ele>712.95</ele>
        <time>2022-06-13T12:31:08Z</time>
      </trkpt>
      <trkpt lat="47.83153" lon="6.97279">
        <ele>712.47</ele>
        <time>2022-06-13T12:31:09Z</time>
      </trkpt>
      <trkpt lat="47.83154" lon="6.97267">
        <ele>711.99</ele>
        <time>2022-06-13T12:31:10Z</time>
      </trkpt>
      <trkpt lat="47.83155" lon="6.97243">
        <ele>710.55</ele>
        <time>2022-06-13T12:31:12Z</time>
      </trkpt>
      <trkpt lat="47.83153" lon="6.9719">
        <ele>707.19</ele>
        <time>2022-06-13T12:31:17Z</time>
      </trkpt>
      <trkpt lat="47.8316" lon="6.97136">
        <ele>704.3</ele>
        <time>2022-06-13T12:31:22Z</time>
      </trkpt>
      <trkpt lat="47.83163" lon="6.97127">
        <ele>703.82</ele>
        <time>2022-06-13T12:31:23Z</time>
      </trkpt>
      <trkpt lat="47.83166" lon="6.97119">
        <ele>702.38</ele>
        <time>2022-06-13T12:31:24Z</time>
      </trkpt>
      <trkpt lat="47.83171" lon="6.97111">
        <ele>701.42</ele>
        <time>2022-06-13T12:31:25Z</time>
      </trkpt>
      <trkpt lat="47.83177" lon="6.97103">
        <ele>700.94</ele>
        <time>2022-06-13T12:31:26Z</time>
      </trkpt>
      <trkpt lat="47.83199" lon="6.97071">
        <ele>698.53</ele>
        <time>2022-06-13T12:31:30Z</time>
      </trkpt>
      <trkpt lat="47.83203" lon="6.97061">
        <ele>698.05</ele>
        <time>2022-06-13T12:31:31Z</time>
      </trkpt>
      <trkpt lat="47.83206" lon="6.97053">
        <ele>697.57</ele>
        <time>2022-06-13T12:31:32Z</time>
      </trkpt>
      <trkpt lat="47.83214" lon="6.97013">
        <ele>695.65</ele>
        <time>2022-06-13T12:31:37Z</time>
      </trkpt>
      <trkpt lat="47.83218" lon="6.96999">
        <ele>694.69</ele>
        <time>2022-06-13T12:31:39Z</time>
      </trkpt>
      <trkpt lat="47.83221" lon="6.96966">
        <ele>692.77</ele>
        <time>2022-06-13T12:31:47Z</time>
      </trkpt>
      <trkpt lat="47.83221" lon="6.96963">
        <ele>692.77</ele>
        <time>2022-06-13T12:32:07Z</time>
      </trkpt>
      <trkpt lat="47.83223" lon="6.9696">
        <ele>692.77</ele>
        <time>2022-06-13T12:32:29Z</time>
      </trkpt>
      <trkpt lat="47.83225" lon="6.96953">
        <ele>692.77</ele>
        <time>2022-06-13T12:32:32Z</time>
      </trkpt>
      <trkpt lat="47.83227" lon="6.9695">
        <ele>692.29</ele>
        <time>2022-06-13T12:32:33Z</time>
      </trkpt>
      <trkpt lat="47.83229" lon="6.96947">
        <ele>691.81</ele>
        <time>2022-06-13T12:32:34Z</time>
      </trkpt>
      <trkpt lat="47.8323" lon="6.96943">
        <ele>691.81</ele>
        <time>2022-06-13T12:32:35Z</time>
      </trkpt>
      <trkpt lat="47.8323" lon="6.96938">
        <ele>691.81</ele>
        <time>2022-06-13T12:32:36Z</time>
      </trkpt>
      <trkpt lat="47.83231" lon="6.96932">
        <ele>690.84</ele>
        <time>2022-06-13T12:32:37Z</time>
      </trkpt>
      <trkpt lat="47.83231" lon="6.96927">
        <ele>690.36</ele>
        <time>2022-06-13T12:32:38Z</time>
      </trkpt>
      <trkpt lat="47.83232" lon="6.96921">
        <ele>690.36</ele>
        <time>2022-06-13T12:32:39Z</time>
      </trkpt>
      <trkpt lat="47.83232" lon="6.96916">
        <ele>689.88</ele>
        <time>2022-06-13T12:32:40Z</time>
      </trkpt>
      <trkpt lat="47.83232" lon="6.96911">
        <ele>689.4</ele>
        <time>2022-06-13T12:32:41Z</time>
      </trkpt>
      <trkpt lat="47.83233" lon="6.96908">
        <ele>688.92</ele>
        <time>2022-06-13T12:32:42Z</time>
      </trkpt>
      <trkpt lat="47.83234" lon="6.96898">
        <ele>688.92</ele>
        <time>2022-06-13T12:32:43Z</time>
      </trkpt>
      <trkpt lat="47.8324" lon="6.96875">
        <ele>688.44</ele>
        <time>2022-06-13T12:32:47Z</time>
      </trkpt>
      <trkpt lat="47.83247" lon="6.9685">
        <ele>685.08</ele>
        <time>2022-06-13T12:32:51Z</time>
      </trkpt>
      <trkpt lat="47.83247" lon="6.96836">
        <ele>684.6</ele>
        <time>2022-06-13T12:32:52Z</time>
      </trkpt>
      <trkpt lat="47.83247" lon="6.96826">
        <ele>684.12</ele>
        <time>2022-06-13T12:32:53Z</time>
      </trkpt>
      <trkpt lat="47.83247" lon="6.96816">
        <ele>683.63</ele>
        <time>2022-06-13T12:32:54Z</time>
      </trkpt>
      <trkpt lat="47.83246" lon="6.96806">
        <ele>683.15</ele>
        <time>2022-06-13T12:32:55Z</time>
      </trkpt>
      <trkpt lat="47.83242" lon="6.96796">
        <ele>682.67</ele>
        <time>2022-06-13T12:32:56Z</time>
      </trkpt>
      <trkpt lat="47.83237" lon="6.96786">
        <ele>682.19</ele>
        <time>2022-06-13T12:32:57Z</time>
      </trkpt>
      <trkpt lat="47.83235" lon="6.96778">
        <ele>682.19</ele>
        <time>2022-06-13T12:32:58Z</time>
      </trkpt>
      <trkpt lat="47.83236" lon="6.96752">
        <ele>680.75</ele>
        <time>2022-06-13T12:33:02Z</time>
      </trkpt>
      <trkpt lat="47.83236" lon="6.96748">
        <ele>680.27</ele>
        <time>2022-06-13T12:33:03Z</time>
      </trkpt>
      <trkpt lat="47.83228" lon="6.9673">
        <ele>680.27</ele>
        <time>2022-06-13T12:33:17Z</time>
      </trkpt>
      <trkpt lat="47.83232" lon="6.96728">
        <ele>680.27</ele>
        <time>2022-06-13T12:33:43Z</time>
      </trkpt>
      <trkpt lat="47.83231" lon="6.9673">
        <ele>680.27</ele>
        <time>2022-06-13T12:34:05Z</time>
      </trkpt>
      <trkpt lat="47.83231" lon="6.96728">
        <ele>680.27</ele>
        <time>2022-06-13T12:34:14Z</time>
      </trkpt>
      <trkpt lat="47.83229" lon="6.96718">
        <ele>680.27</ele>
        <time>2022-06-13T12:34:18Z</time>
      </trkpt>
      <trkpt lat="47.83227" lon="6.96673">
        <ele>683.15</ele>
        <time>2022-06-13T12:34:30Z</time>
      </trkpt>
      <trkpt lat="47.83227" lon="6.96637">
        <ele>686.04</ele>
        <time>2022-06-13T12:34:39Z</time>
      </trkpt>
      <trkpt lat="47.83226" lon="6.96602">
        <ele>690.84</ele>
        <time>2022-06-13T12:34:48Z</time>
      </trkpt>
      <trkpt lat="47.83226" lon="6.96598">
        <ele>690.36</ele>
        <time>2022-06-13T12:34:49Z</time>
      </trkpt>
      <trkpt lat="47.83223" lon="6.96559">
        <ele>693.25</ele>
        <time>2022-06-13T12:35:00Z</time>
      </trkpt>
      <trkpt lat="47.83222" lon="6.96526">
        <ele>696.61</ele>
        <time>2022-06-13T12:35:10Z</time>
      </trkpt>
      <trkpt lat="47.83216" lon="6.9649">
        <ele>699.98</ele>
        <time>2022-06-13T12:35:21Z</time>
      </trkpt>
      <trkpt lat="47.8321" lon="6.96446">
        <ele>702.86</ele>
        <time>2022-06-13T12:35:34Z</time>
      </trkpt>
      <trkpt lat="47.83204" lon="6.96401">
        <ele>705.26</ele>
        <time>2022-06-13T12:35:47Z</time>
      </trkpt>
      <trkpt lat="47.83194" lon="6.96361">
        <ele>708.63</ele>
        <time>2022-06-13T12:35:59Z</time>
      </trkpt>
      <trkpt lat="47.83184" lon="6.96318">
        <ele>711.51</ele>
        <time>2022-06-13T12:36:11Z</time>
      </trkpt>
      <trkpt lat="47.83187" lon="6.9629">
        <ele>714.4</ele>
        <time>2022-06-13T12:36:19Z</time>
      </trkpt>
      <trkpt lat="47.83189" lon="6.96276">
        <ele>715.84</ele>
        <time>2022-06-13T12:36:23Z</time>
      </trkpt>
      <trkpt lat="47.83188" lon="6.96254">
        <ele>719.2</ele>
        <time>2022-06-13T12:36:30Z</time>
      </trkpt>
      <trkpt lat="47.83184" lon="6.96219">
        <ele>722.09</ele>
        <time>2022-06-13T12:36:40Z</time>
      </trkpt>
      <trkpt lat="47.83184" lon="6.962">
        <ele>723.53</ele>
        <time>2022-06-13T12:36:46Z</time>
      </trkpt>
      <trkpt lat="47.83184" lon="6.96191">
        <ele>724.49</ele>
        <time>2022-06-13T12:36:50Z</time>
      </trkpt>
      <trkpt lat="47.83179" lon="6.96141">
        <ele>726.41</ele>
        <time>2022-06-13T12:37:06Z</time>
      </trkpt>
      <trkpt lat="47.83178" lon="6.96134">
        <ele>726.89</ele>
        <time>2022-06-13T12:37:08Z</time>
      </trkpt>
      <trkpt lat="47.83173" lon="6.96102">
        <ele>727.37</ele>
        <time>2022-06-13T12:37:18Z</time>
      </trkpt>
      <trkpt lat="47.83169" lon="6.96091">
        <ele>727.37</ele>
        <time>2022-06-13T12:37:23Z</time>
      </trkpt>
      <trkpt lat="47.83161" lon="6.96045">
        <ele>728.82</ele>
        <time>2022-06-13T12:37:36Z</time>
      </trkpt>
      <trkpt lat="47.83159" lon="6.96038">
        <ele>728.82</ele>
        <time>2022-06-13T12:37:38Z</time>
      </trkpt>
      <trkpt lat="47.8314" lon="6.95996">
        <ele>731.7</ele>
        <time>2022-06-13T12:37:51Z</time>
      </trkpt>
      <trkpt lat="47.83125" lon="6.95973">
        <ele>735.07</ele>
        <time>2022-06-13T12:38:01Z</time>
      </trkpt>
      <trkpt lat="47.83106" lon="6.95946">
        <ele>738.43</ele>
        <time>2022-06-13T12:38:13Z</time>
      </trkpt>
      <trkpt lat="47.83088" lon="6.95927">
        <ele>741.79</ele>
        <time>2022-06-13T12:38:23Z</time>
      </trkpt>
      <trkpt lat="47.8307" lon="6.95906">
        <ele>745.16</ele>
        <time>2022-06-13T12:38:33Z</time>
      </trkpt>
      <trkpt lat="47.8305" lon="6.95889">
        <ele>749</ele>
        <time>2022-06-13T12:38:43Z</time>
      </trkpt>
      <trkpt lat="47.83048" lon="6.95887">
        <ele>749</ele>
        <time>2022-06-13T12:38:44Z</time>
      </trkpt>
      <trkpt lat="47.83036" lon="6.95876">
        <ele>752.37</ele>
        <time>2022-06-13T12:38:50Z</time>
      </trkpt>
      <trkpt lat="47.83034" lon="6.95874">
        <ele>751.41</ele>
        <time>2022-06-13T12:38:51Z</time>
      </trkpt>
      <trkpt lat="47.83" lon="6.95854">
        <ele>753.81</ele>
        <time>2022-06-13T12:39:06Z</time>
      </trkpt>
      <trkpt lat="47.82981" lon="6.95857">
        <ele>757.18</ele>
        <time>2022-06-13T12:39:14Z</time>
      </trkpt>
      <trkpt lat="47.82979" lon="6.95859">
        <ele>757.18</ele>
        <time>2022-06-13T12:39:15Z</time>
      </trkpt>
      <trkpt lat="47.82965" lon="6.95871">
        <ele>759.58</ele>
        <time>2022-06-13T12:39:22Z</time>
      </trkpt>
      <trkpt lat="47.8296" lon="6.95883">
        <ele>761.02</ele>
        <time>2022-06-13T12:39:26Z</time>
      </trkpt>
      <trkpt lat="47.82952" lon="6.95929">
        <ele>763.9</ele>
        <time>2022-06-13T12:39:38Z</time>
      </trkpt>
      <trkpt lat="47.82954" lon="6.95968">
        <ele>766.79</ele>
        <time>2022-06-13T12:39:48Z</time>
      </trkpt>
      <trkpt lat="47.82955" lon="6.95992">
        <ele>768.71</ele>
        <time>2022-06-13T12:39:54Z</time>
      </trkpt>
      <trkpt lat="47.82954" lon="6.96022">
        <ele>769.19</ele>
        <time>2022-06-13T12:40:04Z</time>
      </trkpt>
      <trkpt lat="47.8296" lon="6.96085">
        <ele>767.75</ele>
        <time>2022-06-13T12:40:18Z</time>
      </trkpt>
      <trkpt lat="47.82956" lon="6.96156">
        <ele>766.31</ele>
        <time>2022-06-13T12:40:31Z</time>
      </trkpt>
      <trkpt lat="47.82956" lon="6.96162">
        <ele>766.31</ele>
        <time>2022-06-13T12:40:32Z</time>
      </trkpt>
      <trkpt lat="47.82955" lon="6.96167">
        <ele>765.83</ele>
        <time>2022-06-13T12:40:33Z</time>
      </trkpt>
      <trkpt lat="47.82954" lon="6.96173">
        <ele>765.83</ele>
        <time>2022-06-13T12:40:34Z</time>
      </trkpt>
      <trkpt lat="47.82953" lon="6.96179">
        <ele>765.83</ele>
        <time>2022-06-13T12:40:35Z</time>
      </trkpt>
      <trkpt lat="47.82941" lon="6.96254">
        <ele>765.35</ele>
        <time>2022-06-13T12:40:49Z</time>
      </trkpt>
      <trkpt lat="47.82937" lon="6.96281">
        <ele>764.39</ele>
        <time>2022-06-13T12:40:54Z</time>
      </trkpt>
      <trkpt lat="47.82934" lon="6.96299">
        <ele>763.9</ele>
        <time>2022-06-13T12:40:57Z</time>
      </trkpt>
      <trkpt lat="47.82933" lon="6.96305">
        <ele>763.42</ele>
        <time>2022-06-13T12:40:58Z</time>
      </trkpt>
      <trkpt lat="47.82932" lon="6.96311">
        <ele>763.42</ele>
        <time>2022-06-13T12:40:59Z</time>
      </trkpt>
      <trkpt lat="47.82918" lon="6.96357">
        <ele>761.98</ele>
        <time>2022-06-13T12:41:09Z</time>
      </trkpt>
      <trkpt lat="47.82914" lon="6.96361">
        <ele>761.5</ele>
        <time>2022-06-13T12:41:10Z</time>
      </trkpt>
      <trkpt lat="47.82911" lon="6.96366">
        <ele>760.54</ele>
        <time>2022-06-13T12:41:11Z</time>
      </trkpt>
      <trkpt lat="47.82906" lon="6.9637">
        <ele>760.06</ele>
        <time>2022-06-13T12:41:12Z</time>
      </trkpt>
      <trkpt lat="47.82902" lon="6.96374">
        <ele>759.58</ele>
        <time>2022-06-13T12:41:13Z</time>
      </trkpt>
      <trkpt lat="47.82888" lon="6.96383">
        <ele>757.66</ele>
        <time>2022-06-13T12:41:16Z</time>
      </trkpt>
      <trkpt lat="47.82883" lon="6.96386">
        <ele>757.18</ele>
        <time>2022-06-13T12:41:17Z</time>
      </trkpt>
      <trkpt lat="47.82879" lon="6.96388">
        <ele>756.69</ele>
        <time>2022-06-13T12:41:18Z</time>
      </trkpt>
      <trkpt lat="47.82874" lon="6.96391">
        <ele>756.69</ele>
        <time>2022-06-13T12:41:19Z</time>
      </trkpt>
      <trkpt lat="47.82866" lon="6.96398">
        <ele>755.73</ele>
        <time>2022-06-13T12:41:21Z</time>
      </trkpt>
      <trkpt lat="47.82858" lon="6.96406">
        <ele>754.77</ele>
        <time>2022-06-13T12:41:23Z</time>
      </trkpt>
      <trkpt lat="47.82849" lon="6.96413">
        <ele>753.81</ele>
        <time>2022-06-13T12:41:25Z</time>
      </trkpt>
      <trkpt lat="47.82828" lon="6.96435">
        <ele>751.41</ele>
        <time>2022-06-13T12:41:29Z</time>
      </trkpt>
      <trkpt lat="47.82808" lon="6.96447">
        <ele>749</ele>
        <time>2022-06-13T12:41:32Z</time>
      </trkpt>
      <trkpt lat="47.82796" lon="6.96451">
        <ele>747.56</ele>
        <time>2022-06-13T12:41:34Z</time>
      </trkpt>
      <trkpt lat="47.82763" lon="6.96449">
        <ele>744.2</ele>
        <time>2022-06-13T12:41:39Z</time>
      </trkpt>
      <trkpt lat="47.82729" lon="6.96445">
        <ele>741.31</ele>
        <time>2022-06-13T12:41:44Z</time>
      </trkpt>
      <trkpt lat="47.82723" lon="6.96446">
        <ele>741.31</ele>
        <time>2022-06-13T12:41:45Z</time>
      </trkpt>
      <trkpt lat="47.82692" lon="6.96449">
        <ele>739.87</ele>
        <time>2022-06-13T12:41:54Z</time>
      </trkpt>
      <trkpt lat="47.82687" lon="6.96449">
        <ele>738.91</ele>
        <time>2022-06-13T12:41:55Z</time>
      </trkpt>
      <trkpt lat="47.82682" lon="6.9645">
        <ele>738.43</ele>
        <time>2022-06-13T12:41:56Z</time>
      </trkpt>
      <trkpt lat="47.8266" lon="6.96453">
        <ele>735.07</ele>
        <time>2022-06-13T12:42:00Z</time>
      </trkpt>
      <trkpt lat="47.82654" lon="6.96455">
        <ele>734.58</ele>
        <time>2022-06-13T12:42:01Z</time>
      </trkpt>
      <trkpt lat="47.82643" lon="6.9646">
        <ele>733.14</ele>
        <time>2022-06-13T12:42:03Z</time>
      </trkpt>
      <trkpt lat="47.8263" lon="6.96468">
        <ele>731.22</ele>
        <time>2022-06-13T12:42:06Z</time>
      </trkpt>
      <trkpt lat="47.82623" lon="6.96469">
        <ele>730.26</ele>
        <time>2022-06-13T12:42:07Z</time>
      </trkpt>
      <trkpt lat="47.82591" lon="6.96479">
        <ele>726.89</ele>
        <time>2022-06-13T12:42:11Z</time>
      </trkpt>
      <trkpt lat="47.82565" lon="6.96485">
        <ele>723.53</ele>
        <time>2022-06-13T12:42:14Z</time>
      </trkpt>
      <trkpt lat="47.82557" lon="6.96487">
        <ele>722.57</ele>
        <time>2022-06-13T12:42:15Z</time>
      </trkpt>
      <trkpt lat="47.82528" lon="6.96498">
        <ele>718.24</ele>
        <time>2022-06-13T12:42:19Z</time>
      </trkpt>
      <trkpt lat="47.82521" lon="6.96502">
        <ele>717.28</ele>
        <time>2022-06-13T12:42:20Z</time>
      </trkpt>
      <trkpt lat="47.8249" lon="6.96522">
        <ele>712.47</ele>
        <time>2022-06-13T12:42:24Z</time>
      </trkpt>
      <trkpt lat="47.82473" lon="6.96534">
        <ele>708.63</ele>
        <time>2022-06-13T12:42:26Z</time>
      </trkpt>
      <trkpt lat="47.82457" lon="6.96546">
        <ele>704.3</ele>
        <time>2022-06-13T12:42:28Z</time>
      </trkpt>
      <trkpt lat="47.82432" lon="6.96564">
        <ele>699.98</ele>
        <time>2022-06-13T12:42:31Z</time>
      </trkpt>
      <trkpt lat="47.82401" lon="6.96568">
        <ele>696.13</ele>
        <time>2022-06-13T12:42:35Z</time>
      </trkpt>
      <trkpt lat="47.82395" lon="6.96565">
        <ele>695.17</ele>
        <time>2022-06-13T12:42:36Z</time>
      </trkpt>
      <trkpt lat="47.8239" lon="6.9656">
        <ele>693.73</ele>
        <time>2022-06-13T12:42:37Z</time>
      </trkpt>
      <trkpt lat="47.82385" lon="6.96554">
        <ele>693.25</ele>
        <time>2022-06-13T12:42:38Z</time>
      </trkpt>
      <trkpt lat="47.8238" lon="6.96545">
        <ele>691.81</ele>
        <time>2022-06-13T12:42:39Z</time>
      </trkpt>
      <trkpt lat="47.82375" lon="6.96534">
        <ele>690.84</ele>
        <time>2022-06-13T12:42:40Z</time>
      </trkpt>
      <trkpt lat="47.8237" lon="6.96523">
        <ele>689.88</ele>
        <time>2022-06-13T12:42:41Z</time>
      </trkpt>
      <trkpt lat="47.82357" lon="6.96492">
        <ele>687</ele>
        <time>2022-06-13T12:42:44Z</time>
      </trkpt>
      <trkpt lat="47.82355" lon="6.96481">
        <ele>686.04</ele>
        <time>2022-06-13T12:42:45Z</time>
      </trkpt>
      <trkpt lat="47.82354" lon="6.96472">
        <ele>685.08</ele>
        <time>2022-06-13T12:42:46Z</time>
      </trkpt>
      <trkpt lat="47.82356" lon="6.96464">
        <ele>684.6</ele>
        <time>2022-06-13T12:42:47Z</time>
      </trkpt>
      <trkpt lat="47.82357" lon="6.96455">
        <ele>684.12</ele>
        <time>2022-06-13T12:42:48Z</time>
      </trkpt>
      <trkpt lat="47.8236" lon="6.96447">
        <ele>683.63</ele>
        <time>2022-06-13T12:42:49Z</time>
      </trkpt>
      <trkpt lat="47.82368" lon="6.9642">
        <ele>681.71</ele>
        <time>2022-06-13T12:42:52Z</time>
      </trkpt>
      <trkpt lat="47.82376" lon="6.96404">
        <ele>678.83</ele>
        <time>2022-06-13T12:42:54Z</time>
      </trkpt>
      <trkpt lat="47.8239" lon="6.96378">
        <ele>676.42</ele>
        <time>2022-06-13T12:42:57Z</time>
      </trkpt>
      <trkpt lat="47.82393" lon="6.96368">
        <ele>675.46</ele>
        <time>2022-06-13T12:42:58Z</time>
      </trkpt>
      <trkpt lat="47.82402" lon="6.96338">
        <ele>672.1</ele>
        <time>2022-06-13T12:43:01Z</time>
      </trkpt>
      <trkpt lat="47.82407" lon="6.96329">
        <ele>671.14</ele>
        <time>2022-06-13T12:43:02Z</time>
      </trkpt>
      <trkpt lat="47.82412" lon="6.9632">
        <ele>670.18</ele>
        <time>2022-06-13T12:43:03Z</time>
      </trkpt>
      <trkpt lat="47.82418" lon="6.96313">
        <ele>668.73</ele>
        <time>2022-06-13T12:43:04Z</time>
      </trkpt>
      <trkpt lat="47.82424" lon="6.96307">
        <ele>667.77</ele>
        <time>2022-06-13T12:43:05Z</time>
      </trkpt>
      <trkpt lat="47.82431" lon="6.96301">
        <ele>666.81</ele>
        <time>2022-06-13T12:43:06Z</time>
      </trkpt>
      <trkpt lat="47.82438" lon="6.96297">
        <ele>665.37</ele>
        <time>2022-06-13T12:43:07Z</time>
      </trkpt>
      <trkpt lat="47.82466" lon="6.96278">
        <ele>662.49</ele>
        <time>2022-06-13T12:43:11Z</time>
      </trkpt>
      <trkpt lat="47.82482" lon="6.96272">
        <ele>659.6</ele>
        <time>2022-06-13T12:43:13Z</time>
      </trkpt>
      <trkpt lat="47.82498" lon="6.96265">
        <ele>658.64</ele>
        <time>2022-06-13T12:43:15Z</time>
      </trkpt>
      <trkpt lat="47.82527" lon="6.96242">
        <ele>654.8</ele>
        <time>2022-06-13T12:43:19Z</time>
      </trkpt>
      <trkpt lat="47.8254" lon="6.96225">
        <ele>652.87</ele>
        <time>2022-06-13T12:43:21Z</time>
      </trkpt>
      <trkpt lat="47.82543" lon="6.96215">
        <ele>652.39</ele>
        <time>2022-06-13T12:43:22Z</time>
      </trkpt>
      <trkpt lat="47.82548" lon="6.96193">
        <ele>650.47</ele>
        <time>2022-06-13T12:43:25Z</time>
      </trkpt>
      <trkpt lat="47.82543" lon="6.96177">
        <ele>649.99</ele>
        <time>2022-06-13T12:43:35Z</time>
      </trkpt>
      <trkpt lat="47.82542" lon="6.96174">
        <ele>649.99</ele>
        <time>2022-06-13T12:44:03Z</time>
      </trkpt>
      <trkpt lat="47.82542" lon="6.96173">
        <ele>649.99</ele>
        <time>2022-06-13T12:44:04Z</time>
      </trkpt>
      <trkpt lat="47.82543" lon="6.96172">
        <ele>649.99</ele>
        <time>2022-06-13T12:44:05Z</time>
      </trkpt>
      <trkpt lat="47.82544" lon="6.96171">
        <ele>649.99</ele>
        <time>2022-06-13T12:44:06Z</time>
      </trkpt>
      <trkpt lat="47.82545" lon="6.9617">
        <ele>649.99</ele>
        <time>2022-06-13T12:44:07Z</time>
      </trkpt>
      <trkpt lat="47.82546" lon="6.96168">
        <ele>649.51</ele>
        <time>2022-06-13T12:44:08Z</time>
      </trkpt>
      <trkpt lat="47.82546" lon="6.96165">
        <ele>649.51</ele>
        <time>2022-06-13T12:44:09Z</time>
      </trkpt>
      <trkpt lat="47.82547" lon="6.96162">
        <ele>649.03</ele>
        <time>2022-06-13T12:44:10Z</time>
      </trkpt>
      <trkpt lat="47.82547" lon="6.96158">
        <ele>649.03</ele>
        <time>2022-06-13T12:44:11Z</time>
      </trkpt>
      <trkpt lat="47.82548" lon="6.96153">
        <ele>648.55</ele>
        <time>2022-06-13T12:44:12Z</time>
      </trkpt>
      <trkpt lat="47.82553" lon="6.9613">
        <ele>644.7</ele>
        <time>2022-06-13T12:44:17Z</time>
      </trkpt>
      <trkpt lat="47.82558" lon="6.96107">
        <ele>641.34</ele>
        <time>2022-06-13T12:44:22Z</time>
      </trkpt>
      <trkpt lat="47.82561" lon="6.96087">
        <ele>637.49</ele>
        <time>2022-06-13T12:44:26Z</time>
      </trkpt>
      <trkpt lat="47.82561" lon="6.9608">
        <ele>637.01</ele>
        <time>2022-06-13T12:44:27Z</time>
      </trkpt>
      <trkpt lat="47.82565" lon="6.96052">
        <ele>633.65</ele>
        <time>2022-06-13T12:44:31Z</time>
      </trkpt>
      <trkpt lat="47.82568" lon="6.9602">
        <ele>630.76</ele>
        <time>2022-06-13T12:44:35Z</time>
      </trkpt>
      <trkpt lat="47.82568" lon="6.96011">
        <ele>629.8</ele>
        <time>2022-06-13T12:44:36Z</time>
      </trkpt>
      <trkpt lat="47.82568" lon="6.96004">
        <ele>629.32</ele>
        <time>2022-06-13T12:44:37Z</time>
      </trkpt>
      <trkpt lat="47.82567" lon="6.95995">
        <ele>628.84</ele>
        <time>2022-06-13T12:44:38Z</time>
      </trkpt>
      <trkpt lat="47.82567" lon="6.95987">
        <ele>627.88</ele>
        <time>2022-06-13T12:44:39Z</time>
      </trkpt>
      <trkpt lat="47.82567" lon="6.95978">
        <ele>627.4</ele>
        <time>2022-06-13T12:44:40Z</time>
      </trkpt>
      <trkpt lat="47.82568" lon="6.9597">
        <ele>626.44</ele>
        <time>2022-06-13T12:44:41Z</time>
      </trkpt>
      <trkpt lat="47.82569" lon="6.95962">
        <ele>625.47</ele>
        <time>2022-06-13T12:44:42Z</time>
      </trkpt>
      <trkpt lat="47.82572" lon="6.95946">
        <ele>624.51</ele>
        <time>2022-06-13T12:44:44Z</time>
      </trkpt>
      <trkpt lat="47.82574" lon="6.95939">
        <ele>624.03</ele>
        <time>2022-06-13T12:44:45Z</time>
      </trkpt>
      <trkpt lat="47.82578" lon="6.95933">
        <ele>623.55</ele>
        <time>2022-06-13T12:44:46Z</time>
      </trkpt>
      <trkpt lat="47.82582" lon="6.95928">
        <ele>623.07</ele>
        <time>2022-06-13T12:44:47Z</time>
      </trkpt>
      <trkpt lat="47.82586" lon="6.95923">
        <ele>622.59</ele>
        <time>2022-06-13T12:44:48Z</time>
      </trkpt>
      <trkpt lat="47.82595" lon="6.95915">
        <ele>622.11</ele>
        <time>2022-06-13T12:44:52Z</time>
      </trkpt>
      <trkpt lat="47.82596" lon="6.95912">
        <ele>623.07</ele>
        <time>2022-06-13T12:44:53Z</time>
      </trkpt>
      <trkpt lat="47.82597" lon="6.95909">
        <ele>622.11</ele>
        <time>2022-06-13T12:44:54Z</time>
      </trkpt>
      <trkpt lat="47.82598" lon="6.95902">
        <ele>621.63</ele>
        <time>2022-06-13T12:44:56Z</time>
      </trkpt>
      <trkpt lat="47.82601" lon="6.95857">
        <ele>619.23</ele>
        <time>2022-06-13T12:45:03Z</time>
      </trkpt>
      <trkpt lat="47.82602" lon="6.9585">
        <ele>618.26</ele>
        <time>2022-06-13T12:45:04Z</time>
      </trkpt>
      <trkpt lat="47.82604" lon="6.95843">
        <ele>617.78</ele>
        <time>2022-06-13T12:45:05Z</time>
      </trkpt>
      <trkpt lat="47.82606" lon="6.95836">
        <ele>617.78</ele>
        <time>2022-06-13T12:45:06Z</time>
      </trkpt>
      <trkpt lat="47.82613" lon="6.95806">
        <ele>614.9</ele>
        <time>2022-06-13T12:45:10Z</time>
      </trkpt>
      <trkpt lat="47.82614" lon="6.95798">
        <ele>614.42</ele>
        <time>2022-06-13T12:45:11Z</time>
      </trkpt>
      <trkpt lat="47.82618" lon="6.95782">
        <ele>612.98</ele>
        <time>2022-06-13T12:45:19Z</time>
      </trkpt>
      <trkpt lat="47.82624" lon="6.95767">
        <ele>612.5</ele>
        <time>2022-06-13T12:45:34Z</time>
      </trkpt>
      <trkpt lat="47.82624" lon="6.95764">
        <ele>612.5</ele>
        <time>2022-06-13T12:45:35Z</time>
      </trkpt>
      <trkpt lat="47.82625" lon="6.95762">
        <ele>612.02</ele>
        <time>2022-06-13T12:45:36Z</time>
      </trkpt>
      <trkpt lat="47.82625" lon="6.95759">
        <ele>612.02</ele>
        <time>2022-06-13T12:45:37Z</time>
      </trkpt>
      <trkpt lat="47.82626" lon="6.95756">
        <ele>612.02</ele>
        <time>2022-06-13T12:45:38Z</time>
      </trkpt>
      <trkpt lat="47.82627" lon="6.95753">
        <ele>611.54</ele>
        <time>2022-06-13T12:45:39Z</time>
      </trkpt>
      <trkpt lat="47.82632" lon="6.95731">
        <ele>610.09</ele>
        <time>2022-06-13T12:45:44Z</time>
      </trkpt>
      <trkpt lat="47.82635" lon="6.95685">
        <ele>607.21</ele>
        <time>2022-06-13T12:45:52Z</time>
      </trkpt>
      <trkpt lat="47.82639" lon="6.95654">
        <ele>604.33</ele>
        <time>2022-06-13T12:45:57Z</time>
      </trkpt>
      <trkpt lat="47.82641" lon="6.9565">
        <ele>603.85</ele>
        <time>2022-06-13T12:45:58Z</time>
      </trkpt>
      <trkpt lat="47.82642" lon="6.95643">
        <ele>603.36</ele>
        <time>2022-06-13T12:45:59Z</time>
      </trkpt>
      <trkpt lat="47.82643" lon="6.95635">
        <ele>602.88</ele>
        <time>2022-06-13T12:46:00Z</time>
      </trkpt>
      <trkpt lat="47.82643" lon="6.95627">
        <ele>602.4</ele>
        <time>2022-06-13T12:46:01Z</time>
      </trkpt>
      <trkpt lat="47.82643" lon="6.95618">
        <ele>601.92</ele>
        <time>2022-06-13T12:46:02Z</time>
      </trkpt>
      <trkpt lat="47.82644" lon="6.95609">
        <ele>601.44</ele>
        <time>2022-06-13T12:46:03Z</time>
      </trkpt>
      <trkpt lat="47.82644" lon="6.95604">
        <ele>600.96</ele>
        <time>2022-06-13T12:46:04Z</time>
      </trkpt>
      <trkpt lat="47.82648" lon="6.95592">
        <ele>600.48</ele>
        <time>2022-06-13T12:46:05Z</time>
      </trkpt>
      <trkpt lat="47.82652" lon="6.95586">
        <ele>600</ele>
        <time>2022-06-13T12:46:06Z</time>
      </trkpt>
      <trkpt lat="47.82657" lon="6.95581">
        <ele>600</ele>
        <time>2022-06-13T12:46:07Z</time>
      </trkpt>
      <trkpt lat="47.8267" lon="6.95566">
        <ele>599.04</ele>
        <time>2022-06-13T12:46:10Z</time>
      </trkpt>
      <trkpt lat="47.82674" lon="6.95559">
        <ele>598.56</ele>
        <time>2022-06-13T12:46:11Z</time>
      </trkpt>
      <trkpt lat="47.82676" lon="6.95551">
        <ele>598.08</ele>
        <time>2022-06-13T12:46:12Z</time>
      </trkpt>
      <trkpt lat="47.82677" lon="6.95541">
        <ele>598.08</ele>
        <time>2022-06-13T12:46:13Z</time>
      </trkpt>
      <trkpt lat="47.82677" lon="6.95532">
        <ele>597.6</ele>
        <time>2022-06-13T12:46:14Z</time>
      </trkpt>
      <trkpt lat="47.82679" lon="6.95516">
        <ele>596.64</ele>
        <time>2022-06-13T12:46:16Z</time>
      </trkpt>
      <trkpt lat="47.8268" lon="6.95508">
        <ele>596.15</ele>
        <time>2022-06-13T12:46:17Z</time>
      </trkpt>
      <trkpt lat="47.82685" lon="6.95482">
        <ele>593.75</ele>
        <time>2022-06-13T12:46:20Z</time>
      </trkpt>
      <trkpt lat="47.82689" lon="6.95465">
        <ele>591.83</ele>
        <time>2022-06-13T12:46:22Z</time>
      </trkpt>
      <trkpt lat="47.82692" lon="6.9545">
        <ele>590.87</ele>
        <time>2022-06-13T12:46:24Z</time>
      </trkpt>
      <trkpt lat="47.82693" lon="6.95443">
        <ele>590.39</ele>
        <time>2022-06-13T12:46:25Z</time>
      </trkpt>
      <trkpt lat="47.82692" lon="6.95426">
        <ele>589.91</ele>
        <time>2022-06-13T12:46:27Z</time>
      </trkpt>
      <trkpt lat="47.82694" lon="6.95411">
        <ele>589.43</ele>
        <time>2022-06-13T12:46:29Z</time>
      </trkpt>
      <trkpt lat="47.82695" lon="6.95398">
        <ele>588.95</ele>
        <time>2022-06-13T12:46:31Z</time>
      </trkpt>
      <trkpt lat="47.82696" lon="6.95392">
        <ele>588.95</ele>
        <time>2022-06-13T12:46:32Z</time>
      </trkpt>
      <trkpt lat="47.82711" lon="6.95338">
        <ele>589.43</ele>
        <time>2022-06-13T12:46:43Z</time>
      </trkpt>
      <trkpt lat="47.82719" lon="6.95279">
        <ele>591.83</ele>
        <time>2022-06-13T12:46:57Z</time>
      </trkpt>
      <trkpt lat="47.82741" lon="6.9521">
        <ele>593.27</ele>
        <time>2022-06-13T12:47:12Z</time>
      </trkpt>
      <trkpt lat="47.82749" lon="6.95158">
        <ele>594.23</ele>
        <time>2022-06-13T12:47:24Z</time>
      </trkpt>
      <trkpt lat="47.82748" lon="6.95153">
        <ele>594.71</ele>
        <time>2022-06-13T12:47:28Z</time>
      </trkpt>
      <trkpt lat="47.82747" lon="6.95152">
        <ele>594.71</ele>
        <time>2022-06-13T12:47:29Z</time>
      </trkpt>
      <trkpt lat="47.82746" lon="6.9515">
        <ele>594.23</ele>
        <time>2022-06-13T12:47:30Z</time>
      </trkpt>
      <trkpt lat="47.82744" lon="6.95149">
        <ele>594.23</ele>
        <time>2022-06-13T12:47:31Z</time>
      </trkpt>
      <trkpt lat="47.82741" lon="6.95148">
        <ele>593.75</ele>
        <time>2022-06-13T12:47:32Z</time>
      </trkpt>
      <trkpt lat="47.82738" lon="6.95148">
        <ele>593.75</ele>
        <time>2022-06-13T12:47:33Z</time>
      </trkpt>
      <trkpt lat="47.82714" lon="6.95148">
        <ele>591.83</ele>
        <time>2022-06-13T12:47:39Z</time>
      </trkpt>
      <trkpt lat="47.82695" lon="6.95145">
        <ele>590.39</ele>
        <time>2022-06-13T12:47:43Z</time>
      </trkpt>
      <trkpt lat="47.82689" lon="6.95145">
        <ele>589.91</ele>
        <time>2022-06-13T12:47:44Z</time>
      </trkpt>
      <trkpt lat="47.82684" lon="6.95144">
        <ele>589.43</ele>
        <time>2022-06-13T12:47:45Z</time>
      </trkpt>
      <trkpt lat="47.82678" lon="6.95143">
        <ele>589.43</ele>
        <time>2022-06-13T12:47:46Z</time>
      </trkpt>
      <trkpt lat="47.82673" lon="6.95142">
        <ele>588.95</ele>
        <time>2022-06-13T12:47:47Z</time>
      </trkpt>
      <trkpt lat="47.82668" lon="6.95141">
        <ele>588.46</ele>
        <time>2022-06-13T12:47:48Z</time>
      </trkpt>
      <trkpt lat="47.82656" lon="6.95138">
        <ele>587.98</ele>
        <time>2022-06-13T12:47:50Z</time>
      </trkpt>
      <trkpt lat="47.82614" lon="6.95112">
        <ele>585.1</ele>
        <time>2022-06-13T12:47:58Z</time>
      </trkpt>
      <trkpt lat="47.8259" lon="6.95087">
        <ele>584.14</ele>
        <time>2022-06-13T12:48:03Z</time>
      </trkpt>
      <trkpt lat="47.82586" lon="6.95082">
        <ele>583.66</ele>
        <time>2022-06-13T12:48:04Z</time>
      </trkpt>
      <trkpt lat="47.82552" lon="6.95049">
        <ele>582.22</ele>
        <time>2022-06-13T12:48:13Z</time>
      </trkpt>
      <trkpt lat="47.82548" lon="6.95046">
        <ele>582.22</ele>
        <time>2022-06-13T12:48:14Z</time>
      </trkpt>
      <trkpt lat="47.82512" lon="6.9503">
        <ele>580.29</ele>
        <time>2022-06-13T12:48:22Z</time>
      </trkpt>
      <trkpt lat="47.82504" lon="6.95025">
        <ele>579.81</ele>
        <time>2022-06-13T12:48:24Z</time>
      </trkpt>
      <trkpt lat="47.82426" lon="6.94983">
        <ele>576.45</ele>
        <time>2022-06-13T12:48:41Z</time>
      </trkpt>
      <trkpt lat="47.82396" lon="6.94962">
        <ele>574.53</ele>
        <time>2022-06-13T12:48:49Z</time>
      </trkpt>
      <trkpt lat="47.82392" lon="6.94959">
        <ele>574.53</ele>
        <time>2022-06-13T12:48:50Z</time>
      </trkpt>
      <trkpt lat="47.82385" lon="6.94951">
        <ele>574.04</ele>
        <time>2022-06-13T12:48:52Z</time>
      </trkpt>
      <trkpt lat="47.82382" lon="6.94946">
        <ele>574.04</ele>
        <time>2022-06-13T12:48:53Z</time>
      </trkpt>
      <trkpt lat="47.82349" lon="6.94877">
        <ele>570.68</ele>
        <time>2022-06-13T12:49:07Z</time>
      </trkpt>
      <trkpt lat="47.82342" lon="6.9486">
        <ele>570.2</ele>
        <time>2022-06-13T12:49:10Z</time>
      </trkpt>
      <trkpt lat="47.82337" lon="6.9485">
        <ele>569.72</ele>
        <time>2022-06-13T12:49:12Z</time>
      </trkpt>
      <trkpt lat="47.8233" lon="6.94839">
        <ele>569.24</ele>
        <time>2022-06-13T12:49:14Z</time>
      </trkpt>
      <trkpt lat="47.82327" lon="6.94835">
        <ele>568.76</ele>
        <time>2022-06-13T12:49:15Z</time>
      </trkpt>
      <trkpt lat="47.82322" lon="6.9483">
        <ele>568.76</ele>
        <time>2022-06-13T12:49:16Z</time>
      </trkpt>
      <trkpt lat="47.82317" lon="6.94827">
        <ele>568.76</ele>
        <time>2022-06-13T12:49:17Z</time>
      </trkpt>
      <trkpt lat="47.82312" lon="6.94823">
        <ele>568.28</ele>
        <time>2022-06-13T12:49:18Z</time>
      </trkpt>
      <trkpt lat="47.82268" lon="6.94798">
        <ele>564.91</ele>
        <time>2022-06-13T12:49:28Z</time>
      </trkpt>
      <trkpt lat="47.82263" lon="6.94794">
        <ele>564.91</ele>
        <time>2022-06-13T12:49:29Z</time>
      </trkpt>
      <trkpt lat="47.82231" lon="6.94759">
        <ele>562.99</ele>
        <time>2022-06-13T12:49:36Z</time>
      </trkpt>
      <trkpt lat="47.82202" lon="6.94711">
        <ele>561.55</ele>
        <time>2022-06-13T12:49:43Z</time>
      </trkpt>
      <trkpt lat="47.82189" lon="6.94697">
        <ele>561.07</ele>
        <time>2022-06-13T12:49:46Z</time>
      </trkpt>
      <trkpt lat="47.8218" lon="6.94689">
        <ele>560.59</ele>
        <time>2022-06-13T12:49:48Z</time>
      </trkpt>
      <trkpt lat="47.82119" lon="6.94653">
        <ele>557.7</ele>
        <time>2022-06-13T12:49:59Z</time>
      </trkpt>
      <trkpt lat="47.82115" lon="6.94647">
        <ele>557.7</ele>
        <time>2022-06-13T12:50:00Z</time>
      </trkpt>
      <trkpt lat="47.82105" lon="6.94627">
        <ele>557.22</ele>
        <time>2022-06-13T12:50:03Z</time>
      </trkpt>
      <trkpt lat="47.82092" lon="6.94611">
        <ele>557.22</ele>
        <time>2022-06-13T12:50:06Z</time>
      </trkpt>
      <trkpt lat="47.82055" lon="6.94576">
        <ele>555.78</ele>
        <time>2022-06-13T12:50:14Z</time>
      </trkpt>
      <trkpt lat="47.81996" lon="6.94522">
        <ele>553.86</ele>
        <time>2022-06-13T12:50:28Z</time>
      </trkpt>
      <trkpt lat="47.81991" lon="6.94518">
        <ele>553.86</ele>
        <time>2022-06-13T12:50:29Z</time>
      </trkpt>
      <trkpt lat="47.81952" lon="6.94487">
        <ele>550.97</ele>
        <time>2022-06-13T12:50:36Z</time>
      </trkpt>
      <trkpt lat="47.81945" lon="6.94485">
        <ele>550.49</ele>
        <time>2022-06-13T12:50:37Z</time>
      </trkpt>
      <trkpt lat="47.81932" lon="6.94483">
        <ele>549.05</ele>
        <time>2022-06-13T12:50:39Z</time>
      </trkpt>
      <trkpt lat="47.81924" lon="6.94483">
        <ele>548.57</ele>
        <time>2022-06-13T12:50:40Z</time>
      </trkpt>
      <trkpt lat="47.81917" lon="6.94484">
        <ele>548.09</ele>
        <time>2022-06-13T12:50:41Z</time>
      </trkpt>
      <trkpt lat="47.81909" lon="6.94483">
        <ele>547.61</ele>
        <time>2022-06-13T12:50:42Z</time>
      </trkpt>
      <trkpt lat="47.81901" lon="6.94481">
        <ele>547.13</ele>
        <time>2022-06-13T12:50:43Z</time>
      </trkpt>
      <trkpt lat="47.81893" lon="6.94479">
        <ele>546.65</ele>
        <time>2022-06-13T12:50:44Z</time>
      </trkpt>
      <trkpt lat="47.81885" lon="6.94476">
        <ele>546.17</ele>
        <time>2022-06-13T12:50:45Z</time>
      </trkpt>
      <trkpt lat="47.81877" lon="6.94472">
        <ele>545.69</ele>
        <time>2022-06-13T12:50:46Z</time>
      </trkpt>
      <trkpt lat="47.8187" lon="6.94466">
        <ele>545.2</ele>
        <time>2022-06-13T12:50:47Z</time>
      </trkpt>
      <trkpt lat="47.81863" lon="6.9446">
        <ele>544.72</ele>
        <time>2022-06-13T12:50:48Z</time>
      </trkpt>
      <trkpt lat="47.81839" lon="6.94435">
        <ele>543.28</ele>
        <time>2022-06-13T12:50:52Z</time>
      </trkpt>
      <trkpt lat="47.81834" lon="6.94429">
        <ele>542.8</ele>
        <time>2022-06-13T12:50:53Z</time>
      </trkpt>
      <trkpt lat="47.81793" lon="6.94398">
        <ele>539.44</ele>
        <time>2022-06-13T12:51:00Z</time>
      </trkpt>
      <trkpt lat="47.81776" lon="6.94391">
        <ele>537.51</ele>
        <time>2022-06-13T12:51:03Z</time>
      </trkpt>
      <trkpt lat="47.8177" lon="6.94391">
        <ele>537.03</ele>
        <time>2022-06-13T12:51:04Z</time>
      </trkpt>
      <trkpt lat="47.81764" lon="6.94392">
        <ele>536.07</ele>
        <time>2022-06-13T12:51:05Z</time>
      </trkpt>
      <trkpt lat="47.81696" lon="6.944">
        <ele>532.71</ele>
        <time>2022-06-13T12:51:14Z</time>
      </trkpt>
      <trkpt lat="47.81664" lon="6.94404">
        <ele>532.71</ele>
        <time>2022-06-13T12:51:18Z</time>
      </trkpt>
      <trkpt lat="47.81656" lon="6.94407">
        <ele>532.23</ele>
        <time>2022-06-13T12:51:19Z</time>
      </trkpt>
      <trkpt lat="47.81649" lon="6.9441">
        <ele>532.23</ele>
        <time>2022-06-13T12:51:20Z</time>
      </trkpt>
      <trkpt lat="47.81642" lon="6.94413">
        <ele>531.75</ele>
        <time>2022-06-13T12:51:21Z</time>
      </trkpt>
      <trkpt lat="47.81635" lon="6.94417">
        <ele>531.75</ele>
        <time>2022-06-13T12:51:22Z</time>
      </trkpt>
      <trkpt lat="47.81601" lon="6.94441">
        <ele>530.79</ele>
        <time>2022-06-13T12:51:27Z</time>
      </trkpt>
      <trkpt lat="47.81596" lon="6.94448">
        <ele>530.3</ele>
        <time>2022-06-13T12:51:28Z</time>
      </trkpt>
      <trkpt lat="47.81566" lon="6.94493">
        <ele>527.42</ele>
        <time>2022-06-13T12:51:35Z</time>
      </trkpt>
      <trkpt lat="47.81553" lon="6.94511">
        <ele>526.46</ele>
        <time>2022-06-13T12:51:40Z</time>
      </trkpt>
      <trkpt lat="47.81554" lon="6.94513">
        <ele>525.98</ele>
        <time>2022-06-13T12:51:41Z</time>
      </trkpt>
      <trkpt lat="47.81557" lon="6.94513">
        <ele>525.98</ele>
        <time>2022-06-13T12:51:42Z</time>
      </trkpt>
      <trkpt lat="47.81562" lon="6.94514">
        <ele>526.46</ele>
        <time>2022-06-13T12:51:44Z</time>
      </trkpt>
      <trkpt lat="47.81564" lon="6.94517">
        <ele>525.98</ele>
        <time>2022-06-13T12:51:45Z</time>
      </trkpt>
      <trkpt lat="47.81566" lon="6.9452">
        <ele>525.98</ele>
        <time>2022-06-13T12:51:46Z</time>
      </trkpt>
      <trkpt lat="47.81568" lon="6.94522">
        <ele>525.5</ele>
        <time>2022-06-13T12:51:47Z</time>
      </trkpt>
      <trkpt lat="47.81569" lon="6.94524">
        <ele>525.02</ele>
        <time>2022-06-13T12:51:48Z</time>
      </trkpt>
      <trkpt lat="47.81569" lon="6.94526">
        <ele>525.02</ele>
        <time>2022-06-13T12:51:49Z</time>
      </trkpt>
      <trkpt lat="47.81575" lon="6.94544">
        <ele>525.02</ele>
        <time>2022-06-13T12:52:00Z</time>
      </trkpt>
      <trkpt lat="47.81575" lon="6.94546">
        <ele>525.02</ele>
        <time>2022-06-13T12:52:01Z</time>
      </trkpt>
      <trkpt lat="47.81574" lon="6.94548">
        <ele>525.02</ele>
        <time>2022-06-13T12:52:02Z</time>
      </trkpt>
      <trkpt lat="47.81573" lon="6.94549">
        <ele>525.02</ele>
        <time>2022-06-13T12:52:03Z</time>
      </trkpt>
      <trkpt lat="47.81573" lon="6.94551">
        <ele>524.54</ele>
        <time>2022-06-13T12:52:04Z</time>
      </trkpt>
      <trkpt lat="47.81572" lon="6.94558">
        <ele>524.54</ele>
        <time>2022-06-13T12:52:18Z</time>
      </trkpt>
      <trkpt lat="47.81575" lon="6.94558">
        <ele>524.06</ele>
        <time>2022-06-13T12:52:41Z</time>
      </trkpt>
      <trkpt lat="47.81577" lon="6.94557">
        <ele>524.06</ele>
        <time>2022-06-13T12:53:06Z</time>
      </trkpt>
      <trkpt lat="47.81576" lon="6.94557">
        <ele>524.06</ele>
        <time>2022-06-13T12:53:31Z</time>
      </trkpt>
      <trkpt lat="47.81576" lon="6.94557">
        <ele>524.06</ele>
        <time>2022-06-13T12:53:37Z</time>
      </trkpt>
      <trkpt lat="47.81579" lon="6.94555">
        <ele>524.54</ele>
        <time>2022-06-13T12:53:44Z</time>
      </trkpt>
      <trkpt lat="47.81574" lon="6.94525">
        <ele>524.54</ele>
        <time>2022-06-13T12:53:56Z</time>
      </trkpt>
      <trkpt lat="47.81568" lon="6.94515">
        <ele>525.02</ele>
        <time>2022-06-13T12:54:01Z</time>
      </trkpt>
      <trkpt lat="47.81533" lon="6.94532">
        <ele>524.06</ele>
        <time>2022-06-13T12:54:13Z</time>
      </trkpt>
      <trkpt lat="47.81521" lon="6.94537">
        <ele>523.58</ele>
        <time>2022-06-13T12:54:16Z</time>
      </trkpt>
      <trkpt lat="47.81517" lon="6.94538">
        <ele>523.58</ele>
        <time>2022-06-13T12:54:17Z</time>
      </trkpt>
      <trkpt lat="47.81503" lon="6.94539">
        <ele>523.09</ele>
        <time>2022-06-13T12:54:20Z</time>
      </trkpt>
      <trkpt lat="47.81493" lon="6.94538">
        <ele>523.09</ele>
        <time>2022-06-13T12:54:22Z</time>
      </trkpt>
      <trkpt lat="47.81417" lon="6.945">
        <ele>519.73</ele>
        <time>2022-06-13T12:54:36Z</time>
      </trkpt>
      <trkpt lat="47.81399" lon="6.9449">
        <ele>518.29</ele>
        <time>2022-06-13T12:54:39Z</time>
      </trkpt>
      <trkpt lat="47.81359" lon="6.94471">
        <ele>517.33</ele>
        <time>2022-06-13T12:54:45Z</time>
      </trkpt>
      <trkpt lat="47.81308" lon="6.94451">
        <ele>515.4</ele>
        <time>2022-06-13T12:54:52Z</time>
      </trkpt>
      <trkpt lat="47.81248" lon="6.94399">
        <ele>512.52</ele>
        <time>2022-06-13T12:55:00Z</time>
      </trkpt>
      <trkpt lat="47.81231" lon="6.94386">
        <ele>511.08</ele>
        <time>2022-06-13T12:55:02Z</time>
      </trkpt>
      <trkpt lat="47.81222" lon="6.94381">
        <ele>510.6</ele>
        <time>2022-06-13T12:55:03Z</time>
      </trkpt>
      <trkpt lat="47.81212" lon="6.94377">
        <ele>509.16</ele>
        <time>2022-06-13T12:55:04Z</time>
      </trkpt>
      <trkpt lat="47.81202" lon="6.94375">
        <ele>508.67</ele>
        <time>2022-06-13T12:55:05Z</time>
      </trkpt>
      <trkpt lat="47.81192" lon="6.94374">
        <ele>507.71</ele>
        <time>2022-06-13T12:55:06Z</time>
      </trkpt>
      <trkpt lat="47.81182" lon="6.94374">
        <ele>507.23</ele>
        <time>2022-06-13T12:55:07Z</time>
      </trkpt>
      <trkpt lat="47.81172" lon="6.94377">
        <ele>506.27</ele>
        <time>2022-06-13T12:55:08Z</time>
      </trkpt>
      <trkpt lat="47.81161" lon="6.94383">
        <ele>505.31</ele>
        <time>2022-06-13T12:55:09Z</time>
      </trkpt>
      <trkpt lat="47.81151" lon="6.9439">
        <ele>504.35</ele>
        <time>2022-06-13T12:55:10Z</time>
      </trkpt>
      <trkpt lat="47.8114" lon="6.94394">
        <ele>503.39</ele>
        <time>2022-06-13T12:55:11Z</time>
      </trkpt>
      <trkpt lat="47.81129" lon="6.94393">
        <ele>502.91</ele>
        <time>2022-06-13T12:55:12Z</time>
      </trkpt>
      <trkpt lat="47.81118" lon="6.94391">
        <ele>501.95</ele>
        <time>2022-06-13T12:55:13Z</time>
      </trkpt>
      <trkpt lat="47.81096" lon="6.94384">
        <ele>500.5</ele>
        <time>2022-06-13T12:55:15Z</time>
      </trkpt>
      <trkpt lat="47.81051" lon="6.9437">
        <ele>497.14</ele>
        <time>2022-06-13T12:55:19Z</time>
      </trkpt>
      <trkpt lat="47.81017" lon="6.94372">
        <ele>495.22</ele>
        <time>2022-06-13T12:55:22Z</time>
      </trkpt>
      <trkpt lat="47.81006" lon="6.94371">
        <ele>494.74</ele>
        <time>2022-06-13T12:55:23Z</time>
      </trkpt>
      <trkpt lat="47.80996" lon="6.94369">
        <ele>494.26</ele>
        <time>2022-06-13T12:55:24Z</time>
      </trkpt>
      <trkpt lat="47.80986" lon="6.94365">
        <ele>493.77</ele>
        <time>2022-06-13T12:55:25Z</time>
      </trkpt>
      <trkpt lat="47.80965" lon="6.94357">
        <ele>492.81</ele>
        <time>2022-06-13T12:55:27Z</time>
      </trkpt>
      <trkpt lat="47.80955" lon="6.94355">
        <ele>491.85</ele>
        <time>2022-06-13T12:55:28Z</time>
      </trkpt>
      <trkpt lat="47.8089" lon="6.94343">
        <ele>488.97</ele>
        <time>2022-06-13T12:55:36Z</time>
      </trkpt>
      <trkpt lat="47.80886" lon="6.94341">
        <ele>488.49</ele>
        <time>2022-06-13T12:55:37Z</time>
      </trkpt>
      <trkpt lat="47.80882" lon="6.94339">
        <ele>488.49</ele>
        <time>2022-06-13T12:55:38Z</time>
      </trkpt>
      <trkpt lat="47.8087" lon="6.94331">
        <ele>488.49</ele>
        <time>2022-06-13T12:55:48Z</time>
      </trkpt>
      <trkpt lat="47.8087" lon="6.9433">
        <ele>488.97</ele>
        <time>2022-06-13T12:55:54Z</time>
      </trkpt>
      <trkpt lat="47.80869" lon="6.94328">
        <ele>488.97</ele>
        <time>2022-06-13T12:55:55Z</time>
      </trkpt>
      <trkpt lat="47.80867" lon="6.94326">
        <ele>488.97</ele>
        <time>2022-06-13T12:55:56Z</time>
      </trkpt>
      <trkpt lat="47.80865" lon="6.94324">
        <ele>488.97</ele>
        <time>2022-06-13T12:55:57Z</time>
      </trkpt>
      <trkpt lat="47.80862" lon="6.94322">
        <ele>488.49</ele>
        <time>2022-06-13T12:55:58Z</time>
      </trkpt>
      <trkpt lat="47.80858" lon="6.94321">
        <ele>488.01</ele>
        <time>2022-06-13T12:55:59Z</time>
      </trkpt>
      <trkpt lat="47.80854" lon="6.94321">
        <ele>487.53</ele>
        <time>2022-06-13T12:56:00Z</time>
      </trkpt>
      <trkpt lat="47.80849" lon="6.94322">
        <ele>487.53</ele>
        <time>2022-06-13T12:56:01Z</time>
      </trkpt>
      <trkpt lat="47.8082" lon="6.94327">
        <ele>486.56</ele>
        <time>2022-06-13T12:56:06Z</time>
      </trkpt>
      <trkpt lat="47.80802" lon="6.94334">
        <ele>486.08</ele>
        <time>2022-06-13T12:56:09Z</time>
      </trkpt>
      <trkpt lat="47.80796" lon="6.94336">
        <ele>486.08</ele>
        <time>2022-06-13T12:56:10Z</time>
      </trkpt>
      <trkpt lat="47.8078" lon="6.94342">
        <ele>486.56</ele>
        <time>2022-06-13T12:56:13Z</time>
      </trkpt>
      <trkpt lat="47.80775" lon="6.94341">
        <ele>486.56</ele>
        <time>2022-06-13T12:56:14Z</time>
      </trkpt>
      <trkpt lat="47.80765" lon="6.94338">
        <ele>486.08</ele>
        <time>2022-06-13T12:56:16Z</time>
      </trkpt>
      <trkpt lat="47.80754" lon="6.94335">
        <ele>485.12</ele>
        <time>2022-06-13T12:56:18Z</time>
      </trkpt>
      <trkpt lat="47.80749" lon="6.94333">
        <ele>484.64</ele>
        <time>2022-06-13T12:56:19Z</time>
      </trkpt>
      <trkpt lat="47.80734" lon="6.94329">
        <ele>483.68</ele>
        <time>2022-06-13T12:56:22Z</time>
      </trkpt>
      <trkpt lat="47.8073" lon="6.94328">
        <ele>483.2</ele>
        <time>2022-06-13T12:56:23Z</time>
      </trkpt>
      <trkpt lat="47.80725" lon="6.94327">
        <ele>483.2</ele>
        <time>2022-06-13T12:56:24Z</time>
      </trkpt>
      <trkpt lat="47.80702" lon="6.94326">
        <ele>483.68</ele>
        <time>2022-06-13T12:56:32Z</time>
      </trkpt>
      <trkpt lat="47.80702" lon="6.94328">
        <ele>483.2</ele>
        <time>2022-06-13T12:56:33Z</time>
      </trkpt>
      <trkpt lat="47.80694" lon="6.9437">
        <ele>483.68</ele>
        <time>2022-06-13T12:56:43Z</time>
      </trkpt>
      <trkpt lat="47.80692" lon="6.94378">
        <ele>483.2</ele>
        <time>2022-06-13T12:56:44Z</time>
      </trkpt>
      <trkpt lat="47.80661" lon="6.94478">
        <ele>482.72</ele>
        <time>2022-06-13T12:56:57Z</time>
      </trkpt>
      <trkpt lat="47.80642" lon="6.94514">
        <ele>481.28</ele>
        <time>2022-06-13T12:57:02Z</time>
      </trkpt>
      <trkpt lat="47.80572" lon="6.9464">
        <ele>479.84</ele>
        <time>2022-06-13T12:57:19Z</time>
      </trkpt>
      <trkpt lat="47.8053" lon="6.94743">
        <ele>478.87</ele>
        <time>2022-06-13T12:57:31Z</time>
      </trkpt>
      <trkpt lat="47.80527" lon="6.94752">
        <ele>478.39</ele>
        <time>2022-06-13T12:57:32Z</time>
      </trkpt>
      <trkpt lat="47.80483" lon="6.94864">
        <ele>477.43</ele>
        <time>2022-06-13T12:57:46Z</time>
      </trkpt>
      <trkpt lat="47.80435" lon="6.94985">
        <ele>475.99</ele>
        <time>2022-06-13T12:58:01Z</time>
      </trkpt>
      <trkpt lat="47.80388" lon="6.95102">
        <ele>474.07</ele>
        <time>2022-06-13T12:58:16Z</time>
      </trkpt>
      <trkpt lat="47.80336" lon="6.95201">
        <ele>473.59</ele>
        <time>2022-06-13T12:58:31Z</time>
      </trkpt>
      <trkpt lat="47.8028" lon="6.95281">
        <ele>473.11</ele>
        <time>2022-06-13T12:58:45Z</time>
      </trkpt>
      <trkpt lat="47.80269" lon="6.95299">
        <ele>472.63</ele>
        <time>2022-06-13T12:58:48Z</time>
      </trkpt>
      <trkpt lat="47.80265" lon="6.95304">
        <ele>472.63</ele>
        <time>2022-06-13T12:58:49Z</time>
      </trkpt>
      <trkpt lat="47.80202" lon="6.95393">
        <ele>471.66</ele>
        <time>2022-06-13T12:59:06Z</time>
      </trkpt>
      <trkpt lat="47.80186" lon="6.95417">
        <ele>471.66</ele>
        <time>2022-06-13T12:59:11Z</time>
      </trkpt>
      <trkpt lat="47.80182" lon="6.95421">
        <ele>471.18</ele>
        <time>2022-06-13T12:59:12Z</time>
      </trkpt>
      <trkpt lat="47.80125" lon="6.9551">
        <ele>471.18</ele>
        <time>2022-06-13T12:59:27Z</time>
      </trkpt>
      <trkpt lat="47.80095" lon="6.95576">
        <ele>469.74</ele>
        <time>2022-06-13T12:59:36Z</time>
      </trkpt>
      <trkpt lat="47.80073" lon="6.95632">
        <ele>469.26</ele>
        <time>2022-06-13T12:59:43Z</time>
      </trkpt>
      <trkpt lat="47.80069" lon="6.95639">
        <ele>469.26</ele>
        <time>2022-06-13T12:59:44Z</time>
      </trkpt>
      <trkpt lat="47.80065" lon="6.95648">
        <ele>468.78</ele>
        <time>2022-06-13T12:59:45Z</time>
      </trkpt>
      <trkpt lat="47.80062" lon="6.95656">
        <ele>468.78</ele>
        <time>2022-06-13T12:59:46Z</time>
      </trkpt>
      <trkpt lat="47.80059" lon="6.95665">
        <ele>469.26</ele>
        <time>2022-06-13T12:59:47Z</time>
      </trkpt>
      <trkpt lat="47.8002" lon="6.95774">
        <ele>468.3</ele>
        <time>2022-06-13T13:00:01Z</time>
      </trkpt>
      <trkpt lat="47.80018" lon="6.95781">
        <ele>468.3</ele>
        <time>2022-06-13T13:00:02Z</time>
      </trkpt>
      <trkpt lat="47.80016" lon="6.95788">
        <ele>468.3</ele>
        <time>2022-06-13T13:00:03Z</time>
      </trkpt>
      <trkpt lat="47.80012" lon="6.95809">
        <ele>468.3</ele>
        <time>2022-06-13T13:00:06Z</time>
      </trkpt>
      <trkpt lat="47.8001" lon="6.95815">
        <ele>468.3</ele>
        <time>2022-06-13T13:00:07Z</time>
      </trkpt>
      <trkpt lat="47.79987" lon="6.9587">
        <ele>467.82</ele>
        <time>2022-06-13T13:00:18Z</time>
      </trkpt>
      <trkpt lat="47.79985" lon="6.95876">
        <ele>467.82</ele>
        <time>2022-06-13T13:00:20Z</time>
      </trkpt>
      <trkpt lat="47.79985" lon="6.9588">
        <ele>467.82</ele>
        <time>2022-06-13T13:00:21Z</time>
      </trkpt>
      <trkpt lat="47.79985" lon="6.95884">
        <ele>467.82</ele>
        <time>2022-06-13T13:00:22Z</time>
      </trkpt>
      <trkpt lat="47.79985" lon="6.95888">
        <ele>467.82</ele>
        <time>2022-06-13T13:00:23Z</time>
      </trkpt>
      <trkpt lat="47.79984" lon="6.95892">
        <ele>467.82</ele>
        <time>2022-06-13T13:00:24Z</time>
      </trkpt>
      <trkpt lat="47.79982" lon="6.95895">
        <ele>467.82</ele>
        <time>2022-06-13T13:00:25Z</time>
      </trkpt>
      <trkpt lat="47.79981" lon="6.95898">
        <ele>467.82</ele>
        <time>2022-06-13T13:00:26Z</time>
      </trkpt>
      <trkpt lat="47.79978" lon="6.95902">
        <ele>467.82</ele>
        <time>2022-06-13T13:00:27Z</time>
      </trkpt>
      <trkpt lat="47.79959" lon="6.95957">
        <ele>467.82</ele>
        <time>2022-06-13T13:00:39Z</time>
      </trkpt>
      <trkpt lat="47.79948" lon="6.95988">
        <ele>467.82</ele>
        <time>2022-06-13T13:00:45Z</time>
      </trkpt>
      <trkpt lat="47.79946" lon="6.95994">
        <ele>467.34</ele>
        <time>2022-06-13T13:00:46Z</time>
      </trkpt>
      <trkpt lat="47.79943" lon="6.95999">
        <ele>467.34</ele>
        <time>2022-06-13T13:00:47Z</time>
      </trkpt>
      <trkpt lat="47.7994" lon="6.96005">
        <ele>467.34</ele>
        <time>2022-06-13T13:00:48Z</time>
      </trkpt>
      <trkpt lat="47.79938" lon="6.96011">
        <ele>467.34</ele>
        <time>2022-06-13T13:00:49Z</time>
      </trkpt>
      <trkpt lat="47.79932" lon="6.96024">
        <ele>467.34</ele>
        <time>2022-06-13T13:00:51Z</time>
      </trkpt>
      <trkpt lat="47.79929" lon="6.9603">
        <ele>466.86</ele>
        <time>2022-06-13T13:00:52Z</time>
      </trkpt>
      <trkpt lat="47.79915" lon="6.96053">
        <ele>466.86</ele>
        <time>2022-06-13T13:00:56Z</time>
      </trkpt>
      <trkpt lat="47.7989" lon="6.96093">
        <ele>466.38</ele>
        <time>2022-06-13T13:01:03Z</time>
      </trkpt>
      <trkpt lat="47.79886" lon="6.96098">
        <ele>465.9</ele>
        <time>2022-06-13T13:01:04Z</time>
      </trkpt>
      <trkpt lat="47.79853" lon="6.96138">
        <ele>465.42</ele>
        <time>2022-06-13T13:01:15Z</time>
      </trkpt>
      <trkpt lat="47.7982" lon="6.9617">
        <ele>464.93</ele>
        <time>2022-06-13T13:01:27Z</time>
      </trkpt>
      <trkpt lat="47.79776" lon="6.96201">
        <ele>464.45</ele>
        <time>2022-06-13T13:01:40Z</time>
      </trkpt>
      <trkpt lat="47.79729" lon="6.96223">
        <ele>464.93</ele>
        <time>2022-06-13T13:01:51Z</time>
      </trkpt>
      <trkpt lat="47.79725" lon="6.96225">
        <ele>464.93</ele>
        <time>2022-06-13T13:01:52Z</time>
      </trkpt>
      <trkpt lat="47.79671" lon="6.96237">
        <ele>464.45</ele>
        <time>2022-06-13T13:02:05Z</time>
      </trkpt>
      <trkpt lat="47.79652" lon="6.9624">
        <ele>464.45</ele>
        <time>2022-06-13T13:02:09Z</time>
      </trkpt>
      <trkpt lat="47.79647" lon="6.96241">
        <ele>464.45</ele>
        <time>2022-06-13T13:02:10Z</time>
      </trkpt>
      <trkpt lat="47.79625" lon="6.96245">
        <ele>464.45</ele>
        <time>2022-06-13T13:02:15Z</time>
      </trkpt>
      <trkpt lat="47.79613" lon="6.96246">
        <ele>464.45</ele>
        <time>2022-06-13T13:02:18Z</time>
      </trkpt>
      <trkpt lat="47.79608" lon="6.96246">
        <ele>464.45</ele>
        <time>2022-06-13T13:02:19Z</time>
      </trkpt>
      <trkpt lat="47.79604" lon="6.96246">
        <ele>464.45</ele>
        <time>2022-06-13T13:02:20Z</time>
      </trkpt>
      <trkpt lat="47.79586" lon="6.96248">
        <ele>464.45</ele>
        <time>2022-06-13T13:02:24Z</time>
      </trkpt>
      <trkpt lat="47.79582" lon="6.96248">
        <ele>464.45</ele>
        <time>2022-06-13T13:02:25Z</time>
      </trkpt>
      <trkpt lat="47.79578" lon="6.96248">
        <ele>464.45</ele>
        <time>2022-06-13T13:02:26Z</time>
      </trkpt>
      <trkpt lat="47.79574" lon="6.96249">
        <ele>464.45</ele>
        <time>2022-06-13T13:02:27Z</time>
      </trkpt>
      <trkpt lat="47.79569" lon="6.96249">
        <ele>464.45</ele>
        <time>2022-06-13T13:02:28Z</time>
      </trkpt>
      <trkpt lat="47.79565" lon="6.9625">
        <ele>464.45</ele>
        <time>2022-06-13T13:02:29Z</time>
      </trkpt>
      <trkpt lat="47.79561" lon="6.96251">
        <ele>464.45</ele>
        <time>2022-06-13T13:02:30Z</time>
      </trkpt>
      <trkpt lat="47.79552" lon="6.96251">
        <ele>464.93</ele>
        <time>2022-06-13T13:02:32Z</time>
      </trkpt>
      <trkpt lat="47.79548" lon="6.9625">
        <ele>464.93</ele>
        <time>2022-06-13T13:02:33Z</time>
      </trkpt>
      <trkpt lat="47.79544" lon="6.9625">
        <ele>464.45</ele>
        <time>2022-06-13T13:02:34Z</time>
      </trkpt>
      <trkpt lat="47.79496" lon="6.9624">
        <ele>464.45</ele>
        <time>2022-06-13T13:02:44Z</time>
      </trkpt>
      <trkpt lat="47.79458" lon="6.96229">
        <ele>463.97</ele>
        <time>2022-06-13T13:02:53Z</time>
      </trkpt>
      <trkpt lat="47.79438" lon="6.96223">
        <ele>463.49</ele>
        <time>2022-06-13T13:02:57Z</time>
      </trkpt>
      <trkpt lat="47.79378" lon="6.96214">
        <ele>462.05</ele>
        <time>2022-06-13T13:03:09Z</time>
      </trkpt>
      <trkpt lat="47.79338" lon="6.9622">
        <ele>461.09</ele>
        <time>2022-06-13T13:03:17Z</time>
      </trkpt>
      <trkpt lat="47.79333" lon="6.96221">
        <ele>460.61</ele>
        <time>2022-06-13T13:03:18Z</time>
      </trkpt>
      <trkpt lat="47.79328" lon="6.96222">
        <ele>460.61</ele>
        <time>2022-06-13T13:03:19Z</time>
      </trkpt>
      <trkpt lat="47.79324" lon="6.96223">
        <ele>460.13</ele>
        <time>2022-06-13T13:03:20Z</time>
      </trkpt>
      <trkpt lat="47.79319" lon="6.96225">
        <ele>460.13</ele>
        <time>2022-06-13T13:03:21Z</time>
      </trkpt>
      <trkpt lat="47.79309" lon="6.96228">
        <ele>460.61</ele>
        <time>2022-06-13T13:03:23Z</time>
      </trkpt>
      <trkpt lat="47.79285" lon="6.96239">
        <ele>460.13</ele>
        <time>2022-06-13T13:03:28Z</time>
      </trkpt>
      <trkpt lat="47.79265" lon="6.96248">
        <ele>459.65</ele>
        <time>2022-06-13T13:03:32Z</time>
      </trkpt>
      <trkpt lat="47.7926" lon="6.9625">
        <ele>459.65</ele>
        <time>2022-06-13T13:03:33Z</time>
      </trkpt>
      <trkpt lat="47.79255" lon="6.96252">
        <ele>459.65</ele>
        <time>2022-06-13T13:03:34Z</time>
      </trkpt>
      <trkpt lat="47.79228" lon="6.96264">
        <ele>459.17</ele>
        <time>2022-06-13T13:03:39Z</time>
      </trkpt>
      <trkpt lat="47.79222" lon="6.96265">
        <ele>459.17</ele>
        <time>2022-06-13T13:03:40Z</time>
      </trkpt>
      <trkpt lat="47.79211" lon="6.96271">
        <ele>459.17</ele>
        <time>2022-06-13T13:03:42Z</time>
      </trkpt>
      <trkpt lat="47.79206" lon="6.96275">
        <ele>459.17</ele>
        <time>2022-06-13T13:03:43Z</time>
      </trkpt>
      <trkpt lat="47.79184" lon="6.96287">
        <ele>458.69</ele>
        <time>2022-06-13T13:03:47Z</time>
      </trkpt>
      <trkpt lat="47.79179" lon="6.96289">
        <ele>458.21</ele>
        <time>2022-06-13T13:03:48Z</time>
      </trkpt>
      <trkpt lat="47.79154" lon="6.96305">
        <ele>458.21</ele>
        <time>2022-06-13T13:03:53Z</time>
      </trkpt>
      <trkpt lat="47.79149" lon="6.96309">
        <ele>458.21</ele>
        <time>2022-06-13T13:03:54Z</time>
      </trkpt>
      <trkpt lat="47.79079" lon="6.96349">
        <ele>456.28</ele>
        <time>2022-06-13T13:04:08Z</time>
      </trkpt>
      <trkpt lat="47.79039" lon="6.96373">
        <ele>455.8</ele>
        <time>2022-06-13T13:04:16Z</time>
      </trkpt>
      <trkpt lat="47.79034" lon="6.96376">
        <ele>455.8</ele>
        <time>2022-06-13T13:04:17Z</time>
      </trkpt>
      <trkpt lat="47.79015" lon="6.96388">
        <ele>455.8</ele>
        <time>2022-06-13T13:04:21Z</time>
      </trkpt>
      <trkpt lat="47.7901" lon="6.96391">
        <ele>455.32</ele>
        <time>2022-06-13T13:04:22Z</time>
      </trkpt>
      <trkpt lat="47.78995" lon="6.964">
        <ele>455.8</ele>
        <time>2022-06-13T13:04:25Z</time>
      </trkpt>
      <trkpt lat="47.78989" lon="6.96403">
        <ele>455.32</ele>
        <time>2022-06-13T13:04:26Z</time>
      </trkpt>
      <trkpt lat="47.78984" lon="6.96407">
        <ele>455.32</ele>
        <time>2022-06-13T13:04:27Z</time>
      </trkpt>
      <trkpt lat="47.78906" lon="6.96455">
        <ele>453.88</ele>
        <time>2022-06-13T13:04:41Z</time>
      </trkpt>
      <trkpt lat="47.78833" lon="6.96505">
        <ele>452.44</ele>
        <time>2022-06-13T13:04:54Z</time>
      </trkpt>
      <trkpt lat="47.78812" lon="6.96519">
        <ele>452.44</ele>
        <time>2022-06-13T13:04:58Z</time>
      </trkpt>
      <trkpt lat="47.7878" lon="6.9655">
        <ele>451.96</ele>
        <time>2022-06-13T13:05:04Z</time>
      </trkpt>
      <trkpt lat="47.78775" lon="6.96554">
        <ele>451.48</ele>
        <time>2022-06-13T13:05:05Z</time>
      </trkpt>
      <trkpt lat="47.78731" lon="6.96604">
        <ele>451</ele>
        <time>2022-06-13T13:05:15Z</time>
      </trkpt>
      <trkpt lat="47.78704" lon="6.96637">
        <ele>451.48</ele>
        <time>2022-06-13T13:05:22Z</time>
      </trkpt>
      <trkpt lat="47.787" lon="6.96642">
        <ele>451.48</ele>
        <time>2022-06-13T13:05:23Z</time>
      </trkpt>
      <trkpt lat="47.78695" lon="6.96647">
        <ele>451</ele>
        <time>2022-06-13T13:05:24Z</time>
      </trkpt>
      <trkpt lat="47.78656" lon="6.96694">
        <ele>450.52</ele>
        <time>2022-06-13T13:05:33Z</time>
      </trkpt>
      <trkpt lat="47.78628" lon="6.96724">
        <ele>450.52</ele>
        <time>2022-06-13T13:05:39Z</time>
      </trkpt>
      <trkpt lat="47.78624" lon="6.96729">
        <ele>451</ele>
        <time>2022-06-13T13:05:40Z</time>
      </trkpt>
      <trkpt lat="47.78619" lon="6.96735">
        <ele>451</ele>
        <time>2022-06-13T13:05:41Z</time>
      </trkpt>
      <trkpt lat="47.78615" lon="6.9674">
        <ele>450.52</ele>
        <time>2022-06-13T13:05:42Z</time>
      </trkpt>
      <trkpt lat="47.78611" lon="6.96746">
        <ele>451</ele>
        <time>2022-06-13T13:05:43Z</time>
      </trkpt>
      <trkpt lat="47.78565" lon="6.96816">
        <ele>450.03</ele>
        <time>2022-06-13T13:05:55Z</time>
      </trkpt>
      <trkpt lat="47.78562" lon="6.96823">
        <ele>450.52</ele>
        <time>2022-06-13T13:05:56Z</time>
      </trkpt>
      <trkpt lat="47.7852" lon="6.96923">
        <ele>448.59</ele>
        <time>2022-06-13T13:06:09Z</time>
      </trkpt>
      <trkpt lat="47.7848" lon="6.97024">
        <ele>447.63</ele>
        <time>2022-06-13T13:06:22Z</time>
      </trkpt>
      <trkpt lat="47.78439" lon="6.97121">
        <ele>446.67</ele>
        <time>2022-06-13T13:06:35Z</time>
      </trkpt>
      <trkpt lat="47.7841" lon="6.97181">
        <ele>446.19</ele>
        <time>2022-06-13T13:06:44Z</time>
      </trkpt>
      <trkpt lat="47.78404" lon="6.97195">
        <ele>445.71</ele>
        <time>2022-06-13T13:06:46Z</time>
      </trkpt>
      <trkpt lat="47.78402" lon="6.97202">
        <ele>445.71</ele>
        <time>2022-06-13T13:06:47Z</time>
      </trkpt>
      <trkpt lat="47.78399" lon="6.9721">
        <ele>445.71</ele>
        <time>2022-06-13T13:06:48Z</time>
      </trkpt>
      <trkpt lat="47.78391" lon="6.97225">
        <ele>445.23</ele>
        <time>2022-06-13T13:06:50Z</time>
      </trkpt>
      <trkpt lat="47.78388" lon="6.97232">
        <ele>445.71</ele>
        <time>2022-06-13T13:06:51Z</time>
      </trkpt>
      <trkpt lat="47.78385" lon="6.9724">
        <ele>445.71</ele>
        <time>2022-06-13T13:06:52Z</time>
      </trkpt>
      <trkpt lat="47.78368" lon="6.97293">
        <ele>444.75</ele>
        <time>2022-06-13T13:06:58Z</time>
      </trkpt>
      <trkpt lat="47.78357" lon="6.97329">
        <ele>444.75</ele>
        <time>2022-06-13T13:07:02Z</time>
      </trkpt>
      <trkpt lat="47.78354" lon="6.97337">
        <ele>444.75</ele>
        <time>2022-06-13T13:07:03Z</time>
      </trkpt>
      <trkpt lat="47.7831" lon="6.97451">
        <ele>443.31</ele>
        <time>2022-06-13T13:07:18Z</time>
      </trkpt>
      <trkpt lat="47.78307" lon="6.97458">
        <ele>442.82</ele>
        <time>2022-06-13T13:07:19Z</time>
      </trkpt>
      <trkpt lat="47.78269" lon="6.9755">
        <ele>441.86</ele>
        <time>2022-06-13T13:07:32Z</time>
      </trkpt>
      <trkpt lat="47.78228" lon="6.97656">
        <ele>440.9</ele>
        <time>2022-06-13T13:07:47Z</time>
      </trkpt>
      <trkpt lat="47.78211" lon="6.97698">
        <ele>440.9</ele>
        <time>2022-06-13T13:07:53Z</time>
      </trkpt>
      <trkpt lat="47.78168" lon="6.97802">
        <ele>440.42</ele>
        <time>2022-06-13T13:08:08Z</time>
      </trkpt>
      <trkpt lat="47.78162" lon="6.97814">
        <ele>440.42</ele>
        <time>2022-06-13T13:08:10Z</time>
      </trkpt>
      <trkpt lat="47.7816" lon="6.97821">
        <ele>440.42</ele>
        <time>2022-06-13T13:08:11Z</time>
      </trkpt>
      <trkpt lat="47.78147" lon="6.97852">
        <ele>439.94</ele>
        <time>2022-06-13T13:08:16Z</time>
      </trkpt>
      <trkpt lat="47.7813" lon="6.979">
        <ele>440.42</ele>
        <time>2022-06-13T13:08:26Z</time>
      </trkpt>
      <trkpt lat="47.7813" lon="6.97904">
        <ele>440.42</ele>
        <time>2022-06-13T13:08:27Z</time>
      </trkpt>
      <trkpt lat="47.7813" lon="6.97913">
        <ele>440.42</ele>
        <time>2022-06-13T13:08:29Z</time>
      </trkpt>
      <trkpt lat="47.78128" lon="6.97917">
        <ele>440.42</ele>
        <time>2022-06-13T13:08:30Z</time>
      </trkpt>
      <trkpt lat="47.78126" lon="6.9792">
        <ele>440.9</ele>
        <time>2022-06-13T13:08:31Z</time>
      </trkpt>
      <trkpt lat="47.78124" lon="6.97922">
        <ele>440.9</ele>
        <time>2022-06-13T13:08:32Z</time>
      </trkpt>
      <trkpt lat="47.7812" lon="6.97923">
        <ele>440.9</ele>
        <time>2022-06-13T13:08:33Z</time>
      </trkpt>
      <trkpt lat="47.78111" lon="6.97934">
        <ele>439.94</ele>
        <time>2022-06-13T13:08:36Z</time>
      </trkpt>
      <trkpt lat="47.78108" lon="6.97939">
        <ele>439.94</ele>
        <time>2022-06-13T13:08:37Z</time>
      </trkpt>
      <trkpt lat="47.78105" lon="6.97944">
        <ele>439.94</ele>
        <time>2022-06-13T13:08:38Z</time>
      </trkpt>
      <trkpt lat="47.78099" lon="6.97955">
        <ele>439.94</ele>
        <time>2022-06-13T13:08:40Z</time>
      </trkpt>
      <trkpt lat="47.78095" lon="6.97961">
        <ele>439.94</ele>
        <time>2022-06-13T13:08:41Z</time>
      </trkpt>
      <trkpt lat="47.78092" lon="6.97966">
        <ele>439.94</ele>
        <time>2022-06-13T13:08:42Z</time>
      </trkpt>
      <trkpt lat="47.78088" lon="6.97972">
        <ele>439.94</ele>
        <time>2022-06-13T13:08:43Z</time>
      </trkpt>
      <trkpt lat="47.78084" lon="6.97978">
        <ele>439.94</ele>
        <time>2022-06-13T13:08:44Z</time>
      </trkpt>
      <trkpt lat="47.7808" lon="6.97983">
        <ele>439.94</ele>
        <time>2022-06-13T13:08:45Z</time>
      </trkpt>
      <trkpt lat="47.78041" lon="6.98041">
        <ele>438.98</ele>
        <time>2022-06-13T13:08:55Z</time>
      </trkpt>
      <trkpt lat="47.78034" lon="6.98053">
        <ele>438.98</ele>
        <time>2022-06-13T13:08:57Z</time>
      </trkpt>
      <trkpt lat="47.78028" lon="6.98066">
        <ele>438.98</ele>
        <time>2022-06-13T13:08:59Z</time>
      </trkpt>
      <trkpt lat="47.78025" lon="6.98073">
        <ele>438.98</ele>
        <time>2022-06-13T13:09:00Z</time>
      </trkpt>
      <trkpt lat="47.78016" lon="6.98097">
        <ele>438.98</ele>
        <time>2022-06-13T13:09:03Z</time>
      </trkpt>
      <trkpt lat="47.78013" lon="6.98105">
        <ele>438.98</ele>
        <time>2022-06-13T13:09:04Z</time>
      </trkpt>
      <trkpt lat="47.78008" lon="6.9812">
        <ele>438.98</ele>
        <time>2022-06-13T13:09:06Z</time>
      </trkpt>
      <trkpt lat="47.78006" lon="6.98128">
        <ele>438.5</ele>
        <time>2022-06-13T13:09:07Z</time>
      </trkpt>
      <trkpt lat="47.78001" lon="6.98141">
        <ele>438.5</ele>
        <time>2022-06-13T13:09:09Z</time>
      </trkpt>
      <trkpt lat="47.77998" lon="6.98148">
        <ele>438.5</ele>
        <time>2022-06-13T13:09:10Z</time>
      </trkpt>
      <trkpt lat="47.77993" lon="6.98164">
        <ele>438.02</ele>
        <time>2022-06-13T13:09:12Z</time>
      </trkpt>
      <trkpt lat="47.77982" lon="6.98214">
        <ele>438.02</ele>
        <time>2022-06-13T13:09:18Z</time>
      </trkpt>
      <trkpt lat="47.77977" lon="6.98228">
        <ele>438.02</ele>
        <time>2022-06-13T13:09:20Z</time>
      </trkpt>
      <trkpt lat="47.77952" lon="6.98343">
        <ele>437.06</ele>
        <time>2022-06-13T13:09:33Z</time>
      </trkpt>
      <trkpt lat="47.77931" lon="6.98449">
        <ele>436.1</ele>
        <time>2022-06-13T13:09:45Z</time>
      </trkpt>
      <trkpt lat="47.77929" lon="6.98456">
        <ele>435.61</ele>
        <time>2022-06-13T13:09:46Z</time>
      </trkpt>
      <trkpt lat="47.77922" lon="6.98489">
        <ele>435.61</ele>
        <time>2022-06-13T13:09:50Z</time>
      </trkpt>
      <trkpt lat="47.77921" lon="6.98497">
        <ele>435.61</ele>
        <time>2022-06-13T13:09:51Z</time>
      </trkpt>
      <trkpt lat="47.77905" lon="6.98587">
        <ele>435.13</ele>
        <time>2022-06-13T13:10:02Z</time>
      </trkpt>
      <trkpt lat="47.779" lon="6.9864">
        <ele>435.13</ele>
        <time>2022-06-13T13:10:08Z</time>
      </trkpt>
      <trkpt lat="47.77905" lon="6.98747">
        <ele>434.65</ele>
        <time>2022-06-13T13:10:20Z</time>
      </trkpt>
      <trkpt lat="47.77907" lon="6.98756">
        <ele>434.65</ele>
        <time>2022-06-13T13:10:21Z</time>
      </trkpt>
      <trkpt lat="47.77919" lon="6.98811">
        <ele>434.17</ele>
        <time>2022-06-13T13:10:28Z</time>
      </trkpt>
      <trkpt lat="47.77921" lon="6.98819">
        <ele>433.69</ele>
        <time>2022-06-13T13:10:29Z</time>
      </trkpt>
      <trkpt lat="47.77924" lon="6.98826">
        <ele>433.69</ele>
        <time>2022-06-13T13:10:30Z</time>
      </trkpt>
      <trkpt lat="47.77926" lon="6.98834">
        <ele>433.69</ele>
        <time>2022-06-13T13:10:31Z</time>
      </trkpt>
      <trkpt lat="47.77929" lon="6.98842">
        <ele>433.69</ele>
        <time>2022-06-13T13:10:32Z</time>
      </trkpt>
      <trkpt lat="47.77932" lon="6.98849">
        <ele>433.69</ele>
        <time>2022-06-13T13:10:33Z</time>
      </trkpt>
      <trkpt lat="47.77959" lon="6.98929">
        <ele>432.73</ele>
        <time>2022-06-13T13:10:43Z</time>
      </trkpt>
      <trkpt lat="47.77963" lon="6.98946">
        <ele>432.73</ele>
        <time>2022-06-13T13:10:45Z</time>
      </trkpt>
      <trkpt lat="47.7798" lon="6.99066">
        <ele>432.73</ele>
        <time>2022-06-13T13:11:00Z</time>
      </trkpt>
      <trkpt lat="47.77977" lon="6.99191">
        <ele>432.73</ele>
        <time>2022-06-13T13:11:16Z</time>
      </trkpt>
      <trkpt lat="47.77976" lon="6.99199">
        <ele>432.73</ele>
        <time>2022-06-13T13:11:17Z</time>
      </trkpt>
      <trkpt lat="47.77975" lon="6.99206">
        <ele>432.73</ele>
        <time>2022-06-13T13:11:18Z</time>
      </trkpt>
      <trkpt lat="47.77974" lon="6.99214">
        <ele>432.73</ele>
        <time>2022-06-13T13:11:19Z</time>
      </trkpt>
      <trkpt lat="47.77973" lon="6.99222">
        <ele>432.73</ele>
        <time>2022-06-13T13:11:20Z</time>
      </trkpt>
      <trkpt lat="47.77972" lon="6.9923">
        <ele>432.73</ele>
        <time>2022-06-13T13:11:21Z</time>
      </trkpt>
      <trkpt lat="47.77969" lon="6.99318">
        <ele>432.73</ele>
        <time>2022-06-13T13:11:34Z</time>
      </trkpt>
      <trkpt lat="47.77969" lon="6.99329">
        <ele>432.25</ele>
        <time>2022-06-13T13:11:36Z</time>
      </trkpt>
      <trkpt lat="47.77968" lon="6.99335">
        <ele>432.25</ele>
        <time>2022-06-13T13:11:37Z</time>
      </trkpt>
      <trkpt lat="47.77967" lon="6.99342">
        <ele>432.25</ele>
        <time>2022-06-13T13:11:38Z</time>
      </trkpt>
      <trkpt lat="47.77967" lon="6.99349">
        <ele>432.73</ele>
        <time>2022-06-13T13:11:39Z</time>
      </trkpt>
      <trkpt lat="47.77967" lon="6.99355">
        <ele>432.73</ele>
        <time>2022-06-13T13:11:40Z</time>
      </trkpt>
      <trkpt lat="47.77966" lon="6.99362">
        <ele>432.73</ele>
        <time>2022-06-13T13:11:41Z</time>
      </trkpt>
      <trkpt lat="47.77964" lon="6.99368">
        <ele>432.73</ele>
        <time>2022-06-13T13:11:42Z</time>
      </trkpt>
      <trkpt lat="47.77961" lon="6.99381">
        <ele>432.73</ele>
        <time>2022-06-13T13:11:44Z</time>
      </trkpt>
      <trkpt lat="47.7796" lon="6.99387">
        <ele>432.73</ele>
        <time>2022-06-13T13:11:45Z</time>
      </trkpt>
      <trkpt lat="47.77933" lon="6.99463">
        <ele>431.29</ele>
        <time>2022-06-13T13:11:57Z</time>
      </trkpt>
      <trkpt lat="47.77922" lon="6.99483">
        <ele>431.29</ele>
        <time>2022-06-13T13:12:00Z</time>
      </trkpt>
      <trkpt lat="47.77918" lon="6.99489">
        <ele>431.29</ele>
        <time>2022-06-13T13:12:01Z</time>
      </trkpt>
      <trkpt lat="47.77915" lon="6.99496">
        <ele>430.33</ele>
        <time>2022-06-13T13:12:02Z</time>
      </trkpt>
      <trkpt lat="47.77912" lon="6.99502">
        <ele>430.81</ele>
        <time>2022-06-13T13:12:03Z</time>
      </trkpt>
      <trkpt lat="47.77908" lon="6.9951">
        <ele>430.33</ele>
        <time>2022-06-13T13:12:04Z</time>
      </trkpt>
      <trkpt lat="47.77844" lon="6.99644">
        <ele>428.4</ele>
        <time>2022-06-13T13:12:21Z</time>
      </trkpt>
      <trkpt lat="47.77825" lon="6.99682">
        <ele>427.92</ele>
        <time>2022-06-13T13:12:26Z</time>
      </trkpt>
      <trkpt lat="47.77774" lon="6.99793">
        <ele>426.48</ele>
        <time>2022-06-13T13:12:41Z</time>
      </trkpt>
      <trkpt lat="47.77763" lon="6.99818">
        <ele>426.48</ele>
        <time>2022-06-13T13:12:44Z</time>
      </trkpt>
      <trkpt lat="47.77708" lon="6.9993">
        <ele>425.04</ele>
        <time>2022-06-13T13:12:59Z</time>
      </trkpt>
      <trkpt lat="47.77662" lon="7.0002">
        <ele>422.64</ele>
        <time>2022-06-13T13:13:14Z</time>
      </trkpt>
      <trkpt lat="47.77659" lon="7.00023">
        <ele>422.16</ele>
        <time>2022-06-13T13:13:25Z</time>
      </trkpt>
      <trkpt lat="47.77658" lon="7.00026">
        <ele>422.16</ele>
        <time>2022-06-13T13:13:45Z</time>
      </trkpt>
      <trkpt lat="47.77657" lon="7.00027">
        <ele>422.16</ele>
        <time>2022-06-13T13:14:03Z</time>
      </trkpt>
      <trkpt lat="47.77655" lon="7.00028">
        <ele>421.68</ele>
        <time>2022-06-13T13:14:12Z</time>
      </trkpt>
      <trkpt lat="47.77655" lon="7.0003">
        <ele>421.68</ele>
        <time>2022-06-13T13:14:13Z</time>
      </trkpt>
      <trkpt lat="47.77654" lon="7.00033">
        <ele>421.68</ele>
        <time>2022-06-13T13:14:14Z</time>
      </trkpt>
      <trkpt lat="47.77652" lon="7.00036">
        <ele>421.68</ele>
        <time>2022-06-13T13:14:15Z</time>
      </trkpt>
      <trkpt lat="47.77649" lon="7.0004">
        <ele>421.68</ele>
        <time>2022-06-13T13:14:16Z</time>
      </trkpt>
      <trkpt lat="47.77646" lon="7.00045">
        <ele>421.19</ele>
        <time>2022-06-13T13:14:17Z</time>
      </trkpt>
      <trkpt lat="47.77644" lon="7.00051">
        <ele>421.68</ele>
        <time>2022-06-13T13:14:18Z</time>
      </trkpt>
      <trkpt lat="47.7764" lon="7.00058">
        <ele>421.19</ele>
        <time>2022-06-13T13:14:19Z</time>
      </trkpt>
      <trkpt lat="47.77636" lon="7.00064">
        <ele>421.68</ele>
        <time>2022-06-13T13:14:20Z</time>
      </trkpt>
      <trkpt lat="47.77631" lon="7.00069">
        <ele>421.19</ele>
        <time>2022-06-13T13:14:21Z</time>
      </trkpt>
      <trkpt lat="47.77627" lon="7.00074">
        <ele>421.19</ele>
        <time>2022-06-13T13:14:22Z</time>
      </trkpt>
      <trkpt lat="47.77622" lon="7.00079">
        <ele>421.19</ele>
        <time>2022-06-13T13:14:23Z</time>
      </trkpt>
      <trkpt lat="47.77618" lon="7.00083">
        <ele>421.19</ele>
        <time>2022-06-13T13:14:24Z</time>
      </trkpt>
      <trkpt lat="47.77573" lon="7.00126">
        <ele>420.23</ele>
        <time>2022-06-13T13:14:33Z</time>
      </trkpt>
      <trkpt lat="47.77569" lon="7.0013">
        <ele>420.23</ele>
        <time>2022-06-13T13:14:34Z</time>
      </trkpt>
      <trkpt lat="47.77564" lon="7.00135">
        <ele>420.23</ele>
        <time>2022-06-13T13:14:35Z</time>
      </trkpt>
      <trkpt lat="47.77555" lon="7.00142">
        <ele>420.23</ele>
        <time>2022-06-13T13:14:37Z</time>
      </trkpt>
      <trkpt lat="47.7755" lon="7.00145">
        <ele>420.23</ele>
        <time>2022-06-13T13:14:38Z</time>
      </trkpt>
      <trkpt lat="47.77546" lon="7.00147">
        <ele>420.23</ele>
        <time>2022-06-13T13:14:39Z</time>
      </trkpt>
      <trkpt lat="47.77507" lon="7.00174">
        <ele>418.79</ele>
        <time>2022-06-13T13:14:48Z</time>
      </trkpt>
      <trkpt lat="47.77513" lon="7.00202">
        <ele>418.79</ele>
        <time>2022-06-13T13:14:55Z</time>
      </trkpt>
      <trkpt lat="47.77516" lon="7.00204">
        <ele>419.27</ele>
        <time>2022-06-13T13:14:56Z</time>
      </trkpt>
      <trkpt lat="47.77537" lon="7.00222">
        <ele>420.23</ele>
        <time>2022-06-13T13:15:02Z</time>
      </trkpt>
      <trkpt lat="47.7754" lon="7.00226">
        <ele>420.71</ele>
        <time>2022-06-13T13:15:03Z</time>
      </trkpt>
      <trkpt lat="47.77546" lon="7.00236">
        <ele>420.71</ele>
        <time>2022-06-13T13:15:05Z</time>
      </trkpt>
      <trkpt lat="47.77551" lon="7.00246">
        <ele>420.71</ele>
        <time>2022-06-13T13:15:07Z</time>
      </trkpt>
      <trkpt lat="47.77558" lon="7.00256">
        <ele>421.19</ele>
        <time>2022-06-13T13:15:09Z</time>
      </trkpt>
      <trkpt lat="47.77561" lon="7.00261">
        <ele>421.19</ele>
        <time>2022-06-13T13:15:10Z</time>
      </trkpt>
      <trkpt lat="47.77587" lon="7.00301">
        <ele>422.16</ele>
        <time>2022-06-13T13:15:18Z</time>
      </trkpt>
      <trkpt lat="47.77589" lon="7.00307">
        <ele>422.16</ele>
        <time>2022-06-13T13:15:19Z</time>
      </trkpt>
      <trkpt lat="47.7759" lon="7.00314">
        <ele>422.16</ele>
        <time>2022-06-13T13:15:20Z</time>
      </trkpt>
      <trkpt lat="47.7759" lon="7.00321">
        <ele>422.16</ele>
        <time>2022-06-13T13:15:21Z</time>
      </trkpt>
      <trkpt lat="47.7759" lon="7.00328">
        <ele>422.16</ele>
        <time>2022-06-13T13:15:22Z</time>
      </trkpt>
      <trkpt lat="47.77591" lon="7.00336">
        <ele>422.16</ele>
        <time>2022-06-13T13:15:23Z</time>
      </trkpt>
      <trkpt lat="47.77592" lon="7.00357">
        <ele>422.16</ele>
        <time>2022-06-13T13:15:26Z</time>
      </trkpt>
      <trkpt lat="47.77593" lon="7.00364">
        <ele>422.16</ele>
        <time>2022-06-13T13:15:27Z</time>
      </trkpt>
      <trkpt lat="47.77594" lon="7.0037">
        <ele>422.16</ele>
        <time>2022-06-13T13:15:28Z</time>
      </trkpt>
      <trkpt lat="47.77599" lon="7.00387">
        <ele>422.64</ele>
        <time>2022-06-13T13:15:31Z</time>
      </trkpt>
      <trkpt lat="47.77618" lon="7.00433">
        <ele>424.08</ele>
        <time>2022-06-13T13:15:42Z</time>
      </trkpt>
      <trkpt lat="47.77625" lon="7.00451">
        <ele>425.04</ele>
        <time>2022-06-13T13:15:52Z</time>
      </trkpt>
      <trkpt lat="47.77626" lon="7.00452">
        <ele>425.04</ele>
        <time>2022-06-13T13:16:23Z</time>
      </trkpt>
      <trkpt lat="47.77627" lon="7.00458">
        <ele>425.04</ele>
        <time>2022-06-13T13:16:27Z</time>
      </trkpt>
      <trkpt lat="47.77637" lon="7.00498">
        <ele>427.44</ele>
        <time>2022-06-13T13:16:38Z</time>
      </trkpt>
      <trkpt lat="47.77647" lon="7.00537">
        <ele>429.85</ele>
        <time>2022-06-13T13:16:47Z</time>
      </trkpt>
      <trkpt lat="47.77651" lon="7.00568">
        <ele>431.77</ele>
        <time>2022-06-13T13:16:53Z</time>
      </trkpt>
      <trkpt lat="47.77653" lon="7.00573">
        <ele>432.25</ele>
        <time>2022-06-13T13:16:54Z</time>
      </trkpt>
      <trkpt lat="47.77654" lon="7.00579">
        <ele>432.73</ele>
        <time>2022-06-13T13:16:55Z</time>
      </trkpt>
      <trkpt lat="47.77655" lon="7.00603">
        <ele>433.69</ele>
        <time>2022-06-13T13:16:59Z</time>
      </trkpt>
      <trkpt lat="47.77649" lon="7.00654">
        <ele>434.17</ele>
        <time>2022-06-13T13:17:08Z</time>
      </trkpt>
      <trkpt lat="47.77652" lon="7.00667">
        <ele>434.17</ele>
        <time>2022-06-13T13:17:10Z</time>
      </trkpt>
      <trkpt lat="47.77654" lon="7.00673">
        <ele>433.69</ele>
        <time>2022-06-13T13:17:11Z</time>
      </trkpt>
      <trkpt lat="47.77657" lon="7.00679">
        <ele>433.69</ele>
        <time>2022-06-13T13:17:12Z</time>
      </trkpt>
      <trkpt lat="47.77661" lon="7.00692">
        <ele>433.21</ele>
        <time>2022-06-13T13:17:14Z</time>
      </trkpt>
      <trkpt lat="47.77666" lon="7.00733">
        <ele>433.69</ele>
        <time>2022-06-13T13:17:21Z</time>
      </trkpt>
      <trkpt lat="47.77668" lon="7.00739">
        <ele>433.21</ele>
        <time>2022-06-13T13:17:22Z</time>
      </trkpt>
      <trkpt lat="47.7767" lon="7.00745">
        <ele>433.69</ele>
        <time>2022-06-13T13:17:23Z</time>
      </trkpt>
      <trkpt lat="47.77673" lon="7.00751">
        <ele>433.21</ele>
        <time>2022-06-13T13:17:24Z</time>
      </trkpt>
      <trkpt lat="47.77675" lon="7.00757">
        <ele>433.21</ele>
        <time>2022-06-13T13:17:25Z</time>
      </trkpt>
      <trkpt lat="47.77679" lon="7.00762">
        <ele>433.21</ele>
        <time>2022-06-13T13:17:26Z</time>
      </trkpt>
      <trkpt lat="47.77689" lon="7.00785">
        <ele>433.21</ele>
        <time>2022-06-13T13:17:30Z</time>
      </trkpt>
      <trkpt lat="47.7769" lon="7.00791">
        <ele>433.21</ele>
        <time>2022-06-13T13:17:31Z</time>
      </trkpt>
      <trkpt lat="47.77691" lon="7.00797">
        <ele>433.21</ele>
        <time>2022-06-13T13:17:32Z</time>
      </trkpt>
      <trkpt lat="47.77691" lon="7.00803">
        <ele>433.69</ele>
        <time>2022-06-13T13:17:33Z</time>
      </trkpt>
      <trkpt lat="47.77691" lon="7.00809">
        <ele>433.69</ele>
        <time>2022-06-13T13:17:34Z</time>
      </trkpt>
      <trkpt lat="47.77689" lon="7.00816">
        <ele>433.69</ele>
        <time>2022-06-13T13:17:35Z</time>
      </trkpt>
      <trkpt lat="47.77688" lon="7.00822">
        <ele>433.69</ele>
        <time>2022-06-13T13:17:36Z</time>
      </trkpt>
      <trkpt lat="47.77687" lon="7.00828">
        <ele>433.69</ele>
        <time>2022-06-13T13:17:37Z</time>
      </trkpt>
      <trkpt lat="47.77685" lon="7.00834">
        <ele>433.69</ele>
        <time>2022-06-13T13:17:38Z</time>
      </trkpt>
      <trkpt lat="47.77684" lon="7.0084">
        <ele>433.21</ele>
        <time>2022-06-13T13:17:39Z</time>
      </trkpt>
      <trkpt lat="47.77682" lon="7.00846">
        <ele>433.69</ele>
        <time>2022-06-13T13:17:40Z</time>
      </trkpt>
      <trkpt lat="47.7768" lon="7.00853">
        <ele>433.69</ele>
        <time>2022-06-13T13:17:41Z</time>
      </trkpt>
      <trkpt lat="47.77678" lon="7.00859">
        <ele>433.69</ele>
        <time>2022-06-13T13:17:42Z</time>
      </trkpt>
      <trkpt lat="47.77677" lon="7.00865">
        <ele>434.65</ele>
        <time>2022-06-13T13:17:43Z</time>
      </trkpt>
      <trkpt lat="47.77675" lon="7.00871">
        <ele>434.17</ele>
        <time>2022-06-13T13:17:44Z</time>
      </trkpt>
      <trkpt lat="47.77673" lon="7.00876">
        <ele>434.17</ele>
        <time>2022-06-13T13:17:45Z</time>
      </trkpt>
      <trkpt lat="47.77654" lon="7.00943">
        <ele>437.06</ele>
        <time>2022-06-13T13:17:58Z</time>
      </trkpt>
      <trkpt lat="47.77634" lon="7.00986">
        <ele>439.94</ele>
        <time>2022-06-13T13:18:09Z</time>
      </trkpt>
      <trkpt lat="47.77632" lon="7.00996">
        <ele>440.9</ele>
        <time>2022-06-13T13:18:11Z</time>
      </trkpt>
      <trkpt lat="47.7763" lon="7.01005">
        <ele>441.38</ele>
        <time>2022-06-13T13:18:13Z</time>
      </trkpt>
      <trkpt lat="47.77629" lon="7.01009">
        <ele>441.86</ele>
        <time>2022-06-13T13:18:14Z</time>
      </trkpt>
      <trkpt lat="47.77628" lon="7.01013">
        <ele>442.34</ele>
        <time>2022-06-13T13:18:15Z</time>
      </trkpt>
      <trkpt lat="47.77626" lon="7.01017">
        <ele>442.82</ele>
        <time>2022-06-13T13:18:16Z</time>
      </trkpt>
      <trkpt lat="47.77625" lon="7.0102">
        <ele>442.82</ele>
        <time>2022-06-13T13:18:17Z</time>
      </trkpt>
      <trkpt lat="47.77624" lon="7.01035">
        <ele>443.79</ele>
        <time>2022-06-13T13:18:20Z</time>
      </trkpt>
      <trkpt lat="47.77622" lon="7.01039">
        <ele>444.27</ele>
        <time>2022-06-13T13:18:21Z</time>
      </trkpt>
      <trkpt lat="47.77622" lon="7.01047">
        <ele>444.75</ele>
        <time>2022-06-13T13:18:23Z</time>
      </trkpt>
      <trkpt lat="47.77624" lon="7.01054">
        <ele>445.23</ele>
        <time>2022-06-13T13:18:24Z</time>
      </trkpt>
      <trkpt lat="47.77627" lon="7.01084">
        <ele>447.15</ele>
        <time>2022-06-13T13:18:31Z</time>
      </trkpt>
      <trkpt lat="47.77627" lon="7.01087">
        <ele>448.11</ele>
        <time>2022-06-13T13:18:32Z</time>
      </trkpt>
      <trkpt lat="47.77626" lon="7.0109">
        <ele>448.11</ele>
        <time>2022-06-13T13:18:33Z</time>
      </trkpt>
      <trkpt lat="47.77624" lon="7.01094">
        <ele>448.59</ele>
        <time>2022-06-13T13:18:34Z</time>
      </trkpt>
      <trkpt lat="47.77622" lon="7.01098">
        <ele>449.07</ele>
        <time>2022-06-13T13:18:35Z</time>
      </trkpt>
      <trkpt lat="47.7762" lon="7.011">
        <ele>449.55</ele>
        <time>2022-06-13T13:18:36Z</time>
      </trkpt>
      <trkpt lat="47.77618" lon="7.0111">
        <ele>451</ele>
        <time>2022-06-13T13:18:39Z</time>
      </trkpt>
      <trkpt lat="47.77617" lon="7.01113">
        <ele>451</ele>
        <time>2022-06-13T13:18:40Z</time>
      </trkpt>
      <trkpt lat="47.77616" lon="7.01116">
        <ele>451.48</ele>
        <time>2022-06-13T13:18:41Z</time>
      </trkpt>
      <trkpt lat="47.77616" lon="7.01119">
        <ele>451.96</ele>
        <time>2022-06-13T13:18:42Z</time>
      </trkpt>
      <trkpt lat="47.77615" lon="7.01123">
        <ele>452.44</ele>
        <time>2022-06-13T13:18:43Z</time>
      </trkpt>
      <trkpt lat="47.77612" lon="7.01126">
        <ele>452.92</ele>
        <time>2022-06-13T13:18:44Z</time>
      </trkpt>
      <trkpt lat="47.77596" lon="7.01155">
        <ele>455.32</ele>
        <time>2022-06-13T13:18:51Z</time>
      </trkpt>
      <trkpt lat="47.77592" lon="7.01159">
        <ele>455.8</ele>
        <time>2022-06-13T13:18:52Z</time>
      </trkpt>
      <trkpt lat="47.77589" lon="7.01162">
        <ele>456.28</ele>
        <time>2022-06-13T13:18:53Z</time>
      </trkpt>
      <trkpt lat="47.77578" lon="7.01179">
        <ele>458.21</ele>
        <time>2022-06-13T13:18:58Z</time>
      </trkpt>
      <trkpt lat="47.77555" lon="7.01212">
        <ele>460.13</ele>
        <time>2022-06-13T13:19:08Z</time>
      </trkpt>
      <trkpt lat="47.77549" lon="7.01222">
        <ele>461.57</ele>
        <time>2022-06-13T13:19:11Z</time>
      </trkpt>
      <trkpt lat="47.77528" lon="7.01263">
        <ele>464.93</ele>
        <time>2022-06-13T13:19:21Z</time>
      </trkpt>
      <trkpt lat="47.77527" lon="7.01267">
        <ele>464.93</ele>
        <time>2022-06-13T13:19:22Z</time>
      </trkpt>
      <trkpt lat="47.77523" lon="7.01286">
        <ele>466.38</ele>
        <time>2022-06-13T13:19:27Z</time>
      </trkpt>
      <trkpt lat="47.77523" lon="7.01304">
        <ele>468.3</ele>
        <time>2022-06-13T13:19:32Z</time>
      </trkpt>
      <trkpt lat="47.77523" lon="7.01307">
        <ele>468.78</ele>
        <time>2022-06-13T13:19:33Z</time>
      </trkpt>
      <trkpt lat="47.77524" lon="7.0131">
        <ele>469.26</ele>
        <time>2022-06-13T13:19:34Z</time>
      </trkpt>
      <trkpt lat="47.77519" lon="7.01347">
        <ele>472.14</ele>
        <time>2022-06-13T13:19:43Z</time>
      </trkpt>
      <trkpt lat="47.77517" lon="7.0139">
        <ele>475.51</ele>
        <time>2022-06-13T13:19:52Z</time>
      </trkpt>
      <trkpt lat="47.77515" lon="7.01416">
        <ele>478.87</ele>
        <time>2022-06-13T13:20:00Z</time>
      </trkpt>
      <trkpt lat="47.77514" lon="7.0142">
        <ele>478.87</ele>
        <time>2022-06-13T13:20:01Z</time>
      </trkpt>
      <trkpt lat="47.77513" lon="7.01423">
        <ele>479.35</ele>
        <time>2022-06-13T13:20:02Z</time>
      </trkpt>
      <trkpt lat="47.77513" lon="7.01427">
        <ele>479.84</ele>
        <time>2022-06-13T13:20:03Z</time>
      </trkpt>
      <trkpt lat="47.77512" lon="7.0143">
        <ele>479.84</ele>
        <time>2022-06-13T13:20:04Z</time>
      </trkpt>
      <trkpt lat="47.77511" lon="7.01433">
        <ele>480.32</ele>
        <time>2022-06-13T13:20:05Z</time>
      </trkpt>
      <trkpt lat="47.7751" lon="7.01436">
        <ele>480.8</ele>
        <time>2022-06-13T13:20:06Z</time>
      </trkpt>
      <trkpt lat="47.77508" lon="7.0144">
        <ele>481.28</ele>
        <time>2022-06-13T13:20:07Z</time>
      </trkpt>
      <trkpt lat="47.77507" lon="7.01443">
        <ele>481.28</ele>
        <time>2022-06-13T13:20:08Z</time>
      </trkpt>
      <trkpt lat="47.77505" lon="7.01447">
        <ele>482.24</ele>
        <time>2022-06-13T13:20:09Z</time>
      </trkpt>
      <trkpt lat="47.77503" lon="7.0145">
        <ele>482.72</ele>
        <time>2022-06-13T13:20:10Z</time>
      </trkpt>
      <trkpt lat="47.775" lon="7.01463">
        <ele>483.68</ele>
        <time>2022-06-13T13:20:13Z</time>
      </trkpt>
      <trkpt lat="47.77498" lon="7.01466">
        <ele>484.16</ele>
        <time>2022-06-13T13:20:14Z</time>
      </trkpt>
      <trkpt lat="47.77497" lon="7.01469">
        <ele>484.16</ele>
        <time>2022-06-13T13:20:15Z</time>
      </trkpt>
      <trkpt lat="47.77496" lon="7.01472">
        <ele>484.64</ele>
        <time>2022-06-13T13:20:16Z</time>
      </trkpt>
      <trkpt lat="47.77495" lon="7.01477">
        <ele>485.12</ele>
        <time>2022-06-13T13:20:17Z</time>
      </trkpt>
      <trkpt lat="47.77492" lon="7.01505">
        <ele>488.01</ele>
        <time>2022-06-13T13:20:25Z</time>
      </trkpt>
      <trkpt lat="47.77497" lon="7.01533">
        <ele>490.89</ele>
        <time>2022-06-13T13:20:33Z</time>
      </trkpt>
      <trkpt lat="47.77496" lon="7.01535">
        <ele>491.85</ele>
        <time>2022-06-13T13:20:34Z</time>
      </trkpt>
      <trkpt lat="47.77495" lon="7.01538">
        <ele>492.33</ele>
        <time>2022-06-13T13:20:35Z</time>
      </trkpt>
      <trkpt lat="47.77495" lon="7.0154">
        <ele>492.33</ele>
        <time>2022-06-13T13:20:36Z</time>
      </trkpt>
      <trkpt lat="47.77494" lon="7.01544">
        <ele>492.81</ele>
        <time>2022-06-13T13:20:37Z</time>
      </trkpt>
      <trkpt lat="47.77494" lon="7.01566">
        <ele>495.7</ele>
        <time>2022-06-13T13:20:44Z</time>
      </trkpt>
      <trkpt lat="47.775" lon="7.01568">
        <ele>496.66</ele>
        <time>2022-06-13T13:20:47Z</time>
      </trkpt>
      <trkpt lat="47.7753" lon="7.0156">
        <ele>500.02</ele>
        <time>2022-06-13T13:20:58Z</time>
      </trkpt>
      <trkpt lat="47.77555" lon="7.0156">
        <ele>502.43</ele>
        <time>2022-06-13T13:21:07Z</time>
      </trkpt>
      <trkpt lat="47.77574" lon="7.01564">
        <ele>503.87</ele>
        <time>2022-06-13T13:21:12Z</time>
      </trkpt>
      <trkpt lat="47.77608" lon="7.01569">
        <ele>506.75</ele>
        <time>2022-06-13T13:21:23Z</time>
      </trkpt>
      <trkpt lat="47.77641" lon="7.01571">
        <ele>510.12</ele>
        <time>2022-06-13T13:21:33Z</time>
      </trkpt>
      <trkpt lat="47.77667" lon="7.01582">
        <ele>513.48</ele>
        <time>2022-06-13T13:21:42Z</time>
      </trkpt>
      <trkpt lat="47.77688" lon="7.01591">
        <ele>515.4</ele>
        <time>2022-06-13T13:21:48Z</time>
      </trkpt>
      <trkpt lat="47.77707" lon="7.0161">
        <ele>518.77</ele>
        <time>2022-06-13T13:21:55Z</time>
      </trkpt>
      <trkpt lat="47.77709" lon="7.01618">
        <ele>519.73</ele>
        <time>2022-06-13T13:21:57Z</time>
      </trkpt>
      <trkpt lat="47.77708" lon="7.01627">
        <ele>520.69</ele>
        <time>2022-06-13T13:21:58Z</time>
      </trkpt>
      <trkpt lat="47.77677" lon="7.01652">
        <ele>524.06</ele>
        <time>2022-06-13T13:22:09Z</time>
      </trkpt>
      <trkpt lat="47.7766" lon="7.01663">
        <ele>527.42</ele>
        <time>2022-06-13T13:22:15Z</time>
      </trkpt>
      <trkpt lat="47.77635" lon="7.01684">
        <ele>530.3</ele>
        <time>2022-06-13T13:22:23Z</time>
      </trkpt>
      <trkpt lat="47.77612" lon="7.0171">
        <ele>532.71</ele>
        <time>2022-06-13T13:22:31Z</time>
      </trkpt>
      <trkpt lat="47.77596" lon="7.01726">
        <ele>533.67</ele>
        <time>2022-06-13T13:22:36Z</time>
      </trkpt>
      <trkpt lat="47.77558" lon="7.01743">
        <ele>535.59</ele>
        <time>2022-06-13T13:22:47Z</time>
      </trkpt>
      <trkpt lat="47.77522" lon="7.0177">
        <ele>537.99</ele>
        <time>2022-06-13T13:22:57Z</time>
      </trkpt>
      <trkpt lat="47.77516" lon="7.01778">
        <ele>538.48</ele>
        <time>2022-06-13T13:22:59Z</time>
      </trkpt>
      <trkpt lat="47.77495" lon="7.01796">
        <ele>539.92</ele>
        <time>2022-06-13T13:23:05Z</time>
      </trkpt>
      <trkpt lat="47.77491" lon="7.01799">
        <ele>539.92</ele>
        <time>2022-06-13T13:23:06Z</time>
      </trkpt>
      <trkpt lat="47.77487" lon="7.01803">
        <ele>540.4</ele>
        <time>2022-06-13T13:23:07Z</time>
      </trkpt>
      <trkpt lat="47.77478" lon="7.01813">
        <ele>540.88</ele>
        <time>2022-06-13T13:23:10Z</time>
      </trkpt>
      <trkpt lat="47.77474" lon="7.01817">
        <ele>540.88</ele>
        <time>2022-06-13T13:23:11Z</time>
      </trkpt>
      <trkpt lat="47.77468" lon="7.01823">
        <ele>541.84</ele>
        <time>2022-06-13T13:23:13Z</time>
      </trkpt>
      <trkpt lat="47.77461" lon="7.01829">
        <ele>542.32</ele>
        <time>2022-06-13T13:23:15Z</time>
      </trkpt>
      <trkpt lat="47.77454" lon="7.01835">
        <ele>542.8</ele>
        <time>2022-06-13T13:23:17Z</time>
      </trkpt>
      <trkpt lat="47.77438" lon="7.01844">
        <ele>544.24</ele>
        <time>2022-06-13T13:23:21Z</time>
      </trkpt>
      <trkpt lat="47.77426" lon="7.01845">
        <ele>545.2</ele>
        <time>2022-06-13T13:23:24Z</time>
      </trkpt>
      <trkpt lat="47.77422" lon="7.01845">
        <ele>545.2</ele>
        <time>2022-06-13T13:23:25Z</time>
      </trkpt>
      <trkpt lat="47.77418" lon="7.01843">
        <ele>545.2</ele>
        <time>2022-06-13T13:23:26Z</time>
      </trkpt>
      <trkpt lat="47.77414" lon="7.01841">
        <ele>546.17</ele>
        <time>2022-06-13T13:23:27Z</time>
      </trkpt>
      <trkpt lat="47.77412" lon="7.01838">
        <ele>546.17</ele>
        <time>2022-06-13T13:23:28Z</time>
      </trkpt>
      <trkpt lat="47.77382" lon="7.01801">
        <ele>548.09</ele>
        <time>2022-06-13T13:23:39Z</time>
      </trkpt>
      <trkpt lat="47.77378" lon="7.018">
        <ele>548.57</ele>
        <time>2022-06-13T13:23:40Z</time>
      </trkpt>
      <trkpt lat="47.77374" lon="7.018">
        <ele>548.57</ele>
        <time>2022-06-13T13:23:41Z</time>
      </trkpt>
      <trkpt lat="47.77369" lon="7.01801">
        <ele>549.05</ele>
        <time>2022-06-13T13:23:42Z</time>
      </trkpt>
      <trkpt lat="47.77365" lon="7.01802">
        <ele>549.05</ele>
        <time>2022-06-13T13:23:43Z</time>
      </trkpt>
      <trkpt lat="47.7736" lon="7.01805">
        <ele>549.05</ele>
        <time>2022-06-13T13:23:44Z</time>
      </trkpt>
      <trkpt lat="47.77356" lon="7.01808">
        <ele>549.53</ele>
        <time>2022-06-13T13:23:45Z</time>
      </trkpt>
      <trkpt lat="47.77352" lon="7.01813">
        <ele>549.53</ele>
        <time>2022-06-13T13:23:46Z</time>
      </trkpt>
      <trkpt lat="47.77341" lon="7.01858">
        <ele>552.9</ele>
        <time>2022-06-13T13:23:55Z</time>
      </trkpt>
      <trkpt lat="47.77362" lon="7.01895">
        <ele>555.78</ele>
        <time>2022-06-13T13:24:04Z</time>
      </trkpt>
      <trkpt lat="47.77384" lon="7.01916">
        <ele>558.66</ele>
        <time>2022-06-13T13:24:12Z</time>
      </trkpt>
      <trkpt lat="47.77417" lon="7.01927">
        <ele>561.55</ele>
        <time>2022-06-13T13:24:23Z</time>
      </trkpt>
      <trkpt lat="47.77452" lon="7.01925">
        <ele>564.43</ele>
        <time>2022-06-13T13:24:32Z</time>
      </trkpt>
      <trkpt lat="47.77475" lon="7.01916">
        <ele>566.83</ele>
        <time>2022-06-13T13:24:40Z</time>
      </trkpt>
      <trkpt lat="47.77508" lon="7.01909">
        <ele>568.76</ele>
        <time>2022-06-13T13:24:50Z</time>
      </trkpt>
      <trkpt lat="47.77541" lon="7.01917">
        <ele>571.64</ele>
        <time>2022-06-13T13:25:01Z</time>
      </trkpt>
      <trkpt lat="47.77565" lon="7.01934">
        <ele>574.53</ele>
        <time>2022-06-13T13:25:11Z</time>
      </trkpt>
      <trkpt lat="47.77571" lon="7.01937">
        <ele>576.45</ele>
        <time>2022-06-13T13:25:13Z</time>
      </trkpt>
      <trkpt lat="47.77613" lon="7.01949">
        <ele>578.85</ele>
        <time>2022-06-13T13:25:26Z</time>
      </trkpt>
      <trkpt lat="47.77701" lon="7.01945">
        <ele>581.73</ele>
        <time>2022-06-13T13:25:36Z</time>
      </trkpt>
      <trkpt lat="47.77733" lon="7.01942">
        <ele>584.62</ele>
        <time>2022-06-13T13:25:46Z</time>
      </trkpt>
      <trkpt lat="47.77764" lon="7.01911">
        <ele>587.5</ele>
        <time>2022-06-13T13:25:56Z</time>
      </trkpt>
      <trkpt lat="47.77775" lon="7.01902">
        <ele>588.46</ele>
        <time>2022-06-13T13:25:59Z</time>
      </trkpt>
      <trkpt lat="47.77815" lon="7.01876">
        <ele>591.83</ele>
        <time>2022-06-13T13:26:11Z</time>
      </trkpt>
      <trkpt lat="47.77832" lon="7.01863">
        <ele>593.27</ele>
        <time>2022-06-13T13:26:16Z</time>
      </trkpt>
      <trkpt lat="47.77868" lon="7.01831">
        <ele>596.64</ele>
        <time>2022-06-13T13:26:26Z</time>
      </trkpt>
      <trkpt lat="47.77872" lon="7.01828">
        <ele>596.64</ele>
        <time>2022-06-13T13:26:27Z</time>
      </trkpt>
      <trkpt lat="47.77909" lon="7.01799">
        <ele>600</ele>
        <time>2022-06-13T13:26:38Z</time>
      </trkpt>
      <trkpt lat="47.77932" lon="7.01807">
        <ele>602.88</ele>
        <time>2022-06-13T13:26:48Z</time>
      </trkpt>
      <trkpt lat="47.77967" lon="7.01866">
        <ele>605.29</ele>
        <time>2022-06-13T13:26:59Z</time>
      </trkpt>
      <trkpt lat="47.77996" lon="7.01922">
        <ele>608.17</ele>
        <time>2022-06-13T13:27:10Z</time>
      </trkpt>
      <trkpt lat="47.78012" lon="7.01969">
        <ele>610.57</ele>
        <time>2022-06-13T13:27:19Z</time>
      </trkpt>
      <trkpt lat="47.78013" lon="7.01974">
        <ele>610.57</ele>
        <time>2022-06-13T13:27:20Z</time>
      </trkpt>
      <trkpt lat="47.78027" lon="7.02017">
        <ele>612.5</ele>
        <time>2022-06-13T13:27:28Z</time>
      </trkpt>
      <trkpt lat="47.78029" lon="7.02024">
        <ele>612.98</ele>
        <time>2022-06-13T13:27:29Z</time>
      </trkpt>
      <trkpt lat="47.7803" lon="7.02029">
        <ele>612.98</ele>
        <time>2022-06-13T13:27:30Z</time>
      </trkpt>
      <trkpt lat="47.78045" lon="7.02085">
        <ele>613.46</ele>
        <time>2022-06-13T13:27:39Z</time>
      </trkpt>
      <trkpt lat="47.78047" lon="7.02091">
        <ele>613.94</ele>
        <time>2022-06-13T13:27:40Z</time>
      </trkpt>
      <trkpt lat="47.78049" lon="7.02096">
        <ele>613.46</ele>
        <time>2022-06-13T13:27:41Z</time>
      </trkpt>
      <trkpt lat="47.7805" lon="7.02101">
        <ele>613.94</ele>
        <time>2022-06-13T13:27:42Z</time>
      </trkpt>
      <trkpt lat="47.78052" lon="7.02106">
        <ele>614.42</ele>
        <time>2022-06-13T13:27:43Z</time>
      </trkpt>
      <trkpt lat="47.78055" lon="7.0211">
        <ele>614.42</ele>
        <time>2022-06-13T13:27:44Z</time>
      </trkpt>
      <trkpt lat="47.78058" lon="7.02114">
        <ele>614.42</ele>
        <time>2022-06-13T13:27:45Z</time>
      </trkpt>
      <trkpt lat="47.7806" lon="7.02118">
        <ele>614.42</ele>
        <time>2022-06-13T13:27:46Z</time>
      </trkpt>
      <trkpt lat="47.7809" lon="7.02145">
        <ele>615.38</ele>
        <time>2022-06-13T13:27:56Z</time>
      </trkpt>
      <trkpt lat="47.78122" lon="7.02134">
        <ele>616.34</ele>
        <time>2022-06-13T13:28:04Z</time>
      </trkpt>
      <trkpt lat="47.78126" lon="7.02132">
        <ele>616.34</ele>
        <time>2022-06-13T13:28:05Z</time>
      </trkpt>
      <trkpt lat="47.7813" lon="7.0213">
        <ele>616.34</ele>
        <time>2022-06-13T13:28:06Z</time>
      </trkpt>
      <trkpt lat="47.78135" lon="7.02128">
        <ele>616.34</ele>
        <time>2022-06-13T13:28:07Z</time>
      </trkpt>
      <trkpt lat="47.78139" lon="7.02125">
        <ele>616.34</ele>
        <time>2022-06-13T13:28:08Z</time>
      </trkpt>
      <trkpt lat="47.78174" lon="7.02116">
        <ele>615.38</ele>
        <time>2022-06-13T13:28:17Z</time>
      </trkpt>
      <trkpt lat="47.78209" lon="7.02123">
        <ele>615.38</ele>
        <time>2022-06-13T13:28:26Z</time>
      </trkpt>
      <trkpt lat="47.78213" lon="7.02121">
        <ele>615.38</ele>
        <time>2022-06-13T13:28:27Z</time>
      </trkpt>
      <trkpt lat="47.78218" lon="7.02118">
        <ele>615.38</ele>
        <time>2022-06-13T13:28:28Z</time>
      </trkpt>
      <trkpt lat="47.78245" lon="7.02089">
        <ele>615.38</ele>
        <time>2022-06-13T13:28:34Z</time>
      </trkpt>
      <trkpt lat="47.7825" lon="7.02084">
        <ele>615.38</ele>
        <time>2022-06-13T13:28:35Z</time>
      </trkpt>
      <trkpt lat="47.78253" lon="7.02077">
        <ele>615.38</ele>
        <time>2022-06-13T13:28:36Z</time>
      </trkpt>
      <trkpt lat="47.78257" lon="7.02072">
        <ele>614.9</ele>
        <time>2022-06-13T13:28:37Z</time>
      </trkpt>
      <trkpt lat="47.78262" lon="7.02068">
        <ele>614.9</ele>
        <time>2022-06-13T13:28:38Z</time>
      </trkpt>
      <trkpt lat="47.78267" lon="7.02064">
        <ele>614.42</ele>
        <time>2022-06-13T13:28:39Z</time>
      </trkpt>
      <trkpt lat="47.78272" lon="7.0206">
        <ele>614.42</ele>
        <time>2022-06-13T13:28:40Z</time>
      </trkpt>
      <trkpt lat="47.78277" lon="7.02058">
        <ele>614.42</ele>
        <time>2022-06-13T13:28:41Z</time>
      </trkpt>
      <trkpt lat="47.78282" lon="7.02057">
        <ele>614.42</ele>
        <time>2022-06-13T13:28:42Z</time>
      </trkpt>
      <trkpt lat="47.78326" lon="7.02048">
        <ele>615.38</ele>
        <time>2022-06-13T13:28:52Z</time>
      </trkpt>
      <trkpt lat="47.78331" lon="7.02048">
        <ele>615.38</ele>
        <time>2022-06-13T13:28:53Z</time>
      </trkpt>
      <trkpt lat="47.7834" lon="7.0205">
        <ele>615.38</ele>
        <time>2022-06-13T13:28:55Z</time>
      </trkpt>
      <trkpt lat="47.78346" lon="7.02052">
        <ele>615.86</ele>
        <time>2022-06-13T13:28:56Z</time>
      </trkpt>
      <trkpt lat="47.78352" lon="7.02055">
        <ele>615.86</ele>
        <time>2022-06-13T13:28:57Z</time>
      </trkpt>
      <trkpt lat="47.78356" lon="7.02057">
        <ele>615.86</ele>
        <time>2022-06-13T13:28:58Z</time>
      </trkpt>
      <trkpt lat="47.78359" lon="7.02059">
        <ele>615.86</ele>
        <time>2022-06-13T13:28:59Z</time>
      </trkpt>
      <trkpt lat="47.78367" lon="7.02065">
        <ele>615.38</ele>
        <time>2022-06-13T13:29:01Z</time>
      </trkpt>
      <trkpt lat="47.78372" lon="7.02069">
        <ele>615.38</ele>
        <time>2022-06-13T13:29:02Z</time>
      </trkpt>
      <trkpt lat="47.78381" lon="7.0208">
        <ele>615.86</ele>
        <time>2022-06-13T13:29:04Z</time>
      </trkpt>
      <trkpt lat="47.78401" lon="7.02109">
        <ele>615.38</ele>
        <time>2022-06-13T13:29:09Z</time>
      </trkpt>
      <trkpt lat="47.78416" lon="7.02138">
        <ele>615.38</ele>
        <time>2022-06-13T13:29:14Z</time>
      </trkpt>
      <trkpt lat="47.7842" lon="7.0215">
        <ele>615.38</ele>
        <time>2022-06-13T13:29:16Z</time>
      </trkpt>
      <trkpt lat="47.78424" lon="7.02163">
        <ele>614.9</ele>
        <time>2022-06-13T13:29:18Z</time>
      </trkpt>
      <trkpt lat="47.78427" lon="7.0217">
        <ele>614.42</ele>
        <time>2022-06-13T13:29:19Z</time>
      </trkpt>
      <trkpt lat="47.78433" lon="7.02181">
        <ele>614.42</ele>
        <time>2022-06-13T13:29:21Z</time>
      </trkpt>
      <trkpt lat="47.78437" lon="7.02185">
        <ele>614.42</ele>
        <time>2022-06-13T13:29:22Z</time>
      </trkpt>
      <trkpt lat="47.78441" lon="7.02188">
        <ele>614.42</ele>
        <time>2022-06-13T13:29:23Z</time>
      </trkpt>
      <trkpt lat="47.78446" lon="7.0219">
        <ele>614.42</ele>
        <time>2022-06-13T13:29:24Z</time>
      </trkpt>
      <trkpt lat="47.7845" lon="7.02191">
        <ele>614.42</ele>
        <time>2022-06-13T13:29:25Z</time>
      </trkpt>
      <trkpt lat="47.78453" lon="7.02193">
        <ele>613.94</ele>
        <time>2022-06-13T13:29:26Z</time>
      </trkpt>
      <trkpt lat="47.78483" lon="7.02209">
        <ele>613.46</ele>
        <time>2022-06-13T13:29:36Z</time>
      </trkpt>
      <trkpt lat="47.78517" lon="7.02255">
        <ele>613.46</ele>
        <time>2022-06-13T13:29:45Z</time>
      </trkpt>
      <trkpt lat="47.7854" lon="7.02283">
        <ele>613.46</ele>
        <time>2022-06-13T13:29:49Z</time>
      </trkpt>
      <trkpt lat="47.78546" lon="7.02289">
        <ele>613.46</ele>
        <time>2022-06-13T13:29:50Z</time>
      </trkpt>
      <trkpt lat="47.78551" lon="7.02294">
        <ele>613.46</ele>
        <time>2022-06-13T13:29:51Z</time>
      </trkpt>
      <trkpt lat="47.78555" lon="7.02298">
        <ele>613.46</ele>
        <time>2022-06-13T13:29:52Z</time>
      </trkpt>
      <trkpt lat="47.78559" lon="7.02303">
        <ele>613.46</ele>
        <time>2022-06-13T13:29:53Z</time>
      </trkpt>
      <trkpt lat="47.78563" lon="7.02307">
        <ele>613.46</ele>
        <time>2022-06-13T13:29:54Z</time>
      </trkpt>
      <trkpt lat="47.78604" lon="7.02358">
        <ele>613.46</ele>
        <time>2022-06-13T13:30:06Z</time>
      </trkpt>
      <trkpt lat="47.78614" lon="7.02369">
        <ele>613.94</ele>
        <time>2022-06-13T13:30:09Z</time>
      </trkpt>
      <trkpt lat="47.78638" lon="7.024">
        <ele>613.46</ele>
        <time>2022-06-13T13:30:15Z</time>
      </trkpt>
      <trkpt lat="47.78681" lon="7.02473">
        <ele>612.98</ele>
        <time>2022-06-13T13:30:29Z</time>
      </trkpt>
      <trkpt lat="47.78682" lon="7.02474">
        <ele>612.98</ele>
        <time>2022-06-13T13:30:30Z</time>
      </trkpt>
      <trkpt lat="47.78683" lon="7.02476">
        <ele>612.98</ele>
        <time>2022-06-13T13:30:31Z</time>
      </trkpt>
      <trkpt lat="47.78684" lon="7.02477">
        <ele>612.5</ele>
        <time>2022-06-13T13:30:32Z</time>
      </trkpt>
      <trkpt lat="47.78685" lon="7.0248">
        <ele>612.5</ele>
        <time>2022-06-13T13:30:33Z</time>
      </trkpt>
      <trkpt lat="47.78686" lon="7.02483">
        <ele>612.5</ele>
        <time>2022-06-13T13:30:34Z</time>
      </trkpt>
      <trkpt lat="47.78687" lon="7.02486">
        <ele>612.98</ele>
        <time>2022-06-13T13:30:35Z</time>
      </trkpt>
      <trkpt lat="47.78688" lon="7.02488">
        <ele>612.5</ele>
        <time>2022-06-13T13:30:36Z</time>
      </trkpt>
      <trkpt lat="47.78689" lon="7.02491">
        <ele>612.5</ele>
        <time>2022-06-13T13:30:37Z</time>
      </trkpt>
      <trkpt lat="47.787" lon="7.02505">
        <ele>611.54</ele>
        <time>2022-06-13T13:30:45Z</time>
      </trkpt>
      <trkpt lat="47.78701" lon="7.02508">
        <ele>611.54</ele>
        <time>2022-06-13T13:30:46Z</time>
      </trkpt>
      <trkpt lat="47.78703" lon="7.0251">
        <ele>611.54</ele>
        <time>2022-06-13T13:30:47Z</time>
      </trkpt>
      <trkpt lat="47.7873" lon="7.02539">
        <ele>608.17</ele>
        <time>2022-06-13T13:30:59Z</time>
      </trkpt>
      <trkpt lat="47.78735" lon="7.02536">
        <ele>607.69</ele>
        <time>2022-06-13T13:31:00Z</time>
      </trkpt>
      <trkpt lat="47.7874" lon="7.02532">
        <ele>607.21</ele>
        <time>2022-06-13T13:31:01Z</time>
      </trkpt>
      <trkpt lat="47.78744" lon="7.02527">
        <ele>606.25</ele>
        <time>2022-06-13T13:31:02Z</time>
      </trkpt>
      <trkpt lat="47.78747" lon="7.02521">
        <ele>606.25</ele>
        <time>2022-06-13T13:31:03Z</time>
      </trkpt>
      <trkpt lat="47.78751" lon="7.02515">
        <ele>606.25</ele>
        <time>2022-06-13T13:31:04Z</time>
      </trkpt>
      <trkpt lat="47.78755" lon="7.0251">
        <ele>605.77</ele>
        <time>2022-06-13T13:31:05Z</time>
      </trkpt>
      <trkpt lat="47.78759" lon="7.02506">
        <ele>605.77</ele>
        <time>2022-06-13T13:31:06Z</time>
      </trkpt>
      <trkpt lat="47.7878" lon="7.02487">
        <ele>607.69</ele>
        <time>2022-06-13T13:31:14Z</time>
      </trkpt>
      <trkpt lat="47.78783" lon="7.02487">
        <ele>607.69</ele>
        <time>2022-06-13T13:31:15Z</time>
      </trkpt>
      <trkpt lat="47.78786" lon="7.0249">
        <ele>609.61</ele>
        <time>2022-06-13T13:31:16Z</time>
      </trkpt>
      <trkpt lat="47.78789" lon="7.02494">
        <ele>608.17</ele>
        <time>2022-06-13T13:31:17Z</time>
      </trkpt>
      <trkpt lat="47.78792" lon="7.02499">
        <ele>607.69</ele>
        <time>2022-06-13T13:31:18Z</time>
      </trkpt>
      <trkpt lat="47.78796" lon="7.02503">
        <ele>607.69</ele>
        <time>2022-06-13T13:31:19Z</time>
      </trkpt>
      <trkpt lat="47.7883" lon="7.02535">
        <ele>605.77</ele>
        <time>2022-06-13T13:31:27Z</time>
      </trkpt>
      <trkpt lat="47.78835" lon="7.02537">
        <ele>605.77</ele>
        <time>2022-06-13T13:31:28Z</time>
      </trkpt>
      <trkpt lat="47.78847" lon="7.02541">
        <ele>604.81</ele>
        <time>2022-06-13T13:31:31Z</time>
      </trkpt>
      <trkpt lat="47.78856" lon="7.02545">
        <ele>604.33</ele>
        <time>2022-06-13T13:31:33Z</time>
      </trkpt>
      <trkpt lat="47.78875" lon="7.02552">
        <ele>603.36</ele>
        <time>2022-06-13T13:31:37Z</time>
      </trkpt>
      <trkpt lat="47.78878" lon="7.02555">
        <ele>602.88</ele>
        <time>2022-06-13T13:31:38Z</time>
      </trkpt>
      <trkpt lat="47.78882" lon="7.02558">
        <ele>601.92</ele>
        <time>2022-06-13T13:31:39Z</time>
      </trkpt>
      <trkpt lat="47.78886" lon="7.0256">
        <ele>600.48</ele>
        <time>2022-06-13T13:31:40Z</time>
      </trkpt>
      <trkpt lat="47.7889" lon="7.02561">
        <ele>599.52</ele>
        <time>2022-06-13T13:31:41Z</time>
      </trkpt>
      <trkpt lat="47.78902" lon="7.02559">
        <ele>597.12</ele>
        <time>2022-06-13T13:31:45Z</time>
      </trkpt>
      <trkpt lat="47.78903" lon="7.02557">
        <ele>596.15</ele>
        <time>2022-06-13T13:31:46Z</time>
      </trkpt>
      <trkpt lat="47.78905" lon="7.02554">
        <ele>595.67</ele>
        <time>2022-06-13T13:31:47Z</time>
      </trkpt>
      <trkpt lat="47.78907" lon="7.02552">
        <ele>594.71</ele>
        <time>2022-06-13T13:31:48Z</time>
      </trkpt>
      <trkpt lat="47.78908" lon="7.0255">
        <ele>593.27</ele>
        <time>2022-06-13T13:31:49Z</time>
      </trkpt>
      <trkpt lat="47.7891" lon="7.02548">
        <ele>592.31</ele>
        <time>2022-06-13T13:31:50Z</time>
      </trkpt>
      <trkpt lat="47.78914" lon="7.02543">
        <ele>590.87</ele>
        <time>2022-06-13T13:31:51Z</time>
      </trkpt>
      <trkpt lat="47.78917" lon="7.0254">
        <ele>589.43</ele>
        <time>2022-06-13T13:31:52Z</time>
      </trkpt>
      <trkpt lat="47.78923" lon="7.02538">
        <ele>588.95</ele>
        <time>2022-06-13T13:31:53Z</time>
      </trkpt>
      <trkpt lat="47.78929" lon="7.0254">
        <ele>588.46</ele>
        <time>2022-06-13T13:31:54Z</time>
      </trkpt>
      <trkpt lat="47.78935" lon="7.02542">
        <ele>587.98</ele>
        <time>2022-06-13T13:31:55Z</time>
      </trkpt>
      <trkpt lat="47.7894" lon="7.02544">
        <ele>587.02</ele>
        <time>2022-06-13T13:31:56Z</time>
      </trkpt>
      <trkpt lat="47.78964" lon="7.0256">
        <ele>586.06</ele>
        <time>2022-06-13T13:32:00Z</time>
      </trkpt>
      <trkpt lat="47.78978" lon="7.02592">
        <ele>584.62</ele>
        <time>2022-06-13T13:32:05Z</time>
      </trkpt>
      <trkpt lat="47.78981" lon="7.026">
        <ele>584.14</ele>
        <time>2022-06-13T13:32:06Z</time>
      </trkpt>
      <trkpt lat="47.78989" lon="7.02617">
        <ele>583.18</ele>
        <time>2022-06-13T13:32:08Z</time>
      </trkpt>
      <trkpt lat="47.78994" lon="7.02624">
        <ele>582.7</ele>
        <time>2022-06-13T13:32:09Z</time>
      </trkpt>
      <trkpt lat="47.79003" lon="7.02637">
        <ele>581.73</ele>
        <time>2022-06-13T13:32:11Z</time>
      </trkpt>
      <trkpt lat="47.79008" lon="7.02643">
        <ele>580.77</ele>
        <time>2022-06-13T13:32:12Z</time>
      </trkpt>
      <trkpt lat="47.7901" lon="7.02649">
        <ele>579.81</ele>
        <time>2022-06-13T13:32:13Z</time>
      </trkpt>
      <trkpt lat="47.79013" lon="7.02655">
        <ele>579.33</ele>
        <time>2022-06-13T13:32:14Z</time>
      </trkpt>
      <trkpt lat="47.79014" lon="7.02661">
        <ele>578.37</ele>
        <time>2022-06-13T13:32:15Z</time>
      </trkpt>
      <trkpt lat="47.79017" lon="7.0267">
        <ele>577.89</ele>
        <time>2022-06-13T13:32:17Z</time>
      </trkpt>
      <trkpt lat="47.7903" lon="7.02689">
        <ele>575.01</ele>
        <time>2022-06-13T13:32:23Z</time>
      </trkpt>
      <trkpt lat="47.79032" lon="7.0269">
        <ele>574.53</ele>
        <time>2022-06-13T13:32:24Z</time>
      </trkpt>
      <trkpt lat="47.79041" lon="7.02682">
        <ele>573.08</ele>
        <time>2022-06-13T13:32:28Z</time>
      </trkpt>
      <trkpt lat="47.79051" lon="7.02675">
        <ele>571.16</ele>
        <time>2022-06-13T13:32:30Z</time>
      </trkpt>
      <trkpt lat="47.79062" lon="7.0267">
        <ele>569.72</ele>
        <time>2022-06-13T13:32:32Z</time>
      </trkpt>
      <trkpt lat="47.79068" lon="7.0267">
        <ele>569.72</ele>
        <time>2022-06-13T13:32:33Z</time>
      </trkpt>
      <trkpt lat="47.79074" lon="7.02671">
        <ele>569.24</ele>
        <time>2022-06-13T13:32:34Z</time>
      </trkpt>
      <trkpt lat="47.79079" lon="7.02673">
        <ele>569.24</ele>
        <time>2022-06-13T13:32:35Z</time>
      </trkpt>
      <trkpt lat="47.79084" lon="7.02676">
        <ele>568.76</ele>
        <time>2022-06-13T13:32:36Z</time>
      </trkpt>
      <trkpt lat="47.791" lon="7.02685">
        <ele>567.32</ele>
        <time>2022-06-13T13:32:40Z</time>
      </trkpt>
      <trkpt lat="47.79104" lon="7.02686">
        <ele>566.83</ele>
        <time>2022-06-13T13:32:41Z</time>
      </trkpt>
      <trkpt lat="47.79123" lon="7.02703">
        <ele>563.95</ele>
        <time>2022-06-13T13:32:46Z</time>
      </trkpt>
      <trkpt lat="47.79127" lon="7.02707">
        <ele>563.95</ele>
        <time>2022-06-13T13:32:47Z</time>
      </trkpt>
      <trkpt lat="47.7913" lon="7.02713">
        <ele>563.47</ele>
        <time>2022-06-13T13:32:48Z</time>
      </trkpt>
      <trkpt lat="47.79132" lon="7.02719">
        <ele>563.47</ele>
        <time>2022-06-13T13:32:49Z</time>
      </trkpt>
      <trkpt lat="47.7915" lon="7.02768">
        <ele>562.51</ele>
        <time>2022-06-13T13:32:59Z</time>
      </trkpt>
      <trkpt lat="47.79153" lon="7.02772">
        <ele>562.03</ele>
        <time>2022-06-13T13:33:00Z</time>
      </trkpt>
      <trkpt lat="47.79156" lon="7.02775">
        <ele>561.55</ele>
        <time>2022-06-13T13:33:01Z</time>
      </trkpt>
      <trkpt lat="47.7916" lon="7.02778">
        <ele>561.07</ele>
        <time>2022-06-13T13:33:02Z</time>
      </trkpt>
      <trkpt lat="47.79164" lon="7.0278">
        <ele>561.07</ele>
        <time>2022-06-13T13:33:03Z</time>
      </trkpt>
      <trkpt lat="47.79167" lon="7.02781">
        <ele>560.11</ele>
        <time>2022-06-13T13:33:04Z</time>
      </trkpt>
      <trkpt lat="47.79185" lon="7.02784">
        <ele>557.22</ele>
        <time>2022-06-13T13:33:09Z</time>
      </trkpt>
      <trkpt lat="47.79189" lon="7.02785">
        <ele>556.26</ele>
        <time>2022-06-13T13:33:10Z</time>
      </trkpt>
      <trkpt lat="47.79192" lon="7.02788">
        <ele>555.78</ele>
        <time>2022-06-13T13:33:11Z</time>
      </trkpt>
      <trkpt lat="47.79194" lon="7.02793">
        <ele>555.3</ele>
        <time>2022-06-13T13:33:12Z</time>
      </trkpt>
      <trkpt lat="47.79196" lon="7.02798">
        <ele>555.3</ele>
        <time>2022-06-13T13:33:13Z</time>
      </trkpt>
      <trkpt lat="47.79198" lon="7.02803">
        <ele>554.82</ele>
        <time>2022-06-13T13:33:14Z</time>
      </trkpt>
      <trkpt lat="47.79218" lon="7.02848">
        <ele>552.9</ele>
        <time>2022-06-13T13:33:25Z</time>
      </trkpt>
      <trkpt lat="47.7924" lon="7.02874">
        <ele>549.53</ele>
        <time>2022-06-13T13:33:33Z</time>
      </trkpt>
      <trkpt lat="47.7926" lon="7.02908">
        <ele>546.17</ele>
        <time>2022-06-13T13:33:39Z</time>
      </trkpt>
      <trkpt lat="47.79263" lon="7.02912">
        <ele>545.69</ele>
        <time>2022-06-13T13:33:40Z</time>
      </trkpt>
      <trkpt lat="47.79267" lon="7.02916">
        <ele>544.72</ele>
        <time>2022-06-13T13:33:41Z</time>
      </trkpt>
      <trkpt lat="47.79272" lon="7.02919">
        <ele>544.24</ele>
        <time>2022-06-13T13:33:42Z</time>
      </trkpt>
      <trkpt lat="47.79278" lon="7.0292">
        <ele>543.28</ele>
        <time>2022-06-13T13:33:43Z</time>
      </trkpt>
      <trkpt lat="47.79285" lon="7.0292">
        <ele>542.32</ele>
        <time>2022-06-13T13:33:44Z</time>
      </trkpt>
      <trkpt lat="47.79298" lon="7.02919">
        <ele>539.92</ele>
        <time>2022-06-13T13:33:46Z</time>
      </trkpt>
      <trkpt lat="47.79305" lon="7.02917">
        <ele>539.44</ele>
        <time>2022-06-13T13:33:47Z</time>
      </trkpt>
      <trkpt lat="47.79318" lon="7.02914">
        <ele>537.99</ele>
        <time>2022-06-13T13:33:49Z</time>
      </trkpt>
      <trkpt lat="47.79324" lon="7.02915">
        <ele>537.51</ele>
        <time>2022-06-13T13:33:50Z</time>
      </trkpt>
      <trkpt lat="47.79328" lon="7.02916">
        <ele>537.03</ele>
        <time>2022-06-13T13:33:51Z</time>
      </trkpt>
      <trkpt lat="47.79363" lon="7.02926">
        <ele>534.15</ele>
        <time>2022-06-13T13:34:00Z</time>
      </trkpt>
      <trkpt lat="47.79386" lon="7.0291">
        <ele>535.11</ele>
        <time>2022-06-13T13:34:06Z</time>
      </trkpt>
      <trkpt lat="47.79391" lon="7.02907">
        <ele>535.11</ele>
        <time>2022-06-13T13:34:07Z</time>
      </trkpt>
      <trkpt lat="47.79395" lon="7.02906">
        <ele>535.59</ele>
        <time>2022-06-13T13:34:08Z</time>
      </trkpt>
      <trkpt lat="47.79399" lon="7.02907">
        <ele>535.59</ele>
        <time>2022-06-13T13:34:09Z</time>
      </trkpt>
      <trkpt lat="47.79403" lon="7.02909">
        <ele>536.07</ele>
        <time>2022-06-13T13:34:10Z</time>
      </trkpt>
      <trkpt lat="47.79407" lon="7.02912">
        <ele>536.07</ele>
        <time>2022-06-13T13:34:11Z</time>
      </trkpt>
      <trkpt lat="47.79409" lon="7.02917">
        <ele>536.55</ele>
        <time>2022-06-13T13:34:12Z</time>
      </trkpt>
      <trkpt lat="47.79411" lon="7.02921">
        <ele>536.55</ele>
        <time>2022-06-13T13:34:13Z</time>
      </trkpt>
      <trkpt lat="47.79413" lon="7.02926">
        <ele>537.03</ele>
        <time>2022-06-13T13:34:14Z</time>
      </trkpt>
      <trkpt lat="47.79414" lon="7.02932">
        <ele>537.51</ele>
        <time>2022-06-13T13:34:15Z</time>
      </trkpt>
      <trkpt lat="47.79422" lon="7.02959">
        <ele>538.48</ele>
        <time>2022-06-13T13:34:20Z</time>
      </trkpt>
      <trkpt lat="47.79423" lon="7.02971">
        <ele>539.44</ele>
        <time>2022-06-13T13:34:22Z</time>
      </trkpt>
      <trkpt lat="47.79422" lon="7.02977">
        <ele>539.44</ele>
        <time>2022-06-13T13:34:23Z</time>
      </trkpt>
      <trkpt lat="47.79421" lon="7.02982">
        <ele>539.92</ele>
        <time>2022-06-13T13:34:24Z</time>
      </trkpt>
      <trkpt lat="47.79415" lon="7.03012">
        <ele>542.32</ele>
        <time>2022-06-13T13:34:32Z</time>
      </trkpt>
      <trkpt lat="47.79414" lon="7.03013">
        <ele>542.32</ele>
        <time>2022-06-13T13:34:33Z</time>
      </trkpt>
      <trkpt lat="47.79411" lon="7.03013">
        <ele>541.84</ele>
        <time>2022-06-13T13:34:45Z</time>
      </trkpt>
      <trkpt lat="47.79409" lon="7.03013">
        <ele>541.84</ele>
        <time>2022-06-13T13:35:01Z</time>
      </trkpt>
    </trkseg>
  </trk>
</gpx>